<?xml version="1.0" encoding="UTF-8"?>
<gpx xmlns="http://www.topografix.com/GPX/1/1"
     creator="GpsDump 4.92"
     version="1.1"
     xmlns:xsi="http://www.w3.org/2001/XMLSchema-instance"
     xsi:schemaLocation="http://www.topografix.com/GPX/1/1 http://www.topografix.com/GPX/1/1/gpx.xsd">
  <metadata>
    <link href="http://www.gethome.no/stein.sorensen/">
      <text>GPS dump for www.flightlog.org</text>
    </link>
    <time>2017-06-23T22:55:25Z</time>
    <bounds minlat="41.818001" minlon="-4.514850" maxlat="42.626565" maxlon="-3.560583"/>
  </metadata>
  <trk>
    <name>Track 001</name>
    <trkseg>
      <trkpt lat="41.818001" lon="-4.513233">
        <ele>877.0</ele>
        <time>2017-06-23T12:29:32Z</time>
      </trkpt>
      <trkpt lat="41.818079" lon="-4.513250">
        <ele>884.0</ele>
        <time>2017-06-23T12:29:34Z</time>
      </trkpt>
      <trkpt lat="41.818264" lon="-4.513333">
        <ele>885.0</ele>
        <time>2017-06-23T12:29:37Z</time>
      </trkpt>
      <trkpt lat="41.818349" lon="-4.513500">
        <ele>890.0</ele>
        <time>2017-06-23T12:29:40Z</time>
      </trkpt>
      <trkpt lat="41.818417" lon="-4.513617">
        <ele>891.0</ele>
        <time>2017-06-23T12:29:43Z</time>
      </trkpt>
      <trkpt lat="41.818397" lon="-4.513767">
        <ele>897.0</ele>
        <time>2017-06-23T12:29:46Z</time>
      </trkpt>
      <trkpt lat="41.818383" lon="-4.513867">
        <ele>905.0</ele>
        <time>2017-06-23T12:29:49Z</time>
      </trkpt>
      <trkpt lat="41.818318" lon="-4.513917">
        <ele>907.0</ele>
        <time>2017-06-23T12:29:52Z</time>
      </trkpt>
      <trkpt lat="41.818216" lon="-4.514017">
        <ele>908.0</ele>
        <time>2017-06-23T12:29:55Z</time>
      </trkpt>
      <trkpt lat="41.818185" lon="-4.514233">
        <ele>916.0</ele>
        <time>2017-06-23T12:29:58Z</time>
      </trkpt>
      <trkpt lat="41.818284" lon="-4.514417">
        <ele>919.0</ele>
        <time>2017-06-23T12:30:02Z</time>
      </trkpt>
      <trkpt lat="41.818349" lon="-4.514550">
        <ele>925.0</ele>
        <time>2017-06-23T12:30:05Z</time>
      </trkpt>
      <trkpt lat="41.818431" lon="-4.514700">
        <ele>930.0</ele>
        <time>2017-06-23T12:30:08Z</time>
      </trkpt>
      <trkpt lat="41.818499" lon="-4.514783">
        <ele>929.0</ele>
        <time>2017-06-23T12:30:11Z</time>
      </trkpt>
      <trkpt lat="41.818448" lon="-4.514850">
        <ele>927.0</ele>
        <time>2017-06-23T12:30:14Z</time>
      </trkpt>
      <trkpt lat="41.818366" lon="-4.514700">
        <ele>925.0</ele>
        <time>2017-06-23T12:30:17Z</time>
      </trkpt>
      <trkpt lat="41.818366" lon="-4.514417">
        <ele>920.0</ele>
        <time>2017-06-23T12:30:20Z</time>
      </trkpt>
      <trkpt lat="41.818366" lon="-4.514100">
        <ele>917.0</ele>
        <time>2017-06-23T12:30:23Z</time>
      </trkpt>
      <trkpt lat="41.818264" lon="-4.514017">
        <ele>912.0</ele>
        <time>2017-06-23T12:30:26Z</time>
      </trkpt>
      <trkpt lat="41.818318" lon="-4.514200">
        <ele>907.0</ele>
        <time>2017-06-23T12:30:29Z</time>
      </trkpt>
      <trkpt lat="41.818632" lon="-4.514317">
        <ele>904.0</ele>
        <time>2017-06-23T12:30:32Z</time>
      </trkpt>
      <trkpt lat="41.818967" lon="-4.514283">
        <ele>906.0</ele>
        <time>2017-06-23T12:30:35Z</time>
      </trkpt>
      <trkpt lat="41.819182" lon="-4.514417">
        <ele>912.0</ele>
        <time>2017-06-23T12:30:38Z</time>
      </trkpt>
      <trkpt lat="41.819281" lon="-4.514583">
        <ele>917.0</ele>
        <time>2017-06-23T12:30:41Z</time>
      </trkpt>
      <trkpt lat="41.819213" lon="-4.514616">
        <ele>922.0</ele>
        <time>2017-06-23T12:30:44Z</time>
      </trkpt>
      <trkpt lat="41.819182" lon="-4.514400">
        <ele>921.0</ele>
        <time>2017-06-23T12:30:47Z</time>
      </trkpt>
      <trkpt lat="41.819247" lon="-4.514033">
        <ele>921.0</ele>
        <time>2017-06-23T12:30:50Z</time>
      </trkpt>
      <trkpt lat="41.819565" lon="-4.513833">
        <ele>921.0</ele>
        <time>2017-06-23T12:30:53Z</time>
      </trkpt>
      <trkpt lat="41.819899" lon="-4.513817">
        <ele>921.0</ele>
        <time>2017-06-23T12:30:56Z</time>
      </trkpt>
      <trkpt lat="41.820063" lon="-4.514066">
        <ele>920.0</ele>
        <time>2017-06-23T12:31:00Z</time>
      </trkpt>
      <trkpt lat="41.820015" lon="-4.514167">
        <ele>920.0</ele>
        <time>2017-06-23T12:31:03Z</time>
      </trkpt>
      <trkpt lat="41.819930" lon="-4.514200">
        <ele>919.0</ele>
        <time>2017-06-23T12:31:06Z</time>
      </trkpt>
      <trkpt lat="41.819882" lon="-4.514200">
        <ele>918.0</ele>
        <time>2017-06-23T12:31:09Z</time>
      </trkpt>
      <trkpt lat="41.819797" lon="-4.514167">
        <ele>914.0</ele>
        <time>2017-06-23T12:31:12Z</time>
      </trkpt>
      <trkpt lat="41.819732" lon="-4.514183">
        <ele>914.0</ele>
        <time>2017-06-23T12:31:15Z</time>
      </trkpt>
      <trkpt lat="41.819664" lon="-4.514183">
        <ele>911.0</ele>
        <time>2017-06-23T12:31:18Z</time>
      </trkpt>
      <trkpt lat="41.819585" lon="-4.514200">
        <ele>911.0</ele>
        <time>2017-06-23T12:31:21Z</time>
      </trkpt>
      <trkpt lat="41.819513" lon="-4.514200">
        <ele>910.0</ele>
        <time>2017-06-23T12:31:24Z</time>
      </trkpt>
      <trkpt lat="41.819431" lon="-4.514150">
        <ele>912.0</ele>
        <time>2017-06-23T12:31:27Z</time>
      </trkpt>
      <trkpt lat="41.819346" lon="-4.514133">
        <ele>915.0</ele>
        <time>2017-06-23T12:31:30Z</time>
      </trkpt>
      <trkpt lat="41.819281" lon="-4.514133">
        <ele>916.0</ele>
        <time>2017-06-23T12:31:33Z</time>
      </trkpt>
      <trkpt lat="41.819199" lon="-4.514167">
        <ele>919.0</ele>
        <time>2017-06-23T12:31:36Z</time>
      </trkpt>
      <trkpt lat="41.819100" lon="-4.514150">
        <ele>924.0</ele>
        <time>2017-06-23T12:31:40Z</time>
      </trkpt>
      <trkpt lat="41.819015" lon="-4.514150">
        <ele>935.0</ele>
        <time>2017-06-23T12:31:43Z</time>
      </trkpt>
      <trkpt lat="41.818916" lon="-4.514050">
        <ele>947.0</ele>
        <time>2017-06-23T12:31:46Z</time>
      </trkpt>
      <trkpt lat="41.818817" lon="-4.514084">
        <ele>958.0</ele>
        <time>2017-06-23T12:31:49Z</time>
      </trkpt>
      <trkpt lat="41.819049" lon="-4.514167">
        <ele>966.0</ele>
        <time>2017-06-23T12:31:52Z</time>
      </trkpt>
      <trkpt lat="41.819315" lon="-4.513700">
        <ele>976.0</ele>
        <time>2017-06-23T12:31:55Z</time>
      </trkpt>
      <trkpt lat="41.819213" lon="-4.513333">
        <ele>989.0</ele>
        <time>2017-06-23T12:31:58Z</time>
      </trkpt>
      <trkpt lat="41.819134" lon="-4.513100">
        <ele>1001.0</ele>
        <time>2017-06-23T12:32:01Z</time>
      </trkpt>
      <trkpt lat="41.819083" lon="-4.512966">
        <ele>1009.0</ele>
        <time>2017-06-23T12:32:04Z</time>
      </trkpt>
      <trkpt lat="41.819199" lon="-4.513033">
        <ele>1011.0</ele>
        <time>2017-06-23T12:32:07Z</time>
      </trkpt>
      <trkpt lat="41.819585" lon="-4.512966">
        <ele>1020.0</ele>
        <time>2017-06-23T12:32:10Z</time>
      </trkpt>
      <trkpt lat="41.819899" lon="-4.512617">
        <ele>1028.0</ele>
        <time>2017-06-23T12:32:13Z</time>
      </trkpt>
      <trkpt lat="41.820084" lon="-4.512100">
        <ele>1036.0</ele>
        <time>2017-06-23T12:32:16Z</time>
      </trkpt>
      <trkpt lat="41.819964" lon="-4.511700">
        <ele>1046.0</ele>
        <time>2017-06-23T12:32:19Z</time>
      </trkpt>
      <trkpt lat="41.820015" lon="-4.511400">
        <ele>1059.0</ele>
        <time>2017-06-23T12:32:23Z</time>
      </trkpt>
      <trkpt lat="41.819951" lon="-4.511267">
        <ele>1062.0</ele>
        <time>2017-06-23T12:32:26Z</time>
      </trkpt>
      <trkpt lat="41.819930" lon="-4.511367">
        <ele>1066.0</ele>
        <time>2017-06-23T12:32:29Z</time>
      </trkpt>
      <trkpt lat="41.819882" lon="-4.511400">
        <ele>1071.0</ele>
        <time>2017-06-23T12:32:32Z</time>
      </trkpt>
      <trkpt lat="41.819882" lon="-4.511500">
        <ele>1066.0</ele>
        <time>2017-06-23T12:32:35Z</time>
      </trkpt>
      <trkpt lat="41.819848" lon="-4.511533">
        <ele>1069.0</ele>
        <time>2017-06-23T12:32:38Z</time>
      </trkpt>
      <trkpt lat="41.819817" lon="-4.511567">
        <ele>1070.0</ele>
        <time>2017-06-23T12:32:41Z</time>
      </trkpt>
      <trkpt lat="41.819783" lon="-4.511600">
        <ele>1075.0</ele>
        <time>2017-06-23T12:32:44Z</time>
      </trkpt>
      <trkpt lat="41.819766" lon="-4.511617">
        <ele>1078.0</ele>
        <time>2017-06-23T12:32:47Z</time>
      </trkpt>
      <trkpt lat="41.819732" lon="-4.511650">
        <ele>1084.0</ele>
        <time>2017-06-23T12:32:50Z</time>
      </trkpt>
      <trkpt lat="41.819749" lon="-4.511684">
        <ele>1090.0</ele>
        <time>2017-06-23T12:32:53Z</time>
      </trkpt>
      <trkpt lat="41.819749" lon="-4.511684">
        <ele>1096.0</ele>
        <time>2017-06-23T12:32:56Z</time>
      </trkpt>
      <trkpt lat="41.819848" lon="-4.511717">
        <ele>1100.0</ele>
        <time>2017-06-23T12:32:59Z</time>
      </trkpt>
      <trkpt lat="41.820196" lon="-4.511583">
        <ele>1104.0</ele>
        <time>2017-06-23T12:33:02Z</time>
      </trkpt>
      <trkpt lat="41.820466" lon="-4.510867">
        <ele>1110.0</ele>
        <time>2017-06-23T12:33:06Z</time>
      </trkpt>
      <trkpt lat="41.820466" lon="-4.510433">
        <ele>1116.0</ele>
        <time>2017-06-23T12:33:09Z</time>
      </trkpt>
      <trkpt lat="41.820367" lon="-4.510083">
        <ele>1122.0</ele>
        <time>2017-06-23T12:33:12Z</time>
      </trkpt>
      <trkpt lat="41.820282" lon="-4.509967">
        <ele>1127.0</ele>
        <time>2017-06-23T12:33:15Z</time>
      </trkpt>
      <trkpt lat="41.820265" lon="-4.510017">
        <ele>1128.0</ele>
        <time>2017-06-23T12:33:18Z</time>
      </trkpt>
      <trkpt lat="41.820248" lon="-4.510050">
        <ele>1131.0</ele>
        <time>2017-06-23T12:33:21Z</time>
      </trkpt>
      <trkpt lat="41.820183" lon="-4.510083">
        <ele>1132.0</ele>
        <time>2017-06-23T12:33:24Z</time>
      </trkpt>
      <trkpt lat="41.820132" lon="-4.510133">
        <ele>1131.0</ele>
        <time>2017-06-23T12:33:27Z</time>
      </trkpt>
      <trkpt lat="41.820114" lon="-4.510166">
        <ele>1134.0</ele>
        <time>2017-06-23T12:33:30Z</time>
      </trkpt>
      <trkpt lat="41.820132" lon="-4.510200">
        <ele>1135.0</ele>
        <time>2017-06-23T12:33:33Z</time>
      </trkpt>
      <trkpt lat="41.820114" lon="-4.510200">
        <ele>1134.0</ele>
        <time>2017-06-23T12:33:36Z</time>
      </trkpt>
      <trkpt lat="41.820097" lon="-4.510166">
        <ele>1125.0</ele>
        <time>2017-06-23T12:33:39Z</time>
      </trkpt>
      <trkpt lat="41.820033" lon="-4.510200">
        <ele>1117.0</ele>
        <time>2017-06-23T12:33:42Z</time>
      </trkpt>
      <trkpt lat="41.819964" lon="-4.510217">
        <ele>1117.0</ele>
        <time>2017-06-23T12:33:45Z</time>
      </trkpt>
      <trkpt lat="41.820050" lon="-4.510250">
        <ele>1113.0</ele>
        <time>2017-06-23T12:33:49Z</time>
      </trkpt>
      <trkpt lat="41.820217" lon="-4.510300">
        <ele>1112.0</ele>
        <time>2017-06-23T12:33:52Z</time>
      </trkpt>
      <trkpt lat="41.820401" lon="-4.510350">
        <ele>1108.0</ele>
        <time>2017-06-23T12:33:55Z</time>
      </trkpt>
      <trkpt lat="41.820698" lon="-4.510366">
        <ele>1106.0</ele>
        <time>2017-06-23T12:33:58Z</time>
      </trkpt>
      <trkpt lat="41.821033" lon="-4.510350">
        <ele>1102.0</ele>
        <time>2017-06-23T12:34:01Z</time>
      </trkpt>
      <trkpt lat="41.821433" lon="-4.510166">
        <ele>1108.0</ele>
        <time>2017-06-23T12:34:04Z</time>
      </trkpt>
      <trkpt lat="41.821802" lon="-4.509983">
        <ele>1117.0</ele>
        <time>2017-06-23T12:34:07Z</time>
      </trkpt>
      <trkpt lat="41.822201" lon="-4.509783">
        <ele>1127.0</ele>
        <time>2017-06-23T12:34:10Z</time>
      </trkpt>
      <trkpt lat="41.822546" lon="-4.509550">
        <ele>1142.0</ele>
        <time>2017-06-23T12:34:13Z</time>
      </trkpt>
      <trkpt lat="41.822884" lon="-4.509284">
        <ele>1148.0</ele>
        <time>2017-06-23T12:34:16Z</time>
      </trkpt>
      <trkpt lat="41.823181" lon="-4.508800">
        <ele>1156.0</ele>
        <time>2017-06-23T12:34:19Z</time>
      </trkpt>
      <trkpt lat="41.823250" lon="-4.508234">
        <ele>1164.0</ele>
        <time>2017-06-23T12:34:22Z</time>
      </trkpt>
      <trkpt lat="41.823181" lon="-4.507750">
        <ele>1172.0</ele>
        <time>2017-06-23T12:34:25Z</time>
      </trkpt>
      <trkpt lat="41.823031" lon="-4.507383">
        <ele>1185.0</ele>
        <time>2017-06-23T12:34:29Z</time>
      </trkpt>
      <trkpt lat="41.822983" lon="-4.507367">
        <ele>1192.0</ele>
        <time>2017-06-23T12:34:32Z</time>
      </trkpt>
      <trkpt lat="41.823130" lon="-4.507483">
        <ele>1203.0</ele>
        <time>2017-06-23T12:34:35Z</time>
      </trkpt>
      <trkpt lat="41.823434" lon="-4.507417">
        <ele>1210.0</ele>
        <time>2017-06-23T12:34:38Z</time>
      </trkpt>
      <trkpt lat="41.823666" lon="-4.506983">
        <ele>1215.0</ele>
        <time>2017-06-23T12:34:41Z</time>
      </trkpt>
      <trkpt lat="41.823731" lon="-4.506400">
        <ele>1224.0</ele>
        <time>2017-06-23T12:34:44Z</time>
      </trkpt>
      <trkpt lat="41.823700" lon="-4.505933">
        <ele>1238.0</ele>
        <time>2017-06-23T12:34:47Z</time>
      </trkpt>
      <trkpt lat="41.823666" lon="-4.505683">
        <ele>1249.0</ele>
        <time>2017-06-23T12:34:50Z</time>
      </trkpt>
      <trkpt lat="41.823680" lon="-4.505750">
        <ele>1252.0</ele>
        <time>2017-06-23T12:34:53Z</time>
      </trkpt>
      <trkpt lat="41.823898" lon="-4.505833">
        <ele>1268.0</ele>
        <time>2017-06-23T12:34:56Z</time>
      </trkpt>
      <trkpt lat="41.824182" lon="-4.505667">
        <ele>1273.0</ele>
        <time>2017-06-23T12:34:59Z</time>
      </trkpt>
      <trkpt lat="41.824397" lon="-4.505166">
        <ele>1280.0</ele>
        <time>2017-06-23T12:35:02Z</time>
      </trkpt>
      <trkpt lat="41.824482" lon="-4.504667">
        <ele>1287.0</ele>
        <time>2017-06-23T12:35:05Z</time>
      </trkpt>
      <trkpt lat="41.824417" lon="-4.504450">
        <ele>1292.0</ele>
        <time>2017-06-23T12:35:08Z</time>
      </trkpt>
      <trkpt lat="41.824397" lon="-4.504500">
        <ele>1294.0</ele>
        <time>2017-06-23T12:35:12Z</time>
      </trkpt>
      <trkpt lat="41.824650" lon="-4.504617">
        <ele>1303.0</ele>
        <time>2017-06-23T12:35:15Z</time>
      </trkpt>
      <trkpt lat="41.824933" lon="-4.504450">
        <ele>1312.0</ele>
        <time>2017-06-23T12:35:18Z</time>
      </trkpt>
      <trkpt lat="41.825234" lon="-4.504083">
        <ele>1319.0</ele>
        <time>2017-06-23T12:35:21Z</time>
      </trkpt>
      <trkpt lat="41.825480" lon="-4.503600">
        <ele>1332.0</ele>
        <time>2017-06-23T12:35:24Z</time>
      </trkpt>
      <trkpt lat="41.825698" lon="-4.503116">
        <ele>1337.0</ele>
        <time>2017-06-23T12:35:27Z</time>
      </trkpt>
      <trkpt lat="41.825982" lon="-4.502634">
        <ele>1345.0</ele>
        <time>2017-06-23T12:35:30Z</time>
      </trkpt>
      <trkpt lat="41.826050" lon="-4.502250">
        <ele>1350.0</ele>
        <time>2017-06-23T12:35:33Z</time>
      </trkpt>
      <trkpt lat="41.826029" lon="-4.501817">
        <ele>1353.0</ele>
        <time>2017-06-23T12:35:36Z</time>
      </trkpt>
      <trkpt lat="41.825930" lon="-4.501667">
        <ele>1357.0</ele>
        <time>2017-06-23T12:35:39Z</time>
      </trkpt>
      <trkpt lat="41.825848" lon="-4.501683">
        <ele>1361.0</ele>
        <time>2017-06-23T12:35:42Z</time>
      </trkpt>
      <trkpt lat="41.825831" lon="-4.501650">
        <ele>1362.0</ele>
        <time>2017-06-23T12:35:45Z</time>
      </trkpt>
      <trkpt lat="41.825883" lon="-4.501717">
        <ele>1363.0</ele>
        <time>2017-06-23T12:35:48Z</time>
      </trkpt>
      <trkpt lat="41.826268" lon="-4.501700">
        <ele>1368.0</ele>
        <time>2017-06-23T12:35:52Z</time>
      </trkpt>
      <trkpt lat="41.826549" lon="-4.501650">
        <ele>1382.0</ele>
        <time>2017-06-23T12:35:55Z</time>
      </trkpt>
      <trkpt lat="41.826815" lon="-4.501383">
        <ele>1391.0</ele>
        <time>2017-06-23T12:35:58Z</time>
      </trkpt>
      <trkpt lat="41.826999" lon="-4.500950">
        <ele>1399.0</ele>
        <time>2017-06-23T12:36:01Z</time>
      </trkpt>
      <trkpt lat="41.827013" lon="-4.500483">
        <ele>1402.0</ele>
        <time>2017-06-23T12:36:04Z</time>
      </trkpt>
      <trkpt lat="41.826866" lon="-4.500117">
        <ele>1408.0</ele>
        <time>2017-06-23T12:36:07Z</time>
      </trkpt>
      <trkpt lat="41.826733" lon="-4.499833">
        <ele>1415.0</ele>
        <time>2017-06-23T12:36:10Z</time>
      </trkpt>
      <trkpt lat="41.826648" lon="-4.499683">
        <ele>1419.0</ele>
        <time>2017-06-23T12:36:13Z</time>
      </trkpt>
      <trkpt lat="41.826648" lon="-4.499799">
        <ele>1423.0</ele>
        <time>2017-06-23T12:36:16Z</time>
      </trkpt>
      <trkpt lat="41.826747" lon="-4.499916">
        <ele>1427.0</ele>
        <time>2017-06-23T12:36:19Z</time>
      </trkpt>
      <trkpt lat="41.826880" lon="-4.500017">
        <ele>1421.0</ele>
        <time>2017-06-23T12:36:22Z</time>
      </trkpt>
      <trkpt lat="41.827150" lon="-4.500133">
        <ele>1420.0</ele>
        <time>2017-06-23T12:36:25Z</time>
      </trkpt>
      <trkpt lat="41.827484" lon="-4.500150">
        <ele>1424.0</ele>
        <time>2017-06-23T12:36:28Z</time>
      </trkpt>
      <trkpt lat="41.827816" lon="-4.500167">
        <ele>1432.0</ele>
        <time>2017-06-23T12:36:31Z</time>
      </trkpt>
      <trkpt lat="41.828099" lon="-4.500300">
        <ele>1443.0</ele>
        <time>2017-06-23T12:36:35Z</time>
      </trkpt>
      <trkpt lat="41.828266" lon="-4.500433">
        <ele>1449.0</ele>
        <time>2017-06-23T12:36:38Z</time>
      </trkpt>
      <trkpt lat="41.828280" lon="-4.500517">
        <ele>1457.0</ele>
        <time>2017-06-23T12:36:41Z</time>
      </trkpt>
      <trkpt lat="41.828232" lon="-4.500433">
        <ele>1458.0</ele>
        <time>2017-06-23T12:36:44Z</time>
      </trkpt>
      <trkpt lat="41.828249" lon="-4.500017">
        <ele>1460.0</ele>
        <time>2017-06-23T12:36:47Z</time>
      </trkpt>
      <trkpt lat="41.828447" lon="-4.499617">
        <ele>1466.0</ele>
        <time>2017-06-23T12:36:50Z</time>
      </trkpt>
      <trkpt lat="41.828598" lon="-4.499200">
        <ele>1474.0</ele>
        <time>2017-06-23T12:36:53Z</time>
      </trkpt>
      <trkpt lat="41.828864" lon="-4.498833">
        <ele>1487.0</ele>
        <time>2017-06-23T12:36:56Z</time>
      </trkpt>
      <trkpt lat="41.829165" lon="-4.498517">
        <ele>1499.0</ele>
        <time>2017-06-23T12:36:59Z</time>
      </trkpt>
      <trkpt lat="41.829465" lon="-4.498466">
        <ele>1508.0</ele>
        <time>2017-06-23T12:37:02Z</time>
      </trkpt>
      <trkpt lat="41.829701" lon="-4.498483">
        <ele>1514.0</ele>
        <time>2017-06-23T12:37:05Z</time>
      </trkpt>
      <trkpt lat="41.829882" lon="-4.498550">
        <ele>1520.0</ele>
        <time>2017-06-23T12:37:08Z</time>
      </trkpt>
      <trkpt lat="41.829912" lon="-4.498583">
        <ele>1526.0</ele>
        <time>2017-06-23T12:37:11Z</time>
      </trkpt>
      <trkpt lat="41.829847" lon="-4.498333">
        <ele>1533.0</ele>
        <time>2017-06-23T12:37:14Z</time>
      </trkpt>
      <trkpt lat="41.829933" lon="-4.497750">
        <ele>1544.0</ele>
        <time>2017-06-23T12:37:18Z</time>
      </trkpt>
      <trkpt lat="41.830066" lon="-4.497316">
        <ele>1552.0</ele>
        <time>2017-06-23T12:37:21Z</time>
      </trkpt>
      <trkpt lat="41.830332" lon="-4.496916">
        <ele>1558.0</ele>
        <time>2017-06-23T12:37:24Z</time>
      </trkpt>
      <trkpt lat="41.830701" lon="-4.496783">
        <ele>1565.0</ele>
        <time>2017-06-23T12:37:27Z</time>
      </trkpt>
      <trkpt lat="41.830968" lon="-4.496850">
        <ele>1574.0</ele>
        <time>2017-06-23T12:37:30Z</time>
      </trkpt>
      <trkpt lat="41.831132" lon="-4.496933">
        <ele>1581.0</ele>
        <time>2017-06-23T12:37:33Z</time>
      </trkpt>
      <trkpt lat="41.831166" lon="-4.496966">
        <ele>1588.0</ele>
        <time>2017-06-23T12:37:36Z</time>
      </trkpt>
      <trkpt lat="41.831101" lon="-4.496866">
        <ele>1593.0</ele>
        <time>2017-06-23T12:37:39Z</time>
      </trkpt>
      <trkpt lat="41.831032" lon="-4.496667">
        <ele>1603.0</ele>
        <time>2017-06-23T12:37:42Z</time>
      </trkpt>
      <trkpt lat="41.830998" lon="-4.496350">
        <ele>1610.0</ele>
        <time>2017-06-23T12:37:45Z</time>
      </trkpt>
      <trkpt lat="41.831067" lon="-4.495983">
        <ele>1616.0</ele>
        <time>2017-06-23T12:37:48Z</time>
      </trkpt>
      <trkpt lat="41.831234" lon="-4.495533">
        <ele>1622.0</ele>
        <time>2017-06-23T12:37:51Z</time>
      </trkpt>
      <trkpt lat="41.831531" lon="-4.495133">
        <ele>1626.0</ele>
        <time>2017-06-23T12:37:54Z</time>
      </trkpt>
      <trkpt lat="41.831897" lon="-4.494966">
        <ele>1636.0</ele>
        <time>2017-06-23T12:37:57Z</time>
      </trkpt>
      <trkpt lat="41.832248" lon="-4.494966">
        <ele>1643.0</ele>
        <time>2017-06-23T12:38:01Z</time>
      </trkpt>
      <trkpt lat="41.832347" lon="-4.495100">
        <ele>1651.0</ele>
        <time>2017-06-23T12:38:04Z</time>
      </trkpt>
      <trkpt lat="41.832300" lon="-4.495100">
        <ele>1657.0</ele>
        <time>2017-06-23T12:38:07Z</time>
      </trkpt>
      <trkpt lat="41.832214" lon="-4.495067">
        <ele>1662.0</ele>
        <time>2017-06-23T12:38:10Z</time>
      </trkpt>
      <trkpt lat="41.832149" lon="-4.494900">
        <ele>1668.0</ele>
        <time>2017-06-23T12:38:13Z</time>
      </trkpt>
      <trkpt lat="41.832081" lon="-4.494667">
        <ele>1671.0</ele>
        <time>2017-06-23T12:38:16Z</time>
      </trkpt>
      <trkpt lat="41.832081" lon="-4.494267">
        <ele>1673.0</ele>
        <time>2017-06-23T12:38:19Z</time>
      </trkpt>
      <trkpt lat="41.832149" lon="-4.493800">
        <ele>1675.0</ele>
        <time>2017-06-23T12:38:22Z</time>
      </trkpt>
      <trkpt lat="41.832347" lon="-4.493283">
        <ele>1685.0</ele>
        <time>2017-06-23T12:38:25Z</time>
      </trkpt>
      <trkpt lat="41.832634" lon="-4.492916">
        <ele>1689.0</ele>
        <time>2017-06-23T12:38:28Z</time>
      </trkpt>
      <trkpt lat="41.832952" lon="-4.492650">
        <ele>1693.0</ele>
        <time>2017-06-23T12:38:31Z</time>
      </trkpt>
      <trkpt lat="41.833266" lon="-4.492617">
        <ele>1700.0</ele>
        <time>2017-06-23T12:38:34Z</time>
      </trkpt>
      <trkpt lat="41.833563" lon="-4.492716">
        <ele>1704.0</ele>
        <time>2017-06-23T12:38:38Z</time>
      </trkpt>
      <trkpt lat="41.833662" lon="-4.492850">
        <ele>1707.0</ele>
        <time>2017-06-23T12:38:41Z</time>
      </trkpt>
      <trkpt lat="41.833631" lon="-4.492933">
        <ele>1712.0</ele>
        <time>2017-06-23T12:38:44Z</time>
      </trkpt>
      <trkpt lat="41.833529" lon="-4.492967">
        <ele>1716.0</ele>
        <time>2017-06-23T12:38:47Z</time>
      </trkpt>
      <trkpt lat="41.833450" lon="-4.492850">
        <ele>1722.0</ele>
        <time>2017-06-23T12:38:50Z</time>
      </trkpt>
      <trkpt lat="41.833382" lon="-4.492633">
        <ele>1720.0</ele>
        <time>2017-06-23T12:38:53Z</time>
      </trkpt>
      <trkpt lat="41.833331" lon="-4.492217">
        <ele>1719.0</ele>
        <time>2017-06-23T12:38:56Z</time>
      </trkpt>
      <trkpt lat="41.833396" lon="-4.491716">
        <ele>1722.0</ele>
        <time>2017-06-23T12:38:59Z</time>
      </trkpt>
      <trkpt lat="41.833563" lon="-4.491233">
        <ele>1727.0</ele>
        <time>2017-06-23T12:39:02Z</time>
      </trkpt>
      <trkpt lat="41.833799" lon="-4.490817">
        <ele>1732.0</ele>
        <time>2017-06-23T12:39:05Z</time>
      </trkpt>
      <trkpt lat="41.834133" lon="-4.490517">
        <ele>1733.0</ele>
        <time>2017-06-23T12:39:08Z</time>
      </trkpt>
      <trkpt lat="41.834431" lon="-4.490483">
        <ele>1734.0</ele>
        <time>2017-06-23T12:39:11Z</time>
      </trkpt>
      <trkpt lat="41.834632" lon="-4.490633">
        <ele>1742.0</ele>
        <time>2017-06-23T12:39:14Z</time>
      </trkpt>
      <trkpt lat="41.834748" lon="-4.490717">
        <ele>1742.0</ele>
        <time>2017-06-23T12:39:17Z</time>
      </trkpt>
      <trkpt lat="41.834717" lon="-4.490899">
        <ele>1745.0</ele>
        <time>2017-06-23T12:39:21Z</time>
      </trkpt>
      <trkpt lat="41.834632" lon="-4.490866">
        <ele>1749.0</ele>
        <time>2017-06-23T12:39:24Z</time>
      </trkpt>
      <trkpt lat="41.834533" lon="-4.490850">
        <ele>1750.0</ele>
        <time>2017-06-23T12:39:27Z</time>
      </trkpt>
      <trkpt lat="41.834414" lon="-4.490666">
        <ele>1748.0</ele>
        <time>2017-06-23T12:39:30Z</time>
      </trkpt>
      <trkpt lat="41.834297" lon="-4.490450">
        <ele>1748.0</ele>
        <time>2017-06-23T12:39:33Z</time>
      </trkpt>
      <trkpt lat="41.834181" lon="-4.490200">
        <ele>1747.0</ele>
        <time>2017-06-23T12:39:36Z</time>
      </trkpt>
      <trkpt lat="41.834082" lon="-4.489949">
        <ele>1746.0</ele>
        <time>2017-06-23T12:39:39Z</time>
      </trkpt>
      <trkpt lat="41.833966" lon="-4.489716">
        <ele>1745.0</ele>
        <time>2017-06-23T12:39:42Z</time>
      </trkpt>
      <trkpt lat="41.833833" lon="-4.489483">
        <ele>1745.0</ele>
        <time>2017-06-23T12:39:45Z</time>
      </trkpt>
      <trkpt lat="41.833734" lon="-4.489166">
        <ele>1741.0</ele>
        <time>2017-06-23T12:39:48Z</time>
      </trkpt>
      <trkpt lat="41.833584" lon="-4.488883">
        <ele>1737.0</ele>
        <time>2017-06-23T12:39:51Z</time>
      </trkpt>
      <trkpt lat="41.833464" lon="-4.488600">
        <ele>1737.0</ele>
        <time>2017-06-23T12:39:54Z</time>
      </trkpt>
      <trkpt lat="41.833365" lon="-4.488300">
        <ele>1736.0</ele>
        <time>2017-06-23T12:39:57Z</time>
      </trkpt>
      <trkpt lat="41.833266" lon="-4.487950">
        <ele>1737.0</ele>
        <time>2017-06-23T12:40:00Z</time>
      </trkpt>
      <trkpt lat="41.833184" lon="-4.487433">
        <ele>1736.0</ele>
        <time>2017-06-23T12:40:04Z</time>
      </trkpt>
      <trkpt lat="41.833133" lon="-4.487017">
        <ele>1731.0</ele>
        <time>2017-06-23T12:40:07Z</time>
      </trkpt>
      <trkpt lat="41.833133" lon="-4.486550">
        <ele>1729.0</ele>
        <time>2017-06-23T12:40:10Z</time>
      </trkpt>
      <trkpt lat="41.833184" lon="-4.486066">
        <ele>1727.0</ele>
        <time>2017-06-23T12:40:13Z</time>
      </trkpt>
      <trkpt lat="41.833297" lon="-4.485616">
        <ele>1727.0</ele>
        <time>2017-06-23T12:40:16Z</time>
      </trkpt>
      <trkpt lat="41.833416" lon="-4.485150">
        <ele>1727.0</ele>
        <time>2017-06-23T12:40:19Z</time>
      </trkpt>
      <trkpt lat="41.833563" lon="-4.484700">
        <ele>1729.0</ele>
        <time>2017-06-23T12:40:22Z</time>
      </trkpt>
      <trkpt lat="41.833662" lon="-4.484250">
        <ele>1729.0</ele>
        <time>2017-06-23T12:40:25Z</time>
      </trkpt>
      <trkpt lat="41.833648" lon="-4.483933">
        <ele>1732.0</ele>
        <time>2017-06-23T12:40:28Z</time>
      </trkpt>
      <trkpt lat="41.833549" lon="-4.483750">
        <ele>1733.0</ele>
        <time>2017-06-23T12:40:31Z</time>
      </trkpt>
      <trkpt lat="41.833450" lon="-4.483733">
        <ele>1733.0</ele>
        <time>2017-06-23T12:40:34Z</time>
      </trkpt>
      <trkpt lat="41.833430" lon="-4.483850">
        <ele>1732.0</ele>
        <time>2017-06-23T12:40:37Z</time>
      </trkpt>
      <trkpt lat="41.833464" lon="-4.483983">
        <ele>1731.0</ele>
        <time>2017-06-23T12:40:40Z</time>
      </trkpt>
      <trkpt lat="41.833563" lon="-4.484150">
        <ele>1730.0</ele>
        <time>2017-06-23T12:40:43Z</time>
      </trkpt>
      <trkpt lat="41.833782" lon="-4.484383">
        <ele>1730.0</ele>
        <time>2017-06-23T12:40:47Z</time>
      </trkpt>
      <trkpt lat="41.834000" lon="-4.484467">
        <ele>1727.0</ele>
        <time>2017-06-23T12:40:50Z</time>
      </trkpt>
      <trkpt lat="41.834246" lon="-4.484500">
        <ele>1726.0</ele>
        <time>2017-06-23T12:40:53Z</time>
      </trkpt>
      <trkpt lat="41.834400" lon="-4.484616">
        <ele>1724.0</ele>
        <time>2017-06-23T12:40:56Z</time>
      </trkpt>
      <trkpt lat="41.834499" lon="-4.484750">
        <ele>1721.0</ele>
        <time>2017-06-23T12:40:59Z</time>
      </trkpt>
      <trkpt lat="41.834666" lon="-4.484850">
        <ele>1718.0</ele>
        <time>2017-06-23T12:41:02Z</time>
      </trkpt>
      <trkpt lat="41.834915" lon="-4.484933">
        <ele>1716.0</ele>
        <time>2017-06-23T12:41:05Z</time>
      </trkpt>
      <trkpt lat="41.835114" lon="-4.484983">
        <ele>1718.0</ele>
        <time>2017-06-23T12:41:08Z</time>
      </trkpt>
      <trkpt lat="41.835332" lon="-4.485033">
        <ele>1717.0</ele>
        <time>2017-06-23T12:41:11Z</time>
      </trkpt>
      <trkpt lat="41.835667" lon="-4.485000">
        <ele>1716.0</ele>
        <time>2017-06-23T12:41:14Z</time>
      </trkpt>
      <trkpt lat="41.835998" lon="-4.485000">
        <ele>1716.0</ele>
        <time>2017-06-23T12:41:17Z</time>
      </trkpt>
      <trkpt lat="41.836329" lon="-4.484900">
        <ele>1717.0</ele>
        <time>2017-06-23T12:41:20Z</time>
      </trkpt>
      <trkpt lat="41.836630" lon="-4.484817">
        <ele>1713.0</ele>
        <time>2017-06-23T12:41:23Z</time>
      </trkpt>
      <trkpt lat="41.837081" lon="-4.484483">
        <ele>1712.0</ele>
        <time>2017-06-23T12:41:27Z</time>
      </trkpt>
      <trkpt lat="41.837299" lon="-4.484050">
        <ele>1709.0</ele>
        <time>2017-06-23T12:41:30Z</time>
      </trkpt>
      <trkpt lat="41.837385" lon="-4.483550">
        <ele>1704.0</ele>
        <time>2017-06-23T12:41:33Z</time>
      </trkpt>
      <trkpt lat="41.837313" lon="-4.483133">
        <ele>1701.0</ele>
        <time>2017-06-23T12:41:36Z</time>
      </trkpt>
      <trkpt lat="41.837180" lon="-4.483066">
        <ele>1697.0</ele>
        <time>2017-06-23T12:41:39Z</time>
      </trkpt>
      <trkpt lat="41.837098" lon="-4.483100">
        <ele>1695.0</ele>
        <time>2017-06-23T12:41:42Z</time>
      </trkpt>
      <trkpt lat="41.837132" lon="-4.483200">
        <ele>1693.0</ele>
        <time>2017-06-23T12:41:45Z</time>
      </trkpt>
      <trkpt lat="41.837149" lon="-4.483317">
        <ele>1693.0</ele>
        <time>2017-06-23T12:41:48Z</time>
      </trkpt>
      <trkpt lat="41.837231" lon="-4.483416">
        <ele>1686.0</ele>
        <time>2017-06-23T12:41:51Z</time>
      </trkpt>
      <trkpt lat="41.837313" lon="-4.483583">
        <ele>1674.0</ele>
        <time>2017-06-23T12:41:54Z</time>
      </trkpt>
      <trkpt lat="41.837566" lon="-4.483733">
        <ele>1667.0</ele>
        <time>2017-06-23T12:41:57Z</time>
      </trkpt>
      <trkpt lat="41.837883" lon="-4.483816">
        <ele>1658.0</ele>
        <time>2017-06-23T12:42:00Z</time>
      </trkpt>
      <trkpt lat="41.838249" lon="-4.483833">
        <ele>1653.0</ele>
        <time>2017-06-23T12:42:03Z</time>
      </trkpt>
      <trkpt lat="41.838600" lon="-4.483783">
        <ele>1649.0</ele>
        <time>2017-06-23T12:42:06Z</time>
      </trkpt>
      <trkpt lat="41.839051" lon="-4.483750">
        <ele>1637.0</ele>
        <time>2017-06-23T12:42:10Z</time>
      </trkpt>
      <trkpt lat="41.839481" lon="-4.483616">
        <ele>1628.0</ele>
        <time>2017-06-23T12:42:13Z</time>
      </trkpt>
      <trkpt lat="41.839867" lon="-4.483367">
        <ele>1624.0</ele>
        <time>2017-06-23T12:42:16Z</time>
      </trkpt>
      <trkpt lat="41.840212" lon="-4.483150">
        <ele>1620.0</ele>
        <time>2017-06-23T12:42:19Z</time>
      </trkpt>
      <trkpt lat="41.840598" lon="-4.482917">
        <ele>1612.0</ele>
        <time>2017-06-23T12:42:22Z</time>
      </trkpt>
      <trkpt lat="41.840930" lon="-4.482584">
        <ele>1609.0</ele>
        <time>2017-06-23T12:42:25Z</time>
      </trkpt>
      <trkpt lat="41.841281" lon="-4.482333">
        <ele>1604.0</ele>
        <time>2017-06-23T12:42:28Z</time>
      </trkpt>
      <trkpt lat="41.841667" lon="-4.482017">
        <ele>1599.0</ele>
        <time>2017-06-23T12:42:31Z</time>
      </trkpt>
      <trkpt lat="41.842015" lon="-4.481717">
        <ele>1593.0</ele>
        <time>2017-06-23T12:42:34Z</time>
      </trkpt>
      <trkpt lat="41.842381" lon="-4.481383">
        <ele>1586.0</ele>
        <time>2017-06-23T12:42:37Z</time>
      </trkpt>
      <trkpt lat="41.842750" lon="-4.481067">
        <ele>1583.0</ele>
        <time>2017-06-23T12:42:40Z</time>
      </trkpt>
      <trkpt lat="41.843115" lon="-4.480817">
        <ele>1576.0</ele>
        <time>2017-06-23T12:42:43Z</time>
      </trkpt>
      <trkpt lat="41.843498" lon="-4.480517">
        <ele>1577.0</ele>
        <time>2017-06-23T12:42:46Z</time>
      </trkpt>
      <trkpt lat="41.843897" lon="-4.480217">
        <ele>1575.0</ele>
        <time>2017-06-23T12:42:50Z</time>
      </trkpt>
      <trkpt lat="41.844249" lon="-4.479950">
        <ele>1573.0</ele>
        <time>2017-06-23T12:42:53Z</time>
      </trkpt>
      <trkpt lat="41.844532" lon="-4.479700">
        <ele>1574.0</ele>
        <time>2017-06-23T12:42:56Z</time>
      </trkpt>
      <trkpt lat="41.844785" lon="-4.479450">
        <ele>1570.0</ele>
        <time>2017-06-23T12:42:59Z</time>
      </trkpt>
      <trkpt lat="41.845017" lon="-4.479117">
        <ele>1569.0</ele>
        <time>2017-06-23T12:43:02Z</time>
      </trkpt>
      <trkpt lat="41.845263" lon="-4.478967">
        <ele>1568.0</ele>
        <time>2017-06-23T12:43:05Z</time>
      </trkpt>
      <trkpt lat="41.845550" lon="-4.478883">
        <ele>1570.0</ele>
        <time>2017-06-23T12:43:08Z</time>
      </trkpt>
      <trkpt lat="41.845834" lon="-4.478783">
        <ele>1567.0</ele>
        <time>2017-06-23T12:43:11Z</time>
      </trkpt>
      <trkpt lat="41.846131" lon="-4.478467">
        <ele>1568.0</ele>
        <time>2017-06-23T12:43:14Z</time>
      </trkpt>
      <trkpt lat="41.846366" lon="-4.478150">
        <ele>1570.0</ele>
        <time>2017-06-23T12:43:17Z</time>
      </trkpt>
      <trkpt lat="41.846564" lon="-4.477783">
        <ele>1568.0</ele>
        <time>2017-06-23T12:43:20Z</time>
      </trkpt>
      <trkpt lat="41.846783" lon="-4.477350">
        <ele>1572.0</ele>
        <time>2017-06-23T12:43:23Z</time>
      </trkpt>
      <trkpt lat="41.846916" lon="-4.476900">
        <ele>1575.0</ele>
        <time>2017-06-23T12:43:26Z</time>
      </trkpt>
      <trkpt lat="41.846848" lon="-4.476450">
        <ele>1579.0</ele>
        <time>2017-06-23T12:43:29Z</time>
      </trkpt>
      <trkpt lat="41.846616" lon="-4.476250">
        <ele>1590.0</ele>
        <time>2017-06-23T12:43:33Z</time>
      </trkpt>
      <trkpt lat="41.846530" lon="-4.476250">
        <ele>1598.0</ele>
        <time>2017-06-23T12:43:36Z</time>
      </trkpt>
      <trkpt lat="41.846715" lon="-4.476333">
        <ele>1605.0</ele>
        <time>2017-06-23T12:43:39Z</time>
      </trkpt>
      <trkpt lat="41.847015" lon="-4.476033">
        <ele>1613.0</ele>
        <time>2017-06-23T12:43:42Z</time>
      </trkpt>
      <trkpt lat="41.847148" lon="-4.475650">
        <ele>1622.0</ele>
        <time>2017-06-23T12:43:45Z</time>
      </trkpt>
      <trkpt lat="41.847135" lon="-4.475200">
        <ele>1625.0</ele>
        <time>2017-06-23T12:43:48Z</time>
      </trkpt>
      <trkpt lat="41.846981" lon="-4.474983">
        <ele>1633.0</ele>
        <time>2017-06-23T12:43:51Z</time>
      </trkpt>
      <trkpt lat="41.846882" lon="-4.475033">
        <ele>1637.0</ele>
        <time>2017-06-23T12:43:54Z</time>
      </trkpt>
      <trkpt lat="41.846964" lon="-4.475150">
        <ele>1644.0</ele>
        <time>2017-06-23T12:43:57Z</time>
      </trkpt>
      <trkpt lat="41.847247" lon="-4.475083">
        <ele>1655.0</ele>
        <time>2017-06-23T12:44:00Z</time>
      </trkpt>
      <trkpt lat="41.847514" lon="-4.474784">
        <ele>1660.0</ele>
        <time>2017-06-23T12:44:03Z</time>
      </trkpt>
      <trkpt lat="41.847647" lon="-4.474350">
        <ele>1663.0</ele>
        <time>2017-06-23T12:44:06Z</time>
      </trkpt>
      <trkpt lat="41.847599" lon="-4.473917">
        <ele>1667.0</ele>
        <time>2017-06-23T12:44:09Z</time>
      </trkpt>
      <trkpt lat="41.847449" lon="-4.473633">
        <ele>1672.0</ele>
        <time>2017-06-23T12:44:12Z</time>
      </trkpt>
      <trkpt lat="41.847234" lon="-4.473550">
        <ele>1676.0</ele>
        <time>2017-06-23T12:44:16Z</time>
      </trkpt>
      <trkpt lat="41.847234" lon="-4.473616">
        <ele>1677.0</ele>
        <time>2017-06-23T12:44:19Z</time>
      </trkpt>
      <trkpt lat="41.847333" lon="-4.473683">
        <ele>1679.0</ele>
        <time>2017-06-23T12:44:22Z</time>
      </trkpt>
      <trkpt lat="41.847514" lon="-4.473750">
        <ele>1686.0</ele>
        <time>2017-06-23T12:44:25Z</time>
      </trkpt>
      <trkpt lat="41.847715" lon="-4.473733">
        <ele>1688.0</ele>
        <time>2017-06-23T12:44:28Z</time>
      </trkpt>
      <trkpt lat="41.847982" lon="-4.473717">
        <ele>1694.0</ele>
        <time>2017-06-23T12:44:31Z</time>
      </trkpt>
      <trkpt lat="41.848217" lon="-4.473700">
        <ele>1698.0</ele>
        <time>2017-06-23T12:44:34Z</time>
      </trkpt>
      <trkpt lat="41.848330" lon="-4.473817">
        <ele>1700.0</ele>
        <time>2017-06-23T12:44:37Z</time>
      </trkpt>
      <trkpt lat="41.848231" lon="-4.473783">
        <ele>1702.0</ele>
        <time>2017-06-23T12:44:40Z</time>
      </trkpt>
      <trkpt lat="41.848098" lon="-4.473616">
        <ele>1706.0</ele>
        <time>2017-06-23T12:44:43Z</time>
      </trkpt>
      <trkpt lat="41.847982" lon="-4.473350">
        <ele>1700.0</ele>
        <time>2017-06-23T12:44:46Z</time>
      </trkpt>
      <trkpt lat="41.847917" lon="-4.472983">
        <ele>1704.0</ele>
        <time>2017-06-23T12:44:49Z</time>
      </trkpt>
      <trkpt lat="41.848033" lon="-4.472500">
        <ele>1706.0</ele>
        <time>2017-06-23T12:44:52Z</time>
      </trkpt>
      <trkpt lat="41.848163" lon="-4.472017">
        <ele>1703.0</ele>
        <time>2017-06-23T12:44:55Z</time>
      </trkpt>
      <trkpt lat="41.848514" lon="-4.471350">
        <ele>1704.0</ele>
        <time>2017-06-23T12:44:59Z</time>
      </trkpt>
      <trkpt lat="41.848832" lon="-4.471083">
        <ele>1714.0</ele>
        <time>2017-06-23T12:45:02Z</time>
      </trkpt>
      <trkpt lat="41.849047" lon="-4.470650">
        <ele>1719.0</ele>
        <time>2017-06-23T12:45:05Z</time>
      </trkpt>
      <trkpt lat="41.848999" lon="-4.470150">
        <ele>1723.0</ele>
        <time>2017-06-23T12:45:08Z</time>
      </trkpt>
      <trkpt lat="41.848849" lon="-4.469984">
        <ele>1731.0</ele>
        <time>2017-06-23T12:45:11Z</time>
      </trkpt>
      <trkpt lat="41.848832" lon="-4.470016">
        <ele>1741.0</ele>
        <time>2017-06-23T12:45:14Z</time>
      </trkpt>
      <trkpt lat="41.848948" lon="-4.470133">
        <ele>1748.0</ele>
        <time>2017-06-23T12:45:17Z</time>
      </trkpt>
      <trkpt lat="41.849146" lon="-4.470117">
        <ele>1757.0</ele>
        <time>2017-06-23T12:45:20Z</time>
      </trkpt>
      <trkpt lat="41.849399" lon="-4.470133">
        <ele>1759.0</ele>
        <time>2017-06-23T12:45:23Z</time>
      </trkpt>
      <trkpt lat="41.849696" lon="-4.470033">
        <ele>1774.0</ele>
        <time>2017-06-23T12:45:26Z</time>
      </trkpt>
      <trkpt lat="41.850034" lon="-4.469900">
        <ele>1776.0</ele>
        <time>2017-06-23T12:45:29Z</time>
      </trkpt>
      <trkpt lat="41.850280" lon="-4.469517">
        <ele>1780.0</ele>
        <time>2017-06-23T12:45:32Z</time>
      </trkpt>
      <trkpt lat="41.850266" lon="-4.469083">
        <ele>1783.0</ele>
        <time>2017-06-23T12:45:35Z</time>
      </trkpt>
      <trkpt lat="41.850133" lon="-4.468900">
        <ele>1791.0</ele>
        <time>2017-06-23T12:45:38Z</time>
      </trkpt>
      <trkpt lat="41.849962" lon="-4.468800">
        <ele>1800.0</ele>
        <time>2017-06-23T12:45:42Z</time>
      </trkpt>
      <trkpt lat="41.849897" lon="-4.468750">
        <ele>1807.0</ele>
        <time>2017-06-23T12:45:45Z</time>
      </trkpt>
      <trkpt lat="41.849949" lon="-4.468884">
        <ele>1809.0</ele>
        <time>2017-06-23T12:45:48Z</time>
      </trkpt>
      <trkpt lat="41.850147" lon="-4.469000">
        <ele>1817.0</ele>
        <time>2017-06-23T12:45:51Z</time>
      </trkpt>
      <trkpt lat="41.850400" lon="-4.468983">
        <ele>1820.0</ele>
        <time>2017-06-23T12:45:54Z</time>
      </trkpt>
      <trkpt lat="41.850779" lon="-4.468900">
        <ele>1819.0</ele>
        <time>2017-06-23T12:45:57Z</time>
      </trkpt>
      <trkpt lat="41.851147" lon="-4.468650">
        <ele>1825.0</ele>
        <time>2017-06-23T12:46:00Z</time>
      </trkpt>
      <trkpt lat="41.851414" lon="-4.468267">
        <ele>1825.0</ele>
        <time>2017-06-23T12:46:03Z</time>
      </trkpt>
      <trkpt lat="41.851516" lon="-4.467800">
        <ele>1824.0</ele>
        <time>2017-06-23T12:46:06Z</time>
      </trkpt>
      <trkpt lat="41.851448" lon="-4.467433">
        <ele>1826.0</ele>
        <time>2017-06-23T12:46:09Z</time>
      </trkpt>
      <trkpt lat="41.851332" lon="-4.467184">
        <ele>1829.0</ele>
        <time>2017-06-23T12:46:12Z</time>
      </trkpt>
      <trkpt lat="41.851216" lon="-4.467167">
        <ele>1834.0</ele>
        <time>2017-06-23T12:46:15Z</time>
      </trkpt>
      <trkpt lat="41.851147" lon="-4.467217">
        <ele>1837.0</ele>
        <time>2017-06-23T12:46:18Z</time>
      </trkpt>
      <trkpt lat="41.851147" lon="-4.467400">
        <ele>1840.0</ele>
        <time>2017-06-23T12:46:22Z</time>
      </trkpt>
      <trkpt lat="41.851199" lon="-4.467534">
        <ele>1845.0</ele>
        <time>2017-06-23T12:46:25Z</time>
      </trkpt>
      <trkpt lat="41.851264" lon="-4.467666">
        <ele>1845.0</ele>
        <time>2017-06-23T12:46:28Z</time>
      </trkpt>
      <trkpt lat="41.851298" lon="-4.467833">
        <ele>1845.0</ele>
        <time>2017-06-23T12:46:31Z</time>
      </trkpt>
      <trkpt lat="41.851281" lon="-4.468033">
        <ele>1849.0</ele>
        <time>2017-06-23T12:46:34Z</time>
      </trkpt>
      <trkpt lat="41.851229" lon="-4.468183">
        <ele>1858.0</ele>
        <time>2017-06-23T12:46:37Z</time>
      </trkpt>
      <trkpt lat="41.851182" lon="-4.468283">
        <ele>1870.0</ele>
        <time>2017-06-23T12:46:40Z</time>
      </trkpt>
      <trkpt lat="41.851164" lon="-4.468416">
        <ele>1880.0</ele>
        <time>2017-06-23T12:46:43Z</time>
      </trkpt>
      <trkpt lat="41.851397" lon="-4.468450">
        <ele>1890.0</ele>
        <time>2017-06-23T12:46:46Z</time>
      </trkpt>
      <trkpt lat="41.851680" lon="-4.468084">
        <ele>1896.0</ele>
        <time>2017-06-23T12:46:49Z</time>
      </trkpt>
      <trkpt lat="41.851779" lon="-4.467633">
        <ele>1903.0</ele>
        <time>2017-06-23T12:46:52Z</time>
      </trkpt>
      <trkpt lat="41.851749" lon="-4.467217">
        <ele>1908.0</ele>
        <time>2017-06-23T12:46:55Z</time>
      </trkpt>
      <trkpt lat="41.851595" lon="-4.466933">
        <ele>1914.0</ele>
        <time>2017-06-23T12:46:58Z</time>
      </trkpt>
      <trkpt lat="41.851397" lon="-4.466800">
        <ele>1917.0</ele>
        <time>2017-06-23T12:47:02Z</time>
      </trkpt>
      <trkpt lat="41.851349" lon="-4.466967">
        <ele>1923.0</ele>
        <time>2017-06-23T12:47:05Z</time>
      </trkpt>
      <trkpt lat="41.851516" lon="-4.467134">
        <ele>1927.0</ele>
        <time>2017-06-23T12:47:08Z</time>
      </trkpt>
      <trkpt lat="41.851813" lon="-4.467117">
        <ele>1933.0</ele>
        <time>2017-06-23T12:47:11Z</time>
      </trkpt>
      <trkpt lat="41.852100" lon="-4.466817">
        <ele>1936.0</ele>
        <time>2017-06-23T12:47:14Z</time>
      </trkpt>
      <trkpt lat="41.852213" lon="-4.466366">
        <ele>1940.0</ele>
        <time>2017-06-23T12:47:17Z</time>
      </trkpt>
      <trkpt lat="41.852230" lon="-4.465950">
        <ele>1941.0</ele>
        <time>2017-06-23T12:47:20Z</time>
      </trkpt>
      <trkpt lat="41.852100" lon="-4.465616">
        <ele>1938.0</ele>
        <time>2017-06-23T12:47:23Z</time>
      </trkpt>
      <trkpt lat="41.851912" lon="-4.465450">
        <ele>1944.0</ele>
        <time>2017-06-23T12:47:26Z</time>
      </trkpt>
      <trkpt lat="41.851779" lon="-4.465300">
        <ele>1950.0</ele>
        <time>2017-06-23T12:47:29Z</time>
      </trkpt>
      <trkpt lat="41.851595" lon="-4.465117">
        <ele>1955.0</ele>
        <time>2017-06-23T12:47:32Z</time>
      </trkpt>
      <trkpt lat="41.851448" lon="-4.465083">
        <ele>1960.0</ele>
        <time>2017-06-23T12:47:35Z</time>
      </trkpt>
      <trkpt lat="41.851315" lon="-4.465066">
        <ele>1963.0</ele>
        <time>2017-06-23T12:47:38Z</time>
      </trkpt>
      <trkpt lat="41.851130" lon="-4.465100">
        <ele>1972.0</ele>
        <time>2017-06-23T12:47:41Z</time>
      </trkpt>
      <trkpt lat="41.850864" lon="-4.465050">
        <ele>1980.0</ele>
        <time>2017-06-23T12:47:45Z</time>
      </trkpt>
      <trkpt lat="41.850714" lon="-4.465217">
        <ele>1988.0</ele>
        <time>2017-06-23T12:47:48Z</time>
      </trkpt>
      <trkpt lat="41.850666" lon="-4.465433">
        <ele>1997.0</ele>
        <time>2017-06-23T12:47:51Z</time>
      </trkpt>
      <trkpt lat="41.850632" lon="-4.465616">
        <ele>2000.0</ele>
        <time>2017-06-23T12:47:54Z</time>
      </trkpt>
      <trkpt lat="41.850779" lon="-4.465783">
        <ele>2000.0</ele>
        <time>2017-06-23T12:47:57Z</time>
      </trkpt>
      <trkpt lat="41.851018" lon="-4.465666">
        <ele>2003.0</ele>
        <time>2017-06-23T12:48:00Z</time>
      </trkpt>
      <trkpt lat="41.851298" lon="-4.465450">
        <ele>2001.0</ele>
        <time>2017-06-23T12:48:03Z</time>
      </trkpt>
      <trkpt lat="41.851431" lon="-4.465000">
        <ele>2003.0</ele>
        <time>2017-06-23T12:48:06Z</time>
      </trkpt>
      <trkpt lat="41.851431" lon="-4.464500">
        <ele>2006.0</ele>
        <time>2017-06-23T12:48:09Z</time>
      </trkpt>
      <trkpt lat="41.851363" lon="-4.464033">
        <ele>2013.0</ele>
        <time>2017-06-23T12:48:12Z</time>
      </trkpt>
      <trkpt lat="41.851229" lon="-4.463650">
        <ele>2021.0</ele>
        <time>2017-06-23T12:48:15Z</time>
      </trkpt>
      <trkpt lat="41.851096" lon="-4.463350">
        <ele>2026.0</ele>
        <time>2017-06-23T12:48:18Z</time>
      </trkpt>
      <trkpt lat="41.850949" lon="-4.463199">
        <ele>2026.0</ele>
        <time>2017-06-23T12:48:21Z</time>
      </trkpt>
      <trkpt lat="41.850751" lon="-4.463150">
        <ele>2020.0</ele>
        <time>2017-06-23T12:48:24Z</time>
      </trkpt>
      <trkpt lat="41.850482" lon="-4.463067">
        <ele>2014.0</ele>
        <time>2017-06-23T12:48:28Z</time>
      </trkpt>
      <trkpt lat="41.850314" lon="-4.463050">
        <ele>2002.0</ele>
        <time>2017-06-23T12:48:31Z</time>
      </trkpt>
      <trkpt lat="41.850266" lon="-4.463167">
        <ele>1991.0</ele>
        <time>2017-06-23T12:48:34Z</time>
      </trkpt>
      <trkpt lat="41.850533" lon="-4.463150">
        <ele>1982.0</ele>
        <time>2017-06-23T12:48:37Z</time>
      </trkpt>
      <trkpt lat="41.850731" lon="-4.463117">
        <ele>1979.0</ele>
        <time>2017-06-23T12:48:40Z</time>
      </trkpt>
      <trkpt lat="41.850984" lon="-4.463083">
        <ele>1970.0</ele>
        <time>2017-06-23T12:48:43Z</time>
      </trkpt>
      <trkpt lat="41.851250" lon="-4.463033">
        <ele>1971.0</ele>
        <time>2017-06-23T12:48:46Z</time>
      </trkpt>
      <trkpt lat="41.851482" lon="-4.463033">
        <ele>1969.0</ele>
        <time>2017-06-23T12:48:49Z</time>
      </trkpt>
      <trkpt lat="41.851766" lon="-4.463083">
        <ele>1973.0</ele>
        <time>2017-06-23T12:48:52Z</time>
      </trkpt>
      <trkpt lat="41.851998" lon="-4.463117">
        <ele>1975.0</ele>
        <time>2017-06-23T12:48:55Z</time>
      </trkpt>
      <trkpt lat="41.852230" lon="-4.463150">
        <ele>1975.0</ele>
        <time>2017-06-23T12:48:58Z</time>
      </trkpt>
      <trkpt lat="41.852496" lon="-4.463033">
        <ele>1977.0</ele>
        <time>2017-06-23T12:49:01Z</time>
      </trkpt>
      <trkpt lat="41.852749" lon="-4.462983">
        <ele>1978.0</ele>
        <time>2017-06-23T12:49:04Z</time>
      </trkpt>
      <trkpt lat="41.852981" lon="-4.463100">
        <ele>1979.0</ele>
        <time>2017-06-23T12:49:07Z</time>
      </trkpt>
      <trkpt lat="41.853149" lon="-4.463483">
        <ele>1980.0</ele>
        <time>2017-06-23T12:49:11Z</time>
      </trkpt>
      <trkpt lat="41.853200" lon="-4.463733">
        <ele>1980.0</ele>
        <time>2017-06-23T12:49:14Z</time>
      </trkpt>
      <trkpt lat="41.853234" lon="-4.464067">
        <ele>1979.0</ele>
        <time>2017-06-23T12:49:17Z</time>
      </trkpt>
      <trkpt lat="41.853313" lon="-4.464316">
        <ele>1981.0</ele>
        <time>2017-06-23T12:49:20Z</time>
      </trkpt>
      <trkpt lat="41.853381" lon="-4.464500">
        <ele>1973.0</ele>
        <time>2017-06-23T12:49:23Z</time>
      </trkpt>
      <trkpt lat="41.853313" lon="-4.464633">
        <ele>1962.0</ele>
        <time>2017-06-23T12:49:26Z</time>
      </trkpt>
      <trkpt lat="41.853179" lon="-4.464316">
        <ele>1952.0</ele>
        <time>2017-06-23T12:49:29Z</time>
      </trkpt>
      <trkpt lat="41.853282" lon="-4.463817">
        <ele>1946.0</ele>
        <time>2017-06-23T12:49:32Z</time>
      </trkpt>
      <trkpt lat="41.853466" lon="-4.463450">
        <ele>1936.0</ele>
        <time>2017-06-23T12:49:35Z</time>
      </trkpt>
      <trkpt lat="41.853699" lon="-4.463133">
        <ele>1941.0</ele>
        <time>2017-06-23T12:49:38Z</time>
      </trkpt>
      <trkpt lat="41.853897" lon="-4.463050">
        <ele>1938.0</ele>
        <time>2017-06-23T12:49:41Z</time>
      </trkpt>
      <trkpt lat="41.854183" lon="-4.462800">
        <ele>1945.0</ele>
        <time>2017-06-23T12:49:44Z</time>
      </trkpt>
      <trkpt lat="41.854464" lon="-4.462499">
        <ele>1954.0</ele>
        <time>2017-06-23T12:49:48Z</time>
      </trkpt>
      <trkpt lat="41.854713" lon="-4.462266">
        <ele>1964.0</ele>
        <time>2017-06-23T12:49:51Z</time>
      </trkpt>
      <trkpt lat="41.854867" lon="-4.461850">
        <ele>1972.0</ele>
        <time>2017-06-23T12:49:54Z</time>
      </trkpt>
      <trkpt lat="41.854747" lon="-4.461433">
        <ele>1975.0</ele>
        <time>2017-06-23T12:49:57Z</time>
      </trkpt>
      <trkpt lat="41.854515" lon="-4.461150">
        <ele>1976.0</ele>
        <time>2017-06-23T12:50:00Z</time>
      </trkpt>
      <trkpt lat="41.854248" lon="-4.461100">
        <ele>1980.0</ele>
        <time>2017-06-23T12:50:03Z</time>
      </trkpt>
      <trkpt lat="41.854050" lon="-4.461183">
        <ele>1985.0</ele>
        <time>2017-06-23T12:50:06Z</time>
      </trkpt>
      <trkpt lat="41.854050" lon="-4.461333">
        <ele>1989.0</ele>
        <time>2017-06-23T12:50:09Z</time>
      </trkpt>
      <trkpt lat="41.853931" lon="-4.461366">
        <ele>1986.0</ele>
        <time>2017-06-23T12:50:12Z</time>
      </trkpt>
      <trkpt lat="41.853883" lon="-4.461533">
        <ele>1987.0</ele>
        <time>2017-06-23T12:50:15Z</time>
      </trkpt>
      <trkpt lat="41.853917" lon="-4.461750">
        <ele>1987.0</ele>
        <time>2017-06-23T12:50:18Z</time>
      </trkpt>
      <trkpt lat="41.853965" lon="-4.461967">
        <ele>1979.0</ele>
        <time>2017-06-23T12:50:21Z</time>
      </trkpt>
      <trkpt lat="41.854197" lon="-4.462083">
        <ele>1967.0</ele>
        <time>2017-06-23T12:50:24Z</time>
      </trkpt>
      <trkpt lat="41.854515" lon="-4.462083">
        <ele>1950.0</ele>
        <time>2017-06-23T12:50:27Z</time>
      </trkpt>
      <trkpt lat="41.855030" lon="-4.461933">
        <ele>1937.0</ele>
        <time>2017-06-23T12:50:31Z</time>
      </trkpt>
      <trkpt lat="41.855317" lon="-4.461733">
        <ele>1934.0</ele>
        <time>2017-06-23T12:50:34Z</time>
      </trkpt>
      <trkpt lat="41.855597" lon="-4.461583">
        <ele>1922.0</ele>
        <time>2017-06-23T12:50:37Z</time>
      </trkpt>
      <trkpt lat="41.855980" lon="-4.461366">
        <ele>1913.0</ele>
        <time>2017-06-23T12:50:40Z</time>
      </trkpt>
      <trkpt lat="41.856314" lon="-4.461133">
        <ele>1904.0</ele>
        <time>2017-06-23T12:50:43Z</time>
      </trkpt>
      <trkpt lat="41.856680" lon="-4.460900">
        <ele>1891.0</ele>
        <time>2017-06-23T12:50:46Z</time>
      </trkpt>
      <trkpt lat="41.857015" lon="-4.460633">
        <ele>1885.0</ele>
        <time>2017-06-23T12:50:49Z</time>
      </trkpt>
      <trkpt lat="41.857315" lon="-4.460416">
        <ele>1875.0</ele>
        <time>2017-06-23T12:50:52Z</time>
      </trkpt>
      <trkpt lat="41.857646" lon="-4.460133">
        <ele>1863.0</ele>
        <time>2017-06-23T12:50:55Z</time>
      </trkpt>
      <trkpt lat="41.858015" lon="-4.459950">
        <ele>1856.0</ele>
        <time>2017-06-23T12:50:58Z</time>
      </trkpt>
      <trkpt lat="41.858350" lon="-4.459750">
        <ele>1845.0</ele>
        <time>2017-06-23T12:51:01Z</time>
      </trkpt>
      <trkpt lat="41.858698" lon="-4.459416">
        <ele>1839.0</ele>
        <time>2017-06-23T12:51:04Z</time>
      </trkpt>
      <trkpt lat="41.859033" lon="-4.459066">
        <ele>1829.0</ele>
        <time>2017-06-23T12:51:07Z</time>
      </trkpt>
      <trkpt lat="41.859364" lon="-4.458616">
        <ele>1822.0</ele>
        <time>2017-06-23T12:51:10Z</time>
      </trkpt>
      <trkpt lat="41.859699" lon="-4.458016">
        <ele>1815.0</ele>
        <time>2017-06-23T12:51:14Z</time>
      </trkpt>
      <trkpt lat="41.859931" lon="-4.457483">
        <ele>1803.0</ele>
        <time>2017-06-23T12:51:17Z</time>
      </trkpt>
      <trkpt lat="41.860116" lon="-4.456950">
        <ele>1795.0</ele>
        <time>2017-06-23T12:51:20Z</time>
      </trkpt>
      <trkpt lat="41.860348" lon="-4.456433">
        <ele>1784.0</ele>
        <time>2017-06-23T12:51:23Z</time>
      </trkpt>
      <trkpt lat="41.860566" lon="-4.455916">
        <ele>1776.0</ele>
        <time>2017-06-23T12:51:26Z</time>
      </trkpt>
      <trkpt lat="41.860816" lon="-4.455433">
        <ele>1766.0</ele>
        <time>2017-06-23T12:51:29Z</time>
      </trkpt>
      <trkpt lat="41.861048" lon="-4.454917">
        <ele>1757.0</ele>
        <time>2017-06-23T12:51:32Z</time>
      </trkpt>
      <trkpt lat="41.861331" lon="-4.454433">
        <ele>1745.0</ele>
        <time>2017-06-23T12:51:35Z</time>
      </trkpt>
      <trkpt lat="41.861598" lon="-4.453883">
        <ele>1735.0</ele>
        <time>2017-06-23T12:51:38Z</time>
      </trkpt>
      <trkpt lat="41.861864" lon="-4.453349">
        <ele>1722.0</ele>
        <time>2017-06-23T12:51:41Z</time>
      </trkpt>
      <trkpt lat="41.862100" lon="-4.452766">
        <ele>1715.0</ele>
        <time>2017-06-23T12:51:44Z</time>
      </trkpt>
      <trkpt lat="41.862281" lon="-4.452183">
        <ele>1707.0</ele>
        <time>2017-06-23T12:51:47Z</time>
      </trkpt>
      <trkpt lat="41.862448" lon="-4.451583">
        <ele>1700.0</ele>
        <time>2017-06-23T12:51:50Z</time>
      </trkpt>
      <trkpt lat="41.862598" lon="-4.450999">
        <ele>1695.0</ele>
        <time>2017-06-23T12:51:53Z</time>
      </trkpt>
      <trkpt lat="41.862749" lon="-4.450183">
        <ele>1685.0</ele>
        <time>2017-06-23T12:51:57Z</time>
      </trkpt>
      <trkpt lat="41.862865" lon="-4.449550">
        <ele>1680.0</ele>
        <time>2017-06-23T12:52:00Z</time>
      </trkpt>
      <trkpt lat="41.862964" lon="-4.448983">
        <ele>1675.0</ele>
        <time>2017-06-23T12:52:03Z</time>
      </trkpt>
      <trkpt lat="41.863131" lon="-4.448417">
        <ele>1667.0</ele>
        <time>2017-06-23T12:52:06Z</time>
      </trkpt>
      <trkpt lat="41.863329" lon="-4.447834">
        <ele>1662.0</ele>
        <time>2017-06-23T12:52:09Z</time>
      </trkpt>
      <trkpt lat="41.863513" lon="-4.447266">
        <ele>1658.0</ele>
        <time>2017-06-23T12:52:12Z</time>
      </trkpt>
      <trkpt lat="41.863698" lon="-4.446700">
        <ele>1656.0</ele>
        <time>2017-06-23T12:52:15Z</time>
      </trkpt>
      <trkpt lat="41.863899" lon="-4.446217">
        <ele>1658.0</ele>
        <time>2017-06-23T12:52:18Z</time>
      </trkpt>
      <trkpt lat="41.864098" lon="-4.445833">
        <ele>1652.0</ele>
        <time>2017-06-23T12:52:21Z</time>
      </trkpt>
      <trkpt lat="41.864299" lon="-4.445350">
        <ele>1646.0</ele>
        <time>2017-06-23T12:52:24Z</time>
      </trkpt>
      <trkpt lat="41.864483" lon="-4.444816">
        <ele>1641.0</ele>
        <time>2017-06-23T12:52:27Z</time>
      </trkpt>
      <trkpt lat="41.864699" lon="-4.444317">
        <ele>1642.0</ele>
        <time>2017-06-23T12:52:30Z</time>
      </trkpt>
      <trkpt lat="41.864965" lon="-4.443984">
        <ele>1638.0</ele>
        <time>2017-06-23T12:52:33Z</time>
      </trkpt>
      <trkpt lat="41.865365" lon="-4.443500">
        <ele>1635.0</ele>
        <time>2017-06-23T12:52:37Z</time>
      </trkpt>
      <trkpt lat="41.865679" lon="-4.443200">
        <ele>1641.0</ele>
        <time>2017-06-23T12:52:40Z</time>
      </trkpt>
      <trkpt lat="41.865966" lon="-4.442884">
        <ele>1644.0</ele>
        <time>2017-06-23T12:52:43Z</time>
      </trkpt>
      <trkpt lat="41.866249" lon="-4.442517">
        <ele>1650.0</ele>
        <time>2017-06-23T12:52:46Z</time>
      </trkpt>
      <trkpt lat="41.866416" lon="-4.442117">
        <ele>1655.0</ele>
        <time>2017-06-23T12:52:49Z</time>
      </trkpt>
      <trkpt lat="41.866382" lon="-4.441683">
        <ele>1659.0</ele>
        <time>2017-06-23T12:52:52Z</time>
      </trkpt>
      <trkpt lat="41.866198" lon="-4.441584">
        <ele>1664.0</ele>
        <time>2017-06-23T12:52:55Z</time>
      </trkpt>
      <trkpt lat="41.866150" lon="-4.441717">
        <ele>1671.0</ele>
        <time>2017-06-23T12:52:58Z</time>
      </trkpt>
      <trkpt lat="41.866082" lon="-4.441734">
        <ele>1672.0</ele>
        <time>2017-06-23T12:53:01Z</time>
      </trkpt>
      <trkpt lat="41.866150" lon="-4.441850">
        <ele>1676.0</ele>
        <time>2017-06-23T12:53:04Z</time>
      </trkpt>
      <trkpt lat="41.866297" lon="-4.441917">
        <ele>1676.0</ele>
        <time>2017-06-23T12:53:07Z</time>
      </trkpt>
      <trkpt lat="41.866498" lon="-4.441950">
        <ele>1675.0</ele>
        <time>2017-06-23T12:53:10Z</time>
      </trkpt>
      <trkpt lat="41.866833" lon="-4.441800">
        <ele>1674.0</ele>
        <time>2017-06-23T12:53:13Z</time>
      </trkpt>
      <trkpt lat="41.867233" lon="-4.441316">
        <ele>1679.0</ele>
        <time>2017-06-23T12:53:17Z</time>
      </trkpt>
      <trkpt lat="41.867516" lon="-4.440983">
        <ele>1684.0</ele>
        <time>2017-06-23T12:53:20Z</time>
      </trkpt>
      <trkpt lat="41.867748" lon="-4.440583">
        <ele>1691.0</ele>
        <time>2017-06-23T12:53:23Z</time>
      </trkpt>
      <trkpt lat="41.867796" lon="-4.440167">
        <ele>1697.0</ele>
        <time>2017-06-23T12:53:26Z</time>
      </trkpt>
      <trkpt lat="41.867796" lon="-4.439783">
        <ele>1706.0</ele>
        <time>2017-06-23T12:53:29Z</time>
      </trkpt>
      <trkpt lat="41.867697" lon="-4.439500">
        <ele>1711.0</ele>
        <time>2017-06-23T12:53:32Z</time>
      </trkpt>
      <trkpt lat="41.867564" lon="-4.439417">
        <ele>1716.0</ele>
        <time>2017-06-23T12:53:35Z</time>
      </trkpt>
      <trkpt lat="41.867496" lon="-4.439517">
        <ele>1720.0</ele>
        <time>2017-06-23T12:53:38Z</time>
      </trkpt>
      <trkpt lat="41.867581" lon="-4.439700">
        <ele>1725.0</ele>
        <time>2017-06-23T12:53:41Z</time>
      </trkpt>
      <trkpt lat="41.867782" lon="-4.439800">
        <ele>1729.0</ele>
        <time>2017-06-23T12:53:44Z</time>
      </trkpt>
      <trkpt lat="41.868100" lon="-4.439700">
        <ele>1737.0</ele>
        <time>2017-06-23T12:53:47Z</time>
      </trkpt>
      <trkpt lat="41.868414" lon="-4.439533">
        <ele>1746.0</ele>
        <time>2017-06-23T12:53:50Z</time>
      </trkpt>
      <trkpt lat="41.868650" lon="-4.439283">
        <ele>1749.0</ele>
        <time>2017-06-23T12:53:53Z</time>
      </trkpt>
      <trkpt lat="41.868930" lon="-4.439017">
        <ele>1754.0</ele>
        <time>2017-06-23T12:53:56Z</time>
      </trkpt>
      <trkpt lat="41.869083" lon="-4.438500">
        <ele>1758.0</ele>
        <time>2017-06-23T12:54:00Z</time>
      </trkpt>
      <trkpt lat="41.868930" lon="-4.438384">
        <ele>1763.0</ele>
        <time>2017-06-23T12:54:03Z</time>
      </trkpt>
      <trkpt lat="41.868817" lon="-4.438400">
        <ele>1770.0</ele>
        <time>2017-06-23T12:54:06Z</time>
      </trkpt>
      <trkpt lat="41.868732" lon="-4.438467">
        <ele>1771.0</ele>
        <time>2017-06-23T12:54:09Z</time>
      </trkpt>
      <trkpt lat="41.868684" lon="-4.438550">
        <ele>1776.0</ele>
        <time>2017-06-23T12:54:12Z</time>
      </trkpt>
      <trkpt lat="41.868633" lon="-4.438617">
        <ele>1778.0</ele>
        <time>2017-06-23T12:54:15Z</time>
      </trkpt>
      <trkpt lat="41.868578" lon="-4.438750">
        <ele>1782.0</ele>
        <time>2017-06-23T12:54:18Z</time>
      </trkpt>
      <trkpt lat="41.868650" lon="-4.438916">
        <ele>1784.0</ele>
        <time>2017-06-23T12:54:21Z</time>
      </trkpt>
      <trkpt lat="41.868848" lon="-4.438950">
        <ele>1784.0</ele>
        <time>2017-06-23T12:54:24Z</time>
      </trkpt>
      <trkpt lat="41.869131" lon="-4.438700">
        <ele>1782.0</ele>
        <time>2017-06-23T12:54:27Z</time>
      </trkpt>
      <trkpt lat="41.869347" lon="-4.438267">
        <ele>1785.0</ele>
        <time>2017-06-23T12:54:30Z</time>
      </trkpt>
      <trkpt lat="41.869531" lon="-4.437850">
        <ele>1789.0</ele>
        <time>2017-06-23T12:54:33Z</time>
      </trkpt>
      <trkpt lat="41.869681" lon="-4.437450">
        <ele>1792.0</ele>
        <time>2017-06-23T12:54:36Z</time>
      </trkpt>
      <trkpt lat="41.869797" lon="-4.437033">
        <ele>1794.0</ele>
        <time>2017-06-23T12:54:39Z</time>
      </trkpt>
      <trkpt lat="41.869866" lon="-4.436483">
        <ele>1794.0</ele>
        <time>2017-06-23T12:54:43Z</time>
      </trkpt>
      <trkpt lat="41.869767" lon="-4.436150">
        <ele>1795.0</ele>
        <time>2017-06-23T12:54:46Z</time>
      </trkpt>
      <trkpt lat="41.869599" lon="-4.435933">
        <ele>1797.0</ele>
        <time>2017-06-23T12:54:49Z</time>
      </trkpt>
      <trkpt lat="41.869466" lon="-4.435733">
        <ele>1800.0</ele>
        <time>2017-06-23T12:54:52Z</time>
      </trkpt>
      <trkpt lat="41.869295" lon="-4.435533">
        <ele>1802.0</ele>
        <time>2017-06-23T12:54:55Z</time>
      </trkpt>
      <trkpt lat="41.869131" lon="-4.435366">
        <ele>1805.0</ele>
        <time>2017-06-23T12:54:58Z</time>
      </trkpt>
      <trkpt lat="41.868981" lon="-4.435200">
        <ele>1808.0</ele>
        <time>2017-06-23T12:55:01Z</time>
      </trkpt>
      <trkpt lat="41.868817" lon="-4.435133">
        <ele>1812.0</ele>
        <time>2017-06-23T12:55:04Z</time>
      </trkpt>
      <trkpt lat="41.868715" lon="-4.435200">
        <ele>1817.0</ele>
        <time>2017-06-23T12:55:07Z</time>
      </trkpt>
      <trkpt lat="41.868633" lon="-4.435267">
        <ele>1819.0</ele>
        <time>2017-06-23T12:55:10Z</time>
      </trkpt>
      <trkpt lat="41.868715" lon="-4.435417">
        <ele>1819.0</ele>
        <time>2017-06-23T12:55:13Z</time>
      </trkpt>
      <trkpt lat="41.868998" lon="-4.435400">
        <ele>1820.0</ele>
        <time>2017-06-23T12:55:16Z</time>
      </trkpt>
      <trkpt lat="41.869316" lon="-4.435133">
        <ele>1821.0</ele>
        <time>2017-06-23T12:55:19Z</time>
      </trkpt>
      <trkpt lat="41.869548" lon="-4.434534">
        <ele>1823.0</ele>
        <time>2017-06-23T12:55:23Z</time>
      </trkpt>
      <trkpt lat="41.869633" lon="-4.434100">
        <ele>1827.0</ele>
        <time>2017-06-23T12:55:26Z</time>
      </trkpt>
      <trkpt lat="41.869698" lon="-4.433683">
        <ele>1830.0</ele>
        <time>2017-06-23T12:55:29Z</time>
      </trkpt>
      <trkpt lat="41.869681" lon="-4.433283">
        <ele>1832.0</ele>
        <time>2017-06-23T12:55:32Z</time>
      </trkpt>
      <trkpt lat="41.869582" lon="-4.432917">
        <ele>1835.0</ele>
        <time>2017-06-23T12:55:35Z</time>
      </trkpt>
      <trkpt lat="41.869432" lon="-4.432650">
        <ele>1838.0</ele>
        <time>2017-06-23T12:55:38Z</time>
      </trkpt>
      <trkpt lat="41.869265" lon="-4.432566">
        <ele>1841.0</ele>
        <time>2017-06-23T12:55:41Z</time>
      </trkpt>
      <trkpt lat="41.869183" lon="-4.432683">
        <ele>1841.0</ele>
        <time>2017-06-23T12:55:44Z</time>
      </trkpt>
      <trkpt lat="41.869247" lon="-4.432867">
        <ele>1839.0</ele>
        <time>2017-06-23T12:55:47Z</time>
      </trkpt>
      <trkpt lat="41.869415" lon="-4.433033">
        <ele>1841.0</ele>
        <time>2017-06-23T12:55:50Z</time>
      </trkpt>
      <trkpt lat="41.869599" lon="-4.433133">
        <ele>1840.0</ele>
        <time>2017-06-23T12:55:53Z</time>
      </trkpt>
      <trkpt lat="41.869845" lon="-4.433200">
        <ele>1844.0</ele>
        <time>2017-06-23T12:55:56Z</time>
      </trkpt>
      <trkpt lat="41.870132" lon="-4.433183">
        <ele>1846.0</ele>
        <time>2017-06-23T12:55:59Z</time>
      </trkpt>
      <trkpt lat="41.870415" lon="-4.433150">
        <ele>1848.0</ele>
        <time>2017-06-23T12:56:02Z</time>
      </trkpt>
      <trkpt lat="41.870829" lon="-4.432883">
        <ele>1850.0</ele>
        <time>2017-06-23T12:56:06Z</time>
      </trkpt>
      <trkpt lat="41.871064" lon="-4.432517">
        <ele>1852.0</ele>
        <time>2017-06-23T12:56:09Z</time>
      </trkpt>
      <trkpt lat="41.871167" lon="-4.432050">
        <ele>1853.0</ele>
        <time>2017-06-23T12:56:12Z</time>
      </trkpt>
      <trkpt lat="41.871180" lon="-4.431583">
        <ele>1857.0</ele>
        <time>2017-06-23T12:56:15Z</time>
      </trkpt>
      <trkpt lat="41.871180" lon="-4.431167">
        <ele>1865.0</ele>
        <time>2017-06-23T12:56:18Z</time>
      </trkpt>
      <trkpt lat="41.871197" lon="-4.430783">
        <ele>1868.0</ele>
        <time>2017-06-23T12:56:21Z</time>
      </trkpt>
      <trkpt lat="41.871081" lon="-4.430483">
        <ele>1870.0</ele>
        <time>2017-06-23T12:56:24Z</time>
      </trkpt>
      <trkpt lat="41.870900" lon="-4.430383">
        <ele>1875.0</ele>
        <time>2017-06-23T12:56:27Z</time>
      </trkpt>
      <trkpt lat="41.870747" lon="-4.430233">
        <ele>1880.0</ele>
        <time>2017-06-23T12:56:30Z</time>
      </trkpt>
      <trkpt lat="41.870631" lon="-4.430250">
        <ele>1884.0</ele>
        <time>2017-06-23T12:56:33Z</time>
      </trkpt>
      <trkpt lat="41.870648" lon="-4.430450">
        <ele>1886.0</ele>
        <time>2017-06-23T12:56:36Z</time>
      </trkpt>
      <trkpt lat="41.870849" lon="-4.430600">
        <ele>1890.0</ele>
        <time>2017-06-23T12:56:39Z</time>
      </trkpt>
      <trkpt lat="41.871098" lon="-4.430633">
        <ele>1896.0</ele>
        <time>2017-06-23T12:56:42Z</time>
      </trkpt>
      <trkpt lat="41.871365" lon="-4.430666">
        <ele>1901.0</ele>
        <time>2017-06-23T12:56:45Z</time>
      </trkpt>
      <trkpt lat="41.871597" lon="-4.430800">
        <ele>1904.0</ele>
        <time>2017-06-23T12:56:48Z</time>
      </trkpt>
      <trkpt lat="41.871618" lon="-4.431066">
        <ele>1905.0</ele>
        <time>2017-06-23T12:56:52Z</time>
      </trkpt>
      <trkpt lat="41.871433" lon="-4.430933">
        <ele>1906.0</ele>
        <time>2017-06-23T12:56:55Z</time>
      </trkpt>
      <trkpt lat="41.871331" lon="-4.430583">
        <ele>1908.0</ele>
        <time>2017-06-23T12:56:58Z</time>
      </trkpt>
      <trkpt lat="41.871300" lon="-4.430167">
        <ele>1907.0</ele>
        <time>2017-06-23T12:57:01Z</time>
      </trkpt>
      <trkpt lat="41.871331" lon="-4.429683">
        <ele>1905.0</ele>
        <time>2017-06-23T12:57:04Z</time>
      </trkpt>
      <trkpt lat="41.871481" lon="-4.429200">
        <ele>1910.0</ele>
        <time>2017-06-23T12:57:07Z</time>
      </trkpt>
      <trkpt lat="41.871631" lon="-4.428850">
        <ele>1917.0</ele>
        <time>2017-06-23T12:57:10Z</time>
      </trkpt>
      <trkpt lat="41.871799" lon="-4.428483">
        <ele>1915.0</ele>
        <time>2017-06-23T12:57:13Z</time>
      </trkpt>
      <trkpt lat="41.871932" lon="-4.428067">
        <ele>1917.0</ele>
        <time>2017-06-23T12:57:16Z</time>
      </trkpt>
      <trkpt lat="41.872031" lon="-4.427667">
        <ele>1917.0</ele>
        <time>2017-06-23T12:57:19Z</time>
      </trkpt>
      <trkpt lat="41.872164" lon="-4.427233">
        <ele>1919.0</ele>
        <time>2017-06-23T12:57:22Z</time>
      </trkpt>
      <trkpt lat="41.872229" lon="-4.426833">
        <ele>1918.0</ele>
        <time>2017-06-23T12:57:25Z</time>
      </trkpt>
      <trkpt lat="41.872082" lon="-4.426383">
        <ele>1918.0</ele>
        <time>2017-06-23T12:57:29Z</time>
      </trkpt>
      <trkpt lat="41.871898" lon="-4.426217">
        <ele>1920.0</ele>
        <time>2017-06-23T12:57:32Z</time>
      </trkpt>
      <trkpt lat="41.871717" lon="-4.425933">
        <ele>1923.0</ele>
        <time>2017-06-23T12:57:35Z</time>
      </trkpt>
      <trkpt lat="41.871546" lon="-4.425666">
        <ele>1928.0</ele>
        <time>2017-06-23T12:57:38Z</time>
      </trkpt>
      <trkpt lat="41.871365" lon="-4.425400">
        <ele>1934.0</ele>
        <time>2017-06-23T12:57:41Z</time>
      </trkpt>
      <trkpt lat="41.871266" lon="-4.425100">
        <ele>1943.0</ele>
        <time>2017-06-23T12:57:44Z</time>
      </trkpt>
      <trkpt lat="41.871146" lon="-4.424816">
        <ele>1946.0</ele>
        <time>2017-06-23T12:57:47Z</time>
      </trkpt>
      <trkpt lat="41.870982" lon="-4.424733">
        <ele>1951.0</ele>
        <time>2017-06-23T12:57:50Z</time>
      </trkpt>
      <trkpt lat="41.870829" lon="-4.424750">
        <ele>1948.0</ele>
        <time>2017-06-23T12:57:53Z</time>
      </trkpt>
      <trkpt lat="41.870801" lon="-4.424933">
        <ele>1944.0</ele>
        <time>2017-06-23T12:57:56Z</time>
      </trkpt>
      <trkpt lat="41.870880" lon="-4.425050">
        <ele>1939.0</ele>
        <time>2017-06-23T12:57:59Z</time>
      </trkpt>
      <trkpt lat="41.871116" lon="-4.425083">
        <ele>1934.0</ele>
        <time>2017-06-23T12:58:02Z</time>
      </trkpt>
      <trkpt lat="41.871433" lon="-4.424917">
        <ele>1930.0</ele>
        <time>2017-06-23T12:58:05Z</time>
      </trkpt>
      <trkpt lat="41.871665" lon="-4.424566">
        <ele>1927.0</ele>
        <time>2017-06-23T12:58:08Z</time>
      </trkpt>
      <trkpt lat="41.871884" lon="-4.424000">
        <ele>1930.0</ele>
        <time>2017-06-23T12:58:12Z</time>
      </trkpt>
      <trkpt lat="41.871983" lon="-4.423616">
        <ele>1931.0</ele>
        <time>2017-06-23T12:58:15Z</time>
      </trkpt>
      <trkpt lat="41.872031" lon="-4.423166">
        <ele>1931.0</ele>
        <time>2017-06-23T12:58:18Z</time>
      </trkpt>
      <trkpt lat="41.871962" lon="-4.422717">
        <ele>1934.0</ele>
        <time>2017-06-23T12:58:21Z</time>
      </trkpt>
      <trkpt lat="41.871850" lon="-4.422366">
        <ele>1935.0</ele>
        <time>2017-06-23T12:58:24Z</time>
      </trkpt>
      <trkpt lat="41.871696" lon="-4.422116">
        <ele>1934.0</ele>
        <time>2017-06-23T12:58:27Z</time>
      </trkpt>
      <trkpt lat="41.871532" lon="-4.422067">
        <ele>1932.0</ele>
        <time>2017-06-23T12:58:30Z</time>
      </trkpt>
      <trkpt lat="41.871447" lon="-4.422166">
        <ele>1928.0</ele>
        <time>2017-06-23T12:58:33Z</time>
      </trkpt>
      <trkpt lat="41.871512" lon="-4.422333">
        <ele>1925.0</ele>
        <time>2017-06-23T12:58:36Z</time>
      </trkpt>
      <trkpt lat="41.871665" lon="-4.422466">
        <ele>1921.0</ele>
        <time>2017-06-23T12:58:39Z</time>
      </trkpt>
      <trkpt lat="41.871997" lon="-4.422550">
        <ele>1917.0</ele>
        <time>2017-06-23T12:58:43Z</time>
      </trkpt>
      <trkpt lat="41.872249" lon="-4.422600">
        <ele>1913.0</ele>
        <time>2017-06-23T12:58:46Z</time>
      </trkpt>
      <trkpt lat="41.872546" lon="-4.422617">
        <ele>1909.0</ele>
        <time>2017-06-23T12:58:49Z</time>
      </trkpt>
      <trkpt lat="41.872864" lon="-4.422566">
        <ele>1907.0</ele>
        <time>2017-06-23T12:58:52Z</time>
      </trkpt>
      <trkpt lat="41.873199" lon="-4.422500">
        <ele>1903.0</ele>
        <time>2017-06-23T12:58:55Z</time>
      </trkpt>
      <trkpt lat="41.873547" lon="-4.422267">
        <ele>1900.0</ele>
        <time>2017-06-23T12:58:58Z</time>
      </trkpt>
      <trkpt lat="41.873861" lon="-4.421983">
        <ele>1899.0</ele>
        <time>2017-06-23T12:59:01Z</time>
      </trkpt>
      <trkpt lat="41.874114" lon="-4.421684">
        <ele>1899.0</ele>
        <time>2017-06-23T12:59:04Z</time>
      </trkpt>
      <trkpt lat="41.874346" lon="-4.421333">
        <ele>1902.0</ele>
        <time>2017-06-23T12:59:07Z</time>
      </trkpt>
      <trkpt lat="41.874565" lon="-4.421000">
        <ele>1911.0</ele>
        <time>2017-06-23T12:59:10Z</time>
      </trkpt>
      <trkpt lat="41.874698" lon="-4.420633">
        <ele>1916.0</ele>
        <time>2017-06-23T12:59:13Z</time>
      </trkpt>
      <trkpt lat="41.874578" lon="-4.420267">
        <ele>1923.0</ele>
        <time>2017-06-23T12:59:16Z</time>
      </trkpt>
      <trkpt lat="41.874432" lon="-4.420250">
        <ele>1929.0</ele>
        <time>2017-06-23T12:59:19Z</time>
      </trkpt>
      <trkpt lat="41.874397" lon="-4.420400">
        <ele>1935.0</ele>
        <time>2017-06-23T12:59:22Z</time>
      </trkpt>
      <trkpt lat="41.874599" lon="-4.420516">
        <ele>1937.0</ele>
        <time>2017-06-23T12:59:25Z</time>
      </trkpt>
      <trkpt lat="41.874882" lon="-4.420550">
        <ele>1940.0</ele>
        <time>2017-06-23T12:59:28Z</time>
      </trkpt>
      <trkpt lat="41.875183" lon="-4.420483">
        <ele>1945.0</ele>
        <time>2017-06-23T12:59:31Z</time>
      </trkpt>
      <trkpt lat="41.875432" lon="-4.420300">
        <ele>1947.0</ele>
        <time>2017-06-23T12:59:34Z</time>
      </trkpt>
      <trkpt lat="41.875733" lon="-4.419883">
        <ele>1954.0</ele>
        <time>2017-06-23T12:59:38Z</time>
      </trkpt>
      <trkpt lat="41.875845" lon="-4.419483">
        <ele>1961.0</ele>
        <time>2017-06-23T12:59:41Z</time>
      </trkpt>
      <trkpt lat="41.875866" lon="-4.419033">
        <ele>1968.0</ele>
        <time>2017-06-23T12:59:44Z</time>
      </trkpt>
      <trkpt lat="41.875845" lon="-4.418633">
        <ele>1984.0</ele>
        <time>2017-06-23T12:59:47Z</time>
      </trkpt>
      <trkpt lat="41.875815" lon="-4.418333">
        <ele>1993.0</ele>
        <time>2017-06-23T12:59:50Z</time>
      </trkpt>
      <trkpt lat="41.875712" lon="-4.418083">
        <ele>2001.0</ele>
        <time>2017-06-23T12:59:53Z</time>
      </trkpt>
      <trkpt lat="41.875565" lon="-4.418116">
        <ele>2007.0</ele>
        <time>2017-06-23T12:59:56Z</time>
      </trkpt>
      <trkpt lat="41.875531" lon="-4.418316">
        <ele>2014.0</ele>
        <time>2017-06-23T12:59:59Z</time>
      </trkpt>
      <trkpt lat="41.875514" lon="-4.418516">
        <ele>2025.0</ele>
        <time>2017-06-23T13:00:02Z</time>
      </trkpt>
      <trkpt lat="41.875548" lon="-4.418650">
        <ele>2028.0</ele>
        <time>2017-06-23T13:00:05Z</time>
      </trkpt>
      <trkpt lat="41.875681" lon="-4.418800">
        <ele>2029.0</ele>
        <time>2017-06-23T13:00:08Z</time>
      </trkpt>
      <trkpt lat="41.875914" lon="-4.418883">
        <ele>2032.0</ele>
        <time>2017-06-23T13:00:11Z</time>
      </trkpt>
      <trkpt lat="41.876197" lon="-4.418767">
        <ele>2032.0</ele>
        <time>2017-06-23T13:00:14Z</time>
      </trkpt>
      <trkpt lat="41.876416" lon="-4.418433">
        <ele>2033.0</ele>
        <time>2017-06-23T13:00:17Z</time>
      </trkpt>
      <trkpt lat="41.876696" lon="-4.417900">
        <ele>2034.0</ele>
        <time>2017-06-23T13:00:21Z</time>
      </trkpt>
      <trkpt lat="41.876815" lon="-4.417433">
        <ele>2038.0</ele>
        <time>2017-06-23T13:00:24Z</time>
      </trkpt>
      <trkpt lat="41.876846" lon="-4.417000">
        <ele>2046.0</ele>
        <time>2017-06-23T13:00:27Z</time>
      </trkpt>
      <trkpt lat="41.876832" lon="-4.416600">
        <ele>2053.0</ele>
        <time>2017-06-23T13:00:30Z</time>
      </trkpt>
      <trkpt lat="41.876747" lon="-4.416217">
        <ele>2061.0</ele>
        <time>2017-06-23T13:00:33Z</time>
      </trkpt>
      <trkpt lat="41.876716" lon="-4.415917">
        <ele>2064.0</ele>
        <time>2017-06-23T13:00:36Z</time>
      </trkpt>
      <trkpt lat="41.876583" lon="-4.415716">
        <ele>2070.0</ele>
        <time>2017-06-23T13:00:39Z</time>
      </trkpt>
      <trkpt lat="41.876481" lon="-4.415666">
        <ele>2076.0</ele>
        <time>2017-06-23T13:00:42Z</time>
      </trkpt>
      <trkpt lat="41.876347" lon="-4.415683">
        <ele>2081.0</ele>
        <time>2017-06-23T13:00:45Z</time>
      </trkpt>
      <trkpt lat="41.876296" lon="-4.415800">
        <ele>2089.0</ele>
        <time>2017-06-23T13:00:48Z</time>
      </trkpt>
      <trkpt lat="41.876382" lon="-4.415950">
        <ele>2091.0</ele>
        <time>2017-06-23T13:00:51Z</time>
      </trkpt>
      <trkpt lat="41.876631" lon="-4.416033">
        <ele>2093.0</ele>
        <time>2017-06-23T13:00:54Z</time>
      </trkpt>
      <trkpt lat="41.877048" lon="-4.415817">
        <ele>2096.0</ele>
        <time>2017-06-23T13:00:58Z</time>
      </trkpt>
      <trkpt lat="41.877297" lon="-4.415683">
        <ele>2101.0</ele>
        <time>2017-06-23T13:01:01Z</time>
      </trkpt>
      <trkpt lat="41.877550" lon="-4.415467">
        <ele>2099.0</ele>
        <time>2017-06-23T13:01:04Z</time>
      </trkpt>
      <trkpt lat="41.877765" lon="-4.415100">
        <ele>2104.0</ele>
        <time>2017-06-23T13:01:07Z</time>
      </trkpt>
      <trkpt lat="41.877997" lon="-4.414867">
        <ele>2110.0</ele>
        <time>2017-06-23T13:01:10Z</time>
      </trkpt>
      <trkpt lat="41.878280" lon="-4.414800">
        <ele>2118.0</ele>
        <time>2017-06-23T13:01:13Z</time>
      </trkpt>
      <trkpt lat="41.878414" lon="-4.414900">
        <ele>2122.0</ele>
        <time>2017-06-23T13:01:16Z</time>
      </trkpt>
      <trkpt lat="41.878547" lon="-4.415050">
        <ele>2126.0</ele>
        <time>2017-06-23T13:01:19Z</time>
      </trkpt>
      <trkpt lat="41.878513" lon="-4.415184">
        <ele>2127.0</ele>
        <time>2017-06-23T13:01:22Z</time>
      </trkpt>
      <trkpt lat="41.878332" lon="-4.414966">
        <ele>2130.0</ele>
        <time>2017-06-23T13:01:25Z</time>
      </trkpt>
      <trkpt lat="41.878229" lon="-4.414633">
        <ele>2131.0</ele>
        <time>2017-06-23T13:01:28Z</time>
      </trkpt>
      <trkpt lat="41.878164" lon="-4.414317">
        <ele>2134.0</ele>
        <time>2017-06-23T13:01:31Z</time>
      </trkpt>
      <trkpt lat="41.878181" lon="-4.413950">
        <ele>2137.0</ele>
        <time>2017-06-23T13:01:34Z</time>
      </trkpt>
      <trkpt lat="41.878267" lon="-4.413550">
        <ele>2141.0</ele>
        <time>2017-06-23T13:01:37Z</time>
      </trkpt>
      <trkpt lat="41.878581" lon="-4.413117">
        <ele>2149.0</ele>
        <time>2017-06-23T13:01:41Z</time>
      </trkpt>
      <trkpt lat="41.878830" lon="-4.412984">
        <ele>2153.0</ele>
        <time>2017-06-23T13:01:44Z</time>
      </trkpt>
      <trkpt lat="41.879049" lon="-4.413050">
        <ele>2155.0</ele>
        <time>2017-06-23T13:01:47Z</time>
      </trkpt>
      <trkpt lat="41.879131" lon="-4.413267">
        <ele>2158.0</ele>
        <time>2017-06-23T13:01:50Z</time>
      </trkpt>
      <trkpt lat="41.879097" lon="-4.413350">
        <ele>2161.0</ele>
        <time>2017-06-23T13:01:53Z</time>
      </trkpt>
      <trkpt lat="41.879011" lon="-4.413433">
        <ele>2159.0</ele>
        <time>2017-06-23T13:01:56Z</time>
      </trkpt>
      <trkpt lat="41.878830" lon="-4.413367">
        <ele>2162.0</ele>
        <time>2017-06-23T13:01:59Z</time>
      </trkpt>
      <trkpt lat="41.878748" lon="-4.413150">
        <ele>2165.0</ele>
        <time>2017-06-23T13:02:02Z</time>
      </trkpt>
      <trkpt lat="41.878666" lon="-4.412817">
        <ele>2166.0</ele>
        <time>2017-06-23T13:02:05Z</time>
      </trkpt>
      <trkpt lat="41.878666" lon="-4.412417">
        <ele>2168.0</ele>
        <time>2017-06-23T13:02:08Z</time>
      </trkpt>
      <trkpt lat="41.878813" lon="-4.412000">
        <ele>2166.0</ele>
        <time>2017-06-23T13:02:11Z</time>
      </trkpt>
      <trkpt lat="41.879066" lon="-4.411600">
        <ele>2169.0</ele>
        <time>2017-06-23T13:02:14Z</time>
      </trkpt>
      <trkpt lat="41.879349" lon="-4.411233">
        <ele>2175.0</ele>
        <time>2017-06-23T13:02:17Z</time>
      </trkpt>
      <trkpt lat="41.879650" lon="-4.410950">
        <ele>2181.0</ele>
        <time>2017-06-23T13:02:20Z</time>
      </trkpt>
      <trkpt lat="41.879967" lon="-4.410733">
        <ele>2182.0</ele>
        <time>2017-06-23T13:02:24Z</time>
      </trkpt>
      <trkpt lat="41.880247" lon="-4.410800">
        <ele>2187.0</ele>
        <time>2017-06-23T13:02:27Z</time>
      </trkpt>
      <trkpt lat="41.880381" lon="-4.410833">
        <ele>2189.0</ele>
        <time>2017-06-23T13:02:30Z</time>
      </trkpt>
      <trkpt lat="41.880480" lon="-4.410967">
        <ele>2184.0</ele>
        <time>2017-06-23T13:02:33Z</time>
      </trkpt>
      <trkpt lat="41.880497" lon="-4.411133">
        <ele>2184.0</ele>
        <time>2017-06-23T13:02:36Z</time>
      </trkpt>
      <trkpt lat="41.880381" lon="-4.411117">
        <ele>2183.0</ele>
        <time>2017-06-23T13:02:39Z</time>
      </trkpt>
      <trkpt lat="41.880282" lon="-4.410883">
        <ele>2187.0</ele>
        <time>2017-06-23T13:02:42Z</time>
      </trkpt>
      <trkpt lat="41.880282" lon="-4.410567">
        <ele>2193.0</ele>
        <time>2017-06-23T13:02:45Z</time>
      </trkpt>
      <trkpt lat="41.880312" lon="-4.410184">
        <ele>2195.0</ele>
        <time>2017-06-23T13:02:48Z</time>
      </trkpt>
      <trkpt lat="41.880432" lon="-4.409783">
        <ele>2196.0</ele>
        <time>2017-06-23T13:02:51Z</time>
      </trkpt>
      <trkpt lat="41.880750" lon="-4.409450">
        <ele>2198.0</ele>
        <time>2017-06-23T13:02:54Z</time>
      </trkpt>
      <trkpt lat="41.881050" lon="-4.409300">
        <ele>2199.0</ele>
        <time>2017-06-23T13:02:57Z</time>
      </trkpt>
      <trkpt lat="41.881347" lon="-4.409366">
        <ele>2195.0</ele>
        <time>2017-06-23T13:03:00Z</time>
      </trkpt>
      <trkpt lat="41.881514" lon="-4.409634">
        <ele>2199.0</ele>
        <time>2017-06-23T13:03:03Z</time>
      </trkpt>
      <trkpt lat="41.881566" lon="-4.409817">
        <ele>2203.0</ele>
        <time>2017-06-23T13:03:07Z</time>
      </trkpt>
      <trkpt lat="41.881566" lon="-4.409950">
        <ele>2201.0</ele>
        <time>2017-06-23T13:03:10Z</time>
      </trkpt>
      <trkpt lat="41.881446" lon="-4.410017">
        <ele>2202.0</ele>
        <time>2017-06-23T13:03:13Z</time>
      </trkpt>
      <trkpt lat="41.881299" lon="-4.409933">
        <ele>2203.0</ele>
        <time>2017-06-23T13:03:16Z</time>
      </trkpt>
      <trkpt lat="41.881149" lon="-4.409667">
        <ele>2200.0</ele>
        <time>2017-06-23T13:03:19Z</time>
      </trkpt>
      <trkpt lat="41.881064" lon="-4.409234">
        <ele>2201.0</ele>
        <time>2017-06-23T13:03:22Z</time>
      </trkpt>
      <trkpt lat="41.881115" lon="-4.408767">
        <ele>2198.0</ele>
        <time>2017-06-23T13:03:25Z</time>
      </trkpt>
      <trkpt lat="41.881262" lon="-4.408234">
        <ele>2195.0</ele>
        <time>2017-06-23T13:03:28Z</time>
      </trkpt>
      <trkpt lat="41.881532" lon="-4.407784">
        <ele>2195.0</ele>
        <time>2017-06-23T13:03:31Z</time>
      </trkpt>
      <trkpt lat="41.881880" lon="-4.407417">
        <ele>2196.0</ele>
        <time>2017-06-23T13:03:34Z</time>
      </trkpt>
      <trkpt lat="41.882283" lon="-4.407367">
        <ele>2199.0</ele>
        <time>2017-06-23T13:03:37Z</time>
      </trkpt>
      <trkpt lat="41.882631" lon="-4.407417">
        <ele>2199.0</ele>
        <time>2017-06-23T13:03:40Z</time>
      </trkpt>
      <trkpt lat="41.882966" lon="-4.407566">
        <ele>2201.0</ele>
        <time>2017-06-23T13:03:43Z</time>
      </trkpt>
      <trkpt lat="41.883198" lon="-4.407750">
        <ele>2203.0</ele>
        <time>2017-06-23T13:03:46Z</time>
      </trkpt>
      <trkpt lat="41.883369" lon="-4.408067">
        <ele>2206.0</ele>
        <time>2017-06-23T13:03:50Z</time>
      </trkpt>
      <trkpt lat="41.883386" lon="-4.408234">
        <ele>2210.0</ele>
        <time>2017-06-23T13:03:53Z</time>
      </trkpt>
      <trkpt lat="41.883297" lon="-4.408433">
        <ele>2212.0</ele>
        <time>2017-06-23T13:03:56Z</time>
      </trkpt>
      <trkpt lat="41.883147" lon="-4.408500">
        <ele>2219.0</ele>
        <time>2017-06-23T13:03:59Z</time>
      </trkpt>
      <trkpt lat="41.883048" lon="-4.408433">
        <ele>2222.0</ele>
        <time>2017-06-23T13:04:02Z</time>
      </trkpt>
      <trkpt lat="41.882966" lon="-4.408417">
        <ele>2218.0</ele>
        <time>2017-06-23T13:04:05Z</time>
      </trkpt>
      <trkpt lat="41.883000" lon="-4.408567">
        <ele>2211.0</ele>
        <time>2017-06-23T13:04:08Z</time>
      </trkpt>
      <trkpt lat="41.883164" lon="-4.408616">
        <ele>2207.0</ele>
        <time>2017-06-23T13:04:11Z</time>
      </trkpt>
      <trkpt lat="41.883454" lon="-4.408517">
        <ele>2195.0</ele>
        <time>2017-06-23T13:04:14Z</time>
      </trkpt>
      <trkpt lat="41.883799" lon="-4.408300">
        <ele>2196.0</ele>
        <time>2017-06-23T13:04:17Z</time>
      </trkpt>
      <trkpt lat="41.884103" lon="-4.408150">
        <ele>2195.0</ele>
        <time>2017-06-23T13:04:20Z</time>
      </trkpt>
      <trkpt lat="41.884369" lon="-4.408033">
        <ele>2188.0</ele>
        <time>2017-06-23T13:04:23Z</time>
      </trkpt>
      <trkpt lat="41.884749" lon="-4.407533">
        <ele>2184.0</ele>
        <time>2017-06-23T13:04:27Z</time>
      </trkpt>
      <trkpt lat="41.885001" lon="-4.407100">
        <ele>2173.0</ele>
        <time>2017-06-23T13:04:30Z</time>
      </trkpt>
      <trkpt lat="41.885268" lon="-4.406617">
        <ele>2175.0</ele>
        <time>2017-06-23T13:04:33Z</time>
      </trkpt>
      <trkpt lat="41.885486" lon="-4.406284">
        <ele>2174.0</ele>
        <time>2017-06-23T13:04:36Z</time>
      </trkpt>
      <trkpt lat="41.885671" lon="-4.405816">
        <ele>2165.0</ele>
        <time>2017-06-23T13:04:39Z</time>
      </trkpt>
      <trkpt lat="41.885753" lon="-4.405384">
        <ele>2169.0</ele>
        <time>2017-06-23T13:04:42Z</time>
      </trkpt>
      <trkpt lat="41.885817" lon="-4.405084">
        <ele>2169.0</ele>
        <time>2017-06-23T13:04:45Z</time>
      </trkpt>
      <trkpt lat="41.885903" lon="-4.404583">
        <ele>2162.0</ele>
        <time>2017-06-23T13:04:48Z</time>
      </trkpt>
      <trkpt lat="41.886050" lon="-4.404133">
        <ele>2153.0</ele>
        <time>2017-06-23T13:04:51Z</time>
      </trkpt>
      <trkpt lat="41.886217" lon="-4.403617">
        <ele>2147.0</ele>
        <time>2017-06-23T13:04:54Z</time>
      </trkpt>
      <trkpt lat="41.886402" lon="-4.403117">
        <ele>2140.0</ele>
        <time>2017-06-23T13:04:57Z</time>
      </trkpt>
      <trkpt lat="41.886620" lon="-4.402550">
        <ele>2135.0</ele>
        <time>2017-06-23T13:05:00Z</time>
      </trkpt>
      <trkpt lat="41.886818" lon="-4.401966">
        <ele>2138.0</ele>
        <time>2017-06-23T13:05:03Z</time>
      </trkpt>
      <trkpt lat="41.886985" lon="-4.401517">
        <ele>2147.0</ele>
        <time>2017-06-23T13:05:06Z</time>
      </trkpt>
      <trkpt lat="41.887170" lon="-4.401150">
        <ele>2145.0</ele>
        <time>2017-06-23T13:05:09Z</time>
      </trkpt>
      <trkpt lat="41.887436" lon="-4.400550">
        <ele>2145.0</ele>
        <time>2017-06-23T13:05:13Z</time>
      </trkpt>
      <trkpt lat="41.887617" lon="-4.400083">
        <ele>2137.0</ele>
        <time>2017-06-23T13:05:16Z</time>
      </trkpt>
      <trkpt lat="41.887819" lon="-4.399683">
        <ele>2137.0</ele>
        <time>2017-06-23T13:05:19Z</time>
      </trkpt>
      <trkpt lat="41.887969" lon="-4.399300">
        <ele>2132.0</ele>
        <time>2017-06-23T13:05:22Z</time>
      </trkpt>
      <trkpt lat="41.888133" lon="-4.398766">
        <ele>2128.0</ele>
        <time>2017-06-23T13:05:25Z</time>
      </trkpt>
      <trkpt lat="41.888252" lon="-4.398350">
        <ele>2128.0</ele>
        <time>2017-06-23T13:05:28Z</time>
      </trkpt>
      <trkpt lat="41.888334" lon="-4.397933">
        <ele>2124.0</ele>
        <time>2017-06-23T13:05:31Z</time>
      </trkpt>
      <trkpt lat="41.888235" lon="-4.397716">
        <ele>2121.0</ele>
        <time>2017-06-23T13:05:34Z</time>
      </trkpt>
      <trkpt lat="41.888167" lon="-4.397850">
        <ele>2119.0</ele>
        <time>2017-06-23T13:05:37Z</time>
      </trkpt>
      <trkpt lat="41.888266" lon="-4.398066">
        <ele>2117.0</ele>
        <time>2017-06-23T13:05:40Z</time>
      </trkpt>
      <trkpt lat="41.888485" lon="-4.398133">
        <ele>2110.0</ele>
        <time>2017-06-23T13:05:43Z</time>
      </trkpt>
      <trkpt lat="41.888836" lon="-4.398100">
        <ele>2105.0</ele>
        <time>2017-06-23T13:05:46Z</time>
      </trkpt>
      <trkpt lat="41.889215" lon="-4.397933">
        <ele>2101.0</ele>
        <time>2017-06-23T13:05:49Z</time>
      </trkpt>
      <trkpt lat="41.889567" lon="-4.397650">
        <ele>2094.0</ele>
        <time>2017-06-23T13:05:52Z</time>
      </trkpt>
      <trkpt lat="41.889953" lon="-4.397067">
        <ele>2088.0</ele>
        <time>2017-06-23T13:05:56Z</time>
      </trkpt>
      <trkpt lat="41.890185" lon="-4.396616">
        <ele>2084.0</ele>
        <time>2017-06-23T13:05:59Z</time>
      </trkpt>
      <trkpt lat="41.890452" lon="-4.396216">
        <ele>2081.0</ele>
        <time>2017-06-23T13:06:02Z</time>
      </trkpt>
      <trkpt lat="41.890701" lon="-4.395783">
        <ele>2074.0</ele>
        <time>2017-06-23T13:06:05Z</time>
      </trkpt>
      <trkpt lat="41.890920" lon="-4.395233">
        <ele>2073.0</ele>
        <time>2017-06-23T13:06:08Z</time>
      </trkpt>
      <trkpt lat="41.891118" lon="-4.394800">
        <ele>2077.0</ele>
        <time>2017-06-23T13:06:11Z</time>
      </trkpt>
      <trkpt lat="41.891299" lon="-4.394383">
        <ele>2077.0</ele>
        <time>2017-06-23T13:06:14Z</time>
      </trkpt>
      <trkpt lat="41.891504" lon="-4.393950">
        <ele>2073.0</ele>
        <time>2017-06-23T13:06:17Z</time>
      </trkpt>
      <trkpt lat="41.891702" lon="-4.393466">
        <ele>2068.0</ele>
        <time>2017-06-23T13:06:20Z</time>
      </trkpt>
      <trkpt lat="41.891818" lon="-4.392983">
        <ele>2064.0</ele>
        <time>2017-06-23T13:06:23Z</time>
      </trkpt>
      <trkpt lat="41.891934" lon="-4.392466">
        <ele>2059.0</ele>
        <time>2017-06-23T13:06:26Z</time>
      </trkpt>
      <trkpt lat="41.892036" lon="-4.391933">
        <ele>2052.0</ele>
        <time>2017-06-23T13:06:29Z</time>
      </trkpt>
      <trkpt lat="41.892135" lon="-4.391350">
        <ele>2049.0</ele>
        <time>2017-06-23T13:06:32Z</time>
      </trkpt>
      <trkpt lat="41.892269" lon="-4.390633">
        <ele>2042.0</ele>
        <time>2017-06-23T13:06:36Z</time>
      </trkpt>
      <trkpt lat="41.892333" lon="-4.390067">
        <ele>2040.0</ele>
        <time>2017-06-23T13:06:39Z</time>
      </trkpt>
      <trkpt lat="41.892368" lon="-4.389550">
        <ele>2036.0</ele>
        <time>2017-06-23T13:06:42Z</time>
      </trkpt>
      <trkpt lat="41.892436" lon="-4.388950">
        <ele>2034.0</ele>
        <time>2017-06-23T13:06:45Z</time>
      </trkpt>
      <trkpt lat="41.892487" lon="-4.388400">
        <ele>2029.0</ele>
        <time>2017-06-23T13:06:48Z</time>
      </trkpt>
      <trkpt lat="41.892586" lon="-4.387783">
        <ele>2024.0</ele>
        <time>2017-06-23T13:06:51Z</time>
      </trkpt>
      <trkpt lat="41.892634" lon="-4.387200">
        <ele>2022.0</ele>
        <time>2017-06-23T13:06:54Z</time>
      </trkpt>
      <trkpt lat="41.892651" lon="-4.386617">
        <ele>2016.0</ele>
        <time>2017-06-23T13:06:57Z</time>
      </trkpt>
      <trkpt lat="41.892634" lon="-4.385983">
        <ele>2009.0</ele>
        <time>2017-06-23T13:07:00Z</time>
      </trkpt>
      <trkpt lat="41.892600" lon="-4.385400">
        <ele>2007.0</ele>
        <time>2017-06-23T13:07:03Z</time>
      </trkpt>
      <trkpt lat="41.892586" lon="-4.384817">
        <ele>2005.0</ele>
        <time>2017-06-23T13:07:06Z</time>
      </trkpt>
      <trkpt lat="41.892566" lon="-4.384266">
        <ele>2003.0</ele>
        <time>2017-06-23T13:07:09Z</time>
      </trkpt>
      <trkpt lat="41.892634" lon="-4.383733">
        <ele>2001.0</ele>
        <time>2017-06-23T13:07:12Z</time>
      </trkpt>
      <trkpt lat="41.892754" lon="-4.383217">
        <ele>1994.0</ele>
        <time>2017-06-23T13:07:15Z</time>
      </trkpt>
      <trkpt lat="41.892917" lon="-4.382400">
        <ele>1987.0</ele>
        <time>2017-06-23T13:07:19Z</time>
      </trkpt>
      <trkpt lat="41.893003" lon="-4.381800">
        <ele>1984.0</ele>
        <time>2017-06-23T13:07:22Z</time>
      </trkpt>
      <trkpt lat="41.893071" lon="-4.381234">
        <ele>1979.0</ele>
        <time>2017-06-23T13:07:25Z</time>
      </trkpt>
      <trkpt lat="41.893119" lon="-4.380667">
        <ele>1971.0</ele>
        <time>2017-06-23T13:07:28Z</time>
      </trkpt>
      <trkpt lat="41.893150" lon="-4.380100">
        <ele>1966.0</ele>
        <time>2017-06-23T13:07:31Z</time>
      </trkpt>
      <trkpt lat="41.893170" lon="-4.379500">
        <ele>1956.0</ele>
        <time>2017-06-23T13:07:34Z</time>
      </trkpt>
      <trkpt lat="41.893170" lon="-4.378917">
        <ele>1949.0</ele>
        <time>2017-06-23T13:07:37Z</time>
      </trkpt>
      <trkpt lat="41.893201" lon="-4.378334">
        <ele>1940.0</ele>
        <time>2017-06-23T13:07:40Z</time>
      </trkpt>
      <trkpt lat="41.893218" lon="-4.377733">
        <ele>1929.0</ele>
        <time>2017-06-23T13:07:43Z</time>
      </trkpt>
      <trkpt lat="41.893269" lon="-4.377133">
        <ele>1921.0</ele>
        <time>2017-06-23T13:07:46Z</time>
      </trkpt>
      <trkpt lat="41.893317" lon="-4.376550">
        <ele>1911.0</ele>
        <time>2017-06-23T13:07:49Z</time>
      </trkpt>
      <trkpt lat="41.893351" lon="-4.375934">
        <ele>1902.0</ele>
        <time>2017-06-23T13:07:52Z</time>
      </trkpt>
      <trkpt lat="41.893385" lon="-4.375350">
        <ele>1898.0</ele>
        <time>2017-06-23T13:07:55Z</time>
      </trkpt>
      <trkpt lat="41.893402" lon="-4.374834">
        <ele>1896.0</ele>
        <time>2017-06-23T13:07:58Z</time>
      </trkpt>
      <trkpt lat="41.893467" lon="-4.374317">
        <ele>1895.0</ele>
        <time>2017-06-23T13:08:02Z</time>
      </trkpt>
      <trkpt lat="41.893570" lon="-4.373883">
        <ele>1892.0</ele>
        <time>2017-06-23T13:08:05Z</time>
      </trkpt>
      <trkpt lat="41.893648" lon="-4.373450">
        <ele>1892.0</ele>
        <time>2017-06-23T13:08:08Z</time>
      </trkpt>
      <trkpt lat="41.893669" lon="-4.373017">
        <ele>1890.0</ele>
        <time>2017-06-23T13:08:11Z</time>
      </trkpt>
      <trkpt lat="41.893720" lon="-4.372633">
        <ele>1888.0</ele>
        <time>2017-06-23T13:08:14Z</time>
      </trkpt>
      <trkpt lat="41.893836" lon="-4.372183">
        <ele>1884.0</ele>
        <time>2017-06-23T13:08:17Z</time>
      </trkpt>
      <trkpt lat="41.893986" lon="-4.371700">
        <ele>1885.0</ele>
        <time>2017-06-23T13:08:20Z</time>
      </trkpt>
      <trkpt lat="41.894085" lon="-4.371234">
        <ele>1887.0</ele>
        <time>2017-06-23T13:08:23Z</time>
      </trkpt>
      <trkpt lat="41.894120" lon="-4.370750">
        <ele>1891.0</ele>
        <time>2017-06-23T13:08:26Z</time>
      </trkpt>
      <trkpt lat="41.894034" lon="-4.370300">
        <ele>1894.0</ele>
        <time>2017-06-23T13:08:29Z</time>
      </trkpt>
      <trkpt lat="41.893918" lon="-4.369917">
        <ele>1898.0</ele>
        <time>2017-06-23T13:08:32Z</time>
      </trkpt>
      <trkpt lat="41.893754" lon="-4.369683">
        <ele>1900.0</ele>
        <time>2017-06-23T13:08:35Z</time>
      </trkpt>
      <trkpt lat="41.893669" lon="-4.369634">
        <ele>1894.0</ele>
        <time>2017-06-23T13:08:38Z</time>
      </trkpt>
      <trkpt lat="41.893648" lon="-4.369767">
        <ele>1891.0</ele>
        <time>2017-06-23T13:08:41Z</time>
      </trkpt>
      <trkpt lat="41.893887" lon="-4.369934">
        <ele>1885.0</ele>
        <time>2017-06-23T13:08:45Z</time>
      </trkpt>
      <trkpt lat="41.894167" lon="-4.370033">
        <ele>1880.0</ele>
        <time>2017-06-23T13:08:48Z</time>
      </trkpt>
      <trkpt lat="41.894502" lon="-4.370100">
        <ele>1878.0</ele>
        <time>2017-06-23T13:08:51Z</time>
      </trkpt>
      <trkpt lat="41.894768" lon="-4.370233">
        <ele>1880.0</ele>
        <time>2017-06-23T13:08:54Z</time>
      </trkpt>
      <trkpt lat="41.895035" lon="-4.370367">
        <ele>1882.0</ele>
        <time>2017-06-23T13:08:57Z</time>
      </trkpt>
      <trkpt lat="41.895318" lon="-4.370450">
        <ele>1886.0</ele>
        <time>2017-06-23T13:09:00Z</time>
      </trkpt>
      <trkpt lat="41.895554" lon="-4.370533">
        <ele>1885.0</ele>
        <time>2017-06-23T13:09:03Z</time>
      </trkpt>
      <trkpt lat="41.895885" lon="-4.370467">
        <ele>1880.0</ele>
        <time>2017-06-23T13:09:06Z</time>
      </trkpt>
      <trkpt lat="41.896169" lon="-4.370066">
        <ele>1875.0</ele>
        <time>2017-06-23T13:09:09Z</time>
      </trkpt>
      <trkpt lat="41.896319" lon="-4.369567">
        <ele>1875.0</ele>
        <time>2017-06-23T13:09:12Z</time>
      </trkpt>
      <trkpt lat="41.896435" lon="-4.369083">
        <ele>1874.0</ele>
        <time>2017-06-23T13:09:15Z</time>
      </trkpt>
      <trkpt lat="41.896469" lon="-4.368583">
        <ele>1874.0</ele>
        <time>2017-06-23T13:09:18Z</time>
      </trkpt>
      <trkpt lat="41.896449" lon="-4.367967">
        <ele>1873.0</ele>
        <time>2017-06-23T13:09:22Z</time>
      </trkpt>
      <trkpt lat="41.896418" lon="-4.367500">
        <ele>1874.0</ele>
        <time>2017-06-23T13:09:25Z</time>
      </trkpt>
      <trkpt lat="41.896384" lon="-4.367067">
        <ele>1875.0</ele>
        <time>2017-06-23T13:09:28Z</time>
      </trkpt>
      <trkpt lat="41.896350" lon="-4.366600">
        <ele>1872.0</ele>
        <time>2017-06-23T13:09:31Z</time>
      </trkpt>
      <trkpt lat="41.896268" lon="-4.366183">
        <ele>1869.0</ele>
        <time>2017-06-23T13:09:34Z</time>
      </trkpt>
      <trkpt lat="41.896134" lon="-4.365783">
        <ele>1869.0</ele>
        <time>2017-06-23T13:09:37Z</time>
      </trkpt>
      <trkpt lat="41.896035" lon="-4.365416">
        <ele>1869.0</ele>
        <time>2017-06-23T13:09:40Z</time>
      </trkpt>
      <trkpt lat="41.895899" lon="-4.365100">
        <ele>1868.0</ele>
        <time>2017-06-23T13:09:43Z</time>
      </trkpt>
      <trkpt lat="41.895786" lon="-4.364717">
        <ele>1871.0</ele>
        <time>2017-06-23T13:09:46Z</time>
      </trkpt>
      <trkpt lat="41.895718" lon="-4.364400">
        <ele>1868.0</ele>
        <time>2017-06-23T13:09:49Z</time>
      </trkpt>
      <trkpt lat="41.895602" lon="-4.364266">
        <ele>1862.0</ele>
        <time>2017-06-23T13:09:52Z</time>
      </trkpt>
      <trkpt lat="41.895667" lon="-4.364450">
        <ele>1861.0</ele>
        <time>2017-06-23T13:09:55Z</time>
      </trkpt>
      <trkpt lat="41.895885" lon="-4.364583">
        <ele>1863.0</ele>
        <time>2017-06-23T13:09:58Z</time>
      </trkpt>
      <trkpt lat="41.896152" lon="-4.364666">
        <ele>1862.0</ele>
        <time>2017-06-23T13:10:01Z</time>
      </trkpt>
      <trkpt lat="41.896534" lon="-4.364767">
        <ele>1861.0</ele>
        <time>2017-06-23T13:10:05Z</time>
      </trkpt>
      <trkpt lat="41.896688" lon="-4.364917">
        <ele>1861.0</ele>
        <time>2017-06-23T13:10:08Z</time>
      </trkpt>
      <trkpt lat="41.896800" lon="-4.365083">
        <ele>1858.0</ele>
        <time>2017-06-23T13:10:11Z</time>
      </trkpt>
      <trkpt lat="41.896800" lon="-4.365267">
        <ele>1856.0</ele>
        <time>2017-06-23T13:10:14Z</time>
      </trkpt>
      <trkpt lat="41.896736" lon="-4.365350">
        <ele>1857.0</ele>
        <time>2017-06-23T13:10:17Z</time>
      </trkpt>
      <trkpt lat="41.896654" lon="-4.365416">
        <ele>1855.0</ele>
        <time>2017-06-23T13:10:20Z</time>
      </trkpt>
      <trkpt lat="41.896503" lon="-4.365433">
        <ele>1855.0</ele>
        <time>2017-06-23T13:10:23Z</time>
      </trkpt>
      <trkpt lat="41.896336" lon="-4.365383">
        <ele>1857.0</ele>
        <time>2017-06-23T13:10:26Z</time>
      </trkpt>
      <trkpt lat="41.896169" lon="-4.365250">
        <ele>1863.0</ele>
        <time>2017-06-23T13:10:29Z</time>
      </trkpt>
      <trkpt lat="41.896035" lon="-4.365117">
        <ele>1873.0</ele>
        <time>2017-06-23T13:10:32Z</time>
      </trkpt>
      <trkpt lat="41.895919" lon="-4.365050">
        <ele>1885.0</ele>
        <time>2017-06-23T13:10:35Z</time>
      </trkpt>
      <trkpt lat="41.895851" lon="-4.364817">
        <ele>1890.0</ele>
        <time>2017-06-23T13:10:38Z</time>
      </trkpt>
      <trkpt lat="41.895936" lon="-4.364350">
        <ele>1900.0</ele>
        <time>2017-06-23T13:10:41Z</time>
      </trkpt>
      <trkpt lat="41.896203" lon="-4.364050">
        <ele>1905.0</ele>
        <time>2017-06-23T13:10:44Z</time>
      </trkpt>
      <trkpt lat="41.896602" lon="-4.364083">
        <ele>1910.0</ele>
        <time>2017-06-23T13:10:48Z</time>
      </trkpt>
      <trkpt lat="41.896688" lon="-4.364316">
        <ele>1917.0</ele>
        <time>2017-06-23T13:10:51Z</time>
      </trkpt>
      <trkpt lat="41.896688" lon="-4.364467">
        <ele>1928.0</ele>
        <time>2017-06-23T13:10:54Z</time>
      </trkpt>
      <trkpt lat="41.896568" lon="-4.364266">
        <ele>1937.0</ele>
        <time>2017-06-23T13:10:57Z</time>
      </trkpt>
      <trkpt lat="41.896469" lon="-4.364000">
        <ele>1940.0</ele>
        <time>2017-06-23T13:11:00Z</time>
      </trkpt>
      <trkpt lat="41.896418" lon="-4.363633">
        <ele>1942.0</ele>
        <time>2017-06-23T13:11:03Z</time>
      </trkpt>
      <trkpt lat="41.896534" lon="-4.363117">
        <ele>1947.0</ele>
        <time>2017-06-23T13:11:06Z</time>
      </trkpt>
      <trkpt lat="41.896800" lon="-4.362666">
        <ele>1958.0</ele>
        <time>2017-06-23T13:11:09Z</time>
      </trkpt>
      <trkpt lat="41.897067" lon="-4.362367">
        <ele>1968.0</ele>
        <time>2017-06-23T13:11:12Z</time>
      </trkpt>
      <trkpt lat="41.897371" lon="-4.362266">
        <ele>1974.0</ele>
        <time>2017-06-23T13:11:15Z</time>
      </trkpt>
      <trkpt lat="41.897569" lon="-4.362433">
        <ele>1983.0</ele>
        <time>2017-06-23T13:11:18Z</time>
      </trkpt>
      <trkpt lat="41.897518" lon="-4.362550">
        <ele>1991.0</ele>
        <time>2017-06-23T13:11:21Z</time>
      </trkpt>
      <trkpt lat="41.897453" lon="-4.362500">
        <ele>1996.0</ele>
        <time>2017-06-23T13:11:24Z</time>
      </trkpt>
      <trkpt lat="41.897333" lon="-4.362283">
        <ele>1998.0</ele>
        <time>2017-06-23T13:11:27Z</time>
      </trkpt>
      <trkpt lat="41.897320" lon="-4.361683">
        <ele>2000.0</ele>
        <time>2017-06-23T13:11:31Z</time>
      </trkpt>
      <trkpt lat="41.897432" lon="-4.361133">
        <ele>2004.0</ele>
        <time>2017-06-23T13:11:34Z</time>
      </trkpt>
      <trkpt lat="41.897668" lon="-4.360633">
        <ele>2008.0</ele>
        <time>2017-06-23T13:11:37Z</time>
      </trkpt>
      <trkpt lat="41.898003" lon="-4.360167">
        <ele>2012.0</ele>
        <time>2017-06-23T13:11:40Z</time>
      </trkpt>
      <trkpt lat="41.898402" lon="-4.359850">
        <ele>2016.0</ele>
        <time>2017-06-23T13:11:43Z</time>
      </trkpt>
      <trkpt lat="41.898798" lon="-4.359699">
        <ele>2023.0</ele>
        <time>2017-06-23T13:11:46Z</time>
      </trkpt>
      <trkpt lat="41.899150" lon="-4.359666">
        <ele>2027.0</ele>
        <time>2017-06-23T13:11:49Z</time>
      </trkpt>
      <trkpt lat="41.899451" lon="-4.359817">
        <ele>2028.0</ele>
        <time>2017-06-23T13:11:52Z</time>
      </trkpt>
      <trkpt lat="41.899584" lon="-4.360033">
        <ele>2039.0</ele>
        <time>2017-06-23T13:11:55Z</time>
      </trkpt>
      <trkpt lat="41.899669" lon="-4.360216">
        <ele>2042.0</ele>
        <time>2017-06-23T13:11:58Z</time>
      </trkpt>
      <trkpt lat="41.899635" lon="-4.360350">
        <ele>2047.0</ele>
        <time>2017-06-23T13:12:01Z</time>
      </trkpt>
      <trkpt lat="41.899601" lon="-4.360416">
        <ele>2052.0</ele>
        <time>2017-06-23T13:12:04Z</time>
      </trkpt>
      <trkpt lat="41.899502" lon="-4.360366">
        <ele>2057.0</ele>
        <time>2017-06-23T13:12:07Z</time>
      </trkpt>
      <trkpt lat="41.899403" lon="-4.360183">
        <ele>2060.0</ele>
        <time>2017-06-23T13:12:10Z</time>
      </trkpt>
      <trkpt lat="41.899304" lon="-4.359699">
        <ele>2061.0</ele>
        <time>2017-06-23T13:12:14Z</time>
      </trkpt>
      <trkpt lat="41.899334" lon="-4.359183">
        <ele>2062.0</ele>
        <time>2017-06-23T13:12:17Z</time>
      </trkpt>
      <trkpt lat="41.899416" lon="-4.358666">
        <ele>2066.0</ele>
        <time>2017-06-23T13:12:20Z</time>
      </trkpt>
      <trkpt lat="41.899485" lon="-4.358167">
        <ele>2070.0</ele>
        <time>2017-06-23T13:12:23Z</time>
      </trkpt>
      <trkpt lat="41.899416" lon="-4.357750">
        <ele>2073.0</ele>
        <time>2017-06-23T13:12:26Z</time>
      </trkpt>
      <trkpt lat="41.899283" lon="-4.357600">
        <ele>2078.0</ele>
        <time>2017-06-23T13:12:29Z</time>
      </trkpt>
      <trkpt lat="41.899150" lon="-4.357566">
        <ele>2086.0</ele>
        <time>2017-06-23T13:12:32Z</time>
      </trkpt>
      <trkpt lat="41.899068" lon="-4.357517">
        <ele>2094.0</ele>
        <time>2017-06-23T13:12:35Z</time>
      </trkpt>
      <trkpt lat="41.899051" lon="-4.357600">
        <ele>2103.0</ele>
        <time>2017-06-23T13:12:38Z</time>
      </trkpt>
      <trkpt lat="41.899102" lon="-4.357750">
        <ele>2111.0</ele>
        <time>2017-06-23T13:12:41Z</time>
      </trkpt>
      <trkpt lat="41.899184" lon="-4.357884">
        <ele>2119.0</ele>
        <time>2017-06-23T13:12:44Z</time>
      </trkpt>
      <trkpt lat="41.899382" lon="-4.358000">
        <ele>2125.0</ele>
        <time>2017-06-23T13:12:47Z</time>
      </trkpt>
      <trkpt lat="41.899720" lon="-4.358016">
        <ele>2130.0</ele>
        <time>2017-06-23T13:12:50Z</time>
      </trkpt>
      <trkpt lat="41.900134" lon="-4.357817">
        <ele>2136.0</ele>
        <time>2017-06-23T13:12:53Z</time>
      </trkpt>
      <trkpt lat="41.900485" lon="-4.357266">
        <ele>2141.0</ele>
        <time>2017-06-23T13:12:57Z</time>
      </trkpt>
      <trkpt lat="41.900571" lon="-4.356767">
        <ele>2146.0</ele>
        <time>2017-06-23T13:13:00Z</time>
      </trkpt>
      <trkpt lat="41.900502" lon="-4.356417">
        <ele>2151.0</ele>
        <time>2017-06-23T13:13:03Z</time>
      </trkpt>
      <trkpt lat="41.900366" lon="-4.356183">
        <ele>2157.0</ele>
        <time>2017-06-23T13:13:06Z</time>
      </trkpt>
      <trkpt lat="41.900253" lon="-4.356050">
        <ele>2164.0</ele>
        <time>2017-06-23T13:13:09Z</time>
      </trkpt>
      <trkpt lat="41.900267" lon="-4.356117">
        <ele>2174.0</ele>
        <time>2017-06-23T13:13:12Z</time>
      </trkpt>
      <trkpt lat="41.900383" lon="-4.356166">
        <ele>2182.0</ele>
        <time>2017-06-23T13:13:15Z</time>
      </trkpt>
      <trkpt lat="41.900704" lon="-4.356217">
        <ele>2187.0</ele>
        <time>2017-06-23T13:13:18Z</time>
      </trkpt>
      <trkpt lat="41.901049" lon="-4.356050">
        <ele>2196.0</ele>
        <time>2017-06-23T13:13:21Z</time>
      </trkpt>
      <trkpt lat="41.901401" lon="-4.355750">
        <ele>2197.0</ele>
        <time>2017-06-23T13:13:24Z</time>
      </trkpt>
      <trkpt lat="41.901551" lon="-4.355250">
        <ele>2200.0</ele>
        <time>2017-06-23T13:13:27Z</time>
      </trkpt>
      <trkpt lat="41.901551" lon="-4.354816">
        <ele>2205.0</ele>
        <time>2017-06-23T13:13:30Z</time>
      </trkpt>
      <trkpt lat="41.901486" lon="-4.354334">
        <ele>2207.0</ele>
        <time>2017-06-23T13:13:34Z</time>
      </trkpt>
      <trkpt lat="41.901366" lon="-4.354066">
        <ele>2212.0</ele>
        <time>2017-06-23T13:13:37Z</time>
      </trkpt>
      <trkpt lat="41.901254" lon="-4.353850">
        <ele>2221.0</ele>
        <time>2017-06-23T13:13:40Z</time>
      </trkpt>
      <trkpt lat="41.901168" lon="-4.353600">
        <ele>2229.0</ele>
        <time>2017-06-23T13:13:43Z</time>
      </trkpt>
      <trkpt lat="41.901083" lon="-4.353483">
        <ele>2237.0</ele>
        <time>2017-06-23T13:13:46Z</time>
      </trkpt>
      <trkpt lat="41.901001" lon="-4.353383">
        <ele>2249.0</ele>
        <time>2017-06-23T13:13:49Z</time>
      </trkpt>
      <trkpt lat="41.900984" lon="-4.353417">
        <ele>2257.0</ele>
        <time>2017-06-23T13:13:52Z</time>
      </trkpt>
      <trkpt lat="41.901148" lon="-4.353550">
        <ele>2269.0</ele>
        <time>2017-06-23T13:13:55Z</time>
      </trkpt>
      <trkpt lat="41.901465" lon="-4.353533">
        <ele>2280.0</ele>
        <time>2017-06-23T13:13:58Z</time>
      </trkpt>
      <trkpt lat="41.901851" lon="-4.353283">
        <ele>2288.0</ele>
        <time>2017-06-23T13:14:01Z</time>
      </trkpt>
      <trkpt lat="41.902084" lon="-4.352783">
        <ele>2296.0</ele>
        <time>2017-06-23T13:14:04Z</time>
      </trkpt>
      <trkpt lat="41.902135" lon="-4.352283">
        <ele>2302.0</ele>
        <time>2017-06-23T13:14:07Z</time>
      </trkpt>
      <trkpt lat="41.902084" lon="-4.351800">
        <ele>2313.0</ele>
        <time>2017-06-23T13:14:10Z</time>
      </trkpt>
      <trkpt lat="41.902019" lon="-4.351383">
        <ele>2323.0</ele>
        <time>2017-06-23T13:14:13Z</time>
      </trkpt>
      <trkpt lat="41.901851" lon="-4.350983">
        <ele>2332.0</ele>
        <time>2017-06-23T13:14:17Z</time>
      </trkpt>
      <trkpt lat="41.901783" lon="-4.351033">
        <ele>2340.0</ele>
        <time>2017-06-23T13:14:20Z</time>
      </trkpt>
      <trkpt lat="41.901885" lon="-4.351150">
        <ele>2349.0</ele>
        <time>2017-06-23T13:14:23Z</time>
      </trkpt>
      <trkpt lat="41.902135" lon="-4.351200">
        <ele>2358.0</ele>
        <time>2017-06-23T13:14:26Z</time>
      </trkpt>
      <trkpt lat="41.902449" lon="-4.351117">
        <ele>2362.0</ele>
        <time>2017-06-23T13:14:29Z</time>
      </trkpt>
      <trkpt lat="41.902767" lon="-4.350683">
        <ele>2369.0</ele>
        <time>2017-06-23T13:14:32Z</time>
      </trkpt>
      <trkpt lat="41.902934" lon="-4.350167">
        <ele>2381.0</ele>
        <time>2017-06-23T13:14:35Z</time>
      </trkpt>
      <trkpt lat="41.902968" lon="-4.349683">
        <ele>2390.0</ele>
        <time>2017-06-23T13:14:38Z</time>
      </trkpt>
      <trkpt lat="41.902866" lon="-4.349267">
        <ele>2394.0</ele>
        <time>2017-06-23T13:14:41Z</time>
      </trkpt>
      <trkpt lat="41.902702" lon="-4.348934">
        <ele>2400.0</ele>
        <time>2017-06-23T13:14:44Z</time>
      </trkpt>
      <trkpt lat="41.902569" lon="-4.348633">
        <ele>2403.0</ele>
        <time>2017-06-23T13:14:47Z</time>
      </trkpt>
      <trkpt lat="41.902384" lon="-4.348384">
        <ele>2404.0</ele>
        <time>2017-06-23T13:14:50Z</time>
      </trkpt>
      <trkpt lat="41.902268" lon="-4.348384">
        <ele>2403.0</ele>
        <time>2017-06-23T13:14:53Z</time>
      </trkpt>
      <trkpt lat="41.902268" lon="-4.348517">
        <ele>2400.0</ele>
        <time>2017-06-23T13:14:56Z</time>
      </trkpt>
      <trkpt lat="41.902582" lon="-4.348683">
        <ele>2403.0</ele>
        <time>2017-06-23T13:15:00Z</time>
      </trkpt>
      <trkpt lat="41.902886" lon="-4.348667">
        <ele>2409.0</ele>
        <time>2017-06-23T13:15:03Z</time>
      </trkpt>
      <trkpt lat="41.903166" lon="-4.348683">
        <ele>2413.0</ele>
        <time>2017-06-23T13:15:06Z</time>
      </trkpt>
      <trkpt lat="41.903371" lon="-4.348817">
        <ele>2416.0</ele>
        <time>2017-06-23T13:15:09Z</time>
      </trkpt>
      <trkpt lat="41.903402" lon="-4.349033">
        <ele>2420.0</ele>
        <time>2017-06-23T13:15:12Z</time>
      </trkpt>
      <trkpt lat="41.903371" lon="-4.349150">
        <ele>2429.0</ele>
        <time>2017-06-23T13:15:15Z</time>
      </trkpt>
      <trkpt lat="41.903286" lon="-4.349167">
        <ele>2431.0</ele>
        <time>2017-06-23T13:15:18Z</time>
      </trkpt>
      <trkpt lat="41.903152" lon="-4.349083">
        <ele>2436.0</ele>
        <time>2017-06-23T13:15:21Z</time>
      </trkpt>
      <trkpt lat="41.903019" lon="-4.348850">
        <ele>2440.0</ele>
        <time>2017-06-23T13:15:24Z</time>
      </trkpt>
      <trkpt lat="41.902951" lon="-4.348567">
        <ele>2442.0</ele>
        <time>2017-06-23T13:15:27Z</time>
      </trkpt>
      <trkpt lat="41.902985" lon="-4.348100">
        <ele>2444.0</ele>
        <time>2017-06-23T13:15:30Z</time>
      </trkpt>
      <trkpt lat="41.903084" lon="-4.347633">
        <ele>2445.0</ele>
        <time>2017-06-23T13:15:33Z</time>
      </trkpt>
      <trkpt lat="41.903166" lon="-4.347150">
        <ele>2448.0</ele>
        <time>2017-06-23T13:15:36Z</time>
      </trkpt>
      <trkpt lat="41.903351" lon="-4.346583">
        <ele>2448.0</ele>
        <time>2017-06-23T13:15:40Z</time>
      </trkpt>
      <trkpt lat="41.903504" lon="-4.346100">
        <ele>2445.0</ele>
        <time>2017-06-23T13:15:43Z</time>
      </trkpt>
      <trkpt lat="41.903634" lon="-4.345617">
        <ele>2444.0</ele>
        <time>2017-06-23T13:15:46Z</time>
      </trkpt>
      <trkpt lat="41.903736" lon="-4.345150">
        <ele>2438.0</ele>
        <time>2017-06-23T13:15:49Z</time>
      </trkpt>
      <trkpt lat="41.903900" lon="-4.344583">
        <ele>2434.0</ele>
        <time>2017-06-23T13:15:52Z</time>
      </trkpt>
      <trkpt lat="41.904016" lon="-4.344034">
        <ele>2424.0</ele>
        <time>2017-06-23T13:15:55Z</time>
      </trkpt>
      <trkpt lat="41.904116" lon="-4.343400">
        <ele>2426.0</ele>
        <time>2017-06-23T13:15:58Z</time>
      </trkpt>
      <trkpt lat="41.904252" lon="-4.342934">
        <ele>2427.0</ele>
        <time>2017-06-23T13:16:01Z</time>
      </trkpt>
      <trkpt lat="41.904467" lon="-4.342250">
        <ele>2429.0</ele>
        <time>2017-06-23T13:16:04Z</time>
      </trkpt>
      <trkpt lat="41.904652" lon="-4.341750">
        <ele>2449.0</ele>
        <time>2017-06-23T13:16:07Z</time>
      </trkpt>
      <trkpt lat="41.904819" lon="-4.341316">
        <ele>2446.0</ele>
        <time>2017-06-23T13:16:10Z</time>
      </trkpt>
      <trkpt lat="41.905017" lon="-4.340733">
        <ele>2446.0</ele>
        <time>2017-06-23T13:16:13Z</time>
      </trkpt>
      <trkpt lat="41.905150" lon="-4.340183">
        <ele>2447.0</ele>
        <time>2017-06-23T13:16:16Z</time>
      </trkpt>
      <trkpt lat="41.905301" lon="-4.339700">
        <ele>2448.0</ele>
        <time>2017-06-23T13:16:19Z</time>
      </trkpt>
      <trkpt lat="41.905516" lon="-4.339150">
        <ele>2443.0</ele>
        <time>2017-06-23T13:16:23Z</time>
      </trkpt>
      <trkpt lat="41.905666" lon="-4.338667">
        <ele>2442.0</ele>
        <time>2017-06-23T13:16:26Z</time>
      </trkpt>
      <trkpt lat="41.905768" lon="-4.338166">
        <ele>2442.0</ele>
        <time>2017-06-23T13:16:29Z</time>
      </trkpt>
      <trkpt lat="41.905902" lon="-4.337650">
        <ele>2445.0</ele>
        <time>2017-06-23T13:16:32Z</time>
      </trkpt>
      <trkpt lat="41.905967" lon="-4.337200">
        <ele>2449.0</ele>
        <time>2017-06-23T13:16:35Z</time>
      </trkpt>
      <trkpt lat="41.905867" lon="-4.336867">
        <ele>2450.0</ele>
        <time>2017-06-23T13:16:38Z</time>
      </trkpt>
      <trkpt lat="41.905721" lon="-4.336817">
        <ele>2451.0</ele>
        <time>2017-06-23T13:16:41Z</time>
      </trkpt>
      <trkpt lat="41.905666" lon="-4.336984">
        <ele>2448.0</ele>
        <time>2017-06-23T13:16:44Z</time>
      </trkpt>
      <trkpt lat="41.905932" lon="-4.337083">
        <ele>2447.0</ele>
        <time>2017-06-23T13:16:47Z</time>
      </trkpt>
      <trkpt lat="41.906267" lon="-4.336950">
        <ele>2450.0</ele>
        <time>2017-06-23T13:16:50Z</time>
      </trkpt>
      <trkpt lat="41.906585" lon="-4.336884">
        <ele>2450.0</ele>
        <time>2017-06-23T13:16:53Z</time>
      </trkpt>
      <trkpt lat="41.906902" lon="-4.336584">
        <ele>2453.0</ele>
        <time>2017-06-23T13:16:56Z</time>
      </trkpt>
      <trkpt lat="41.907186" lon="-4.336217">
        <ele>2456.0</ele>
        <time>2017-06-23T13:16:59Z</time>
      </trkpt>
      <trkpt lat="41.907302" lon="-4.335784">
        <ele>2459.0</ele>
        <time>2017-06-23T13:17:02Z</time>
      </trkpt>
      <trkpt lat="41.907268" lon="-4.335250">
        <ele>2463.0</ele>
        <time>2017-06-23T13:17:06Z</time>
      </trkpt>
      <trkpt lat="41.907121" lon="-4.335217">
        <ele>2464.0</ele>
        <time>2017-06-23T13:17:09Z</time>
      </trkpt>
      <trkpt lat="41.907121" lon="-4.335484">
        <ele>2468.0</ele>
        <time>2017-06-23T13:17:12Z</time>
      </trkpt>
      <trkpt lat="41.907254" lon="-4.335650">
        <ele>2472.0</ele>
        <time>2017-06-23T13:17:15Z</time>
      </trkpt>
      <trkpt lat="41.907466" lon="-4.335784">
        <ele>2474.0</ele>
        <time>2017-06-23T13:17:18Z</time>
      </trkpt>
      <trkpt lat="41.907783" lon="-4.335767">
        <ele>2477.0</ele>
        <time>2017-06-23T13:17:21Z</time>
      </trkpt>
      <trkpt lat="41.908070" lon="-4.335567">
        <ele>2480.0</ele>
        <time>2017-06-23T13:17:24Z</time>
      </trkpt>
      <trkpt lat="41.908234" lon="-4.335133">
        <ele>2481.0</ele>
        <time>2017-06-23T13:17:27Z</time>
      </trkpt>
      <trkpt lat="41.908149" lon="-4.334767">
        <ele>2488.0</ele>
        <time>2017-06-23T13:17:30Z</time>
      </trkpt>
      <trkpt lat="41.908050" lon="-4.334600">
        <ele>2491.0</ele>
        <time>2017-06-23T13:17:33Z</time>
      </trkpt>
      <trkpt lat="41.907937" lon="-4.334600">
        <ele>2492.0</ele>
        <time>2017-06-23T13:17:36Z</time>
      </trkpt>
      <trkpt lat="41.907886" lon="-4.334783">
        <ele>2496.0</ele>
        <time>2017-06-23T13:17:39Z</time>
      </trkpt>
      <trkpt lat="41.907937" lon="-4.334917">
        <ele>2493.0</ele>
        <time>2017-06-23T13:17:42Z</time>
      </trkpt>
      <trkpt lat="41.908149" lon="-4.335017">
        <ele>2486.0</ele>
        <time>2017-06-23T13:17:45Z</time>
      </trkpt>
      <trkpt lat="41.908668" lon="-4.334933">
        <ele>2483.0</ele>
        <time>2017-06-23T13:17:49Z</time>
      </trkpt>
      <trkpt lat="41.909050" lon="-4.334750">
        <ele>2485.0</ele>
        <time>2017-06-23T13:17:52Z</time>
      </trkpt>
      <trkpt lat="41.909402" lon="-4.334433">
        <ele>2486.0</ele>
        <time>2017-06-23T13:17:55Z</time>
      </trkpt>
      <trkpt lat="41.909785" lon="-4.334084">
        <ele>2488.0</ele>
        <time>2017-06-23T13:17:58Z</time>
      </trkpt>
      <trkpt lat="41.910119" lon="-4.333717">
        <ele>2491.0</ele>
        <time>2017-06-23T13:18:01Z</time>
      </trkpt>
      <trkpt lat="41.910468" lon="-4.333283">
        <ele>2496.0</ele>
        <time>2017-06-23T13:18:04Z</time>
      </trkpt>
      <trkpt lat="41.910700" lon="-4.332917">
        <ele>2505.0</ele>
        <time>2017-06-23T13:18:07Z</time>
      </trkpt>
      <trkpt lat="41.910901" lon="-4.332500">
        <ele>2507.0</ele>
        <time>2017-06-23T13:18:10Z</time>
      </trkpt>
      <trkpt lat="41.911052" lon="-4.332000">
        <ele>2506.0</ele>
        <time>2017-06-23T13:18:13Z</time>
      </trkpt>
      <trkpt lat="41.911151" lon="-4.331583">
        <ele>2495.0</ele>
        <time>2017-06-23T13:18:16Z</time>
      </trkpt>
      <trkpt lat="41.911301" lon="-4.331167">
        <ele>2483.0</ele>
        <time>2017-06-23T13:18:19Z</time>
      </trkpt>
      <trkpt lat="41.911434" lon="-4.330833">
        <ele>2464.0</ele>
        <time>2017-06-23T13:18:22Z</time>
      </trkpt>
      <trkpt lat="41.911619" lon="-4.330400">
        <ele>2453.0</ele>
        <time>2017-06-23T13:18:25Z</time>
      </trkpt>
      <trkpt lat="41.911800" lon="-4.329817">
        <ele>2440.0</ele>
        <time>2017-06-23T13:18:29Z</time>
      </trkpt>
      <trkpt lat="41.912100" lon="-4.329333">
        <ele>2425.0</ele>
        <time>2017-06-23T13:18:32Z</time>
      </trkpt>
      <trkpt lat="41.912435" lon="-4.328933">
        <ele>2421.0</ele>
        <time>2017-06-23T13:18:35Z</time>
      </trkpt>
      <trkpt lat="41.912718" lon="-4.328533">
        <ele>2416.0</ele>
        <time>2017-06-23T13:18:38Z</time>
      </trkpt>
      <trkpt lat="41.912988" lon="-4.328116">
        <ele>2417.0</ele>
        <time>2017-06-23T13:18:41Z</time>
      </trkpt>
      <trkpt lat="41.913319" lon="-4.327800">
        <ele>2413.0</ele>
        <time>2017-06-23T13:18:44Z</time>
      </trkpt>
      <trkpt lat="41.913633" lon="-4.327483">
        <ele>2414.0</ele>
        <time>2017-06-23T13:18:47Z</time>
      </trkpt>
      <trkpt lat="41.913903" lon="-4.327133">
        <ele>2407.0</ele>
        <time>2017-06-23T13:18:50Z</time>
      </trkpt>
      <trkpt lat="41.914234" lon="-4.326750">
        <ele>2409.0</ele>
        <time>2017-06-23T13:18:53Z</time>
      </trkpt>
      <trkpt lat="41.914467" lon="-4.326383">
        <ele>2411.0</ele>
        <time>2017-06-23T13:18:56Z</time>
      </trkpt>
      <trkpt lat="41.914668" lon="-4.326000">
        <ele>2412.0</ele>
        <time>2017-06-23T13:18:59Z</time>
      </trkpt>
      <trkpt lat="41.914853" lon="-4.325600">
        <ele>2411.0</ele>
        <time>2017-06-23T13:19:02Z</time>
      </trkpt>
      <trkpt lat="41.915034" lon="-4.325133">
        <ele>2410.0</ele>
        <time>2017-06-23T13:19:05Z</time>
      </trkpt>
      <trkpt lat="41.915351" lon="-4.324583">
        <ele>2411.0</ele>
        <time>2017-06-23T13:19:09Z</time>
      </trkpt>
      <trkpt lat="41.915536" lon="-4.324216">
        <ele>2404.0</ele>
        <time>2017-06-23T13:19:12Z</time>
      </trkpt>
      <trkpt lat="41.915768" lon="-4.323783">
        <ele>2401.0</ele>
        <time>2017-06-23T13:19:15Z</time>
      </trkpt>
      <trkpt lat="41.915949" lon="-4.323433">
        <ele>2396.0</ele>
        <time>2017-06-23T13:19:18Z</time>
      </trkpt>
      <trkpt lat="41.916219" lon="-4.323017">
        <ele>2390.0</ele>
        <time>2017-06-23T13:19:21Z</time>
      </trkpt>
      <trkpt lat="41.916519" lon="-4.322650">
        <ele>2387.0</ele>
        <time>2017-06-23T13:19:24Z</time>
      </trkpt>
      <trkpt lat="41.916768" lon="-4.322233">
        <ele>2378.0</ele>
        <time>2017-06-23T13:19:27Z</time>
      </trkpt>
      <trkpt lat="41.916984" lon="-4.321766">
        <ele>2380.0</ele>
        <time>2017-06-23T13:19:30Z</time>
      </trkpt>
      <trkpt lat="41.917202" lon="-4.321400">
        <ele>2378.0</ele>
        <time>2017-06-23T13:19:33Z</time>
      </trkpt>
      <trkpt lat="41.917301" lon="-4.320933">
        <ele>2373.0</ele>
        <time>2017-06-23T13:19:36Z</time>
      </trkpt>
      <trkpt lat="41.917315" lon="-4.320516">
        <ele>2373.0</ele>
        <time>2017-06-23T13:19:39Z</time>
      </trkpt>
      <trkpt lat="41.917383" lon="-4.320183">
        <ele>2365.0</ele>
        <time>2017-06-23T13:19:42Z</time>
      </trkpt>
      <trkpt lat="41.917421" lon="-4.319783">
        <ele>2361.0</ele>
        <time>2017-06-23T13:19:45Z</time>
      </trkpt>
      <trkpt lat="41.917619" lon="-4.319383">
        <ele>2354.0</ele>
        <time>2017-06-23T13:19:48Z</time>
      </trkpt>
      <trkpt lat="41.917800" lon="-4.318934">
        <ele>2347.0</ele>
        <time>2017-06-23T13:19:51Z</time>
      </trkpt>
      <trkpt lat="41.917984" lon="-4.318233">
        <ele>2342.0</ele>
        <time>2017-06-23T13:19:55Z</time>
      </trkpt>
      <trkpt lat="41.918117" lon="-4.317750">
        <ele>2338.0</ele>
        <time>2017-06-23T13:19:58Z</time>
      </trkpt>
      <trkpt lat="41.918350" lon="-4.317300">
        <ele>2332.0</ele>
        <time>2017-06-23T13:20:01Z</time>
      </trkpt>
      <trkpt lat="41.918616" lon="-4.316867">
        <ele>2326.0</ele>
        <time>2017-06-23T13:20:04Z</time>
      </trkpt>
      <trkpt lat="41.918917" lon="-4.316433">
        <ele>2328.0</ele>
        <time>2017-06-23T13:20:07Z</time>
      </trkpt>
      <trkpt lat="41.919217" lon="-4.316117">
        <ele>2327.0</ele>
        <time>2017-06-23T13:20:10Z</time>
      </trkpt>
      <trkpt lat="41.919586" lon="-4.315734">
        <ele>2324.0</ele>
        <time>2017-06-23T13:20:13Z</time>
      </trkpt>
      <trkpt lat="41.919869" lon="-4.315300">
        <ele>2321.0</ele>
        <time>2017-06-23T13:20:16Z</time>
      </trkpt>
      <trkpt lat="41.920115" lon="-4.314834">
        <ele>2312.0</ele>
        <time>2017-06-23T13:20:19Z</time>
      </trkpt>
      <trkpt lat="41.920416" lon="-4.314333">
        <ele>2309.0</ele>
        <time>2017-06-23T13:20:22Z</time>
      </trkpt>
      <trkpt lat="41.920699" lon="-4.313883">
        <ele>2306.0</ele>
        <time>2017-06-23T13:20:25Z</time>
      </trkpt>
      <trkpt lat="41.921017" lon="-4.313467">
        <ele>2302.0</ele>
        <time>2017-06-23T13:20:28Z</time>
      </trkpt>
      <trkpt lat="41.921369" lon="-4.312800">
        <ele>2298.0</ele>
        <time>2017-06-23T13:20:32Z</time>
      </trkpt>
      <trkpt lat="41.921618" lon="-4.312267">
        <ele>2294.0</ele>
        <time>2017-06-23T13:20:35Z</time>
      </trkpt>
      <trkpt lat="41.921850" lon="-4.311750">
        <ele>2290.0</ele>
        <time>2017-06-23T13:20:38Z</time>
      </trkpt>
      <trkpt lat="41.922134" lon="-4.311284">
        <ele>2283.0</ele>
        <time>2017-06-23T13:20:41Z</time>
      </trkpt>
      <trkpt lat="41.922366" lon="-4.310750">
        <ele>2279.0</ele>
        <time>2017-06-23T13:20:44Z</time>
      </trkpt>
      <trkpt lat="41.922632" lon="-4.310267">
        <ele>2275.0</ele>
        <time>2017-06-23T13:20:47Z</time>
      </trkpt>
      <trkpt lat="41.922885" lon="-4.309784">
        <ele>2273.0</ele>
        <time>2017-06-23T13:20:50Z</time>
      </trkpt>
      <trkpt lat="41.923182" lon="-4.309333">
        <ele>2265.0</ele>
        <time>2017-06-23T13:20:53Z</time>
      </trkpt>
      <trkpt lat="41.923585" lon="-4.308900">
        <ele>2261.0</ele>
        <time>2017-06-23T13:20:56Z</time>
      </trkpt>
      <trkpt lat="41.923865" lon="-4.308417">
        <ele>2261.0</ele>
        <time>2017-06-23T13:20:59Z</time>
      </trkpt>
      <trkpt lat="41.924183" lon="-4.307983">
        <ele>2256.0</ele>
        <time>2017-06-23T13:21:02Z</time>
      </trkpt>
      <trkpt lat="41.924449" lon="-4.307467">
        <ele>2252.0</ele>
        <time>2017-06-23T13:21:05Z</time>
      </trkpt>
      <trkpt lat="41.924685" lon="-4.306883">
        <ele>2248.0</ele>
        <time>2017-06-23T13:21:08Z</time>
      </trkpt>
      <trkpt lat="41.924886" lon="-4.306317">
        <ele>2244.0</ele>
        <time>2017-06-23T13:21:11Z</time>
      </trkpt>
      <trkpt lat="41.925200" lon="-4.305667">
        <ele>2238.0</ele>
        <time>2017-06-23T13:21:15Z</time>
      </trkpt>
      <trkpt lat="41.925419" lon="-4.305133">
        <ele>2231.0</ele>
        <time>2017-06-23T13:21:18Z</time>
      </trkpt>
      <trkpt lat="41.925651" lon="-4.304634">
        <ele>2228.0</ele>
        <time>2017-06-23T13:21:21Z</time>
      </trkpt>
      <trkpt lat="41.925784" lon="-4.304167">
        <ele>2222.0</ele>
        <time>2017-06-23T13:21:24Z</time>
      </trkpt>
      <trkpt lat="41.925952" lon="-4.303684">
        <ele>2219.0</ele>
        <time>2017-06-23T13:21:27Z</time>
      </trkpt>
      <trkpt lat="41.926150" lon="-4.303301">
        <ele>2219.0</ele>
        <time>2017-06-23T13:21:30Z</time>
      </trkpt>
      <trkpt lat="41.926348" lon="-4.302883">
        <ele>2216.0</ele>
        <time>2017-06-23T13:21:33Z</time>
      </trkpt>
      <trkpt lat="41.926532" lon="-4.302450">
        <ele>2215.0</ele>
        <time>2017-06-23T13:21:36Z</time>
      </trkpt>
      <trkpt lat="41.926720" lon="-4.302083">
        <ele>2220.0</ele>
        <time>2017-06-23T13:21:39Z</time>
      </trkpt>
      <trkpt lat="41.926850" lon="-4.301683">
        <ele>2219.0</ele>
        <time>2017-06-23T13:21:42Z</time>
      </trkpt>
      <trkpt lat="41.926850" lon="-4.301267">
        <ele>2219.0</ele>
        <time>2017-06-23T13:21:45Z</time>
      </trkpt>
      <trkpt lat="41.926819" lon="-4.300900">
        <ele>2216.0</ele>
        <time>2017-06-23T13:21:48Z</time>
      </trkpt>
      <trkpt lat="41.926751" lon="-4.300517">
        <ele>2213.0</ele>
        <time>2017-06-23T13:21:51Z</time>
      </trkpt>
      <trkpt lat="41.926601" lon="-4.300200">
        <ele>2214.0</ele>
        <time>2017-06-23T13:21:54Z</time>
      </trkpt>
      <trkpt lat="41.926433" lon="-4.299783">
        <ele>2213.0</ele>
        <time>2017-06-23T13:21:58Z</time>
      </trkpt>
      <trkpt lat="41.926320" lon="-4.299417">
        <ele>2212.0</ele>
        <time>2017-06-23T13:22:01Z</time>
      </trkpt>
      <trkpt lat="41.926300" lon="-4.299016">
        <ele>2209.0</ele>
        <time>2017-06-23T13:22:04Z</time>
      </trkpt>
      <trkpt lat="41.926320" lon="-4.298550">
        <ele>2206.0</ele>
        <time>2017-06-23T13:22:07Z</time>
      </trkpt>
      <trkpt lat="41.926519" lon="-4.298050">
        <ele>2205.0</ele>
        <time>2017-06-23T13:22:10Z</time>
      </trkpt>
      <trkpt lat="41.926819" lon="-4.297683">
        <ele>2204.0</ele>
        <time>2017-06-23T13:22:13Z</time>
      </trkpt>
      <trkpt lat="41.927171" lon="-4.297400">
        <ele>2203.0</ele>
        <time>2017-06-23T13:22:16Z</time>
      </trkpt>
      <trkpt lat="41.927502" lon="-4.297250">
        <ele>2202.0</ele>
        <time>2017-06-23T13:22:19Z</time>
      </trkpt>
      <trkpt lat="41.927868" lon="-4.297150">
        <ele>2201.0</ele>
        <time>2017-06-23T13:22:22Z</time>
      </trkpt>
      <trkpt lat="41.928219" lon="-4.297117">
        <ele>2209.0</ele>
        <time>2017-06-23T13:22:25Z</time>
      </trkpt>
      <trkpt lat="41.928516" lon="-4.297117">
        <ele>2214.0</ele>
        <time>2017-06-23T13:22:28Z</time>
      </trkpt>
      <trkpt lat="41.928817" lon="-4.297200">
        <ele>2216.0</ele>
        <time>2017-06-23T13:22:31Z</time>
      </trkpt>
      <trkpt lat="41.929083" lon="-4.297316">
        <ele>2220.0</ele>
        <time>2017-06-23T13:22:34Z</time>
      </trkpt>
      <trkpt lat="41.929316" lon="-4.297467">
        <ele>2223.0</ele>
        <time>2017-06-23T13:22:37Z</time>
      </trkpt>
      <trkpt lat="41.929599" lon="-4.297666">
        <ele>2225.0</ele>
        <time>2017-06-23T13:22:41Z</time>
      </trkpt>
      <trkpt lat="41.929766" lon="-4.297867">
        <ele>2225.0</ele>
        <time>2017-06-23T13:22:44Z</time>
      </trkpt>
      <trkpt lat="41.929852" lon="-4.298100">
        <ele>2229.0</ele>
        <time>2017-06-23T13:22:47Z</time>
      </trkpt>
      <trkpt lat="41.929934" lon="-4.298317">
        <ele>2230.0</ele>
        <time>2017-06-23T13:22:50Z</time>
      </trkpt>
      <trkpt lat="41.929951" lon="-4.298517">
        <ele>2232.0</ele>
        <time>2017-06-23T13:22:53Z</time>
      </trkpt>
      <trkpt lat="41.929900" lon="-4.298650">
        <ele>2232.0</ele>
        <time>2017-06-23T13:22:56Z</time>
      </trkpt>
      <trkpt lat="41.929766" lon="-4.298600">
        <ele>2231.0</ele>
        <time>2017-06-23T13:22:59Z</time>
      </trkpt>
      <trkpt lat="41.929620" lon="-4.298450">
        <ele>2231.0</ele>
        <time>2017-06-23T13:23:02Z</time>
      </trkpt>
      <trkpt lat="41.929486" lon="-4.298283">
        <ele>2227.0</ele>
        <time>2017-06-23T13:23:05Z</time>
      </trkpt>
      <trkpt lat="41.929387" lon="-4.297967">
        <ele>2218.0</ele>
        <time>2017-06-23T13:23:08Z</time>
      </trkpt>
      <trkpt lat="41.929401" lon="-4.297534">
        <ele>2214.0</ele>
        <time>2017-06-23T13:23:11Z</time>
      </trkpt>
      <trkpt lat="41.929620" lon="-4.297083">
        <ele>2216.0</ele>
        <time>2017-06-23T13:23:14Z</time>
      </trkpt>
      <trkpt lat="41.929835" lon="-4.296733">
        <ele>2212.0</ele>
        <time>2017-06-23T13:23:17Z</time>
      </trkpt>
      <trkpt lat="41.930084" lon="-4.296333">
        <ele>2208.0</ele>
        <time>2017-06-23T13:23:20Z</time>
      </trkpt>
      <trkpt lat="41.930535" lon="-4.295917">
        <ele>2211.0</ele>
        <time>2017-06-23T13:23:24Z</time>
      </trkpt>
      <trkpt lat="41.930887" lon="-4.295750">
        <ele>2210.0</ele>
        <time>2017-06-23T13:23:27Z</time>
      </trkpt>
      <trkpt lat="41.931235" lon="-4.295783">
        <ele>2211.0</ele>
        <time>2017-06-23T13:23:30Z</time>
      </trkpt>
      <trkpt lat="41.931498" lon="-4.295833">
        <ele>2214.0</ele>
        <time>2017-06-23T13:23:33Z</time>
      </trkpt>
      <trkpt lat="41.931815" lon="-4.295917">
        <ele>2212.0</ele>
        <time>2017-06-23T13:23:36Z</time>
      </trkpt>
      <trkpt lat="41.932116" lon="-4.296033">
        <ele>2215.0</ele>
        <time>2017-06-23T13:23:39Z</time>
      </trkpt>
      <trkpt lat="41.932348" lon="-4.296200">
        <ele>2214.0</ele>
        <time>2017-06-23T13:23:42Z</time>
      </trkpt>
      <trkpt lat="41.932652" lon="-4.296333">
        <ele>2212.0</ele>
        <time>2017-06-23T13:23:45Z</time>
      </trkpt>
      <trkpt lat="41.932932" lon="-4.296533">
        <ele>2211.0</ele>
        <time>2017-06-23T13:23:48Z</time>
      </trkpt>
      <trkpt lat="41.933185" lon="-4.296717">
        <ele>2208.0</ele>
        <time>2017-06-23T13:23:51Z</time>
      </trkpt>
      <trkpt lat="41.933369" lon="-4.296916">
        <ele>2203.0</ele>
        <time>2017-06-23T13:23:54Z</time>
      </trkpt>
      <trkpt lat="41.933434" lon="-4.297083">
        <ele>2197.0</ele>
        <time>2017-06-23T13:23:57Z</time>
      </trkpt>
      <trkpt lat="41.933383" lon="-4.297184">
        <ele>2195.0</ele>
        <time>2017-06-23T13:24:00Z</time>
      </trkpt>
      <trkpt lat="41.933301" lon="-4.297217">
        <ele>2188.0</ele>
        <time>2017-06-23T13:24:03Z</time>
      </trkpt>
      <trkpt lat="41.933137" lon="-4.297100">
        <ele>2184.0</ele>
        <time>2017-06-23T13:24:07Z</time>
      </trkpt>
      <trkpt lat="41.933031" lon="-4.296783">
        <ele>2179.0</ele>
        <time>2017-06-23T13:24:10Z</time>
      </trkpt>
      <trkpt lat="41.932966" lon="-4.296400">
        <ele>2173.0</ele>
        <time>2017-06-23T13:24:13Z</time>
      </trkpt>
      <trkpt lat="41.932953" lon="-4.295900">
        <ele>2168.0</ele>
        <time>2017-06-23T13:24:16Z</time>
      </trkpt>
      <trkpt lat="41.933031" lon="-4.295400">
        <ele>2164.0</ele>
        <time>2017-06-23T13:24:19Z</time>
      </trkpt>
      <trkpt lat="41.933117" lon="-4.294900">
        <ele>2162.0</ele>
        <time>2017-06-23T13:24:22Z</time>
      </trkpt>
      <trkpt lat="41.933270" lon="-4.294384">
        <ele>2162.0</ele>
        <time>2017-06-23T13:24:25Z</time>
      </trkpt>
      <trkpt lat="41.933400" lon="-4.293883">
        <ele>2163.0</ele>
        <time>2017-06-23T13:24:28Z</time>
      </trkpt>
      <trkpt lat="41.933636" lon="-4.293433">
        <ele>2163.0</ele>
        <time>2017-06-23T13:24:31Z</time>
      </trkpt>
      <trkpt lat="41.933885" lon="-4.293033">
        <ele>2162.0</ele>
        <time>2017-06-23T13:24:34Z</time>
      </trkpt>
      <trkpt lat="41.934066" lon="-4.292584">
        <ele>2160.0</ele>
        <time>2017-06-23T13:24:37Z</time>
      </trkpt>
      <trkpt lat="41.934284" lon="-4.292150">
        <ele>2157.0</ele>
        <time>2017-06-23T13:24:40Z</time>
      </trkpt>
      <trkpt lat="41.934517" lon="-4.291467">
        <ele>2154.0</ele>
        <time>2017-06-23T13:24:44Z</time>
      </trkpt>
      <trkpt lat="41.934670" lon="-4.290966">
        <ele>2151.0</ele>
        <time>2017-06-23T13:24:47Z</time>
      </trkpt>
      <trkpt lat="41.934769" lon="-4.290484">
        <ele>2149.0</ele>
        <time>2017-06-23T13:24:50Z</time>
      </trkpt>
      <trkpt lat="41.934882" lon="-4.290000">
        <ele>2148.0</ele>
        <time>2017-06-23T13:24:53Z</time>
      </trkpt>
      <trkpt lat="41.934985" lon="-4.289600">
        <ele>2149.0</ele>
        <time>2017-06-23T13:24:56Z</time>
      </trkpt>
      <trkpt lat="41.935169" lon="-4.289166">
        <ele>2147.0</ele>
        <time>2017-06-23T13:24:59Z</time>
      </trkpt>
      <trkpt lat="41.935333" lon="-4.288700">
        <ele>2148.0</ele>
        <time>2017-06-23T13:25:02Z</time>
      </trkpt>
      <trkpt lat="41.935487" lon="-4.288250">
        <ele>2152.0</ele>
        <time>2017-06-23T13:25:05Z</time>
      </trkpt>
      <trkpt lat="41.935586" lon="-4.287783">
        <ele>2154.0</ele>
        <time>2017-06-23T13:25:08Z</time>
      </trkpt>
      <trkpt lat="41.935565" lon="-4.287350">
        <ele>2158.0</ele>
        <time>2017-06-23T13:25:11Z</time>
      </trkpt>
      <trkpt lat="41.935500" lon="-4.287033">
        <ele>2160.0</ele>
        <time>2017-06-23T13:25:14Z</time>
      </trkpt>
      <trkpt lat="41.935353" lon="-4.286950">
        <ele>2164.0</ele>
        <time>2017-06-23T13:25:17Z</time>
      </trkpt>
      <trkpt lat="41.935268" lon="-4.287083">
        <ele>2167.0</ele>
        <time>2017-06-23T13:25:20Z</time>
      </trkpt>
      <trkpt lat="41.935183" lon="-4.287167">
        <ele>2170.0</ele>
        <time>2017-06-23T13:25:23Z</time>
      </trkpt>
      <trkpt lat="41.935183" lon="-4.287466">
        <ele>2172.0</ele>
        <time>2017-06-23T13:25:27Z</time>
      </trkpt>
      <trkpt lat="41.935367" lon="-4.287650">
        <ele>2175.0</ele>
        <time>2017-06-23T13:25:30Z</time>
      </trkpt>
      <trkpt lat="41.935620" lon="-4.287767">
        <ele>2176.0</ele>
        <time>2017-06-23T13:25:33Z</time>
      </trkpt>
      <trkpt lat="41.935965" lon="-4.287717">
        <ele>2179.0</ele>
        <time>2017-06-23T13:25:36Z</time>
      </trkpt>
      <trkpt lat="41.936252" lon="-4.287433">
        <ele>2181.0</ele>
        <time>2017-06-23T13:25:39Z</time>
      </trkpt>
      <trkpt lat="41.936416" lon="-4.287033">
        <ele>2183.0</ele>
        <time>2017-06-23T13:25:42Z</time>
      </trkpt>
      <trkpt lat="41.936436" lon="-4.286634">
        <ele>2186.0</ele>
        <time>2017-06-23T13:25:45Z</time>
      </trkpt>
      <trkpt lat="41.936368" lon="-4.286333">
        <ele>2189.0</ele>
        <time>2017-06-23T13:25:48Z</time>
      </trkpt>
      <trkpt lat="41.936252" lon="-4.286033">
        <ele>2193.0</ele>
        <time>2017-06-23T13:25:51Z</time>
      </trkpt>
      <trkpt lat="41.936149" lon="-4.285816">
        <ele>2196.0</ele>
        <time>2017-06-23T13:25:54Z</time>
      </trkpt>
      <trkpt lat="41.935999" lon="-4.285750">
        <ele>2195.0</ele>
        <time>2017-06-23T13:25:57Z</time>
      </trkpt>
      <trkpt lat="41.935866" lon="-4.285750">
        <ele>2192.0</ele>
        <time>2017-06-23T13:26:00Z</time>
      </trkpt>
      <trkpt lat="41.935767" lon="-4.285867">
        <ele>2191.0</ele>
        <time>2017-06-23T13:26:03Z</time>
      </trkpt>
      <trkpt lat="41.935784" lon="-4.286033">
        <ele>2192.0</ele>
        <time>2017-06-23T13:26:06Z</time>
      </trkpt>
      <trkpt lat="41.935900" lon="-4.286283">
        <ele>2191.0</ele>
        <time>2017-06-23T13:26:10Z</time>
      </trkpt>
      <trkpt lat="41.936071" lon="-4.286450">
        <ele>2187.0</ele>
        <time>2017-06-23T13:26:13Z</time>
      </trkpt>
      <trkpt lat="41.936235" lon="-4.286683">
        <ele>2187.0</ele>
        <time>2017-06-23T13:26:16Z</time>
      </trkpt>
      <trkpt lat="41.936334" lon="-4.286833">
        <ele>2188.0</ele>
        <time>2017-06-23T13:26:19Z</time>
      </trkpt>
      <trkpt lat="41.936436" lon="-4.287017">
        <ele>2187.0</ele>
        <time>2017-06-23T13:26:22Z</time>
      </trkpt>
      <trkpt lat="41.936634" lon="-4.287167">
        <ele>2186.0</ele>
        <time>2017-06-23T13:26:25Z</time>
      </trkpt>
      <trkpt lat="41.936887" lon="-4.287267">
        <ele>2186.0</ele>
        <time>2017-06-23T13:26:28Z</time>
      </trkpt>
      <trkpt lat="41.937184" lon="-4.287283">
        <ele>2185.0</ele>
        <time>2017-06-23T13:26:31Z</time>
      </trkpt>
      <trkpt lat="41.937536" lon="-4.287133">
        <ele>2183.0</ele>
        <time>2017-06-23T13:26:34Z</time>
      </trkpt>
      <trkpt lat="41.937802" lon="-4.286716">
        <ele>2179.0</ele>
        <time>2017-06-23T13:26:37Z</time>
      </trkpt>
      <trkpt lat="41.937884" lon="-4.286234">
        <ele>2174.0</ele>
        <time>2017-06-23T13:26:40Z</time>
      </trkpt>
      <trkpt lat="41.937901" lon="-4.285767">
        <ele>2171.0</ele>
        <time>2017-06-23T13:26:43Z</time>
      </trkpt>
      <trkpt lat="41.937884" lon="-4.285317">
        <ele>2168.0</ele>
        <time>2017-06-23T13:26:46Z</time>
      </trkpt>
      <trkpt lat="41.937850" lon="-4.284867">
        <ele>2166.0</ele>
        <time>2017-06-23T13:26:49Z</time>
      </trkpt>
      <trkpt lat="41.937768" lon="-4.284300">
        <ele>2164.0</ele>
        <time>2017-06-23T13:26:53Z</time>
      </trkpt>
      <trkpt lat="41.937717" lon="-4.283850">
        <ele>2163.0</ele>
        <time>2017-06-23T13:26:56Z</time>
      </trkpt>
      <trkpt lat="41.937669" lon="-4.283434">
        <ele>2162.0</ele>
        <time>2017-06-23T13:26:59Z</time>
      </trkpt>
      <trkpt lat="41.937601" lon="-4.282984">
        <ele>2163.0</ele>
        <time>2017-06-23T13:27:02Z</time>
      </trkpt>
      <trkpt lat="41.937536" lon="-4.282550">
        <ele>2166.0</ele>
        <time>2017-06-23T13:27:05Z</time>
      </trkpt>
      <trkpt lat="41.937471" lon="-4.282100">
        <ele>2165.0</ele>
        <time>2017-06-23T13:27:08Z</time>
      </trkpt>
      <trkpt lat="41.937365" lon="-4.281667">
        <ele>2167.0</ele>
        <time>2017-06-23T13:27:11Z</time>
      </trkpt>
      <trkpt lat="41.937252" lon="-4.281300">
        <ele>2170.0</ele>
        <time>2017-06-23T13:27:14Z</time>
      </trkpt>
      <trkpt lat="41.937133" lon="-4.280950">
        <ele>2171.0</ele>
        <time>2017-06-23T13:27:17Z</time>
      </trkpt>
      <trkpt lat="41.936965" lon="-4.280783">
        <ele>2166.0</ele>
        <time>2017-06-23T13:27:20Z</time>
      </trkpt>
      <trkpt lat="41.936836" lon="-4.280734">
        <ele>2162.0</ele>
        <time>2017-06-23T13:27:23Z</time>
      </trkpt>
      <trkpt lat="41.936818" lon="-4.280884">
        <ele>2160.0</ele>
        <time>2017-06-23T13:27:26Z</time>
      </trkpt>
      <trkpt lat="41.936853" lon="-4.281034">
        <ele>2159.0</ele>
        <time>2017-06-23T13:27:29Z</time>
      </trkpt>
      <trkpt lat="41.936952" lon="-4.281234">
        <ele>2158.0</ele>
        <time>2017-06-23T13:27:33Z</time>
      </trkpt>
      <trkpt lat="41.936986" lon="-4.281417">
        <ele>2159.0</ele>
        <time>2017-06-23T13:27:36Z</time>
      </trkpt>
      <trkpt lat="41.937051" lon="-4.281584">
        <ele>2160.0</ele>
        <time>2017-06-23T13:27:39Z</time>
      </trkpt>
      <trkpt lat="41.937167" lon="-4.281717">
        <ele>2160.0</ele>
        <time>2017-06-23T13:27:42Z</time>
      </trkpt>
      <trkpt lat="41.937300" lon="-4.281900">
        <ele>2161.0</ele>
        <time>2017-06-23T13:27:45Z</time>
      </trkpt>
      <trkpt lat="41.937416" lon="-4.282067">
        <ele>2161.0</ele>
        <time>2017-06-23T13:27:48Z</time>
      </trkpt>
      <trkpt lat="41.937601" lon="-4.282234">
        <ele>2163.0</ele>
        <time>2017-06-23T13:27:51Z</time>
      </trkpt>
      <trkpt lat="41.937751" lon="-4.282400">
        <ele>2165.0</ele>
        <time>2017-06-23T13:27:54Z</time>
      </trkpt>
      <trkpt lat="41.937884" lon="-4.282550">
        <ele>2163.0</ele>
        <time>2017-06-23T13:27:57Z</time>
      </trkpt>
      <trkpt lat="41.937884" lon="-4.282717">
        <ele>2156.0</ele>
        <time>2017-06-23T13:28:00Z</time>
      </trkpt>
      <trkpt lat="41.937734" lon="-4.282750">
        <ele>2150.0</ele>
        <time>2017-06-23T13:28:03Z</time>
      </trkpt>
      <trkpt lat="41.937618" lon="-4.282517">
        <ele>2142.0</ele>
        <time>2017-06-23T13:28:06Z</time>
      </trkpt>
      <trkpt lat="41.937498" lon="-4.282167">
        <ele>2134.0</ele>
        <time>2017-06-23T13:28:09Z</time>
      </trkpt>
      <trkpt lat="41.937536" lon="-4.281667">
        <ele>2130.0</ele>
        <time>2017-06-23T13:28:12Z</time>
      </trkpt>
      <trkpt lat="41.937635" lon="-4.280983">
        <ele>2128.0</ele>
        <time>2017-06-23T13:28:16Z</time>
      </trkpt>
      <trkpt lat="41.937703" lon="-4.280484">
        <ele>2124.0</ele>
        <time>2017-06-23T13:28:19Z</time>
      </trkpt>
      <trkpt lat="41.937717" lon="-4.279967">
        <ele>2123.0</ele>
        <time>2017-06-23T13:28:22Z</time>
      </trkpt>
      <trkpt lat="41.937751" lon="-4.279550">
        <ele>2128.0</ele>
        <time>2017-06-23T13:28:25Z</time>
      </trkpt>
      <trkpt lat="41.937836" lon="-4.279034">
        <ele>2140.0</ele>
        <time>2017-06-23T13:28:28Z</time>
      </trkpt>
      <trkpt lat="41.937850" lon="-4.278617">
        <ele>2149.0</ele>
        <time>2017-06-23T13:28:31Z</time>
      </trkpt>
      <trkpt lat="41.937768" lon="-4.278217">
        <ele>2150.0</ele>
        <time>2017-06-23T13:28:34Z</time>
      </trkpt>
      <trkpt lat="41.937570" lon="-4.278133">
        <ele>2155.0</ele>
        <time>2017-06-23T13:28:37Z</time>
      </trkpt>
      <trkpt lat="41.937450" lon="-4.278217">
        <ele>2162.0</ele>
        <time>2017-06-23T13:28:40Z</time>
      </trkpt>
      <trkpt lat="41.937385" lon="-4.278317">
        <ele>2169.0</ele>
        <time>2017-06-23T13:28:43Z</time>
      </trkpt>
      <trkpt lat="41.937519" lon="-4.278483">
        <ele>2173.0</ele>
        <time>2017-06-23T13:28:46Z</time>
      </trkpt>
      <trkpt lat="41.937802" lon="-4.278467">
        <ele>2178.0</ele>
        <time>2017-06-23T13:28:49Z</time>
      </trkpt>
      <trkpt lat="41.938068" lon="-4.278133">
        <ele>2185.0</ele>
        <time>2017-06-23T13:28:52Z</time>
      </trkpt>
      <trkpt lat="41.938335" lon="-4.277684">
        <ele>2195.0</ele>
        <time>2017-06-23T13:28:56Z</time>
      </trkpt>
      <trkpt lat="41.938485" lon="-4.277334">
        <ele>2199.0</ele>
        <time>2017-06-23T13:28:59Z</time>
      </trkpt>
      <trkpt lat="41.938386" lon="-4.276950">
        <ele>2202.0</ele>
        <time>2017-06-23T13:29:02Z</time>
      </trkpt>
      <trkpt lat="41.938215" lon="-4.277033">
        <ele>2208.0</ele>
        <time>2017-06-23T13:29:05Z</time>
      </trkpt>
      <trkpt lat="41.938335" lon="-4.277200">
        <ele>2213.0</ele>
        <time>2017-06-23T13:29:08Z</time>
      </trkpt>
      <trkpt lat="41.938618" lon="-4.277200">
        <ele>2216.0</ele>
        <time>2017-06-23T13:29:11Z</time>
      </trkpt>
      <trkpt lat="41.938868" lon="-4.276833">
        <ele>2224.0</ele>
        <time>2017-06-23T13:29:14Z</time>
      </trkpt>
      <trkpt lat="41.938984" lon="-4.276417">
        <ele>2231.0</ele>
        <time>2017-06-23T13:29:17Z</time>
      </trkpt>
      <trkpt lat="41.938932" lon="-4.276017">
        <ele>2235.0</ele>
        <time>2017-06-23T13:29:20Z</time>
      </trkpt>
      <trkpt lat="41.938734" lon="-4.275934">
        <ele>2238.0</ele>
        <time>2017-06-23T13:29:23Z</time>
      </trkpt>
      <trkpt lat="41.938666" lon="-4.276117">
        <ele>2248.0</ele>
        <time>2017-06-23T13:29:26Z</time>
      </trkpt>
      <trkpt lat="41.938700" lon="-4.276300">
        <ele>2254.0</ele>
        <time>2017-06-23T13:29:29Z</time>
      </trkpt>
      <trkpt lat="41.938885" lon="-4.276417">
        <ele>2253.0</ele>
        <time>2017-06-23T13:29:32Z</time>
      </trkpt>
      <trkpt lat="41.939185" lon="-4.276417">
        <ele>2253.0</ele>
        <time>2017-06-23T13:29:35Z</time>
      </trkpt>
      <trkpt lat="41.939568" lon="-4.276150">
        <ele>2256.0</ele>
        <time>2017-06-23T13:29:39Z</time>
      </trkpt>
      <trkpt lat="41.939766" lon="-4.275800">
        <ele>2256.0</ele>
        <time>2017-06-23T13:29:42Z</time>
      </trkpt>
      <trkpt lat="41.939919" lon="-4.275333">
        <ele>2263.0</ele>
        <time>2017-06-23T13:29:45Z</time>
      </trkpt>
      <trkpt lat="41.940053" lon="-4.274967">
        <ele>2269.0</ele>
        <time>2017-06-23T13:29:48Z</time>
      </trkpt>
      <trkpt lat="41.940032" lon="-4.274534">
        <ele>2272.0</ele>
        <time>2017-06-23T13:29:51Z</time>
      </trkpt>
      <trkpt lat="41.939885" lon="-4.274250">
        <ele>2279.0</ele>
        <time>2017-06-23T13:29:54Z</time>
      </trkpt>
      <trkpt lat="41.939701" lon="-4.274050">
        <ele>2282.0</ele>
        <time>2017-06-23T13:29:57Z</time>
      </trkpt>
      <trkpt lat="41.939533" lon="-4.274050">
        <ele>2286.0</ele>
        <time>2017-06-23T13:30:00Z</time>
      </trkpt>
      <trkpt lat="41.939581" lon="-4.274283">
        <ele>2291.0</ele>
        <time>2017-06-23T13:30:03Z</time>
      </trkpt>
      <trkpt lat="41.939735" lon="-4.274417">
        <ele>2296.0</ele>
        <time>2017-06-23T13:30:06Z</time>
      </trkpt>
      <trkpt lat="41.939967" lon="-4.274484">
        <ele>2298.0</ele>
        <time>2017-06-23T13:30:09Z</time>
      </trkpt>
      <trkpt lat="41.940251" lon="-4.274384">
        <ele>2299.0</ele>
        <time>2017-06-23T13:30:12Z</time>
      </trkpt>
      <trkpt lat="41.940483" lon="-4.273984">
        <ele>2305.0</ele>
        <time>2017-06-23T13:30:15Z</time>
      </trkpt>
      <trkpt lat="41.940667" lon="-4.273600">
        <ele>2312.0</ele>
        <time>2017-06-23T13:30:18Z</time>
      </trkpt>
      <trkpt lat="41.940800" lon="-4.273000">
        <ele>2319.0</ele>
        <time>2017-06-23T13:30:22Z</time>
      </trkpt>
      <trkpt lat="41.940667" lon="-4.272633">
        <ele>2325.0</ele>
        <time>2017-06-23T13:30:25Z</time>
      </trkpt>
      <trkpt lat="41.940483" lon="-4.272617">
        <ele>2330.0</ele>
        <time>2017-06-23T13:30:28Z</time>
      </trkpt>
      <trkpt lat="41.940585" lon="-4.272833">
        <ele>2336.0</ele>
        <time>2017-06-23T13:30:31Z</time>
      </trkpt>
      <trkpt lat="41.940869" lon="-4.272750">
        <ele>2343.0</ele>
        <time>2017-06-23T13:30:34Z</time>
      </trkpt>
      <trkpt lat="41.941050" lon="-4.272384">
        <ele>2346.0</ele>
        <time>2017-06-23T13:30:37Z</time>
      </trkpt>
      <trkpt lat="41.941002" lon="-4.271934">
        <ele>2349.0</ele>
        <time>2017-06-23T13:30:40Z</time>
      </trkpt>
      <trkpt lat="41.940783" lon="-4.271717">
        <ele>2356.0</ele>
        <time>2017-06-23T13:30:43Z</time>
      </trkpt>
      <trkpt lat="41.940637" lon="-4.271717">
        <ele>2363.0</ele>
        <time>2017-06-23T13:30:46Z</time>
      </trkpt>
      <trkpt lat="41.940602" lon="-4.271883">
        <ele>2364.0</ele>
        <time>2017-06-23T13:30:49Z</time>
      </trkpt>
      <trkpt lat="41.940783" lon="-4.272067">
        <ele>2367.0</ele>
        <time>2017-06-23T13:30:52Z</time>
      </trkpt>
      <trkpt lat="41.941067" lon="-4.271967">
        <ele>2369.0</ele>
        <time>2017-06-23T13:30:55Z</time>
      </trkpt>
      <trkpt lat="41.941221" lon="-4.271550">
        <ele>2372.0</ele>
        <time>2017-06-23T13:30:58Z</time>
      </trkpt>
      <trkpt lat="41.941285" lon="-4.270950">
        <ele>2375.0</ele>
        <time>2017-06-23T13:31:02Z</time>
      </trkpt>
      <trkpt lat="41.941248" lon="-4.270500">
        <ele>2383.0</ele>
        <time>2017-06-23T13:31:05Z</time>
      </trkpt>
      <trkpt lat="41.941149" lon="-4.270133">
        <ele>2388.0</ele>
        <time>2017-06-23T13:31:08Z</time>
      </trkpt>
      <trkpt lat="41.940982" lon="-4.269950">
        <ele>2389.0</ele>
        <time>2017-06-23T13:31:11Z</time>
      </trkpt>
      <trkpt lat="41.940848" lon="-4.270050">
        <ele>2392.0</ele>
        <time>2017-06-23T13:31:14Z</time>
      </trkpt>
      <trkpt lat="41.940848" lon="-4.270233">
        <ele>2395.0</ele>
        <time>2017-06-23T13:31:17Z</time>
      </trkpt>
      <trkpt lat="41.941016" lon="-4.270400">
        <ele>2396.0</ele>
        <time>2017-06-23T13:31:20Z</time>
      </trkpt>
      <trkpt lat="41.941234" lon="-4.270450">
        <ele>2401.0</ele>
        <time>2017-06-23T13:31:23Z</time>
      </trkpt>
      <trkpt lat="41.941466" lon="-4.270467">
        <ele>2400.0</ele>
        <time>2017-06-23T13:31:26Z</time>
      </trkpt>
      <trkpt lat="41.941767" lon="-4.270284">
        <ele>2403.0</ele>
        <time>2017-06-23T13:31:29Z</time>
      </trkpt>
      <trkpt lat="41.942050" lon="-4.270067">
        <ele>2408.0</ele>
        <time>2017-06-23T13:31:32Z</time>
      </trkpt>
      <trkpt lat="41.942317" lon="-4.269850">
        <ele>2414.0</ele>
        <time>2017-06-23T13:31:35Z</time>
      </trkpt>
      <trkpt lat="41.942566" lon="-4.269567">
        <ele>2423.0</ele>
        <time>2017-06-23T13:31:38Z</time>
      </trkpt>
      <trkpt lat="41.942733" lon="-4.269000">
        <ele>2431.0</ele>
        <time>2017-06-23T13:31:42Z</time>
      </trkpt>
      <trkpt lat="41.942648" lon="-4.268750">
        <ele>2440.0</ele>
        <time>2017-06-23T13:31:44Z</time>
      </trkpt>
      <trkpt lat="41.942467" lon="-4.268500">
        <ele>2447.0</ele>
        <time>2017-06-23T13:31:48Z</time>
      </trkpt>
      <trkpt lat="41.942334" lon="-4.268567">
        <ele>2450.0</ele>
        <time>2017-06-23T13:31:51Z</time>
      </trkpt>
      <trkpt lat="41.942303" lon="-4.268733">
        <ele>2455.0</ele>
        <time>2017-06-23T13:31:54Z</time>
      </trkpt>
      <trkpt lat="41.942317" lon="-4.268884">
        <ele>2455.0</ele>
        <time>2017-06-23T13:31:57Z</time>
      </trkpt>
      <trkpt lat="41.942416" lon="-4.269067">
        <ele>2457.0</ele>
        <time>2017-06-23T13:32:00Z</time>
      </trkpt>
      <trkpt lat="41.942634" lon="-4.269133">
        <ele>2461.0</ele>
        <time>2017-06-23T13:32:03Z</time>
      </trkpt>
      <trkpt lat="41.942884" lon="-4.269167">
        <ele>2463.0</ele>
        <time>2017-06-23T13:32:06Z</time>
      </trkpt>
      <trkpt lat="41.943184" lon="-4.268984">
        <ele>2467.0</ele>
        <time>2017-06-23T13:32:09Z</time>
      </trkpt>
      <trkpt lat="41.943399" lon="-4.268717">
        <ele>2471.0</ele>
        <time>2017-06-23T13:32:12Z</time>
      </trkpt>
      <trkpt lat="41.943570" lon="-4.268350">
        <ele>2471.0</ele>
        <time>2017-06-23T13:32:15Z</time>
      </trkpt>
      <trkpt lat="41.943485" lon="-4.267900">
        <ele>2478.0</ele>
        <time>2017-06-23T13:32:18Z</time>
      </trkpt>
      <trkpt lat="41.943365" lon="-4.267600">
        <ele>2483.0</ele>
        <time>2017-06-23T13:32:21Z</time>
      </trkpt>
      <trkpt lat="41.943150" lon="-4.267367">
        <ele>2484.0</ele>
        <time>2017-06-23T13:32:25Z</time>
      </trkpt>
      <trkpt lat="41.943068" lon="-4.267534">
        <ele>2486.0</ele>
        <time>2017-06-23T13:32:28Z</time>
      </trkpt>
      <trkpt lat="41.943150" lon="-4.267734">
        <ele>2488.0</ele>
        <time>2017-06-23T13:32:31Z</time>
      </trkpt>
      <trkpt lat="41.943317" lon="-4.267867">
        <ele>2488.0</ele>
        <time>2017-06-23T13:32:34Z</time>
      </trkpt>
      <trkpt lat="41.943536" lon="-4.267950">
        <ele>2487.0</ele>
        <time>2017-06-23T13:32:37Z</time>
      </trkpt>
      <trkpt lat="41.943802" lon="-4.268000">
        <ele>2487.0</ele>
        <time>2017-06-23T13:32:40Z</time>
      </trkpt>
      <trkpt lat="41.944100" lon="-4.268017">
        <ele>2488.0</ele>
        <time>2017-06-23T13:32:43Z</time>
      </trkpt>
      <trkpt lat="41.944366" lon="-4.268017">
        <ele>2487.0</ele>
        <time>2017-06-23T13:32:46Z</time>
      </trkpt>
      <trkpt lat="41.944632" lon="-4.267884">
        <ele>2482.0</ele>
        <time>2017-06-23T13:32:49Z</time>
      </trkpt>
      <trkpt lat="41.944984" lon="-4.267700">
        <ele>2481.0</ele>
        <time>2017-06-23T13:32:52Z</time>
      </trkpt>
      <trkpt lat="41.945285" lon="-4.267467">
        <ele>2482.0</ele>
        <time>2017-06-23T13:32:55Z</time>
      </trkpt>
      <trkpt lat="41.945582" lon="-4.267167">
        <ele>2483.0</ele>
        <time>2017-06-23T13:32:58Z</time>
      </trkpt>
      <trkpt lat="41.945752" lon="-4.266817">
        <ele>2484.0</ele>
        <time>2017-06-23T13:33:01Z</time>
      </trkpt>
      <trkpt lat="41.945985" lon="-4.266467">
        <ele>2488.0</ele>
        <time>2017-06-23T13:33:04Z</time>
      </trkpt>
      <trkpt lat="41.946200" lon="-4.265917">
        <ele>2496.0</ele>
        <time>2017-06-23T13:33:08Z</time>
      </trkpt>
      <trkpt lat="41.946186" lon="-4.265550">
        <ele>2499.0</ele>
        <time>2017-06-23T13:33:11Z</time>
      </trkpt>
      <trkpt lat="41.945998" lon="-4.265400">
        <ele>2503.0</ele>
        <time>2017-06-23T13:33:14Z</time>
      </trkpt>
      <trkpt lat="41.945950" lon="-4.265567">
        <ele>2507.0</ele>
        <time>2017-06-23T13:33:17Z</time>
      </trkpt>
      <trkpt lat="41.946101" lon="-4.265700">
        <ele>2505.0</ele>
        <time>2017-06-23T13:33:20Z</time>
      </trkpt>
      <trkpt lat="41.946432" lon="-4.265667">
        <ele>2507.0</ele>
        <time>2017-06-23T13:33:23Z</time>
      </trkpt>
      <trkpt lat="41.946715" lon="-4.265617">
        <ele>2513.0</ele>
        <time>2017-06-23T13:33:26Z</time>
      </trkpt>
      <trkpt lat="41.947002" lon="-4.265483">
        <ele>2513.0</ele>
        <time>2017-06-23T13:33:29Z</time>
      </trkpt>
      <trkpt lat="41.947214" lon="-4.265117">
        <ele>2519.0</ele>
        <time>2017-06-23T13:33:32Z</time>
      </trkpt>
      <trkpt lat="41.947398" lon="-4.264750">
        <ele>2521.0</ele>
        <time>2017-06-23T13:33:35Z</time>
      </trkpt>
      <trkpt lat="41.947467" lon="-4.264316">
        <ele>2521.0</ele>
        <time>2017-06-23T13:33:38Z</time>
      </trkpt>
      <trkpt lat="41.947433" lon="-4.263850">
        <ele>2527.0</ele>
        <time>2017-06-23T13:33:41Z</time>
      </trkpt>
      <trkpt lat="41.947351" lon="-4.263450">
        <ele>2533.0</ele>
        <time>2017-06-23T13:33:44Z</time>
      </trkpt>
      <trkpt lat="41.947214" lon="-4.263133">
        <ele>2537.0</ele>
        <time>2017-06-23T13:33:47Z</time>
      </trkpt>
      <trkpt lat="41.947002" lon="-4.263100">
        <ele>2539.0</ele>
        <time>2017-06-23T13:33:51Z</time>
      </trkpt>
      <trkpt lat="41.947016" lon="-4.263283">
        <ele>2543.0</ele>
        <time>2017-06-23T13:33:54Z</time>
      </trkpt>
      <trkpt lat="41.947115" lon="-4.263434">
        <ele>2547.0</ele>
        <time>2017-06-23T13:33:57Z</time>
      </trkpt>
      <trkpt lat="41.947286" lon="-4.263583">
        <ele>2548.0</ele>
        <time>2017-06-23T13:34:00Z</time>
      </trkpt>
      <trkpt lat="41.947586" lon="-4.263633">
        <ele>2551.0</ele>
        <time>2017-06-23T13:34:03Z</time>
      </trkpt>
      <trkpt lat="41.947866" lon="-4.263650">
        <ele>2553.0</ele>
        <time>2017-06-23T13:34:06Z</time>
      </trkpt>
      <trkpt lat="41.948167" lon="-4.263566">
        <ele>2551.0</ele>
        <time>2017-06-23T13:34:09Z</time>
      </trkpt>
      <trkpt lat="41.948467" lon="-4.263283">
        <ele>2550.0</ele>
        <time>2017-06-23T13:34:12Z</time>
      </trkpt>
      <trkpt lat="41.948785" lon="-4.263017">
        <ele>2548.0</ele>
        <time>2017-06-23T13:34:15Z</time>
      </trkpt>
      <trkpt lat="41.949051" lon="-4.262683">
        <ele>2551.0</ele>
        <time>2017-06-23T13:34:18Z</time>
      </trkpt>
      <trkpt lat="41.949352" lon="-4.262400">
        <ele>2556.0</ele>
        <time>2017-06-23T13:34:21Z</time>
      </trkpt>
      <trkpt lat="41.949635" lon="-4.262067">
        <ele>2562.0</ele>
        <time>2017-06-23T13:34:24Z</time>
      </trkpt>
      <trkpt lat="41.949850" lon="-4.261650">
        <ele>2569.0</ele>
        <time>2017-06-23T13:34:27Z</time>
      </trkpt>
      <trkpt lat="41.949915" lon="-4.261183">
        <ele>2574.0</ele>
        <time>2017-06-23T13:34:30Z</time>
      </trkpt>
      <trkpt lat="41.949782" lon="-4.260700">
        <ele>2582.0</ele>
        <time>2017-06-23T13:34:34Z</time>
      </trkpt>
      <trkpt lat="41.949601" lon="-4.260467">
        <ele>2590.0</ele>
        <time>2017-06-23T13:34:37Z</time>
      </trkpt>
      <trkpt lat="41.949417" lon="-4.260366">
        <ele>2595.0</ele>
        <time>2017-06-23T13:34:40Z</time>
      </trkpt>
      <trkpt lat="41.949318" lon="-4.260450">
        <ele>2604.0</ele>
        <time>2017-06-23T13:34:43Z</time>
      </trkpt>
      <trkpt lat="41.949352" lon="-4.260600">
        <ele>2608.0</ele>
        <time>2017-06-23T13:34:46Z</time>
      </trkpt>
      <trkpt lat="41.949485" lon="-4.260783">
        <ele>2613.0</ele>
        <time>2017-06-23T13:34:49Z</time>
      </trkpt>
      <trkpt lat="41.949752" lon="-4.260833">
        <ele>2614.0</ele>
        <time>2017-06-23T13:34:52Z</time>
      </trkpt>
      <trkpt lat="41.950083" lon="-4.260733">
        <ele>2617.0</ele>
        <time>2017-06-23T13:34:55Z</time>
      </trkpt>
      <trkpt lat="41.950417" lon="-4.260533">
        <ele>2620.0</ele>
        <time>2017-06-23T13:34:58Z</time>
      </trkpt>
      <trkpt lat="41.950732" lon="-4.260200">
        <ele>2626.0</ele>
        <time>2017-06-23T13:35:01Z</time>
      </trkpt>
      <trkpt lat="41.951018" lon="-4.259850">
        <ele>2632.0</ele>
        <time>2017-06-23T13:35:04Z</time>
      </trkpt>
      <trkpt lat="41.951182" lon="-4.259400">
        <ele>2638.0</ele>
        <time>2017-06-23T13:35:07Z</time>
      </trkpt>
      <trkpt lat="41.951234" lon="-4.258900">
        <ele>2648.0</ele>
        <time>2017-06-23T13:35:10Z</time>
      </trkpt>
      <trkpt lat="41.951217" lon="-4.258417">
        <ele>2650.0</ele>
        <time>2017-06-23T13:35:14Z</time>
      </trkpt>
      <trkpt lat="41.951049" lon="-4.258100">
        <ele>2649.0</ele>
        <time>2017-06-23T13:35:17Z</time>
      </trkpt>
      <trkpt lat="41.950865" lon="-4.258067">
        <ele>2654.0</ele>
        <time>2017-06-23T13:35:20Z</time>
      </trkpt>
      <trkpt lat="41.950752" lon="-4.258150">
        <ele>2655.0</ele>
        <time>2017-06-23T13:35:23Z</time>
      </trkpt>
      <trkpt lat="41.950732" lon="-4.258366">
        <ele>2658.0</ele>
        <time>2017-06-23T13:35:26Z</time>
      </trkpt>
      <trkpt lat="41.950817" lon="-4.258550">
        <ele>2664.0</ele>
        <time>2017-06-23T13:35:29Z</time>
      </trkpt>
      <trkpt lat="41.950916" lon="-4.258700">
        <ele>2663.0</ele>
        <time>2017-06-23T13:35:32Z</time>
      </trkpt>
      <trkpt lat="41.951118" lon="-4.258900">
        <ele>2663.0</ele>
        <time>2017-06-23T13:35:35Z</time>
      </trkpt>
      <trkpt lat="41.951350" lon="-4.259033">
        <ele>2664.0</ele>
        <time>2017-06-23T13:35:38Z</time>
      </trkpt>
      <trkpt lat="41.951667" lon="-4.259083">
        <ele>2664.0</ele>
        <time>2017-06-23T13:35:41Z</time>
      </trkpt>
      <trkpt lat="41.952019" lon="-4.259050">
        <ele>2665.0</ele>
        <time>2017-06-23T13:35:44Z</time>
      </trkpt>
      <trkpt lat="41.952337" lon="-4.258983">
        <ele>2665.0</ele>
        <time>2017-06-23T13:35:47Z</time>
      </trkpt>
      <trkpt lat="41.952682" lon="-4.258867">
        <ele>2668.0</ele>
        <time>2017-06-23T13:35:50Z</time>
      </trkpt>
      <trkpt lat="41.953016" lon="-4.258683">
        <ele>2668.0</ele>
        <time>2017-06-23T13:35:53Z</time>
      </trkpt>
      <trkpt lat="41.953484" lon="-4.258433">
        <ele>2669.0</ele>
        <time>2017-06-23T13:35:57Z</time>
      </trkpt>
      <trkpt lat="41.953785" lon="-4.258234">
        <ele>2664.0</ele>
        <time>2017-06-23T13:36:00Z</time>
      </trkpt>
      <trkpt lat="41.954082" lon="-4.257867">
        <ele>2657.0</ele>
        <time>2017-06-23T13:36:03Z</time>
      </trkpt>
      <trkpt lat="41.954348" lon="-4.257450">
        <ele>2654.0</ele>
        <time>2017-06-23T13:36:06Z</time>
      </trkpt>
      <trkpt lat="41.954601" lon="-4.257017">
        <ele>2647.0</ele>
        <time>2017-06-23T13:36:09Z</time>
      </trkpt>
      <trkpt lat="41.954850" lon="-4.256567">
        <ele>2648.0</ele>
        <time>2017-06-23T13:36:12Z</time>
      </trkpt>
      <trkpt lat="41.955117" lon="-4.256200">
        <ele>2646.0</ele>
        <time>2017-06-23T13:36:15Z</time>
      </trkpt>
      <trkpt lat="41.955417" lon="-4.255750">
        <ele>2646.0</ele>
        <time>2017-06-23T13:36:18Z</time>
      </trkpt>
      <trkpt lat="41.955718" lon="-4.255350">
        <ele>2646.0</ele>
        <time>2017-06-23T13:36:21Z</time>
      </trkpt>
      <trkpt lat="41.956015" lon="-4.254983">
        <ele>2640.0</ele>
        <time>2017-06-23T13:36:24Z</time>
      </trkpt>
      <trkpt lat="41.956319" lon="-4.254550">
        <ele>2635.0</ele>
        <time>2017-06-23T13:36:27Z</time>
      </trkpt>
      <trkpt lat="41.956633" lon="-4.254150">
        <ele>2628.0</ele>
        <time>2017-06-23T13:36:30Z</time>
      </trkpt>
      <trkpt lat="41.956937" lon="-4.253650">
        <ele>2621.0</ele>
        <time>2017-06-23T13:36:33Z</time>
      </trkpt>
      <trkpt lat="41.957302" lon="-4.252933">
        <ele>2616.0</ele>
        <time>2017-06-23T13:36:37Z</time>
      </trkpt>
      <trkpt lat="41.957569" lon="-4.252366">
        <ele>2612.0</ele>
        <time>2017-06-23T13:36:40Z</time>
      </trkpt>
      <trkpt lat="41.957784" lon="-4.251817">
        <ele>2609.0</ele>
        <time>2017-06-23T13:36:43Z</time>
      </trkpt>
      <trkpt lat="41.958019" lon="-4.251283">
        <ele>2603.0</ele>
        <time>2017-06-23T13:36:46Z</time>
      </trkpt>
      <trkpt lat="41.958200" lon="-4.250750">
        <ele>2605.0</ele>
        <time>2017-06-23T13:36:49Z</time>
      </trkpt>
      <trkpt lat="41.958402" lon="-4.250250">
        <ele>2603.0</ele>
        <time>2017-06-23T13:36:52Z</time>
      </trkpt>
      <trkpt lat="41.958583" lon="-4.249766">
        <ele>2603.0</ele>
        <time>2017-06-23T13:36:55Z</time>
      </trkpt>
      <trkpt lat="41.958815" lon="-4.249316">
        <ele>2601.0</ele>
        <time>2017-06-23T13:36:58Z</time>
      </trkpt>
      <trkpt lat="41.959085" lon="-4.248833">
        <ele>2598.0</ele>
        <time>2017-06-23T13:37:01Z</time>
      </trkpt>
      <trkpt lat="41.959365" lon="-4.248366">
        <ele>2596.0</ele>
        <time>2017-06-23T13:37:04Z</time>
      </trkpt>
      <trkpt lat="41.959652" lon="-4.247883">
        <ele>2589.0</ele>
        <time>2017-06-23T13:37:07Z</time>
      </trkpt>
      <trkpt lat="41.960017" lon="-4.247400">
        <ele>2585.0</ele>
        <time>2017-06-23T13:37:10Z</time>
      </trkpt>
      <trkpt lat="41.960348" lon="-4.246900">
        <ele>2591.0</ele>
        <time>2017-06-23T13:37:13Z</time>
      </trkpt>
      <trkpt lat="41.960618" lon="-4.246500">
        <ele>2592.0</ele>
        <time>2017-06-23T13:37:16Z</time>
      </trkpt>
      <trkpt lat="41.960850" lon="-4.245900">
        <ele>2589.0</ele>
        <time>2017-06-23T13:37:20Z</time>
      </trkpt>
      <trkpt lat="41.960751" lon="-4.245483">
        <ele>2590.0</ele>
        <time>2017-06-23T13:37:23Z</time>
      </trkpt>
      <trkpt lat="41.960632" lon="-4.245383">
        <ele>2592.0</ele>
        <time>2017-06-23T13:37:26Z</time>
      </trkpt>
      <trkpt lat="41.960601" lon="-4.245417">
        <ele>2591.0</ele>
        <time>2017-06-23T13:37:29Z</time>
      </trkpt>
      <trkpt lat="41.960751" lon="-4.245550">
        <ele>2590.0</ele>
        <time>2017-06-23T13:37:32Z</time>
      </trkpt>
      <trkpt lat="41.960919" lon="-4.245666">
        <ele>2586.0</ele>
        <time>2017-06-23T13:37:35Z</time>
      </trkpt>
      <trkpt lat="41.961233" lon="-4.245750">
        <ele>2581.0</ele>
        <time>2017-06-23T13:37:38Z</time>
      </trkpt>
      <trkpt lat="41.961616" lon="-4.245700">
        <ele>2580.0</ele>
        <time>2017-06-23T13:37:41Z</time>
      </trkpt>
      <trkpt lat="41.962032" lon="-4.245583">
        <ele>2578.0</ele>
        <time>2017-06-23T13:37:44Z</time>
      </trkpt>
      <trkpt lat="41.962452" lon="-4.245500">
        <ele>2583.0</ele>
        <time>2017-06-23T13:37:47Z</time>
      </trkpt>
      <trkpt lat="41.962797" lon="-4.245383">
        <ele>2576.0</ele>
        <time>2017-06-23T13:37:50Z</time>
      </trkpt>
      <trkpt lat="41.963234" lon="-4.245266">
        <ele>2578.0</ele>
        <time>2017-06-23T13:37:53Z</time>
      </trkpt>
      <trkpt lat="41.963600" lon="-4.245166">
        <ele>2574.0</ele>
        <time>2017-06-23T13:37:56Z</time>
      </trkpt>
      <trkpt lat="41.964050" lon="-4.245033">
        <ele>2573.0</ele>
        <time>2017-06-23T13:37:59Z</time>
      </trkpt>
      <trkpt lat="41.964600" lon="-4.244750">
        <ele>2574.0</ele>
        <time>2017-06-23T13:38:03Z</time>
      </trkpt>
      <trkpt lat="41.965034" lon="-4.244550">
        <ele>2574.0</ele>
        <time>2017-06-23T13:38:06Z</time>
      </trkpt>
      <trkpt lat="41.965417" lon="-4.244333">
        <ele>2575.0</ele>
        <time>2017-06-23T13:38:09Z</time>
      </trkpt>
      <trkpt lat="41.965867" lon="-4.244150">
        <ele>2574.0</ele>
        <time>2017-06-23T13:38:12Z</time>
      </trkpt>
      <trkpt lat="41.966301" lon="-4.243967">
        <ele>2577.0</ele>
        <time>2017-06-23T13:38:15Z</time>
      </trkpt>
      <trkpt lat="41.966653" lon="-4.243683">
        <ele>2579.0</ele>
        <time>2017-06-23T13:38:18Z</time>
      </trkpt>
      <trkpt lat="41.966817" lon="-4.243250">
        <ele>2577.0</ele>
        <time>2017-06-23T13:38:21Z</time>
      </trkpt>
      <trkpt lat="41.966718" lon="-4.242999">
        <ele>2577.0</ele>
        <time>2017-06-23T13:38:24Z</time>
      </trkpt>
      <trkpt lat="41.966653" lon="-4.243100">
        <ele>2580.0</ele>
        <time>2017-06-23T13:38:27Z</time>
      </trkpt>
      <trkpt lat="41.966666" lon="-4.243233">
        <ele>2580.0</ele>
        <time>2017-06-23T13:38:30Z</time>
      </trkpt>
      <trkpt lat="41.966834" lon="-4.243433">
        <ele>2580.0</ele>
        <time>2017-06-23T13:38:33Z</time>
      </trkpt>
      <trkpt lat="41.967151" lon="-4.243583">
        <ele>2579.0</ele>
        <time>2017-06-23T13:38:36Z</time>
      </trkpt>
      <trkpt lat="41.967534" lon="-4.243650">
        <ele>2577.0</ele>
        <time>2017-06-23T13:38:39Z</time>
      </trkpt>
      <trkpt lat="41.967933" lon="-4.243699">
        <ele>2577.0</ele>
        <time>2017-06-23T13:38:42Z</time>
      </trkpt>
      <trkpt lat="41.968449" lon="-4.243716">
        <ele>2576.0</ele>
        <time>2017-06-23T13:38:46Z</time>
      </trkpt>
      <trkpt lat="41.968869" lon="-4.243650">
        <ele>2574.0</ele>
        <time>2017-06-23T13:38:49Z</time>
      </trkpt>
      <trkpt lat="41.969282" lon="-4.243516">
        <ele>2574.0</ele>
        <time>2017-06-23T13:38:52Z</time>
      </trkpt>
      <trkpt lat="41.969699" lon="-4.243383">
        <ele>2573.0</ele>
        <time>2017-06-23T13:38:55Z</time>
      </trkpt>
      <trkpt lat="41.970116" lon="-4.243233">
        <ele>2572.0</ele>
        <time>2017-06-23T13:38:58Z</time>
      </trkpt>
      <trkpt lat="41.970549" lon="-4.243050">
        <ele>2570.0</ele>
        <time>2017-06-23T13:39:01Z</time>
      </trkpt>
      <trkpt lat="41.970987" lon="-4.242817">
        <ele>2566.0</ele>
        <time>2017-06-23T13:39:04Z</time>
      </trkpt>
      <trkpt lat="41.971400" lon="-4.242533">
        <ele>2565.0</ele>
        <time>2017-06-23T13:39:07Z</time>
      </trkpt>
      <trkpt lat="41.971816" lon="-4.242250">
        <ele>2560.0</ele>
        <time>2017-06-23T13:39:10Z</time>
      </trkpt>
      <trkpt lat="41.972233" lon="-4.242016">
        <ele>2555.0</ele>
        <time>2017-06-23T13:39:13Z</time>
      </trkpt>
      <trkpt lat="41.972650" lon="-4.241933">
        <ele>2547.0</ele>
        <time>2017-06-23T13:39:16Z</time>
      </trkpt>
      <trkpt lat="41.973083" lon="-4.241850">
        <ele>2539.0</ele>
        <time>2017-06-23T13:39:19Z</time>
      </trkpt>
      <trkpt lat="41.973667" lon="-4.241766">
        <ele>2534.0</ele>
        <time>2017-06-23T13:39:23Z</time>
      </trkpt>
      <trkpt lat="41.974084" lon="-4.241716">
        <ele>2526.0</ele>
        <time>2017-06-23T13:39:26Z</time>
      </trkpt>
      <trkpt lat="41.974552" lon="-4.241567">
        <ele>2519.0</ele>
        <time>2017-06-23T13:39:29Z</time>
      </trkpt>
      <trkpt lat="41.974969" lon="-4.241433">
        <ele>2519.0</ele>
        <time>2017-06-23T13:39:32Z</time>
      </trkpt>
      <trkpt lat="41.975368" lon="-4.241250">
        <ele>2513.0</ele>
        <time>2017-06-23T13:39:35Z</time>
      </trkpt>
      <trkpt lat="41.975798" lon="-4.241050">
        <ele>2516.0</ele>
        <time>2017-06-23T13:39:38Z</time>
      </trkpt>
      <trkpt lat="41.976150" lon="-4.240800">
        <ele>2517.0</ele>
        <time>2017-06-23T13:39:41Z</time>
      </trkpt>
      <trkpt lat="41.976567" lon="-4.240500">
        <ele>2514.0</ele>
        <time>2017-06-23T13:39:44Z</time>
      </trkpt>
      <trkpt lat="41.976966" lon="-4.240167">
        <ele>2515.0</ele>
        <time>2017-06-23T13:39:47Z</time>
      </trkpt>
      <trkpt lat="41.977366" lon="-4.239833">
        <ele>2512.0</ele>
        <time>2017-06-23T13:39:50Z</time>
      </trkpt>
      <trkpt lat="41.977769" lon="-4.239467">
        <ele>2512.0</ele>
        <time>2017-06-23T13:39:53Z</time>
      </trkpt>
      <trkpt lat="41.978148" lon="-4.239100">
        <ele>2509.0</ele>
        <time>2017-06-23T13:39:56Z</time>
      </trkpt>
      <trkpt lat="41.978551" lon="-4.238683">
        <ele>2504.0</ele>
        <time>2017-06-23T13:39:59Z</time>
      </trkpt>
      <trkpt lat="41.978964" lon="-4.238367">
        <ele>2498.0</ele>
        <time>2017-06-23T13:40:02Z</time>
      </trkpt>
      <trkpt lat="41.979401" lon="-4.238083">
        <ele>2493.0</ele>
        <time>2017-06-23T13:40:05Z</time>
      </trkpt>
      <trkpt lat="41.979968" lon="-4.237600">
        <ele>2491.0</ele>
        <time>2017-06-23T13:40:09Z</time>
      </trkpt>
      <trkpt lat="41.980364" lon="-4.237233">
        <ele>2482.0</ele>
        <time>2017-06-23T13:40:12Z</time>
      </trkpt>
      <trkpt lat="41.980784" lon="-4.236833">
        <ele>2477.0</ele>
        <time>2017-06-23T13:40:15Z</time>
      </trkpt>
      <trkpt lat="41.981167" lon="-4.236433">
        <ele>2469.0</ele>
        <time>2017-06-23T13:40:18Z</time>
      </trkpt>
      <trkpt lat="41.981584" lon="-4.236016">
        <ele>2462.0</ele>
        <time>2017-06-23T13:40:21Z</time>
      </trkpt>
      <trkpt lat="41.981949" lon="-4.235616">
        <ele>2458.0</ele>
        <time>2017-06-23T13:40:24Z</time>
      </trkpt>
      <trkpt lat="41.982301" lon="-4.235233">
        <ele>2450.0</ele>
        <time>2017-06-23T13:40:27Z</time>
      </trkpt>
      <trkpt lat="41.982700" lon="-4.234933">
        <ele>2441.0</ele>
        <time>2017-06-23T13:40:30Z</time>
      </trkpt>
      <trkpt lat="41.983086" lon="-4.234517">
        <ele>2431.0</ele>
        <time>2017-06-23T13:40:33Z</time>
      </trkpt>
      <trkpt lat="41.983499" lon="-4.234066">
        <ele>2424.0</ele>
        <time>2017-06-23T13:40:36Z</time>
      </trkpt>
      <trkpt lat="41.983882" lon="-4.233616">
        <ele>2418.0</ele>
        <time>2017-06-23T13:40:39Z</time>
      </trkpt>
      <trkpt lat="41.984282" lon="-4.233200">
        <ele>2415.0</ele>
        <time>2017-06-23T13:40:42Z</time>
      </trkpt>
      <trkpt lat="41.984667" lon="-4.232783">
        <ele>2411.0</ele>
        <time>2017-06-23T13:40:45Z</time>
      </trkpt>
      <trkpt lat="41.985248" lon="-4.232284">
        <ele>2403.0</ele>
        <time>2017-06-23T13:40:49Z</time>
      </trkpt>
      <trkpt lat="41.985682" lon="-4.231900">
        <ele>2400.0</ele>
        <time>2017-06-23T13:40:52Z</time>
      </trkpt>
      <trkpt lat="41.986085" lon="-4.231567">
        <ele>2397.0</ele>
        <time>2017-06-23T13:40:55Z</time>
      </trkpt>
      <trkpt lat="41.986498" lon="-4.231250">
        <ele>2393.0</ele>
        <time>2017-06-23T13:40:58Z</time>
      </trkpt>
      <trkpt lat="41.986884" lon="-4.230867">
        <ele>2391.0</ele>
        <time>2017-06-23T13:41:01Z</time>
      </trkpt>
      <trkpt lat="41.987266" lon="-4.230483">
        <ele>2387.0</ele>
        <time>2017-06-23T13:41:04Z</time>
      </trkpt>
      <trkpt lat="41.987652" lon="-4.230083">
        <ele>2381.0</ele>
        <time>2017-06-23T13:41:07Z</time>
      </trkpt>
      <trkpt lat="41.988069" lon="-4.229667">
        <ele>2374.0</ele>
        <time>2017-06-23T13:41:10Z</time>
      </trkpt>
      <trkpt lat="41.988499" lon="-4.229250">
        <ele>2370.0</ele>
        <time>2017-06-23T13:41:13Z</time>
      </trkpt>
      <trkpt lat="41.988933" lon="-4.228767">
        <ele>2370.0</ele>
        <time>2017-06-23T13:41:16Z</time>
      </trkpt>
      <trkpt lat="41.989315" lon="-4.228384">
        <ele>2372.0</ele>
        <time>2017-06-23T13:41:19Z</time>
      </trkpt>
      <trkpt lat="41.989636" lon="-4.227950">
        <ele>2371.0</ele>
        <time>2017-06-23T13:41:22Z</time>
      </trkpt>
      <trkpt lat="41.989800" lon="-4.227383">
        <ele>2368.0</ele>
        <time>2017-06-23T13:41:25Z</time>
      </trkpt>
      <trkpt lat="41.989800" lon="-4.226833">
        <ele>2368.0</ele>
        <time>2017-06-23T13:41:28Z</time>
      </trkpt>
      <trkpt lat="41.989783" lon="-4.226317">
        <ele>2365.0</ele>
        <time>2017-06-23T13:41:32Z</time>
      </trkpt>
      <trkpt lat="41.989701" lon="-4.226066">
        <ele>2359.0</ele>
        <time>2017-06-23T13:41:35Z</time>
      </trkpt>
      <trkpt lat="41.989667" lon="-4.226133">
        <ele>2353.0</ele>
        <time>2017-06-23T13:41:38Z</time>
      </trkpt>
      <trkpt lat="41.989817" lon="-4.226300">
        <ele>2351.0</ele>
        <time>2017-06-23T13:41:41Z</time>
      </trkpt>
      <trkpt lat="41.990135" lon="-4.226300">
        <ele>2354.0</ele>
        <time>2017-06-23T13:41:44Z</time>
      </trkpt>
      <trkpt lat="41.990398" lon="-4.226267">
        <ele>2352.0</ele>
        <time>2017-06-23T13:41:47Z</time>
      </trkpt>
      <trkpt lat="41.990664" lon="-4.226333">
        <ele>2350.0</ele>
        <time>2017-06-23T13:41:50Z</time>
      </trkpt>
      <trkpt lat="41.990965" lon="-4.226317">
        <ele>2350.0</ele>
        <time>2017-06-23T13:41:53Z</time>
      </trkpt>
      <trkpt lat="41.991218" lon="-4.226350">
        <ele>2346.0</ele>
        <time>2017-06-23T13:41:56Z</time>
      </trkpt>
      <trkpt lat="41.991501" lon="-4.226433">
        <ele>2346.0</ele>
        <time>2017-06-23T13:41:59Z</time>
      </trkpt>
      <trkpt lat="41.991747" lon="-4.226450">
        <ele>2341.0</ele>
        <time>2017-06-23T13:42:02Z</time>
      </trkpt>
      <trkpt lat="41.992034" lon="-4.226517">
        <ele>2339.0</ele>
        <time>2017-06-23T13:42:05Z</time>
      </trkpt>
      <trkpt lat="41.992331" lon="-4.226567">
        <ele>2336.0</ele>
        <time>2017-06-23T13:42:08Z</time>
      </trkpt>
      <trkpt lat="41.992782" lon="-4.226533">
        <ele>2332.0</ele>
        <time>2017-06-23T13:42:12Z</time>
      </trkpt>
      <trkpt lat="41.993147" lon="-4.226450">
        <ele>2327.0</ele>
        <time>2017-06-23T13:42:15Z</time>
      </trkpt>
      <trkpt lat="41.993567" lon="-4.226400">
        <ele>2322.0</ele>
        <time>2017-06-23T13:42:18Z</time>
      </trkpt>
      <trkpt lat="41.993950" lon="-4.226267">
        <ele>2322.0</ele>
        <time>2017-06-23T13:42:21Z</time>
      </trkpt>
      <trkpt lat="41.994315" lon="-4.226150">
        <ele>2320.0</ele>
        <time>2017-06-23T13:42:24Z</time>
      </trkpt>
      <trkpt lat="41.994680" lon="-4.225983">
        <ele>2315.0</ele>
        <time>2017-06-23T13:42:27Z</time>
      </trkpt>
      <trkpt lat="41.995083" lon="-4.225850">
        <ele>2313.0</ele>
        <time>2017-06-23T13:42:30Z</time>
      </trkpt>
      <trkpt lat="41.995483" lon="-4.225650">
        <ele>2310.0</ele>
        <time>2017-06-23T13:42:33Z</time>
      </trkpt>
      <trkpt lat="41.995883" lon="-4.225467">
        <ele>2306.0</ele>
        <time>2017-06-23T13:42:36Z</time>
      </trkpt>
      <trkpt lat="41.996286" lon="-4.225184">
        <ele>2300.0</ele>
        <time>2017-06-23T13:42:39Z</time>
      </trkpt>
      <trkpt lat="41.996665" lon="-4.224917">
        <ele>2291.0</ele>
        <time>2017-06-23T13:42:42Z</time>
      </trkpt>
      <trkpt lat="41.997081" lon="-4.224733">
        <ele>2288.0</ele>
        <time>2017-06-23T13:42:45Z</time>
      </trkpt>
      <trkpt lat="41.997450" lon="-4.224500">
        <ele>2285.0</ele>
        <time>2017-06-23T13:42:48Z</time>
      </trkpt>
      <trkpt lat="41.997785" lon="-4.224300">
        <ele>2278.0</ele>
        <time>2017-06-23T13:42:51Z</time>
      </trkpt>
      <trkpt lat="41.998283" lon="-4.223983">
        <ele>2273.0</ele>
        <time>2017-06-23T13:42:55Z</time>
      </trkpt>
      <trkpt lat="41.998635" lon="-4.223733">
        <ele>2268.0</ele>
        <time>2017-06-23T13:42:58Z</time>
      </trkpt>
      <trkpt lat="41.999001" lon="-4.223417">
        <ele>2262.0</ele>
        <time>2017-06-23T13:43:01Z</time>
      </trkpt>
      <trkpt lat="41.999352" lon="-4.223117">
        <ele>2256.0</ele>
        <time>2017-06-23T13:43:04Z</time>
      </trkpt>
      <trkpt lat="41.999684" lon="-4.222784">
        <ele>2249.0</ele>
        <time>2017-06-23T13:43:07Z</time>
      </trkpt>
      <trkpt lat="42.000015" lon="-4.222434">
        <ele>2243.0</ele>
        <time>2017-06-23T13:43:10Z</time>
      </trkpt>
      <trkpt lat="42.000350" lon="-4.222084">
        <ele>2238.0</ele>
        <time>2017-06-23T13:43:13Z</time>
      </trkpt>
      <trkpt lat="42.000718" lon="-4.221783">
        <ele>2229.0</ele>
        <time>2017-06-23T13:43:16Z</time>
      </trkpt>
      <trkpt lat="42.001097" lon="-4.221433">
        <ele>2219.0</ele>
        <time>2017-06-23T13:43:19Z</time>
      </trkpt>
      <trkpt lat="42.001449" lon="-4.221083">
        <ele>2205.0</ele>
        <time>2017-06-23T13:43:22Z</time>
      </trkpt>
      <trkpt lat="42.001866" lon="-4.220683">
        <ele>2199.0</ele>
        <time>2017-06-23T13:43:25Z</time>
      </trkpt>
      <trkpt lat="42.002218" lon="-4.220250">
        <ele>2194.0</ele>
        <time>2017-06-23T13:43:28Z</time>
      </trkpt>
      <trkpt lat="42.002566" lon="-4.219783">
        <ele>2186.0</ele>
        <time>2017-06-23T13:43:31Z</time>
      </trkpt>
      <trkpt lat="42.003000" lon="-4.219100">
        <ele>2182.0</ele>
        <time>2017-06-23T13:43:35Z</time>
      </trkpt>
      <trkpt lat="42.003300" lon="-4.218584">
        <ele>2176.0</ele>
        <time>2017-06-23T13:43:38Z</time>
      </trkpt>
      <trkpt lat="42.003532" lon="-4.217967">
        <ele>2169.0</ele>
        <time>2017-06-23T13:43:41Z</time>
      </trkpt>
      <trkpt lat="42.003765" lon="-4.217384">
        <ele>2164.0</ele>
        <time>2017-06-23T13:43:44Z</time>
      </trkpt>
      <trkpt lat="42.003983" lon="-4.216750">
        <ele>2157.0</ele>
        <time>2017-06-23T13:43:47Z</time>
      </trkpt>
      <trkpt lat="42.004215" lon="-4.216133">
        <ele>2152.0</ele>
        <time>2017-06-23T13:43:50Z</time>
      </trkpt>
      <trkpt lat="42.004417" lon="-4.215483">
        <ele>2146.0</ele>
        <time>2017-06-23T13:43:53Z</time>
      </trkpt>
      <trkpt lat="42.004615" lon="-4.214867">
        <ele>2140.0</ele>
        <time>2017-06-23T13:43:56Z</time>
      </trkpt>
      <trkpt lat="42.004748" lon="-4.214216">
        <ele>2132.0</ele>
        <time>2017-06-23T13:43:59Z</time>
      </trkpt>
      <trkpt lat="42.004868" lon="-4.213550">
        <ele>2125.0</ele>
        <time>2017-06-23T13:44:02Z</time>
      </trkpt>
      <trkpt lat="42.005032" lon="-4.212967">
        <ele>2118.0</ele>
        <time>2017-06-23T13:44:05Z</time>
      </trkpt>
      <trkpt lat="42.005284" lon="-4.212417">
        <ele>2107.0</ele>
        <time>2017-06-23T13:44:08Z</time>
      </trkpt>
      <trkpt lat="42.005616" lon="-4.211883">
        <ele>2100.0</ele>
        <time>2017-06-23T13:44:11Z</time>
      </trkpt>
      <trkpt lat="42.005967" lon="-4.211400">
        <ele>2090.0</ele>
        <time>2017-06-23T13:44:14Z</time>
      </trkpt>
      <trkpt lat="42.006381" lon="-4.210650">
        <ele>2084.0</ele>
        <time>2017-06-23T13:44:18Z</time>
      </trkpt>
      <trkpt lat="42.006650" lon="-4.210116">
        <ele>2077.0</ele>
        <time>2017-06-23T13:44:21Z</time>
      </trkpt>
      <trkpt lat="42.006900" lon="-4.209566">
        <ele>2068.0</ele>
        <time>2017-06-23T13:44:24Z</time>
      </trkpt>
      <trkpt lat="42.007149" lon="-4.209016">
        <ele>2061.0</ele>
        <time>2017-06-23T13:44:27Z</time>
      </trkpt>
      <trkpt lat="42.007381" lon="-4.208483">
        <ele>2053.0</ele>
        <time>2017-06-23T13:44:30Z</time>
      </trkpt>
      <trkpt lat="42.007648" lon="-4.207933">
        <ele>2044.0</ele>
        <time>2017-06-23T13:44:33Z</time>
      </trkpt>
      <trkpt lat="42.007900" lon="-4.207383">
        <ele>2035.0</ele>
        <time>2017-06-23T13:44:36Z</time>
      </trkpt>
      <trkpt lat="42.008146" lon="-4.206783">
        <ele>2025.0</ele>
        <time>2017-06-23T13:44:39Z</time>
      </trkpt>
      <trkpt lat="42.008351" lon="-4.206150">
        <ele>2016.0</ele>
        <time>2017-06-23T13:44:42Z</time>
      </trkpt>
      <trkpt lat="42.008597" lon="-4.205533">
        <ele>2005.0</ele>
        <time>2017-06-23T13:44:45Z</time>
      </trkpt>
      <trkpt lat="42.008802" lon="-4.204883">
        <ele>1996.0</ele>
        <time>2017-06-23T13:44:48Z</time>
      </trkpt>
      <trkpt lat="42.009034" lon="-4.204250">
        <ele>1987.0</ele>
        <time>2017-06-23T13:44:51Z</time>
      </trkpt>
      <trkpt lat="42.009266" lon="-4.203616">
        <ele>1981.0</ele>
        <time>2017-06-23T13:44:54Z</time>
      </trkpt>
      <trkpt lat="42.009468" lon="-4.203000">
        <ele>1976.0</ele>
        <time>2017-06-23T13:44:57Z</time>
      </trkpt>
      <trkpt lat="42.009700" lon="-4.202183">
        <ele>1971.0</ele>
        <time>2017-06-23T13:45:01Z</time>
      </trkpt>
      <trkpt lat="42.009864" lon="-4.201583">
        <ele>1967.0</ele>
        <time>2017-06-23T13:45:04Z</time>
      </trkpt>
      <trkpt lat="42.009997" lon="-4.200933">
        <ele>1959.0</ele>
        <time>2017-06-23T13:45:07Z</time>
      </trkpt>
      <trkpt lat="42.010164" lon="-4.200350">
        <ele>1955.0</ele>
        <time>2017-06-23T13:45:10Z</time>
      </trkpt>
      <trkpt lat="42.010383" lon="-4.199783">
        <ele>1946.0</ele>
        <time>2017-06-23T13:45:13Z</time>
      </trkpt>
      <trkpt lat="42.010649" lon="-4.199217">
        <ele>1938.0</ele>
        <time>2017-06-23T13:45:16Z</time>
      </trkpt>
      <trkpt lat="42.010899" lon="-4.198717">
        <ele>1927.0</ele>
        <time>2017-06-23T13:45:19Z</time>
      </trkpt>
      <trkpt lat="42.011199" lon="-4.198150">
        <ele>1921.0</ele>
        <time>2017-06-23T13:45:22Z</time>
      </trkpt>
      <trkpt lat="42.011500" lon="-4.197666">
        <ele>1914.0</ele>
        <time>2017-06-23T13:45:25Z</time>
      </trkpt>
      <trkpt lat="42.011783" lon="-4.197150">
        <ele>1905.0</ele>
        <time>2017-06-23T13:45:28Z</time>
      </trkpt>
      <trkpt lat="42.012183" lon="-4.196533">
        <ele>1894.0</ele>
        <time>2017-06-23T13:45:32Z</time>
      </trkpt>
      <trkpt lat="42.012500" lon="-4.196050">
        <ele>1882.0</ele>
        <time>2017-06-23T13:45:35Z</time>
      </trkpt>
      <trkpt lat="42.012798" lon="-4.195583">
        <ele>1874.0</ele>
        <time>2017-06-23T13:45:38Z</time>
      </trkpt>
      <trkpt lat="42.013064" lon="-4.195100">
        <ele>1868.0</ele>
        <time>2017-06-23T13:45:41Z</time>
      </trkpt>
      <trkpt lat="42.013416" lon="-4.194584">
        <ele>1857.0</ele>
        <time>2017-06-23T13:45:44Z</time>
      </trkpt>
      <trkpt lat="42.013747" lon="-4.194166">
        <ele>1845.0</ele>
        <time>2017-06-23T13:45:47Z</time>
      </trkpt>
      <trkpt lat="42.014065" lon="-4.193550">
        <ele>1840.0</ele>
        <time>2017-06-23T13:45:50Z</time>
      </trkpt>
      <trkpt lat="42.014331" lon="-4.192900">
        <ele>1830.0</ele>
        <time>2017-06-23T13:45:53Z</time>
      </trkpt>
      <trkpt lat="42.014498" lon="-4.192300">
        <ele>1822.0</ele>
        <time>2017-06-23T13:45:56Z</time>
      </trkpt>
      <trkpt lat="42.014631" lon="-4.191733">
        <ele>1812.0</ele>
        <time>2017-06-23T13:45:59Z</time>
      </trkpt>
      <trkpt lat="42.014730" lon="-4.191167">
        <ele>1800.0</ele>
        <time>2017-06-23T13:46:02Z</time>
      </trkpt>
      <trkpt lat="42.014816" lon="-4.190583">
        <ele>1787.0</ele>
        <time>2017-06-23T13:46:05Z</time>
      </trkpt>
      <trkpt lat="42.014884" lon="-4.190000">
        <ele>1777.0</ele>
        <time>2017-06-23T13:46:08Z</time>
      </trkpt>
      <trkpt lat="42.014983" lon="-4.189434">
        <ele>1765.0</ele>
        <time>2017-06-23T13:46:11Z</time>
      </trkpt>
      <trkpt lat="42.015202" lon="-4.189000">
        <ele>1751.0</ele>
        <time>2017-06-23T13:46:14Z</time>
      </trkpt>
      <trkpt lat="42.015547" lon="-4.188583">
        <ele>1736.0</ele>
        <time>2017-06-23T13:46:17Z</time>
      </trkpt>
      <trkpt lat="42.015950" lon="-4.188267">
        <ele>1723.0</ele>
        <time>2017-06-23T13:46:20Z</time>
      </trkpt>
      <trkpt lat="42.016336" lon="-4.188000">
        <ele>1708.0</ele>
        <time>2017-06-23T13:46:23Z</time>
      </trkpt>
      <trkpt lat="42.016882" lon="-4.187700">
        <ele>1698.0</ele>
        <time>2017-06-23T13:46:27Z</time>
      </trkpt>
      <trkpt lat="42.017264" lon="-4.187500">
        <ele>1688.0</ele>
        <time>2017-06-23T13:46:30Z</time>
      </trkpt>
      <trkpt lat="42.017698" lon="-4.187283">
        <ele>1684.0</ele>
        <time>2017-06-23T13:46:33Z</time>
      </trkpt>
      <trkpt lat="42.018149" lon="-4.187133">
        <ele>1679.0</ele>
        <time>2017-06-23T13:46:36Z</time>
      </trkpt>
      <trkpt lat="42.018583" lon="-4.186967">
        <ele>1673.0</ele>
        <time>2017-06-23T13:46:39Z</time>
      </trkpt>
      <trkpt lat="42.019016" lon="-4.186850">
        <ele>1669.0</ele>
        <time>2017-06-23T13:46:42Z</time>
      </trkpt>
      <trkpt lat="42.019450" lon="-4.186700">
        <ele>1663.0</ele>
        <time>2017-06-23T13:46:45Z</time>
      </trkpt>
      <trkpt lat="42.019915" lon="-4.186567">
        <ele>1658.0</ele>
        <time>2017-06-23T13:46:48Z</time>
      </trkpt>
      <trkpt lat="42.020297" lon="-4.186433">
        <ele>1651.0</ele>
        <time>2017-06-23T13:46:51Z</time>
      </trkpt>
      <trkpt lat="42.020748" lon="-4.186267">
        <ele>1639.0</ele>
        <time>2017-06-23T13:46:54Z</time>
      </trkpt>
      <trkpt lat="42.021182" lon="-4.186167">
        <ele>1626.0</ele>
        <time>2017-06-23T13:46:57Z</time>
      </trkpt>
      <trkpt lat="42.021619" lon="-4.186083">
        <ele>1619.0</ele>
        <time>2017-06-23T13:47:00Z</time>
      </trkpt>
      <trkpt lat="42.022216" lon="-4.186000">
        <ele>1611.0</ele>
        <time>2017-06-23T13:47:04Z</time>
      </trkpt>
      <trkpt lat="42.022616" lon="-4.185950">
        <ele>1604.0</ele>
        <time>2017-06-23T13:47:07Z</time>
      </trkpt>
      <trkpt lat="42.023033" lon="-4.185917">
        <ele>1597.0</ele>
        <time>2017-06-23T13:47:10Z</time>
      </trkpt>
      <trkpt lat="42.023432" lon="-4.185884">
        <ele>1583.0</ele>
        <time>2017-06-23T13:47:13Z</time>
      </trkpt>
      <trkpt lat="42.023866" lon="-4.185884">
        <ele>1574.0</ele>
        <time>2017-06-23T13:47:16Z</time>
      </trkpt>
      <trkpt lat="42.024265" lon="-4.185850">
        <ele>1566.0</ele>
        <time>2017-06-23T13:47:19Z</time>
      </trkpt>
      <trkpt lat="42.024699" lon="-4.185800">
        <ele>1561.0</ele>
        <time>2017-06-23T13:47:22Z</time>
      </trkpt>
      <trkpt lat="42.025082" lon="-4.185800">
        <ele>1557.0</ele>
        <time>2017-06-23T13:47:25Z</time>
      </trkpt>
      <trkpt lat="42.025416" lon="-4.185800">
        <ele>1552.0</ele>
        <time>2017-06-23T13:47:28Z</time>
      </trkpt>
      <trkpt lat="42.025748" lon="-4.185884">
        <ele>1544.0</ele>
        <time>2017-06-23T13:47:31Z</time>
      </trkpt>
      <trkpt lat="42.026086" lon="-4.185934">
        <ele>1538.0</ele>
        <time>2017-06-23T13:47:34Z</time>
      </trkpt>
      <trkpt lat="42.026417" lon="-4.186016">
        <ele>1533.0</ele>
        <time>2017-06-23T13:47:37Z</time>
      </trkpt>
      <trkpt lat="42.026735" lon="-4.186050">
        <ele>1529.0</ele>
        <time>2017-06-23T13:47:40Z</time>
      </trkpt>
      <trkpt lat="42.027015" lon="-4.186100">
        <ele>1528.0</ele>
        <time>2017-06-23T13:47:43Z</time>
      </trkpt>
      <trkpt lat="42.027233" lon="-4.186150">
        <ele>1525.0</ele>
        <time>2017-06-23T13:47:46Z</time>
      </trkpt>
      <trkpt lat="42.027465" lon="-4.186300">
        <ele>1522.0</ele>
        <time>2017-06-23T13:47:50Z</time>
      </trkpt>
      <trkpt lat="42.027684" lon="-4.186400">
        <ele>1513.0</ele>
        <time>2017-06-23T13:47:53Z</time>
      </trkpt>
      <trkpt lat="42.027899" lon="-4.186467">
        <ele>1510.0</ele>
        <time>2017-06-23T13:47:56Z</time>
      </trkpt>
      <trkpt lat="42.028118" lon="-4.186533">
        <ele>1498.0</ele>
        <time>2017-06-23T13:47:59Z</time>
      </trkpt>
      <trkpt lat="42.028381" lon="-4.186584">
        <ele>1490.0</ele>
        <time>2017-06-23T13:48:02Z</time>
      </trkpt>
      <trkpt lat="42.028667" lon="-4.186600">
        <ele>1480.0</ele>
        <time>2017-06-23T13:48:05Z</time>
      </trkpt>
      <trkpt lat="42.028965" lon="-4.186617">
        <ele>1470.0</ele>
        <time>2017-06-23T13:48:08Z</time>
      </trkpt>
      <trkpt lat="42.029316" lon="-4.186550">
        <ele>1460.0</ele>
        <time>2017-06-23T13:48:11Z</time>
      </trkpt>
      <trkpt lat="42.029651" lon="-4.186500">
        <ele>1459.0</ele>
        <time>2017-06-23T13:48:14Z</time>
      </trkpt>
      <trkpt lat="42.029969" lon="-4.186366">
        <ele>1451.0</ele>
        <time>2017-06-23T13:48:17Z</time>
      </trkpt>
      <trkpt lat="42.030334" lon="-4.186317">
        <ele>1451.0</ele>
        <time>2017-06-23T13:48:20Z</time>
      </trkpt>
      <trkpt lat="42.030631" lon="-4.186284">
        <ele>1451.0</ele>
        <time>2017-06-23T13:48:23Z</time>
      </trkpt>
      <trkpt lat="42.030966" lon="-4.186183">
        <ele>1447.0</ele>
        <time>2017-06-23T13:48:26Z</time>
      </trkpt>
      <trkpt lat="42.031249" lon="-4.185550">
        <ele>1447.0</ele>
        <time>2017-06-23T13:48:30Z</time>
      </trkpt>
      <trkpt lat="42.031150" lon="-4.185266">
        <ele>1444.0</ele>
        <time>2017-06-23T13:48:33Z</time>
      </trkpt>
      <trkpt lat="42.031017" lon="-4.185167">
        <ele>1443.0</ele>
        <time>2017-06-23T13:48:36Z</time>
      </trkpt>
      <trkpt lat="42.030932" lon="-4.185150">
        <ele>1438.0</ele>
        <time>2017-06-23T13:48:39Z</time>
      </trkpt>
      <trkpt lat="42.030863" lon="-4.185233">
        <ele>1436.0</ele>
        <time>2017-06-23T13:48:42Z</time>
      </trkpt>
      <trkpt lat="42.030816" lon="-4.185317">
        <ele>1428.0</ele>
        <time>2017-06-23T13:48:45Z</time>
      </trkpt>
      <trkpt lat="42.030785" lon="-4.185484">
        <ele>1424.0</ele>
        <time>2017-06-23T13:48:48Z</time>
      </trkpt>
      <trkpt lat="42.030764" lon="-4.185633">
        <ele>1420.0</ele>
        <time>2017-06-23T13:48:51Z</time>
      </trkpt>
      <trkpt lat="42.030764" lon="-4.185850">
        <ele>1409.0</ele>
        <time>2017-06-23T13:48:54Z</time>
      </trkpt>
      <trkpt lat="42.030884" lon="-4.186150">
        <ele>1401.0</ele>
        <time>2017-06-23T13:48:57Z</time>
      </trkpt>
      <trkpt lat="42.030997" lon="-4.186366">
        <ele>1399.0</ele>
        <time>2017-06-23T13:49:00Z</time>
      </trkpt>
      <trkpt lat="42.031167" lon="-4.186500">
        <ele>1393.0</ele>
        <time>2017-06-23T13:49:03Z</time>
      </trkpt>
      <trkpt lat="42.031382" lon="-4.186667">
        <ele>1387.0</ele>
        <time>2017-06-23T13:49:06Z</time>
      </trkpt>
      <trkpt lat="42.031649" lon="-4.186833">
        <ele>1391.0</ele>
        <time>2017-06-23T13:49:09Z</time>
      </trkpt>
      <trkpt lat="42.031847" lon="-4.186883">
        <ele>1392.0</ele>
        <time>2017-06-23T13:49:13Z</time>
      </trkpt>
      <trkpt lat="42.031898" lon="-4.187000">
        <ele>1391.0</ele>
        <time>2017-06-23T13:49:16Z</time>
      </trkpt>
      <trkpt lat="42.031966" lon="-4.187083">
        <ele>1390.0</ele>
        <time>2017-06-23T13:49:19Z</time>
      </trkpt>
      <trkpt lat="42.031984" lon="-4.187200">
        <ele>1390.0</ele>
        <time>2017-06-23T13:49:22Z</time>
      </trkpt>
      <trkpt lat="42.031949" lon="-4.187283">
        <ele>1393.0</ele>
        <time>2017-06-23T13:49:25Z</time>
      </trkpt>
      <trkpt lat="42.031885" lon="-4.187317">
        <ele>1396.0</ele>
        <time>2017-06-23T13:49:28Z</time>
      </trkpt>
      <trkpt lat="42.031782" lon="-4.187334">
        <ele>1396.0</ele>
        <time>2017-06-23T13:49:31Z</time>
      </trkpt>
      <trkpt lat="42.031700" lon="-4.187317">
        <ele>1395.0</ele>
        <time>2017-06-23T13:49:34Z</time>
      </trkpt>
      <trkpt lat="42.031649" lon="-4.187367">
        <ele>1398.0</ele>
        <time>2017-06-23T13:49:37Z</time>
      </trkpt>
      <trkpt lat="42.031615" lon="-4.187367">
        <ele>1395.0</ele>
        <time>2017-06-23T13:49:40Z</time>
      </trkpt>
      <trkpt lat="42.031581" lon="-4.187383">
        <ele>1392.0</ele>
        <time>2017-06-23T13:49:43Z</time>
      </trkpt>
      <trkpt lat="42.031468" lon="-4.187233">
        <ele>1390.0</ele>
        <time>2017-06-23T13:49:46Z</time>
      </trkpt>
      <trkpt lat="42.031382" lon="-4.186817">
        <ele>1390.0</ele>
        <time>2017-06-23T13:49:49Z</time>
      </trkpt>
      <trkpt lat="42.031382" lon="-4.186317">
        <ele>1388.0</ele>
        <time>2017-06-23T13:49:52Z</time>
      </trkpt>
      <trkpt lat="42.031632" lon="-4.185633">
        <ele>1387.0</ele>
        <time>2017-06-23T13:49:56Z</time>
      </trkpt>
      <trkpt lat="42.031966" lon="-4.185450">
        <ele>1386.0</ele>
        <time>2017-06-23T13:49:59Z</time>
      </trkpt>
      <trkpt lat="42.032185" lon="-4.185450">
        <ele>1386.0</ele>
        <time>2017-06-23T13:50:02Z</time>
      </trkpt>
      <trkpt lat="42.032318" lon="-4.185534">
        <ele>1384.0</ele>
        <time>2017-06-23T13:50:05Z</time>
      </trkpt>
      <trkpt lat="42.032451" lon="-4.185667">
        <ele>1384.0</ele>
        <time>2017-06-23T13:50:08Z</time>
      </trkpt>
      <trkpt lat="42.032431" lon="-4.185783">
        <ele>1385.0</ele>
        <time>2017-06-23T13:50:11Z</time>
      </trkpt>
      <trkpt lat="42.032332" lon="-4.185767">
        <ele>1388.0</ele>
        <time>2017-06-23T13:50:14Z</time>
      </trkpt>
      <trkpt lat="42.032199" lon="-4.185633">
        <ele>1389.0</ele>
        <time>2017-06-23T13:50:17Z</time>
      </trkpt>
      <trkpt lat="42.032151" lon="-4.185200">
        <ele>1386.0</ele>
        <time>2017-06-23T13:50:20Z</time>
      </trkpt>
      <trkpt lat="42.032318" lon="-4.184666">
        <ele>1387.0</ele>
        <time>2017-06-23T13:50:23Z</time>
      </trkpt>
      <trkpt lat="42.032615" lon="-4.184333">
        <ele>1386.0</ele>
        <time>2017-06-23T13:50:26Z</time>
      </trkpt>
      <trkpt lat="42.032916" lon="-4.184267">
        <ele>1385.0</ele>
        <time>2017-06-23T13:50:29Z</time>
      </trkpt>
      <trkpt lat="42.033148" lon="-4.184267">
        <ele>1387.0</ele>
        <time>2017-06-23T13:50:33Z</time>
      </trkpt>
      <trkpt lat="42.033165" lon="-4.184283">
        <ele>1387.0</ele>
        <time>2017-06-23T13:50:36Z</time>
      </trkpt>
      <trkpt lat="42.033015" lon="-4.184100">
        <ele>1387.0</ele>
        <time>2017-06-23T13:50:39Z</time>
      </trkpt>
      <trkpt lat="42.033015" lon="-4.183650">
        <ele>1383.0</ele>
        <time>2017-06-23T13:50:42Z</time>
      </trkpt>
      <trkpt lat="42.033148" lon="-4.183100">
        <ele>1379.0</ele>
        <time>2017-06-23T13:50:45Z</time>
      </trkpt>
      <trkpt lat="42.033500" lon="-4.182800">
        <ele>1381.0</ele>
        <time>2017-06-23T13:50:48Z</time>
      </trkpt>
      <trkpt lat="42.033797" lon="-4.182617">
        <ele>1382.0</ele>
        <time>2017-06-23T13:50:51Z</time>
      </trkpt>
      <trkpt lat="42.034135" lon="-4.182550">
        <ele>1379.0</ele>
        <time>2017-06-23T13:50:54Z</time>
      </trkpt>
      <trkpt lat="42.034316" lon="-4.182617">
        <ele>1379.0</ele>
        <time>2017-06-23T13:50:57Z</time>
      </trkpt>
      <trkpt lat="42.034299" lon="-4.182583">
        <ele>1380.0</ele>
        <time>2017-06-23T13:51:00Z</time>
      </trkpt>
      <trkpt lat="42.034217" lon="-4.182466">
        <ele>1379.0</ele>
        <time>2017-06-23T13:51:03Z</time>
      </trkpt>
      <trkpt lat="42.033981" lon="-4.182233">
        <ele>1382.0</ele>
        <time>2017-06-23T13:51:06Z</time>
      </trkpt>
      <trkpt lat="42.033899" lon="-4.181983">
        <ele>1368.0</ele>
        <time>2017-06-23T13:51:09Z</time>
      </trkpt>
      <trkpt lat="42.033732" lon="-4.181716">
        <ele>1367.0</ele>
        <time>2017-06-23T13:51:12Z</time>
      </trkpt>
      <trkpt lat="42.033650" lon="-4.181633">
        <ele>1364.0</ele>
        <time>2017-06-23T13:51:15Z</time>
      </trkpt>
      <trkpt lat="42.033797" lon="-4.181800">
        <ele>1363.0</ele>
        <time>2017-06-23T13:51:19Z</time>
      </trkpt>
      <trkpt lat="42.034084" lon="-4.181800">
        <ele>1361.0</ele>
        <time>2017-06-23T13:51:22Z</time>
      </trkpt>
      <trkpt lat="42.034466" lon="-4.181550">
        <ele>1361.0</ele>
        <time>2017-06-23T13:51:25Z</time>
      </trkpt>
      <trkpt lat="42.034733" lon="-4.181117">
        <ele>1360.0</ele>
        <time>2017-06-23T13:51:28Z</time>
      </trkpt>
      <trkpt lat="42.034917" lon="-4.180600">
        <ele>1355.0</ele>
        <time>2017-06-23T13:51:31Z</time>
      </trkpt>
      <trkpt lat="42.034931" lon="-4.180117">
        <ele>1350.0</ele>
        <time>2017-06-23T13:51:34Z</time>
      </trkpt>
      <trkpt lat="42.034798" lon="-4.179933">
        <ele>1344.0</ele>
        <time>2017-06-23T13:51:37Z</time>
      </trkpt>
      <trkpt lat="42.034746" lon="-4.180000">
        <ele>1340.0</ele>
        <time>2017-06-23T13:51:40Z</time>
      </trkpt>
      <trkpt lat="42.034746" lon="-4.180100">
        <ele>1338.0</ele>
        <time>2017-06-23T13:51:43Z</time>
      </trkpt>
      <trkpt lat="42.034832" lon="-4.180266">
        <ele>1333.0</ele>
        <time>2017-06-23T13:51:46Z</time>
      </trkpt>
      <trkpt lat="42.034985" lon="-4.180416">
        <ele>1330.0</ele>
        <time>2017-06-23T13:51:49Z</time>
      </trkpt>
      <trkpt lat="42.035166" lon="-4.180566">
        <ele>1325.0</ele>
        <time>2017-06-23T13:51:52Z</time>
      </trkpt>
      <trkpt lat="42.035382" lon="-4.180700">
        <ele>1318.0</ele>
        <time>2017-06-23T13:51:55Z</time>
      </trkpt>
      <trkpt lat="42.035617" lon="-4.180916">
        <ele>1310.0</ele>
        <time>2017-06-23T13:51:59Z</time>
      </trkpt>
      <trkpt lat="42.035867" lon="-4.181033">
        <ele>1302.0</ele>
        <time>2017-06-23T13:52:02Z</time>
      </trkpt>
      <trkpt lat="42.036280" lon="-4.180883">
        <ele>1296.0</ele>
        <time>2017-06-23T13:52:05Z</time>
      </trkpt>
      <trkpt lat="42.036666" lon="-4.180667">
        <ele>1294.0</ele>
        <time>2017-06-23T13:52:08Z</time>
      </trkpt>
      <trkpt lat="42.036997" lon="-4.180366">
        <ele>1289.0</ele>
        <time>2017-06-23T13:52:11Z</time>
      </trkpt>
      <trkpt lat="42.037314" lon="-4.180016">
        <ele>1288.0</ele>
        <time>2017-06-23T13:52:14Z</time>
      </trkpt>
      <trkpt lat="42.037547" lon="-4.179650">
        <ele>1286.0</ele>
        <time>2017-06-23T13:52:17Z</time>
      </trkpt>
      <trkpt lat="42.037786" lon="-4.179216">
        <ele>1279.0</ele>
        <time>2017-06-23T13:52:20Z</time>
      </trkpt>
      <trkpt lat="42.038151" lon="-4.178833">
        <ele>1278.0</ele>
        <time>2017-06-23T13:52:23Z</time>
      </trkpt>
      <trkpt lat="42.038496" lon="-4.178450">
        <ele>1287.0</ele>
        <time>2017-06-23T13:52:26Z</time>
      </trkpt>
      <trkpt lat="42.038681" lon="-4.178016">
        <ele>1291.0</ele>
        <time>2017-06-23T13:52:29Z</time>
      </trkpt>
      <trkpt lat="42.038633" lon="-4.177684">
        <ele>1294.0</ele>
        <time>2017-06-23T13:52:32Z</time>
      </trkpt>
      <trkpt lat="42.038602" lon="-4.177700">
        <ele>1297.0</ele>
        <time>2017-06-23T13:52:35Z</time>
      </trkpt>
      <trkpt lat="42.038650" lon="-4.177783">
        <ele>1301.0</ele>
        <time>2017-06-23T13:52:38Z</time>
      </trkpt>
      <trkpt lat="42.038868" lon="-4.177900">
        <ele>1304.0</ele>
        <time>2017-06-23T13:52:42Z</time>
      </trkpt>
      <trkpt lat="42.039165" lon="-4.177917">
        <ele>1308.0</ele>
        <time>2017-06-23T13:52:45Z</time>
      </trkpt>
      <trkpt lat="42.039500" lon="-4.177533">
        <ele>1315.0</ele>
        <time>2017-06-23T13:52:48Z</time>
      </trkpt>
      <trkpt lat="42.039599" lon="-4.177017">
        <ele>1324.0</ele>
        <time>2017-06-23T13:52:51Z</time>
      </trkpt>
      <trkpt lat="42.039565" lon="-4.176700">
        <ele>1333.0</ele>
        <time>2017-06-23T13:52:54Z</time>
      </trkpt>
      <trkpt lat="42.039599" lon="-4.176783">
        <ele>1337.0</ele>
        <time>2017-06-23T13:52:57Z</time>
      </trkpt>
      <trkpt lat="42.039818" lon="-4.176916">
        <ele>1342.0</ele>
        <time>2017-06-23T13:53:00Z</time>
      </trkpt>
      <trkpt lat="42.040081" lon="-4.176967">
        <ele>1350.0</ele>
        <time>2017-06-23T13:53:03Z</time>
      </trkpt>
      <trkpt lat="42.040368" lon="-4.176667">
        <ele>1357.0</ele>
        <time>2017-06-23T13:53:06Z</time>
      </trkpt>
      <trkpt lat="42.040398" lon="-4.176233">
        <ele>1366.0</ele>
        <time>2017-06-23T13:53:09Z</time>
      </trkpt>
      <trkpt lat="42.040333" lon="-4.175967">
        <ele>1372.0</ele>
        <time>2017-06-23T13:53:12Z</time>
      </trkpt>
      <trkpt lat="42.040316" lon="-4.175933">
        <ele>1376.0</ele>
        <time>2017-06-23T13:53:15Z</time>
      </trkpt>
      <trkpt lat="42.040381" lon="-4.175999">
        <ele>1384.0</ele>
        <time>2017-06-23T13:53:18Z</time>
      </trkpt>
      <trkpt lat="42.040566" lon="-4.176083">
        <ele>1387.0</ele>
        <time>2017-06-23T13:53:21Z</time>
      </trkpt>
      <trkpt lat="42.040931" lon="-4.176100">
        <ele>1394.0</ele>
        <time>2017-06-23T13:53:25Z</time>
      </trkpt>
      <trkpt lat="42.041249" lon="-4.176066">
        <ele>1400.0</ele>
        <time>2017-06-23T13:53:28Z</time>
      </trkpt>
      <trkpt lat="42.041566" lon="-4.175750">
        <ele>1408.0</ele>
        <time>2017-06-23T13:53:31Z</time>
      </trkpt>
      <trkpt lat="42.041747" lon="-4.175366">
        <ele>1423.0</ele>
        <time>2017-06-23T13:53:34Z</time>
      </trkpt>
      <trkpt lat="42.041833" lon="-4.174966">
        <ele>1427.0</ele>
        <time>2017-06-23T13:53:37Z</time>
      </trkpt>
      <trkpt lat="42.041717" lon="-4.174650">
        <ele>1431.0</ele>
        <time>2017-06-23T13:53:40Z</time>
      </trkpt>
      <trkpt lat="42.041635" lon="-4.174534">
        <ele>1440.0</ele>
        <time>2017-06-23T13:53:43Z</time>
      </trkpt>
      <trkpt lat="42.041566" lon="-4.174316">
        <ele>1445.0</ele>
        <time>2017-06-23T13:53:46Z</time>
      </trkpt>
      <trkpt lat="42.041515" lon="-4.174283">
        <ele>1453.0</ele>
        <time>2017-06-23T13:53:49Z</time>
      </trkpt>
      <trkpt lat="42.041635" lon="-4.174383">
        <ele>1459.0</ele>
        <time>2017-06-23T13:53:52Z</time>
      </trkpt>
      <trkpt lat="42.041949" lon="-4.174350">
        <ele>1465.0</ele>
        <time>2017-06-23T13:53:55Z</time>
      </trkpt>
      <trkpt lat="42.042301" lon="-4.174050">
        <ele>1473.0</ele>
        <time>2017-06-23T13:53:58Z</time>
      </trkpt>
      <trkpt lat="42.042550" lon="-4.173467">
        <ele>1478.0</ele>
        <time>2017-06-23T13:54:02Z</time>
      </trkpt>
      <trkpt lat="42.042598" lon="-4.173000">
        <ele>1484.0</ele>
        <time>2017-06-23T13:54:05Z</time>
      </trkpt>
      <trkpt lat="42.042598" lon="-4.172533">
        <ele>1491.0</ele>
        <time>2017-06-23T13:54:08Z</time>
      </trkpt>
      <trkpt lat="42.042598" lon="-4.172100">
        <ele>1498.0</ele>
        <time>2017-06-23T13:54:11Z</time>
      </trkpt>
      <trkpt lat="42.042499" lon="-4.171866">
        <ele>1501.0</ele>
        <time>2017-06-23T13:54:14Z</time>
      </trkpt>
      <trkpt lat="42.042365" lon="-4.171783">
        <ele>1506.0</ele>
        <time>2017-06-23T13:54:17Z</time>
      </trkpt>
      <trkpt lat="42.042365" lon="-4.171833">
        <ele>1509.0</ele>
        <time>2017-06-23T13:54:20Z</time>
      </trkpt>
      <trkpt lat="42.042485" lon="-4.171950">
        <ele>1510.0</ele>
        <time>2017-06-23T13:54:23Z</time>
      </trkpt>
      <trkpt lat="42.042731" lon="-4.172017">
        <ele>1518.0</ele>
        <time>2017-06-23T13:54:26Z</time>
      </trkpt>
      <trkpt lat="42.043001" lon="-4.172000">
        <ele>1529.0</ele>
        <time>2017-06-23T13:54:29Z</time>
      </trkpt>
      <trkpt lat="42.043301" lon="-4.171800">
        <ele>1542.0</ele>
        <time>2017-06-23T13:54:32Z</time>
      </trkpt>
      <trkpt lat="42.043568" lon="-4.171433">
        <ele>1552.0</ele>
        <time>2017-06-23T13:54:35Z</time>
      </trkpt>
      <trkpt lat="42.043680" lon="-4.170950">
        <ele>1561.0</ele>
        <time>2017-06-23T13:54:38Z</time>
      </trkpt>
      <trkpt lat="42.043568" lon="-4.170650">
        <ele>1570.0</ele>
        <time>2017-06-23T13:54:41Z</time>
      </trkpt>
      <trkpt lat="42.043448" lon="-4.170533">
        <ele>1572.0</ele>
        <time>2017-06-23T13:54:44Z</time>
      </trkpt>
      <trkpt lat="42.043465" lon="-4.170766">
        <ele>1578.0</ele>
        <time>2017-06-23T13:54:48Z</time>
      </trkpt>
      <trkpt lat="42.043646" lon="-4.170916">
        <ele>1589.0</ele>
        <time>2017-06-23T13:54:51Z</time>
      </trkpt>
      <trkpt lat="42.043817" lon="-4.171066">
        <ele>1599.0</ele>
        <time>2017-06-23T13:54:54Z</time>
      </trkpt>
      <trkpt lat="42.044097" lon="-4.171133">
        <ele>1607.0</ele>
        <time>2017-06-23T13:54:57Z</time>
      </trkpt>
      <trkpt lat="42.044397" lon="-4.170966">
        <ele>1620.0</ele>
        <time>2017-06-23T13:55:00Z</time>
      </trkpt>
      <trkpt lat="42.044582" lon="-4.170616">
        <ele>1634.0</ele>
        <time>2017-06-23T13:55:03Z</time>
      </trkpt>
      <trkpt lat="42.044633" lon="-4.170216">
        <ele>1645.0</ele>
        <time>2017-06-23T13:55:06Z</time>
      </trkpt>
      <trkpt lat="42.044496" lon="-4.169967">
        <ele>1658.0</ele>
        <time>2017-06-23T13:55:09Z</time>
      </trkpt>
      <trkpt lat="42.044384" lon="-4.170000">
        <ele>1669.0</ele>
        <time>2017-06-23T13:55:12Z</time>
      </trkpt>
      <trkpt lat="42.044363" lon="-4.170133">
        <ele>1674.0</ele>
        <time>2017-06-23T13:55:15Z</time>
      </trkpt>
      <trkpt lat="42.044568" lon="-4.170317">
        <ele>1684.0</ele>
        <time>2017-06-23T13:55:18Z</time>
      </trkpt>
      <trkpt lat="42.044800" lon="-4.170383">
        <ele>1695.0</ele>
        <time>2017-06-23T13:55:21Z</time>
      </trkpt>
      <trkpt lat="42.045033" lon="-4.170450">
        <ele>1707.0</ele>
        <time>2017-06-23T13:55:24Z</time>
      </trkpt>
      <trkpt lat="42.045364" lon="-4.170366">
        <ele>1717.0</ele>
        <time>2017-06-23T13:55:28Z</time>
      </trkpt>
      <trkpt lat="42.045565" lon="-4.170117">
        <ele>1721.0</ele>
        <time>2017-06-23T13:55:31Z</time>
      </trkpt>
      <trkpt lat="42.045664" lon="-4.169617">
        <ele>1728.0</ele>
        <time>2017-06-23T13:55:34Z</time>
      </trkpt>
      <trkpt lat="42.045582" lon="-4.169250">
        <ele>1742.0</ele>
        <time>2017-06-23T13:55:37Z</time>
      </trkpt>
      <trkpt lat="42.045419" lon="-4.169133">
        <ele>1752.0</ele>
        <time>2017-06-23T13:55:40Z</time>
      </trkpt>
      <trkpt lat="42.045316" lon="-4.169233">
        <ele>1763.0</ele>
        <time>2017-06-23T13:55:43Z</time>
      </trkpt>
      <trkpt lat="42.045316" lon="-4.169366">
        <ele>1773.0</ele>
        <time>2017-06-23T13:55:46Z</time>
      </trkpt>
      <trkpt lat="42.045432" lon="-4.169517">
        <ele>1783.0</ele>
        <time>2017-06-23T13:55:49Z</time>
      </trkpt>
      <trkpt lat="42.045651" lon="-4.169550">
        <ele>1793.0</ele>
        <time>2017-06-23T13:55:52Z</time>
      </trkpt>
      <trkpt lat="42.045866" lon="-4.169433">
        <ele>1799.0</ele>
        <time>2017-06-23T13:55:55Z</time>
      </trkpt>
      <trkpt lat="42.046102" lon="-4.169150">
        <ele>1801.0</ele>
        <time>2017-06-23T13:55:58Z</time>
      </trkpt>
      <trkpt lat="42.046183" lon="-4.168666">
        <ele>1805.0</ele>
        <time>2017-06-23T13:56:01Z</time>
      </trkpt>
      <trkpt lat="42.046149" lon="-4.168200">
        <ele>1811.0</ele>
        <time>2017-06-23T13:56:04Z</time>
      </trkpt>
      <trkpt lat="42.046016" lon="-4.167816">
        <ele>1822.0</ele>
        <time>2017-06-23T13:56:07Z</time>
      </trkpt>
      <trkpt lat="42.045897" lon="-4.167333">
        <ele>1830.0</ele>
        <time>2017-06-23T13:56:11Z</time>
      </trkpt>
      <trkpt lat="42.045716" lon="-4.167066">
        <ele>1839.0</ele>
        <time>2017-06-23T13:56:14Z</time>
      </trkpt>
      <trkpt lat="42.045531" lon="-4.167000">
        <ele>1843.0</ele>
        <time>2017-06-23T13:56:17Z</time>
      </trkpt>
      <trkpt lat="42.045466" lon="-4.167083">
        <ele>1846.0</ele>
        <time>2017-06-23T13:56:20Z</time>
      </trkpt>
      <trkpt lat="42.045483" lon="-4.167283">
        <ele>1851.0</ele>
        <time>2017-06-23T13:56:23Z</time>
      </trkpt>
      <trkpt lat="42.045466" lon="-4.167416">
        <ele>1855.0</ele>
        <time>2017-06-23T13:56:26Z</time>
      </trkpt>
      <trkpt lat="42.045497" lon="-4.167550">
        <ele>1859.0</ele>
        <time>2017-06-23T13:56:29Z</time>
      </trkpt>
      <trkpt lat="42.045531" lon="-4.167667">
        <ele>1862.0</ele>
        <time>2017-06-23T13:56:32Z</time>
      </trkpt>
      <trkpt lat="42.045651" lon="-4.167833">
        <ele>1868.0</ele>
        <time>2017-06-23T13:56:35Z</time>
      </trkpt>
      <trkpt lat="42.045832" lon="-4.167966">
        <ele>1875.0</ele>
        <time>2017-06-23T13:56:39Z</time>
      </trkpt>
      <trkpt lat="42.045982" lon="-4.168067">
        <ele>1877.0</ele>
        <time>2017-06-23T13:56:42Z</time>
      </trkpt>
      <trkpt lat="42.046235" lon="-4.168016">
        <ele>1878.0</ele>
        <time>2017-06-23T13:56:45Z</time>
      </trkpt>
      <trkpt lat="42.046515" lon="-4.167883">
        <ele>1880.0</ele>
        <time>2017-06-23T13:56:48Z</time>
      </trkpt>
      <trkpt lat="42.046798" lon="-4.167800">
        <ele>1884.0</ele>
        <time>2017-06-23T13:56:51Z</time>
      </trkpt>
      <trkpt lat="42.047082" lon="-4.167733">
        <ele>1888.0</ele>
        <time>2017-06-23T13:56:54Z</time>
      </trkpt>
      <trkpt lat="42.047348" lon="-4.167517">
        <ele>1895.0</ele>
        <time>2017-06-23T13:56:57Z</time>
      </trkpt>
      <trkpt lat="42.047584" lon="-4.167216">
        <ele>1904.0</ele>
        <time>2017-06-23T13:57:00Z</time>
      </trkpt>
      <trkpt lat="42.047748" lon="-4.166817">
        <ele>1914.0</ele>
        <time>2017-06-23T13:57:03Z</time>
      </trkpt>
      <trkpt lat="42.047717" lon="-4.166400">
        <ele>1930.0</ele>
        <time>2017-06-23T13:57:06Z</time>
      </trkpt>
      <trkpt lat="42.047601" lon="-4.166133">
        <ele>1936.0</ele>
        <time>2017-06-23T13:57:09Z</time>
      </trkpt>
      <trkpt lat="42.047382" lon="-4.165900">
        <ele>1939.0</ele>
        <time>2017-06-23T13:57:12Z</time>
      </trkpt>
      <trkpt lat="42.047116" lon="-4.165850">
        <ele>1948.0</ele>
        <time>2017-06-23T13:57:15Z</time>
      </trkpt>
      <trkpt lat="42.046966" lon="-4.165834">
        <ele>1954.0</ele>
        <time>2017-06-23T13:57:18Z</time>
      </trkpt>
      <trkpt lat="42.046931" lon="-4.166000">
        <ele>1958.0</ele>
        <time>2017-06-23T13:57:21Z</time>
      </trkpt>
      <trkpt lat="42.047000" lon="-4.166150">
        <ele>1962.0</ele>
        <time>2017-06-23T13:57:24Z</time>
      </trkpt>
      <trkpt lat="42.047133" lon="-4.166250">
        <ele>1961.0</ele>
        <time>2017-06-23T13:57:27Z</time>
      </trkpt>
      <trkpt lat="42.047317" lon="-4.166333">
        <ele>1966.0</ele>
        <time>2017-06-23T13:57:30Z</time>
      </trkpt>
      <trkpt lat="42.047635" lon="-4.166350">
        <ele>1972.0</ele>
        <time>2017-06-23T13:57:34Z</time>
      </trkpt>
      <trkpt lat="42.047901" lon="-4.166317">
        <ele>1983.0</ele>
        <time>2017-06-23T13:57:37Z</time>
      </trkpt>
      <trkpt lat="42.048147" lon="-4.166234">
        <ele>1994.0</ele>
        <time>2017-06-23T13:57:40Z</time>
      </trkpt>
      <trkpt lat="42.048383" lon="-4.165967">
        <ele>2005.0</ele>
        <time>2017-06-23T13:57:43Z</time>
      </trkpt>
      <trkpt lat="42.048516" lon="-4.165533">
        <ele>2015.0</ele>
        <time>2017-06-23T13:57:46Z</time>
      </trkpt>
      <trkpt lat="42.048482" lon="-4.165084">
        <ele>2022.0</ele>
        <time>2017-06-23T13:57:49Z</time>
      </trkpt>
      <trkpt lat="42.048297" lon="-4.164833">
        <ele>2028.0</ele>
        <time>2017-06-23T13:57:52Z</time>
      </trkpt>
      <trkpt lat="42.048147" lon="-4.164867">
        <ele>2033.0</ele>
        <time>2017-06-23T13:57:55Z</time>
      </trkpt>
      <trkpt lat="42.048082" lon="-4.165000">
        <ele>2041.0</ele>
        <time>2017-06-23T13:57:58Z</time>
      </trkpt>
      <trkpt lat="42.048099" lon="-4.165133">
        <ele>2045.0</ele>
        <time>2017-06-23T13:58:01Z</time>
      </trkpt>
      <trkpt lat="42.048233" lon="-4.165317">
        <ele>2045.0</ele>
        <time>2017-06-23T13:58:04Z</time>
      </trkpt>
      <trkpt lat="42.048550" lon="-4.165366">
        <ele>2044.0</ele>
        <time>2017-06-23T13:58:07Z</time>
      </trkpt>
      <trkpt lat="42.048881" lon="-4.165383">
        <ele>2048.0</ele>
        <time>2017-06-23T13:58:10Z</time>
      </trkpt>
      <trkpt lat="42.049281" lon="-4.165317">
        <ele>2048.0</ele>
        <time>2017-06-23T13:58:14Z</time>
      </trkpt>
      <trkpt lat="42.049619" lon="-4.165183">
        <ele>2055.0</ele>
        <time>2017-06-23T13:58:17Z</time>
      </trkpt>
      <trkpt lat="42.049933" lon="-4.164933">
        <ele>2060.0</ele>
        <time>2017-06-23T13:58:20Z</time>
      </trkpt>
      <trkpt lat="42.050251" lon="-4.164550">
        <ele>2068.0</ele>
        <time>2017-06-23T13:58:23Z</time>
      </trkpt>
      <trkpt lat="42.050415" lon="-4.164033">
        <ele>2075.0</ele>
        <time>2017-06-23T13:58:26Z</time>
      </trkpt>
      <trkpt lat="42.050435" lon="-4.163500">
        <ele>2087.0</ele>
        <time>2017-06-23T13:58:29Z</time>
      </trkpt>
      <trkpt lat="42.050329" lon="-4.163183">
        <ele>2104.0</ele>
        <time>2017-06-23T13:58:32Z</time>
      </trkpt>
      <trkpt lat="42.050166" lon="-4.163200">
        <ele>2116.0</ele>
        <time>2017-06-23T13:58:35Z</time>
      </trkpt>
      <trkpt lat="42.050217" lon="-4.163283">
        <ele>2128.0</ele>
        <time>2017-06-23T13:58:38Z</time>
      </trkpt>
      <trkpt lat="42.050548" lon="-4.163217">
        <ele>2138.0</ele>
        <time>2017-06-23T13:58:41Z</time>
      </trkpt>
      <trkpt lat="42.050831" lon="-4.162917">
        <ele>2145.0</ele>
        <time>2017-06-23T13:58:44Z</time>
      </trkpt>
      <trkpt lat="42.051081" lon="-4.162417">
        <ele>2151.0</ele>
        <time>2017-06-23T13:58:47Z</time>
      </trkpt>
      <trkpt lat="42.051132" lon="-4.161866">
        <ele>2163.0</ele>
        <time>2017-06-23T13:58:50Z</time>
      </trkpt>
      <trkpt lat="42.051098" lon="-4.161417">
        <ele>2175.0</ele>
        <time>2017-06-23T13:58:53Z</time>
      </trkpt>
      <trkpt lat="42.050965" lon="-4.161050">
        <ele>2190.0</ele>
        <time>2017-06-23T13:58:56Z</time>
      </trkpt>
      <trkpt lat="42.050715" lon="-4.160917">
        <ele>2199.0</ele>
        <time>2017-06-23T13:59:00Z</time>
      </trkpt>
      <trkpt lat="42.050883" lon="-4.161116">
        <ele>2209.0</ele>
        <time>2017-06-23T13:59:03Z</time>
      </trkpt>
      <trkpt lat="42.051067" lon="-4.161066">
        <ele>2219.0</ele>
        <time>2017-06-23T13:59:06Z</time>
      </trkpt>
      <trkpt lat="42.051316" lon="-4.161000">
        <ele>2226.0</ele>
        <time>2017-06-23T13:59:09Z</time>
      </trkpt>
      <trkpt lat="42.051631" lon="-4.160867">
        <ele>2233.0</ele>
        <time>2017-06-23T13:59:12Z</time>
      </trkpt>
      <trkpt lat="42.051935" lon="-4.160583">
        <ele>2242.0</ele>
        <time>2017-06-23T13:59:15Z</time>
      </trkpt>
      <trkpt lat="42.052215" lon="-4.160183">
        <ele>2255.0</ele>
        <time>2017-06-23T13:59:18Z</time>
      </trkpt>
      <trkpt lat="42.052399" lon="-4.159717">
        <ele>2269.0</ele>
        <time>2017-06-23T13:59:21Z</time>
      </trkpt>
      <trkpt lat="42.052348" lon="-4.159233">
        <ele>2285.0</ele>
        <time>2017-06-23T13:59:24Z</time>
      </trkpt>
      <trkpt lat="42.052201" lon="-4.159117">
        <ele>2297.0</ele>
        <time>2017-06-23T13:59:27Z</time>
      </trkpt>
      <trkpt lat="42.052201" lon="-4.159200">
        <ele>2309.0</ele>
        <time>2017-06-23T13:59:30Z</time>
      </trkpt>
      <trkpt lat="42.052399" lon="-4.159184">
        <ele>2318.0</ele>
        <time>2017-06-23T13:59:33Z</time>
      </trkpt>
      <trkpt lat="42.052699" lon="-4.158950">
        <ele>2332.0</ele>
        <time>2017-06-23T13:59:36Z</time>
      </trkpt>
      <trkpt lat="42.052932" lon="-4.158350">
        <ele>2346.0</ele>
        <time>2017-06-23T13:59:40Z</time>
      </trkpt>
      <trkpt lat="42.052949" lon="-4.157834">
        <ele>2358.0</ele>
        <time>2017-06-23T13:59:43Z</time>
      </trkpt>
      <trkpt lat="42.052918" lon="-4.157400">
        <ele>2370.0</ele>
        <time>2017-06-23T13:59:46Z</time>
      </trkpt>
      <trkpt lat="42.052816" lon="-4.157067">
        <ele>2377.0</ele>
        <time>2017-06-23T13:59:49Z</time>
      </trkpt>
      <trkpt lat="42.052699" lon="-4.156983">
        <ele>2379.0</ele>
        <time>2017-06-23T13:59:52Z</time>
      </trkpt>
      <trkpt lat="42.052600" lon="-4.157067">
        <ele>2386.0</ele>
        <time>2017-06-23T13:59:55Z</time>
      </trkpt>
      <trkpt lat="42.052546" lon="-4.157134">
        <ele>2397.0</ele>
        <time>2017-06-23T13:59:58Z</time>
      </trkpt>
      <trkpt lat="42.052580" lon="-4.157250">
        <ele>2405.0</ele>
        <time>2017-06-23T14:00:01Z</time>
      </trkpt>
      <trkpt lat="42.052699" lon="-4.157367">
        <ele>2415.0</ele>
        <time>2017-06-23T14:00:04Z</time>
      </trkpt>
      <trkpt lat="42.052898" lon="-4.157400">
        <ele>2424.0</ele>
        <time>2017-06-23T14:00:07Z</time>
      </trkpt>
      <trkpt lat="42.053198" lon="-4.157283">
        <ele>2434.0</ele>
        <time>2017-06-23T14:00:10Z</time>
      </trkpt>
      <trkpt lat="42.053468" lon="-4.156967">
        <ele>2442.0</ele>
        <time>2017-06-23T14:00:13Z</time>
      </trkpt>
      <trkpt lat="42.053734" lon="-4.156617">
        <ele>2450.0</ele>
        <time>2017-06-23T14:00:16Z</time>
      </trkpt>
      <trkpt lat="42.053881" lon="-4.156167">
        <ele>2459.0</ele>
        <time>2017-06-23T14:00:19Z</time>
      </trkpt>
      <trkpt lat="42.054151" lon="-4.155650">
        <ele>2471.0</ele>
        <time>2017-06-23T14:00:23Z</time>
      </trkpt>
      <trkpt lat="42.054216" lon="-4.155183">
        <ele>2474.0</ele>
        <time>2017-06-23T14:00:26Z</time>
      </trkpt>
      <trkpt lat="42.054079" lon="-4.154884">
        <ele>2478.0</ele>
        <time>2017-06-23T14:00:29Z</time>
      </trkpt>
      <trkpt lat="42.054001" lon="-4.154917">
        <ele>2482.0</ele>
        <time>2017-06-23T14:00:32Z</time>
      </trkpt>
      <trkpt lat="42.053980" lon="-4.155084">
        <ele>2480.0</ele>
        <time>2017-06-23T14:00:35Z</time>
      </trkpt>
      <trkpt lat="42.054001" lon="-4.155333">
        <ele>2487.0</ele>
        <time>2017-06-23T14:00:38Z</time>
      </trkpt>
      <trkpt lat="42.054014" lon="-4.155500">
        <ele>2498.0</ele>
        <time>2017-06-23T14:00:41Z</time>
      </trkpt>
      <trkpt lat="42.054100" lon="-4.155600">
        <ele>2503.0</ele>
        <time>2017-06-23T14:00:44Z</time>
      </trkpt>
      <trkpt lat="42.054250" lon="-4.155717">
        <ele>2511.0</ele>
        <time>2017-06-23T14:00:47Z</time>
      </trkpt>
      <trkpt lat="42.054397" lon="-4.155750">
        <ele>2513.0</ele>
        <time>2017-06-23T14:00:50Z</time>
      </trkpt>
      <trkpt lat="42.054598" lon="-4.155800">
        <ele>2514.0</ele>
        <time>2017-06-23T14:00:53Z</time>
      </trkpt>
      <trkpt lat="42.054766" lon="-4.155967">
        <ele>2522.0</ele>
        <time>2017-06-23T14:00:56Z</time>
      </trkpt>
      <trkpt lat="42.054902" lon="-4.156067">
        <ele>2529.0</ele>
        <time>2017-06-23T14:00:59Z</time>
      </trkpt>
      <trkpt lat="42.055083" lon="-4.156150">
        <ele>2535.0</ele>
        <time>2017-06-23T14:01:02Z</time>
      </trkpt>
      <trkpt lat="42.055479" lon="-4.156067">
        <ele>2541.0</ele>
        <time>2017-06-23T14:01:06Z</time>
      </trkpt>
      <trkpt lat="42.055797" lon="-4.155984">
        <ele>2547.0</ele>
        <time>2017-06-23T14:01:09Z</time>
      </trkpt>
      <trkpt lat="42.056097" lon="-4.155817">
        <ele>2550.0</ele>
        <time>2017-06-23T14:01:12Z</time>
      </trkpt>
      <trkpt lat="42.056401" lon="-4.155583">
        <ele>2558.0</ele>
        <time>2017-06-23T14:01:15Z</time>
      </trkpt>
      <trkpt lat="42.056634" lon="-4.155350">
        <ele>2563.0</ele>
        <time>2017-06-23T14:01:18Z</time>
      </trkpt>
      <trkpt lat="42.056914" lon="-4.155034">
        <ele>2566.0</ele>
        <time>2017-06-23T14:01:21Z</time>
      </trkpt>
      <trkpt lat="42.057166" lon="-4.154667">
        <ele>2570.0</ele>
        <time>2017-06-23T14:01:24Z</time>
      </trkpt>
      <trkpt lat="42.057484" lon="-4.154334">
        <ele>2573.0</ele>
        <time>2017-06-23T14:01:27Z</time>
      </trkpt>
      <trkpt lat="42.057781" lon="-4.154000">
        <ele>2586.0</ele>
        <time>2017-06-23T14:01:30Z</time>
      </trkpt>
      <trkpt lat="42.058116" lon="-4.153733">
        <ele>2595.0</ele>
        <time>2017-06-23T14:01:33Z</time>
      </trkpt>
      <trkpt lat="42.058365" lon="-4.153400">
        <ele>2602.0</ele>
        <time>2017-06-23T14:01:36Z</time>
      </trkpt>
      <trkpt lat="42.058580" lon="-4.152984">
        <ele>2609.0</ele>
        <time>2017-06-23T14:01:39Z</time>
      </trkpt>
      <trkpt lat="42.058884" lon="-4.152567">
        <ele>2623.0</ele>
        <time>2017-06-23T14:01:42Z</time>
      </trkpt>
      <trkpt lat="42.059151" lon="-4.152167">
        <ele>2636.0</ele>
        <time>2017-06-23T14:01:46Z</time>
      </trkpt>
      <trkpt lat="42.059362" lon="-4.151767">
        <ele>2644.0</ele>
        <time>2017-06-23T14:01:49Z</time>
      </trkpt>
      <trkpt lat="42.059581" lon="-4.151417">
        <ele>2656.0</ele>
        <time>2017-06-23T14:01:52Z</time>
      </trkpt>
      <trkpt lat="42.059813" lon="-4.151117">
        <ele>2665.0</ele>
        <time>2017-06-23T14:01:55Z</time>
      </trkpt>
      <trkpt lat="42.060066" lon="-4.150767">
        <ele>2673.0</ele>
        <time>2017-06-23T14:01:58Z</time>
      </trkpt>
      <trkpt lat="42.060298" lon="-4.150367">
        <ele>2684.0</ele>
        <time>2017-06-23T14:02:01Z</time>
      </trkpt>
      <trkpt lat="42.060431" lon="-4.149900">
        <ele>2696.0</ele>
        <time>2017-06-23T14:02:04Z</time>
      </trkpt>
      <trkpt lat="42.060482" lon="-4.149466">
        <ele>2711.0</ele>
        <time>2017-06-23T14:02:07Z</time>
      </trkpt>
      <trkpt lat="42.060397" lon="-4.149200">
        <ele>2722.0</ele>
        <time>2017-06-23T14:02:10Z</time>
      </trkpt>
      <trkpt lat="42.060349" lon="-4.149366">
        <ele>2740.0</ele>
        <time>2017-06-23T14:02:13Z</time>
      </trkpt>
      <trkpt lat="42.060482" lon="-4.149533">
        <ele>2751.0</ele>
        <time>2017-06-23T14:02:16Z</time>
      </trkpt>
      <trkpt lat="42.060715" lon="-4.149700">
        <ele>2764.0</ele>
        <time>2017-06-23T14:02:19Z</time>
      </trkpt>
      <trkpt lat="42.061032" lon="-4.149733">
        <ele>2774.0</ele>
        <time>2017-06-23T14:02:22Z</time>
      </trkpt>
      <trkpt lat="42.061466" lon="-4.149366">
        <ele>2780.0</ele>
        <time>2017-06-23T14:02:26Z</time>
      </trkpt>
      <trkpt lat="42.061650" lon="-4.148883">
        <ele>2790.0</ele>
        <time>2017-06-23T14:02:29Z</time>
      </trkpt>
      <trkpt lat="42.061767" lon="-4.148417">
        <ele>2801.0</ele>
        <time>2017-06-23T14:02:32Z</time>
      </trkpt>
      <trkpt lat="42.061849" lon="-4.147933">
        <ele>2814.0</ele>
        <time>2017-06-23T14:02:35Z</time>
      </trkpt>
      <trkpt lat="42.061818" lon="-4.147566">
        <ele>2827.0</ele>
        <time>2017-06-23T14:02:38Z</time>
      </trkpt>
      <trkpt lat="42.061715" lon="-4.147416">
        <ele>2835.0</ele>
        <time>2017-06-23T14:02:41Z</time>
      </trkpt>
      <trkpt lat="42.061650" lon="-4.147533">
        <ele>2840.0</ele>
        <time>2017-06-23T14:02:44Z</time>
      </trkpt>
      <trkpt lat="42.061797" lon="-4.147766">
        <ele>2848.0</ele>
        <time>2017-06-23T14:02:47Z</time>
      </trkpt>
      <trkpt lat="42.062084" lon="-4.147900">
        <ele>2858.0</ele>
        <time>2017-06-23T14:02:50Z</time>
      </trkpt>
      <trkpt lat="42.062450" lon="-4.147916">
        <ele>2869.0</ele>
        <time>2017-06-23T14:02:53Z</time>
      </trkpt>
      <trkpt lat="42.062815" lon="-4.147750">
        <ele>2882.0</ele>
        <time>2017-06-23T14:02:56Z</time>
      </trkpt>
      <trkpt lat="42.063133" lon="-4.147483">
        <ele>2889.0</ele>
        <time>2017-06-23T14:02:59Z</time>
      </trkpt>
      <trkpt lat="42.063331" lon="-4.147016">
        <ele>2897.0</ele>
        <time>2017-06-23T14:03:02Z</time>
      </trkpt>
      <trkpt lat="42.063399" lon="-4.146583">
        <ele>2908.0</ele>
        <time>2017-06-23T14:03:05Z</time>
      </trkpt>
      <trkpt lat="42.063365" lon="-4.146183">
        <ele>2916.0</ele>
        <time>2017-06-23T14:03:09Z</time>
      </trkpt>
      <trkpt lat="42.063283" lon="-4.146183">
        <ele>2919.0</ele>
        <time>2017-06-23T14:03:12Z</time>
      </trkpt>
      <trkpt lat="42.063283" lon="-4.146317">
        <ele>2922.0</ele>
        <time>2017-06-23T14:03:15Z</time>
      </trkpt>
      <trkpt lat="42.063351" lon="-4.146533">
        <ele>2923.0</ele>
        <time>2017-06-23T14:03:18Z</time>
      </trkpt>
      <trkpt lat="42.063549" lon="-4.146800">
        <ele>2927.0</ele>
        <time>2017-06-23T14:03:21Z</time>
      </trkpt>
      <trkpt lat="42.063833" lon="-4.147016">
        <ele>2934.0</ele>
        <time>2017-06-23T14:03:24Z</time>
      </trkpt>
      <trkpt lat="42.064167" lon="-4.147200">
        <ele>2938.0</ele>
        <time>2017-06-23T14:03:27Z</time>
      </trkpt>
      <trkpt lat="42.064567" lon="-4.147216">
        <ele>2939.0</ele>
        <time>2017-06-23T14:03:30Z</time>
      </trkpt>
      <trkpt lat="42.065018" lon="-4.147033">
        <ele>2936.0</ele>
        <time>2017-06-23T14:03:33Z</time>
      </trkpt>
      <trkpt lat="42.065434" lon="-4.146817">
        <ele>2930.0</ele>
        <time>2017-06-23T14:03:36Z</time>
      </trkpt>
      <trkpt lat="42.065899" lon="-4.146533">
        <ele>2927.0</ele>
        <time>2017-06-23T14:03:39Z</time>
      </trkpt>
      <trkpt lat="42.066384" lon="-4.146283">
        <ele>2920.0</ele>
        <time>2017-06-23T14:03:42Z</time>
      </trkpt>
      <trkpt lat="42.066848" lon="-4.146150">
        <ele>2904.0</ele>
        <time>2017-06-23T14:03:45Z</time>
      </trkpt>
      <trkpt lat="42.067333" lon="-4.146166">
        <ele>2889.0</ele>
        <time>2017-06-23T14:03:48Z</time>
      </trkpt>
      <trkpt lat="42.067931" lon="-4.146250">
        <ele>2875.0</ele>
        <time>2017-06-23T14:03:52Z</time>
      </trkpt>
      <trkpt lat="42.068334" lon="-4.146283">
        <ele>2863.0</ele>
        <time>2017-06-23T14:03:55Z</time>
      </trkpt>
      <trkpt lat="42.068733" lon="-4.146333">
        <ele>2856.0</ele>
        <time>2017-06-23T14:03:58Z</time>
      </trkpt>
      <trkpt lat="42.069051" lon="-4.146533">
        <ele>2846.0</ele>
        <time>2017-06-23T14:04:01Z</time>
      </trkpt>
      <trkpt lat="42.069382" lon="-4.146666">
        <ele>2842.0</ele>
        <time>2017-06-23T14:04:04Z</time>
      </trkpt>
      <trkpt lat="42.069768" lon="-4.146717">
        <ele>2832.0</ele>
        <time>2017-06-23T14:04:07Z</time>
      </trkpt>
      <trkpt lat="42.070198" lon="-4.146817">
        <ele>2829.0</ele>
        <time>2017-06-23T14:04:10Z</time>
      </trkpt>
      <trkpt lat="42.070516" lon="-4.146933">
        <ele>2818.0</ele>
        <time>2017-06-23T14:04:13Z</time>
      </trkpt>
      <trkpt lat="42.070765" lon="-4.147083">
        <ele>2814.0</ele>
        <time>2017-06-23T14:04:16Z</time>
      </trkpt>
      <trkpt lat="42.070984" lon="-4.147183">
        <ele>2804.0</ele>
        <time>2017-06-23T14:04:19Z</time>
      </trkpt>
      <trkpt lat="42.071233" lon="-4.147316">
        <ele>2792.0</ele>
        <time>2017-06-23T14:04:22Z</time>
      </trkpt>
      <trkpt lat="42.071547" lon="-4.147383">
        <ele>2784.0</ele>
        <time>2017-06-23T14:04:25Z</time>
      </trkpt>
      <trkpt lat="42.071885" lon="-4.147400">
        <ele>2779.0</ele>
        <time>2017-06-23T14:04:28Z</time>
      </trkpt>
      <trkpt lat="42.072282" lon="-4.147249">
        <ele>2770.0</ele>
        <time>2017-06-23T14:04:31Z</time>
      </trkpt>
      <trkpt lat="42.072866" lon="-4.146900">
        <ele>2766.0</ele>
        <time>2017-06-23T14:04:35Z</time>
      </trkpt>
      <trkpt lat="42.073248" lon="-4.146550">
        <ele>2760.0</ele>
        <time>2017-06-23T14:04:38Z</time>
      </trkpt>
      <trkpt lat="42.073617" lon="-4.146216">
        <ele>2755.0</ele>
        <time>2017-06-23T14:04:41Z</time>
      </trkpt>
      <trkpt lat="42.073996" lon="-4.145866">
        <ele>2747.0</ele>
        <time>2017-06-23T14:04:44Z</time>
      </trkpt>
      <trkpt lat="42.074382" lon="-4.145566">
        <ele>2742.0</ele>
        <time>2017-06-23T14:04:47Z</time>
      </trkpt>
      <trkpt lat="42.074764" lon="-4.145267">
        <ele>2737.0</ele>
        <time>2017-06-23T14:04:50Z</time>
      </trkpt>
      <trkpt lat="42.075198" lon="-4.145100">
        <ele>2734.0</ele>
        <time>2017-06-23T14:04:53Z</time>
      </trkpt>
      <trkpt lat="42.075598" lon="-4.144950">
        <ele>2733.0</ele>
        <time>2017-06-23T14:04:56Z</time>
      </trkpt>
      <trkpt lat="42.076031" lon="-4.144800">
        <ele>2726.0</ele>
        <time>2017-06-23T14:04:59Z</time>
      </trkpt>
      <trkpt lat="42.076482" lon="-4.144633">
        <ele>2727.0</ele>
        <time>2017-06-23T14:05:02Z</time>
      </trkpt>
      <trkpt lat="42.076916" lon="-4.144450">
        <ele>2723.0</ele>
        <time>2017-06-23T14:05:05Z</time>
      </trkpt>
      <trkpt lat="42.077367" lon="-4.144250">
        <ele>2720.0</ele>
        <time>2017-06-23T14:05:08Z</time>
      </trkpt>
      <trkpt lat="42.077800" lon="-4.144017">
        <ele>2718.0</ele>
        <time>2017-06-23T14:05:11Z</time>
      </trkpt>
      <trkpt lat="42.078251" lon="-4.143800">
        <ele>2713.0</ele>
        <time>2017-06-23T14:05:14Z</time>
      </trkpt>
      <trkpt lat="42.078883" lon="-4.143367">
        <ele>2709.0</ele>
        <time>2017-06-23T14:05:18Z</time>
      </trkpt>
      <trkpt lat="42.079351" lon="-4.143050">
        <ele>2710.0</ele>
        <time>2017-06-23T14:05:21Z</time>
      </trkpt>
      <trkpt lat="42.079750" lon="-4.142733">
        <ele>2709.0</ele>
        <time>2017-06-23T14:05:24Z</time>
      </trkpt>
      <trkpt lat="42.080201" lon="-4.142483">
        <ele>2704.0</ele>
        <time>2017-06-23T14:05:27Z</time>
      </trkpt>
      <trkpt lat="42.080632" lon="-4.142216">
        <ele>2706.0</ele>
        <time>2017-06-23T14:05:30Z</time>
      </trkpt>
      <trkpt lat="42.081017" lon="-4.142000">
        <ele>2701.0</ele>
        <time>2017-06-23T14:05:33Z</time>
      </trkpt>
      <trkpt lat="42.081482" lon="-4.141766">
        <ele>2694.0</ele>
        <time>2017-06-23T14:05:36Z</time>
      </trkpt>
      <trkpt lat="42.081946" lon="-4.141483">
        <ele>2690.0</ele>
        <time>2017-06-23T14:05:39Z</time>
      </trkpt>
      <trkpt lat="42.082418" lon="-4.141200">
        <ele>2685.0</ele>
        <time>2017-06-23T14:05:42Z</time>
      </trkpt>
      <trkpt lat="42.082831" lon="-4.140833">
        <ele>2679.0</ele>
        <time>2017-06-23T14:05:45Z</time>
      </trkpt>
      <trkpt lat="42.083213" lon="-4.140450">
        <ele>2671.0</ele>
        <time>2017-06-23T14:05:48Z</time>
      </trkpt>
      <trkpt lat="42.083613" lon="-4.140083">
        <ele>2668.0</ele>
        <time>2017-06-23T14:05:51Z</time>
      </trkpt>
      <trkpt lat="42.084197" lon="-4.139650">
        <ele>2658.0</ele>
        <time>2017-06-23T14:05:55Z</time>
      </trkpt>
      <trkpt lat="42.084668" lon="-4.139350">
        <ele>2654.0</ele>
        <time>2017-06-23T14:05:58Z</time>
      </trkpt>
      <trkpt lat="42.085112" lon="-4.139100">
        <ele>2644.0</ele>
        <time>2017-06-23T14:06:01Z</time>
      </trkpt>
      <trkpt lat="42.085631" lon="-4.138816">
        <ele>2636.0</ele>
        <time>2017-06-23T14:06:04Z</time>
      </trkpt>
      <trkpt lat="42.086082" lon="-4.138483">
        <ele>2628.0</ele>
        <time>2017-06-23T14:06:07Z</time>
      </trkpt>
      <trkpt lat="42.086567" lon="-4.138233">
        <ele>2617.0</ele>
        <time>2017-06-23T14:06:10Z</time>
      </trkpt>
      <trkpt lat="42.086997" lon="-4.137983">
        <ele>2613.0</ele>
        <time>2017-06-23T14:06:13Z</time>
      </trkpt>
      <trkpt lat="42.087431" lon="-4.137783">
        <ele>2604.0</ele>
        <time>2017-06-23T14:06:16Z</time>
      </trkpt>
      <trkpt lat="42.087865" lon="-4.137500">
        <ele>2600.0</ele>
        <time>2017-06-23T14:06:19Z</time>
      </trkpt>
      <trkpt lat="42.088264" lon="-4.137183">
        <ele>2596.0</ele>
        <time>2017-06-23T14:06:22Z</time>
      </trkpt>
      <trkpt lat="42.088681" lon="-4.136867">
        <ele>2586.0</ele>
        <time>2017-06-23T14:06:25Z</time>
      </trkpt>
      <trkpt lat="42.089101" lon="-4.136500">
        <ele>2583.0</ele>
        <time>2017-06-23T14:06:28Z</time>
      </trkpt>
      <trkpt lat="42.089466" lon="-4.136117">
        <ele>2579.0</ele>
        <time>2017-06-23T14:06:31Z</time>
      </trkpt>
      <trkpt lat="42.089818" lon="-4.135750">
        <ele>2575.0</ele>
        <time>2017-06-23T14:06:34Z</time>
      </trkpt>
      <trkpt lat="42.090266" lon="-4.135300">
        <ele>2565.0</ele>
        <time>2017-06-23T14:06:38Z</time>
      </trkpt>
      <trkpt lat="42.090634" lon="-4.134867">
        <ele>2560.0</ele>
        <time>2017-06-23T14:06:41Z</time>
      </trkpt>
      <trkpt lat="42.090979" lon="-4.134433">
        <ele>2551.0</ele>
        <time>2017-06-23T14:06:44Z</time>
      </trkpt>
      <trkpt lat="42.091365" lon="-4.133933">
        <ele>2545.0</ele>
        <time>2017-06-23T14:06:47Z</time>
      </trkpt>
      <trkpt lat="42.091731" lon="-4.133467">
        <ele>2545.0</ele>
        <time>2017-06-23T14:06:50Z</time>
      </trkpt>
      <trkpt lat="42.092099" lon="-4.133017">
        <ele>2544.0</ele>
        <time>2017-06-23T14:06:53Z</time>
      </trkpt>
      <trkpt lat="42.092434" lon="-4.132600">
        <ele>2545.0</ele>
        <time>2017-06-23T14:06:56Z</time>
      </trkpt>
      <trkpt lat="42.092817" lon="-4.132200">
        <ele>2544.0</ele>
        <time>2017-06-23T14:06:59Z</time>
      </trkpt>
      <trkpt lat="42.093165" lon="-4.131783">
        <ele>2547.0</ele>
        <time>2017-06-23T14:07:02Z</time>
      </trkpt>
      <trkpt lat="42.093448" lon="-4.131350">
        <ele>2549.0</ele>
        <time>2017-06-23T14:07:05Z</time>
      </trkpt>
      <trkpt lat="42.093599" lon="-4.130800">
        <ele>2552.0</ele>
        <time>2017-06-23T14:07:08Z</time>
      </trkpt>
      <trkpt lat="42.093582" lon="-4.130333">
        <ele>2554.0</ele>
        <time>2017-06-23T14:07:11Z</time>
      </trkpt>
      <trkpt lat="42.093462" lon="-4.130050">
        <ele>2555.0</ele>
        <time>2017-06-23T14:07:14Z</time>
      </trkpt>
      <trkpt lat="42.093329" lon="-4.130017">
        <ele>2556.0</ele>
        <time>2017-06-23T14:07:17Z</time>
      </trkpt>
      <trkpt lat="42.093250" lon="-4.130017">
        <ele>2556.0</ele>
        <time>2017-06-23T14:07:21Z</time>
      </trkpt>
      <trkpt lat="42.093281" lon="-4.130117">
        <ele>2553.0</ele>
        <time>2017-06-23T14:07:24Z</time>
      </trkpt>
      <trkpt lat="42.093414" lon="-4.130250">
        <ele>2548.0</ele>
        <time>2017-06-23T14:07:27Z</time>
      </trkpt>
      <trkpt lat="42.093732" lon="-4.130333">
        <ele>2545.0</ele>
        <time>2017-06-23T14:07:30Z</time>
      </trkpt>
      <trkpt lat="42.094114" lon="-4.130250">
        <ele>2546.0</ele>
        <time>2017-06-23T14:07:33Z</time>
      </trkpt>
      <trkpt lat="42.094483" lon="-4.130067">
        <ele>2548.0</ele>
        <time>2017-06-23T14:07:36Z</time>
      </trkpt>
      <trkpt lat="42.094832" lon="-4.129800">
        <ele>2548.0</ele>
        <time>2017-06-23T14:07:39Z</time>
      </trkpt>
      <trkpt lat="42.095166" lon="-4.129417">
        <ele>2550.0</ele>
        <time>2017-06-23T14:07:42Z</time>
      </trkpt>
      <trkpt lat="42.095532" lon="-4.129067">
        <ele>2551.0</ele>
        <time>2017-06-23T14:07:45Z</time>
      </trkpt>
      <trkpt lat="42.095832" lon="-4.128633">
        <ele>2552.0</ele>
        <time>2017-06-23T14:07:48Z</time>
      </trkpt>
      <trkpt lat="42.095965" lon="-4.128083">
        <ele>2552.0</ele>
        <time>2017-06-23T14:07:51Z</time>
      </trkpt>
      <trkpt lat="42.095917" lon="-4.127684">
        <ele>2549.0</ele>
        <time>2017-06-23T14:07:54Z</time>
      </trkpt>
      <trkpt lat="42.095784" lon="-4.127500">
        <ele>2549.0</ele>
        <time>2017-06-23T14:07:57Z</time>
      </trkpt>
      <trkpt lat="42.095733" lon="-4.127533">
        <ele>2548.0</ele>
        <time>2017-06-23T14:08:00Z</time>
      </trkpt>
      <trkpt lat="42.095849" lon="-4.127733">
        <ele>2550.0</ele>
        <time>2017-06-23T14:08:04Z</time>
      </trkpt>
      <trkpt lat="42.096017" lon="-4.127833">
        <ele>2552.0</ele>
        <time>2017-06-23T14:08:07Z</time>
      </trkpt>
      <trkpt lat="42.096232" lon="-4.127934">
        <ele>2552.0</ele>
        <time>2017-06-23T14:08:10Z</time>
      </trkpt>
      <trkpt lat="42.096502" lon="-4.127967">
        <ele>2552.0</ele>
        <time>2017-06-23T14:08:13Z</time>
      </trkpt>
      <trkpt lat="42.096799" lon="-4.127967">
        <ele>2548.0</ele>
        <time>2017-06-23T14:08:16Z</time>
      </trkpt>
      <trkpt lat="42.097147" lon="-4.127950">
        <ele>2547.0</ele>
        <time>2017-06-23T14:08:19Z</time>
      </trkpt>
      <trkpt lat="42.097482" lon="-4.127900">
        <ele>2546.0</ele>
        <time>2017-06-23T14:08:22Z</time>
      </trkpt>
      <trkpt lat="42.097816" lon="-4.127833">
        <ele>2543.0</ele>
        <time>2017-06-23T14:08:25Z</time>
      </trkpt>
      <trkpt lat="42.098182" lon="-4.127684">
        <ele>2541.0</ele>
        <time>2017-06-23T14:08:28Z</time>
      </trkpt>
      <trkpt lat="42.098547" lon="-4.127433">
        <ele>2540.0</ele>
        <time>2017-06-23T14:08:31Z</time>
      </trkpt>
      <trkpt lat="42.098916" lon="-4.127117">
        <ele>2540.0</ele>
        <time>2017-06-23T14:08:34Z</time>
      </trkpt>
      <trkpt lat="42.099247" lon="-4.126783">
        <ele>2538.0</ele>
        <time>2017-06-23T14:08:37Z</time>
      </trkpt>
      <trkpt lat="42.099616" lon="-4.126400">
        <ele>2537.0</ele>
        <time>2017-06-23T14:08:40Z</time>
      </trkpt>
      <trkpt lat="42.100063" lon="-4.125850">
        <ele>2536.0</ele>
        <time>2017-06-23T14:08:44Z</time>
      </trkpt>
      <trkpt lat="42.100364" lon="-4.125367">
        <ele>2535.0</ele>
        <time>2017-06-23T14:08:47Z</time>
      </trkpt>
      <trkpt lat="42.100647" lon="-4.124917">
        <ele>2535.0</ele>
        <time>2017-06-23T14:08:50Z</time>
      </trkpt>
      <trkpt lat="42.100934" lon="-4.124434">
        <ele>2531.0</ele>
        <time>2017-06-23T14:08:53Z</time>
      </trkpt>
      <trkpt lat="42.101146" lon="-4.123883">
        <ele>2528.0</ele>
        <time>2017-06-23T14:08:56Z</time>
      </trkpt>
      <trkpt lat="42.101382" lon="-4.123367">
        <ele>2525.0</ele>
        <time>2017-06-23T14:08:59Z</time>
      </trkpt>
      <trkpt lat="42.101614" lon="-4.122817">
        <ele>2522.0</ele>
        <time>2017-06-23T14:09:02Z</time>
      </trkpt>
      <trkpt lat="42.101863" lon="-4.122267">
        <ele>2518.0</ele>
        <time>2017-06-23T14:09:05Z</time>
      </trkpt>
      <trkpt lat="42.102082" lon="-4.121717">
        <ele>2514.0</ele>
        <time>2017-06-23T14:09:08Z</time>
      </trkpt>
      <trkpt lat="42.102283" lon="-4.121150">
        <ele>2509.0</ele>
        <time>2017-06-23T14:09:11Z</time>
      </trkpt>
      <trkpt lat="42.102533" lon="-4.120617">
        <ele>2503.0</ele>
        <time>2017-06-23T14:09:14Z</time>
      </trkpt>
      <trkpt lat="42.102833" lon="-4.120150">
        <ele>2496.0</ele>
        <time>2017-06-23T14:09:17Z</time>
      </trkpt>
      <trkpt lat="42.103164" lon="-4.119700">
        <ele>2490.0</ele>
        <time>2017-06-23T14:09:20Z</time>
      </trkpt>
      <trkpt lat="42.103499" lon="-4.119300">
        <ele>2482.0</ele>
        <time>2017-06-23T14:09:23Z</time>
      </trkpt>
      <trkpt lat="42.104015" lon="-4.118900">
        <ele>2479.0</ele>
        <time>2017-06-23T14:09:27Z</time>
      </trkpt>
      <trkpt lat="42.104397" lon="-4.118683">
        <ele>2470.0</ele>
        <time>2017-06-23T14:09:30Z</time>
      </trkpt>
      <trkpt lat="42.104797" lon="-4.118467">
        <ele>2464.0</ele>
        <time>2017-06-23T14:09:33Z</time>
      </trkpt>
      <trkpt lat="42.105183" lon="-4.118250">
        <ele>2456.0</ele>
        <time>2017-06-23T14:09:36Z</time>
      </trkpt>
      <trkpt lat="42.105613" lon="-4.118000">
        <ele>2446.0</ele>
        <time>2017-06-23T14:09:39Z</time>
      </trkpt>
      <trkpt lat="42.106033" lon="-4.117700">
        <ele>2438.0</ele>
        <time>2017-06-23T14:09:42Z</time>
      </trkpt>
      <trkpt lat="42.106429" lon="-4.117350">
        <ele>2431.0</ele>
        <time>2017-06-23T14:09:45Z</time>
      </trkpt>
      <trkpt lat="42.106801" lon="-4.116900">
        <ele>2423.0</ele>
        <time>2017-06-23T14:09:48Z</time>
      </trkpt>
      <trkpt lat="42.107167" lon="-4.116433">
        <ele>2415.0</ele>
        <time>2017-06-23T14:09:51Z</time>
      </trkpt>
      <trkpt lat="42.107512" lon="-4.115933">
        <ele>2403.0</ele>
        <time>2017-06-23T14:09:54Z</time>
      </trkpt>
      <trkpt lat="42.107864" lon="-4.115416">
        <ele>2394.0</ele>
        <time>2017-06-23T14:09:57Z</time>
      </trkpt>
      <trkpt lat="42.108181" lon="-4.114900">
        <ele>2387.0</ele>
        <time>2017-06-23T14:10:00Z</time>
      </trkpt>
      <trkpt lat="42.108516" lon="-4.114400">
        <ele>2375.0</ele>
        <time>2017-06-23T14:10:03Z</time>
      </trkpt>
      <trkpt lat="42.108946" lon="-4.113733">
        <ele>2370.0</ele>
        <time>2017-06-23T14:10:07Z</time>
      </trkpt>
      <trkpt lat="42.109230" lon="-4.113250">
        <ele>2363.0</ele>
        <time>2017-06-23T14:10:10Z</time>
      </trkpt>
      <trkpt lat="42.109496" lon="-4.112734">
        <ele>2353.0</ele>
        <time>2017-06-23T14:10:13Z</time>
      </trkpt>
      <trkpt lat="42.109749" lon="-4.112233">
        <ele>2351.0</ele>
        <time>2017-06-23T14:10:16Z</time>
      </trkpt>
      <trkpt lat="42.109998" lon="-4.111766">
        <ele>2349.0</ele>
        <time>2017-06-23T14:10:19Z</time>
      </trkpt>
      <trkpt lat="42.110298" lon="-4.111367">
        <ele>2348.0</ele>
        <time>2017-06-23T14:10:22Z</time>
      </trkpt>
      <trkpt lat="42.110551" lon="-4.110950">
        <ele>2345.0</ele>
        <time>2017-06-23T14:10:25Z</time>
      </trkpt>
      <trkpt lat="42.110848" lon="-4.110483">
        <ele>2339.0</ele>
        <time>2017-06-23T14:10:28Z</time>
      </trkpt>
      <trkpt lat="42.111149" lon="-4.110033">
        <ele>2340.0</ele>
        <time>2017-06-23T14:10:31Z</time>
      </trkpt>
      <trkpt lat="42.111466" lon="-4.109650">
        <ele>2337.0</ele>
        <time>2017-06-23T14:10:34Z</time>
      </trkpt>
      <trkpt lat="42.111815" lon="-4.109200">
        <ele>2337.0</ele>
        <time>2017-06-23T14:10:37Z</time>
      </trkpt>
      <trkpt lat="42.112115" lon="-4.108816">
        <ele>2337.0</ele>
        <time>2017-06-23T14:10:40Z</time>
      </trkpt>
      <trkpt lat="42.112399" lon="-4.108467">
        <ele>2333.0</ele>
        <time>2017-06-23T14:10:43Z</time>
      </trkpt>
      <trkpt lat="42.112682" lon="-4.108050">
        <ele>2329.0</ele>
        <time>2017-06-23T14:10:46Z</time>
      </trkpt>
      <trkpt lat="42.113082" lon="-4.107433">
        <ele>2332.0</ele>
        <time>2017-06-23T14:10:50Z</time>
      </trkpt>
      <trkpt lat="42.113348" lon="-4.107017">
        <ele>2337.0</ele>
        <time>2017-06-23T14:10:53Z</time>
      </trkpt>
      <trkpt lat="42.113533" lon="-4.106533">
        <ele>2339.0</ele>
        <time>2017-06-23T14:10:56Z</time>
      </trkpt>
      <trkpt lat="42.113512" lon="-4.106117">
        <ele>2342.0</ele>
        <time>2017-06-23T14:10:59Z</time>
      </trkpt>
      <trkpt lat="42.113430" lon="-4.106117">
        <ele>2343.0</ele>
        <time>2017-06-23T14:11:02Z</time>
      </trkpt>
      <trkpt lat="42.113498" lon="-4.106283">
        <ele>2346.0</ele>
        <time>2017-06-23T14:11:05Z</time>
      </trkpt>
      <trkpt lat="42.113666" lon="-4.106400">
        <ele>2345.0</ele>
        <time>2017-06-23T14:11:08Z</time>
      </trkpt>
      <trkpt lat="42.113898" lon="-4.106550">
        <ele>2344.0</ele>
        <time>2017-06-23T14:11:11Z</time>
      </trkpt>
      <trkpt lat="42.114195" lon="-4.106600">
        <ele>2346.0</ele>
        <time>2017-06-23T14:11:14Z</time>
      </trkpt>
      <trkpt lat="42.114513" lon="-4.106566">
        <ele>2343.0</ele>
        <time>2017-06-23T14:11:17Z</time>
      </trkpt>
      <trkpt lat="42.114882" lon="-4.106500">
        <ele>2344.0</ele>
        <time>2017-06-23T14:11:20Z</time>
      </trkpt>
      <trkpt lat="42.115230" lon="-4.106367">
        <ele>2349.0</ele>
        <time>2017-06-23T14:11:23Z</time>
      </trkpt>
      <trkpt lat="42.115582" lon="-4.106233">
        <ele>2353.0</ele>
        <time>2017-06-23T14:11:26Z</time>
      </trkpt>
      <trkpt lat="42.115882" lon="-4.105950">
        <ele>2355.0</ele>
        <time>2017-06-23T14:11:29Z</time>
      </trkpt>
      <trkpt lat="42.116067" lon="-4.105400">
        <ele>2353.0</ele>
        <time>2017-06-23T14:11:33Z</time>
      </trkpt>
      <trkpt lat="42.116032" lon="-4.105033">
        <ele>2358.0</ele>
        <time>2017-06-23T14:11:36Z</time>
      </trkpt>
      <trkpt lat="42.115913" lon="-4.104800">
        <ele>2360.0</ele>
        <time>2017-06-23T14:11:39Z</time>
      </trkpt>
      <trkpt lat="42.115728" lon="-4.104717">
        <ele>2363.0</ele>
        <time>2017-06-23T14:11:42Z</time>
      </trkpt>
      <trkpt lat="42.115650" lon="-4.104783">
        <ele>2366.0</ele>
        <time>2017-06-23T14:11:45Z</time>
      </trkpt>
      <trkpt lat="42.115715" lon="-4.104916">
        <ele>2366.0</ele>
        <time>2017-06-23T14:11:48Z</time>
      </trkpt>
      <trkpt lat="42.115865" lon="-4.105083">
        <ele>2364.0</ele>
        <time>2017-06-23T14:11:51Z</time>
      </trkpt>
      <trkpt lat="42.116101" lon="-4.105216">
        <ele>2364.0</ele>
        <time>2017-06-23T14:11:54Z</time>
      </trkpt>
      <trkpt lat="42.116364" lon="-4.105333">
        <ele>2363.0</ele>
        <time>2017-06-23T14:11:57Z</time>
      </trkpt>
      <trkpt lat="42.116664" lon="-4.105417">
        <ele>2362.0</ele>
        <time>2017-06-23T14:12:00Z</time>
      </trkpt>
      <trkpt lat="42.116965" lon="-4.105433">
        <ele>2356.0</ele>
        <time>2017-06-23T14:12:03Z</time>
      </trkpt>
      <trkpt lat="42.117334" lon="-4.105350">
        <ele>2351.0</ele>
        <time>2017-06-23T14:12:06Z</time>
      </trkpt>
      <trkpt lat="42.117665" lon="-4.105033">
        <ele>2345.0</ele>
        <time>2017-06-23T14:12:09Z</time>
      </trkpt>
      <trkpt lat="42.117931" lon="-4.104600">
        <ele>2339.0</ele>
        <time>2017-06-23T14:12:12Z</time>
      </trkpt>
      <trkpt lat="42.118215" lon="-4.103983">
        <ele>2332.0</ele>
        <time>2017-06-23T14:12:16Z</time>
      </trkpt>
      <trkpt lat="42.118348" lon="-4.103450">
        <ele>2326.0</ele>
        <time>2017-06-23T14:12:19Z</time>
      </trkpt>
      <trkpt lat="42.118430" lon="-4.102917">
        <ele>2321.0</ele>
        <time>2017-06-23T14:12:22Z</time>
      </trkpt>
      <trkpt lat="42.118447" lon="-4.102417">
        <ele>2317.0</ele>
        <time>2017-06-23T14:12:25Z</time>
      </trkpt>
      <trkpt lat="42.118481" lon="-4.102016">
        <ele>2321.0</ele>
        <time>2017-06-23T14:12:28Z</time>
      </trkpt>
      <trkpt lat="42.118529" lon="-4.101617">
        <ele>2319.0</ele>
        <time>2017-06-23T14:12:31Z</time>
      </trkpt>
      <trkpt lat="42.118529" lon="-4.101200">
        <ele>2320.0</ele>
        <time>2017-06-23T14:12:34Z</time>
      </trkpt>
      <trkpt lat="42.118481" lon="-4.100900">
        <ele>2318.0</ele>
        <time>2017-06-23T14:12:37Z</time>
      </trkpt>
      <trkpt lat="42.118447" lon="-4.100550">
        <ele>2314.0</ele>
        <time>2017-06-23T14:12:40Z</time>
      </trkpt>
      <trkpt lat="42.118416" lon="-4.100150">
        <ele>2311.0</ele>
        <time>2017-06-23T14:12:43Z</time>
      </trkpt>
      <trkpt lat="42.118382" lon="-4.099783">
        <ele>2308.0</ele>
        <time>2017-06-23T14:12:46Z</time>
      </trkpt>
      <trkpt lat="42.118317" lon="-4.099433">
        <ele>2306.0</ele>
        <time>2017-06-23T14:12:49Z</time>
      </trkpt>
      <trkpt lat="42.118198" lon="-4.099050">
        <ele>2304.0</ele>
        <time>2017-06-23T14:12:53Z</time>
      </trkpt>
      <trkpt lat="42.118163" lon="-4.098834">
        <ele>2300.0</ele>
        <time>2017-06-23T14:12:55Z</time>
      </trkpt>
      <trkpt lat="42.118129" lon="-4.098283">
        <ele>2296.0</ele>
        <time>2017-06-23T14:12:59Z</time>
      </trkpt>
      <trkpt lat="42.118150" lon="-4.097817">
        <ele>2293.0</ele>
        <time>2017-06-23T14:13:02Z</time>
      </trkpt>
      <trkpt lat="42.118198" lon="-4.097283">
        <ele>2287.0</ele>
        <time>2017-06-23T14:13:05Z</time>
      </trkpt>
      <trkpt lat="42.118317" lon="-4.096750">
        <ele>2284.0</ele>
        <time>2017-06-23T14:13:08Z</time>
      </trkpt>
      <trkpt lat="42.118498" lon="-4.096217">
        <ele>2279.0</ele>
        <time>2017-06-23T14:13:11Z</time>
      </trkpt>
      <trkpt lat="42.118782" lon="-4.095684">
        <ele>2278.0</ele>
        <time>2017-06-23T14:13:14Z</time>
      </trkpt>
      <trkpt lat="42.119065" lon="-4.095200">
        <ele>2280.0</ele>
        <time>2017-06-23T14:13:17Z</time>
      </trkpt>
      <trkpt lat="42.119366" lon="-4.094734">
        <ele>2284.0</ele>
        <time>2017-06-23T14:13:20Z</time>
      </trkpt>
      <trkpt lat="42.119649" lon="-4.094283">
        <ele>2291.0</ele>
        <time>2017-06-23T14:13:23Z</time>
      </trkpt>
      <trkpt lat="42.119929" lon="-4.093800">
        <ele>2298.0</ele>
        <time>2017-06-23T14:13:26Z</time>
      </trkpt>
      <trkpt lat="42.120096" lon="-4.093300">
        <ele>2302.0</ele>
        <time>2017-06-23T14:13:29Z</time>
      </trkpt>
      <trkpt lat="42.120148" lon="-4.092833">
        <ele>2306.0</ele>
        <time>2017-06-23T14:13:32Z</time>
      </trkpt>
      <trkpt lat="42.120062" lon="-4.092317">
        <ele>2311.0</ele>
        <time>2017-06-23T14:13:36Z</time>
      </trkpt>
      <trkpt lat="42.119997" lon="-4.092167">
        <ele>2316.0</ele>
        <time>2017-06-23T14:13:38Z</time>
      </trkpt>
      <trkpt lat="42.119847" lon="-4.092067">
        <ele>2324.0</ele>
        <time>2017-06-23T14:13:42Z</time>
      </trkpt>
      <trkpt lat="42.119847" lon="-4.092184">
        <ele>2329.0</ele>
        <time>2017-06-23T14:13:45Z</time>
      </trkpt>
      <trkpt lat="42.119915" lon="-4.092333">
        <ele>2335.0</ele>
        <time>2017-06-23T14:13:48Z</time>
      </trkpt>
      <trkpt lat="42.120031" lon="-4.092483">
        <ele>2342.0</ele>
        <time>2017-06-23T14:13:51Z</time>
      </trkpt>
      <trkpt lat="42.120113" lon="-4.092534">
        <ele>2345.0</ele>
        <time>2017-06-23T14:13:54Z</time>
      </trkpt>
      <trkpt lat="42.120465" lon="-4.092567">
        <ele>2343.0</ele>
        <time>2017-06-23T14:13:57Z</time>
      </trkpt>
      <trkpt lat="42.120848" lon="-4.092450">
        <ele>2345.0</ele>
        <time>2017-06-23T14:14:00Z</time>
      </trkpt>
      <trkpt lat="42.121264" lon="-4.092284">
        <ele>2345.0</ele>
        <time>2017-06-23T14:14:03Z</time>
      </trkpt>
      <trkpt lat="42.121630" lon="-4.091967">
        <ele>2346.0</ele>
        <time>2017-06-23T14:14:06Z</time>
      </trkpt>
      <trkpt lat="42.121964" lon="-4.091533">
        <ele>2350.0</ele>
        <time>2017-06-23T14:14:09Z</time>
      </trkpt>
      <trkpt lat="42.122231" lon="-4.091084">
        <ele>2355.0</ele>
        <time>2017-06-23T14:14:12Z</time>
      </trkpt>
      <trkpt lat="42.122432" lon="-4.090633">
        <ele>2356.0</ele>
        <time>2017-06-23T14:14:15Z</time>
      </trkpt>
      <trkpt lat="42.122432" lon="-4.090167">
        <ele>2364.0</ele>
        <time>2017-06-23T14:14:18Z</time>
      </trkpt>
      <trkpt lat="42.122299" lon="-4.089967">
        <ele>2368.0</ele>
        <time>2017-06-23T14:14:22Z</time>
      </trkpt>
      <trkpt lat="42.122166" lon="-4.089933">
        <ele>2375.0</ele>
        <time>2017-06-23T14:14:25Z</time>
      </trkpt>
      <trkpt lat="42.122145" lon="-4.090017">
        <ele>2381.0</ele>
        <time>2017-06-23T14:14:28Z</time>
      </trkpt>
      <trkpt lat="42.122248" lon="-4.090150">
        <ele>2384.0</ele>
        <time>2017-06-23T14:14:31Z</time>
      </trkpt>
      <trkpt lat="42.122484" lon="-4.090266">
        <ele>2385.0</ele>
        <time>2017-06-23T14:14:34Z</time>
      </trkpt>
      <trkpt lat="42.122729" lon="-4.090383">
        <ele>2385.0</ele>
        <time>2017-06-23T14:14:37Z</time>
      </trkpt>
      <trkpt lat="42.123016" lon="-4.090450">
        <ele>2387.0</ele>
        <time>2017-06-23T14:14:40Z</time>
      </trkpt>
      <trkpt lat="42.123334" lon="-4.090433">
        <ele>2384.0</ele>
        <time>2017-06-23T14:14:43Z</time>
      </trkpt>
      <trkpt lat="42.123699" lon="-4.090233">
        <ele>2381.0</ele>
        <time>2017-06-23T14:14:46Z</time>
      </trkpt>
      <trkpt lat="42.124031" lon="-4.089867">
        <ele>2381.0</ele>
        <time>2017-06-23T14:14:49Z</time>
      </trkpt>
      <trkpt lat="42.124283" lon="-4.089400">
        <ele>2379.0</ele>
        <time>2017-06-23T14:14:52Z</time>
      </trkpt>
      <trkpt lat="42.124481" lon="-4.088900">
        <ele>2383.0</ele>
        <time>2017-06-23T14:14:55Z</time>
      </trkpt>
      <trkpt lat="42.124683" lon="-4.088433">
        <ele>2389.0</ele>
        <time>2017-06-23T14:14:58Z</time>
      </trkpt>
      <trkpt lat="42.124898" lon="-4.087833">
        <ele>2391.0</ele>
        <time>2017-06-23T14:15:02Z</time>
      </trkpt>
      <trkpt lat="42.125048" lon="-4.087334">
        <ele>2393.0</ele>
        <time>2017-06-23T14:15:05Z</time>
      </trkpt>
      <trkpt lat="42.125099" lon="-4.086800">
        <ele>2390.0</ele>
        <time>2017-06-23T14:15:08Z</time>
      </trkpt>
      <trkpt lat="42.125099" lon="-4.086317">
        <ele>2390.0</ele>
        <time>2017-06-23T14:15:11Z</time>
      </trkpt>
      <trkpt lat="42.125099" lon="-4.085834">
        <ele>2390.0</ele>
        <time>2017-06-23T14:15:14Z</time>
      </trkpt>
      <trkpt lat="42.125099" lon="-4.085367">
        <ele>2389.0</ele>
        <time>2017-06-23T14:15:17Z</time>
      </trkpt>
      <trkpt lat="42.125031" lon="-4.084967">
        <ele>2391.0</ele>
        <time>2017-06-23T14:15:20Z</time>
      </trkpt>
      <trkpt lat="42.125000" lon="-4.084500">
        <ele>2396.0</ele>
        <time>2017-06-23T14:15:23Z</time>
      </trkpt>
      <trkpt lat="42.125048" lon="-4.084017">
        <ele>2398.0</ele>
        <time>2017-06-23T14:15:26Z</time>
      </trkpt>
      <trkpt lat="42.125099" lon="-4.083533">
        <ele>2397.0</ele>
        <time>2017-06-23T14:15:29Z</time>
      </trkpt>
      <trkpt lat="42.125065" lon="-4.083117">
        <ele>2399.0</ele>
        <time>2017-06-23T14:15:32Z</time>
      </trkpt>
      <trkpt lat="42.125031" lon="-4.082717">
        <ele>2401.0</ele>
        <time>2017-06-23T14:15:35Z</time>
      </trkpt>
      <trkpt lat="42.125000" lon="-4.082299">
        <ele>2406.0</ele>
        <time>2017-06-23T14:15:38Z</time>
      </trkpt>
      <trkpt lat="42.124980" lon="-4.081883">
        <ele>2411.0</ele>
        <time>2017-06-23T14:15:41Z</time>
      </trkpt>
      <trkpt lat="42.124966" lon="-4.081600">
        <ele>2413.0</ele>
        <time>2017-06-23T14:15:45Z</time>
      </trkpt>
      <trkpt lat="42.125079" lon="-4.081666">
        <ele>2415.0</ele>
        <time>2017-06-23T14:15:48Z</time>
      </trkpt>
      <trkpt lat="42.125397" lon="-4.081633">
        <ele>2422.0</ele>
        <time>2017-06-23T14:15:51Z</time>
      </trkpt>
      <trkpt lat="42.125765" lon="-4.081366">
        <ele>2425.0</ele>
        <time>2017-06-23T14:15:54Z</time>
      </trkpt>
      <trkpt lat="42.126114" lon="-4.081000">
        <ele>2429.0</ele>
        <time>2017-06-23T14:15:57Z</time>
      </trkpt>
      <trkpt lat="42.126367" lon="-4.080500">
        <ele>2431.0</ele>
        <time>2017-06-23T14:16:00Z</time>
      </trkpt>
      <trkpt lat="42.126479" lon="-4.079967">
        <ele>2434.0</ele>
        <time>2017-06-23T14:16:03Z</time>
      </trkpt>
      <trkpt lat="42.126513" lon="-4.079450">
        <ele>2439.0</ele>
        <time>2017-06-23T14:16:06Z</time>
      </trkpt>
      <trkpt lat="42.126565" lon="-4.078916">
        <ele>2443.0</ele>
        <time>2017-06-23T14:16:09Z</time>
      </trkpt>
      <trkpt lat="42.126565" lon="-4.078433">
        <ele>2448.0</ele>
        <time>2017-06-23T14:16:12Z</time>
      </trkpt>
      <trkpt lat="42.126513" lon="-4.078116">
        <ele>2451.0</ele>
        <time>2017-06-23T14:16:15Z</time>
      </trkpt>
      <trkpt lat="42.126431" lon="-4.077950">
        <ele>2454.0</ele>
        <time>2017-06-23T14:16:18Z</time>
      </trkpt>
      <trkpt lat="42.126380" lon="-4.077917">
        <ele>2460.0</ele>
        <time>2017-06-23T14:16:21Z</time>
      </trkpt>
      <trkpt lat="42.126380" lon="-4.077867">
        <ele>2462.0</ele>
        <time>2017-06-23T14:16:24Z</time>
      </trkpt>
      <trkpt lat="42.126599" lon="-4.077950">
        <ele>2468.0</ele>
        <time>2017-06-23T14:16:28Z</time>
      </trkpt>
      <trkpt lat="42.126879" lon="-4.077867">
        <ele>2472.0</ele>
        <time>2017-06-23T14:16:31Z</time>
      </trkpt>
      <trkpt lat="42.127217" lon="-4.077717">
        <ele>2475.0</ele>
        <time>2017-06-23T14:16:34Z</time>
      </trkpt>
      <trkpt lat="42.127562" lon="-4.077400">
        <ele>2480.0</ele>
        <time>2017-06-23T14:16:37Z</time>
      </trkpt>
      <trkpt lat="42.127914" lon="-4.076983">
        <ele>2481.0</ele>
        <time>2017-06-23T14:16:40Z</time>
      </trkpt>
      <trkpt lat="42.128214" lon="-4.076483">
        <ele>2483.0</ele>
        <time>2017-06-23T14:16:43Z</time>
      </trkpt>
      <trkpt lat="42.128433" lon="-4.075933">
        <ele>2485.0</ele>
        <time>2017-06-23T14:16:46Z</time>
      </trkpt>
      <trkpt lat="42.128631" lon="-4.075366">
        <ele>2487.0</ele>
        <time>2017-06-23T14:16:49Z</time>
      </trkpt>
      <trkpt lat="42.128730" lon="-4.074800">
        <ele>2490.0</ele>
        <time>2017-06-23T14:16:52Z</time>
      </trkpt>
      <trkpt lat="42.128829" lon="-4.074216">
        <ele>2493.0</ele>
        <time>2017-06-23T14:16:55Z</time>
      </trkpt>
      <trkpt lat="42.128829" lon="-4.073683">
        <ele>2497.0</ele>
        <time>2017-06-23T14:16:58Z</time>
      </trkpt>
      <trkpt lat="42.128815" lon="-4.073150">
        <ele>2500.0</ele>
        <time>2017-06-23T14:17:01Z</time>
      </trkpt>
      <trkpt lat="42.128750" lon="-4.072517">
        <ele>2501.0</ele>
        <time>2017-06-23T14:17:05Z</time>
      </trkpt>
      <trkpt lat="42.128682" lon="-4.072200">
        <ele>2506.0</ele>
        <time>2017-06-23T14:17:07Z</time>
      </trkpt>
      <trkpt lat="42.128597" lon="-4.071600">
        <ele>2514.0</ele>
        <time>2017-06-23T14:17:11Z</time>
      </trkpt>
      <trkpt lat="42.128515" lon="-4.071166">
        <ele>2521.0</ele>
        <time>2017-06-23T14:17:14Z</time>
      </trkpt>
      <trkpt lat="42.128412" lon="-4.070867">
        <ele>2531.0</ele>
        <time>2017-06-23T14:17:17Z</time>
      </trkpt>
      <trkpt lat="42.128351" lon="-4.070667">
        <ele>2537.0</ele>
        <time>2017-06-23T14:17:20Z</time>
      </trkpt>
      <trkpt lat="42.128330" lon="-4.070667">
        <ele>2544.0</ele>
        <time>2017-06-23T14:17:23Z</time>
      </trkpt>
      <trkpt lat="42.128463" lon="-4.070683">
        <ele>2553.0</ele>
        <time>2017-06-23T14:17:26Z</time>
      </trkpt>
      <trkpt lat="42.128730" lon="-4.070683">
        <ele>2559.0</ele>
        <time>2017-06-23T14:17:29Z</time>
      </trkpt>
      <trkpt lat="42.129030" lon="-4.070583">
        <ele>2566.0</ele>
        <time>2017-06-23T14:17:32Z</time>
      </trkpt>
      <trkpt lat="42.129382" lon="-4.070433">
        <ele>2574.0</ele>
        <time>2017-06-23T14:17:35Z</time>
      </trkpt>
      <trkpt lat="42.129747" lon="-4.070216">
        <ele>2583.0</ele>
        <time>2017-06-23T14:17:38Z</time>
      </trkpt>
      <trkpt lat="42.130082" lon="-4.069950">
        <ele>2589.0</ele>
        <time>2017-06-23T14:17:41Z</time>
      </trkpt>
      <trkpt lat="42.130413" lon="-4.069550">
        <ele>2593.0</ele>
        <time>2017-06-23T14:17:44Z</time>
      </trkpt>
      <trkpt lat="42.130700" lon="-4.069033">
        <ele>2596.0</ele>
        <time>2017-06-23T14:17:47Z</time>
      </trkpt>
      <trkpt lat="42.130980" lon="-4.068234">
        <ele>2597.0</ele>
        <time>2017-06-23T14:17:51Z</time>
      </trkpt>
      <trkpt lat="42.131079" lon="-4.067616">
        <ele>2600.0</ele>
        <time>2017-06-23T14:17:54Z</time>
      </trkpt>
      <trkpt lat="42.131131" lon="-4.067033">
        <ele>2602.0</ele>
        <time>2017-06-23T14:17:57Z</time>
      </trkpt>
      <trkpt lat="42.131100" lon="-4.066500">
        <ele>2604.0</ele>
        <time>2017-06-23T14:18:00Z</time>
      </trkpt>
      <trkpt lat="42.130997" lon="-4.066067">
        <ele>2606.0</ele>
        <time>2017-06-23T14:18:03Z</time>
      </trkpt>
      <trkpt lat="42.130898" lon="-4.065733">
        <ele>2610.0</ele>
        <time>2017-06-23T14:18:06Z</time>
      </trkpt>
      <trkpt lat="42.130782" lon="-4.065434">
        <ele>2614.0</ele>
        <time>2017-06-23T14:18:09Z</time>
      </trkpt>
      <trkpt lat="42.130680" lon="-4.065217">
        <ele>2621.0</ele>
        <time>2017-06-23T14:18:12Z</time>
      </trkpt>
      <trkpt lat="42.130547" lon="-4.064983">
        <ele>2622.0</ele>
        <time>2017-06-23T14:18:15Z</time>
      </trkpt>
      <trkpt lat="42.130396" lon="-4.064734">
        <ele>2630.0</ele>
        <time>2017-06-23T14:18:18Z</time>
      </trkpt>
      <trkpt lat="42.130284" lon="-4.064500">
        <ele>2635.0</ele>
        <time>2017-06-23T14:18:21Z</time>
      </trkpt>
      <trkpt lat="42.130130" lon="-4.064317">
        <ele>2644.0</ele>
        <time>2017-06-23T14:18:24Z</time>
      </trkpt>
      <trkpt lat="42.130017" lon="-4.064117">
        <ele>2654.0</ele>
        <time>2017-06-23T14:18:27Z</time>
      </trkpt>
      <trkpt lat="42.129932" lon="-4.064050">
        <ele>2660.0</ele>
        <time>2017-06-23T14:18:30Z</time>
      </trkpt>
      <trkpt lat="42.130181" lon="-4.064150">
        <ele>2666.0</ele>
        <time>2017-06-23T14:18:34Z</time>
      </trkpt>
      <trkpt lat="42.130516" lon="-4.063967">
        <ele>2674.0</ele>
        <time>2017-06-23T14:18:37Z</time>
      </trkpt>
      <trkpt lat="42.130864" lon="-4.063600">
        <ele>2681.0</ele>
        <time>2017-06-23T14:18:40Z</time>
      </trkpt>
      <trkpt lat="42.131114" lon="-4.063084">
        <ele>2687.0</ele>
        <time>2017-06-23T14:18:43Z</time>
      </trkpt>
      <trkpt lat="42.131114" lon="-4.062483">
        <ele>2693.0</ele>
        <time>2017-06-23T14:18:46Z</time>
      </trkpt>
      <trkpt lat="42.131032" lon="-4.062067">
        <ele>2703.0</ele>
        <time>2017-06-23T14:18:49Z</time>
      </trkpt>
      <trkpt lat="42.130946" lon="-4.061684">
        <ele>2711.0</ele>
        <time>2017-06-23T14:18:52Z</time>
      </trkpt>
      <trkpt lat="42.130915" lon="-4.061400">
        <ele>2719.0</ele>
        <time>2017-06-23T14:18:55Z</time>
      </trkpt>
      <trkpt lat="42.130847" lon="-4.061334">
        <ele>2724.0</ele>
        <time>2017-06-23T14:18:58Z</time>
      </trkpt>
      <trkpt lat="42.130967" lon="-4.061450">
        <ele>2732.0</ele>
        <time>2017-06-23T14:19:01Z</time>
      </trkpt>
      <trkpt lat="42.131178" lon="-4.061500">
        <ele>2735.0</ele>
        <time>2017-06-23T14:19:04Z</time>
      </trkpt>
      <trkpt lat="42.131448" lon="-4.061550">
        <ele>2739.0</ele>
        <time>2017-06-23T14:19:07Z</time>
      </trkpt>
      <trkpt lat="42.131814" lon="-4.061450">
        <ele>2748.0</ele>
        <time>2017-06-23T14:19:10Z</time>
      </trkpt>
      <trkpt lat="42.132247" lon="-4.061034">
        <ele>2754.0</ele>
        <time>2017-06-23T14:19:14Z</time>
      </trkpt>
      <trkpt lat="42.132579" lon="-4.060600">
        <ele>2756.0</ele>
        <time>2017-06-23T14:19:17Z</time>
      </trkpt>
      <trkpt lat="42.132797" lon="-4.060067">
        <ele>2760.0</ele>
        <time>2017-06-23T14:19:20Z</time>
      </trkpt>
      <trkpt lat="42.132917" lon="-4.059534">
        <ele>2764.0</ele>
        <time>2017-06-23T14:19:23Z</time>
      </trkpt>
      <trkpt lat="42.132964" lon="-4.059033">
        <ele>2767.0</ele>
        <time>2017-06-23T14:19:26Z</time>
      </trkpt>
      <trkpt lat="42.132896" lon="-4.058617">
        <ele>2769.0</ele>
        <time>2017-06-23T14:19:29Z</time>
      </trkpt>
      <trkpt lat="42.132780" lon="-4.058333">
        <ele>2779.0</ele>
        <time>2017-06-23T14:19:32Z</time>
      </trkpt>
      <trkpt lat="42.132766" lon="-4.058100">
        <ele>2783.0</ele>
        <time>2017-06-23T14:19:35Z</time>
      </trkpt>
      <trkpt lat="42.132681" lon="-4.058034">
        <ele>2787.0</ele>
        <time>2017-06-23T14:19:38Z</time>
      </trkpt>
      <trkpt lat="42.132664" lon="-4.057900">
        <ele>2797.0</ele>
        <time>2017-06-23T14:19:41Z</time>
      </trkpt>
      <trkpt lat="42.132579" lon="-4.057700">
        <ele>2801.0</ele>
        <time>2017-06-23T14:19:44Z</time>
      </trkpt>
      <trkpt lat="42.132514" lon="-4.057567">
        <ele>2806.0</ele>
        <time>2017-06-23T14:19:47Z</time>
      </trkpt>
      <trkpt lat="42.132548" lon="-4.057567">
        <ele>2807.0</ele>
        <time>2017-06-23T14:19:50Z</time>
      </trkpt>
      <trkpt lat="42.132664" lon="-4.057667">
        <ele>2810.0</ele>
        <time>2017-06-23T14:19:53Z</time>
      </trkpt>
      <trkpt lat="42.133084" lon="-4.057650">
        <ele>2815.0</ele>
        <time>2017-06-23T14:19:57Z</time>
      </trkpt>
      <trkpt lat="42.133470" lon="-4.057400">
        <ele>2817.0</ele>
        <time>2017-06-23T14:20:00Z</time>
      </trkpt>
      <trkpt lat="42.133801" lon="-4.056967">
        <ele>2820.0</ele>
        <time>2017-06-23T14:20:03Z</time>
      </trkpt>
      <trkpt lat="42.134016" lon="-4.056384">
        <ele>2821.0</ele>
        <time>2017-06-23T14:20:06Z</time>
      </trkpt>
      <trkpt lat="42.134201" lon="-4.055767">
        <ele>2824.0</ele>
        <time>2017-06-23T14:20:09Z</time>
      </trkpt>
      <trkpt lat="42.134354" lon="-4.055183">
        <ele>2828.0</ele>
        <time>2017-06-23T14:20:12Z</time>
      </trkpt>
      <trkpt lat="42.134402" lon="-4.054667">
        <ele>2829.0</ele>
        <time>2017-06-23T14:20:15Z</time>
      </trkpt>
      <trkpt lat="42.134300" lon="-4.054317">
        <ele>2831.0</ele>
        <time>2017-06-23T14:20:18Z</time>
      </trkpt>
      <trkpt lat="42.134201" lon="-4.054200">
        <ele>2833.0</ele>
        <time>2017-06-23T14:20:21Z</time>
      </trkpt>
      <trkpt lat="42.134235" lon="-4.054217">
        <ele>2836.0</ele>
        <time>2017-06-23T14:20:24Z</time>
      </trkpt>
      <trkpt lat="42.134433" lon="-4.054267">
        <ele>2837.0</ele>
        <time>2017-06-23T14:20:27Z</time>
      </trkpt>
      <trkpt lat="42.134751" lon="-4.054217">
        <ele>2838.0</ele>
        <time>2017-06-23T14:20:30Z</time>
      </trkpt>
      <trkpt lat="42.135037" lon="-4.054150">
        <ele>2836.0</ele>
        <time>2017-06-23T14:20:33Z</time>
      </trkpt>
      <trkpt lat="42.135502" lon="-4.053967">
        <ele>2833.0</ele>
        <time>2017-06-23T14:20:37Z</time>
      </trkpt>
      <trkpt lat="42.135867" lon="-4.053700">
        <ele>2827.0</ele>
        <time>2017-06-23T14:20:40Z</time>
      </trkpt>
      <trkpt lat="42.136301" lon="-4.053400">
        <ele>2823.0</ele>
        <time>2017-06-23T14:20:43Z</time>
      </trkpt>
      <trkpt lat="42.136718" lon="-4.053083">
        <ele>2825.0</ele>
        <time>2017-06-23T14:20:46Z</time>
      </trkpt>
      <trkpt lat="42.137049" lon="-4.052667">
        <ele>2823.0</ele>
        <time>2017-06-23T14:20:49Z</time>
      </trkpt>
      <trkpt lat="42.137469" lon="-4.052234">
        <ele>2821.0</ele>
        <time>2017-06-23T14:20:52Z</time>
      </trkpt>
      <trkpt lat="42.137817" lon="-4.051783">
        <ele>2821.0</ele>
        <time>2017-06-23T14:20:55Z</time>
      </trkpt>
      <trkpt lat="42.138217" lon="-4.051300">
        <ele>2815.0</ele>
        <time>2017-06-23T14:20:58Z</time>
      </trkpt>
      <trkpt lat="42.138555" lon="-4.050800">
        <ele>2816.0</ele>
        <time>2017-06-23T14:21:01Z</time>
      </trkpt>
      <trkpt lat="42.138787" lon="-4.050300">
        <ele>2812.0</ele>
        <time>2017-06-23T14:21:04Z</time>
      </trkpt>
      <trkpt lat="42.139101" lon="-4.049867">
        <ele>2807.0</ele>
        <time>2017-06-23T14:21:07Z</time>
      </trkpt>
      <trkpt lat="42.139419" lon="-4.049433">
        <ele>2806.0</ele>
        <time>2017-06-23T14:21:10Z</time>
      </trkpt>
      <trkpt lat="42.139767" lon="-4.049083">
        <ele>2800.0</ele>
        <time>2017-06-23T14:21:13Z</time>
      </trkpt>
      <trkpt lat="42.140300" lon="-4.048733">
        <ele>2796.0</ele>
        <time>2017-06-23T14:21:17Z</time>
      </trkpt>
      <trkpt lat="42.140717" lon="-4.048516">
        <ele>2792.0</ele>
        <time>2017-06-23T14:21:20Z</time>
      </trkpt>
      <trkpt lat="42.141137" lon="-4.048400">
        <ele>2787.0</ele>
        <time>2017-06-23T14:21:23Z</time>
      </trkpt>
      <trkpt lat="42.141550" lon="-4.048200">
        <ele>2780.0</ele>
        <time>2017-06-23T14:21:26Z</time>
      </trkpt>
      <trkpt lat="42.141987" lon="-4.047916">
        <ele>2774.0</ele>
        <time>2017-06-23T14:21:29Z</time>
      </trkpt>
      <trkpt lat="42.142417" lon="-4.047517">
        <ele>2765.0</ele>
        <time>2017-06-23T14:21:32Z</time>
      </trkpt>
      <trkpt lat="42.142834" lon="-4.047083">
        <ele>2757.0</ele>
        <time>2017-06-23T14:21:35Z</time>
      </trkpt>
      <trkpt lat="42.143199" lon="-4.046550">
        <ele>2748.0</ele>
        <time>2017-06-23T14:21:38Z</time>
      </trkpt>
      <trkpt lat="42.143599" lon="-4.046067">
        <ele>2736.0</ele>
        <time>2017-06-23T14:21:41Z</time>
      </trkpt>
      <trkpt lat="42.144019" lon="-4.045550">
        <ele>2728.0</ele>
        <time>2017-06-23T14:21:44Z</time>
      </trkpt>
      <trkpt lat="42.144415" lon="-4.045050">
        <ele>2717.0</ele>
        <time>2017-06-23T14:21:47Z</time>
      </trkpt>
      <trkpt lat="42.144801" lon="-4.044533">
        <ele>2708.0</ele>
        <time>2017-06-23T14:21:50Z</time>
      </trkpt>
      <trkpt lat="42.145218" lon="-4.044033">
        <ele>2701.0</ele>
        <time>2017-06-23T14:21:53Z</time>
      </trkpt>
      <trkpt lat="42.145604" lon="-4.043533">
        <ele>2693.0</ele>
        <time>2017-06-23T14:21:56Z</time>
      </trkpt>
      <trkpt lat="42.146034" lon="-4.043066">
        <ele>2683.0</ele>
        <time>2017-06-23T14:21:59Z</time>
      </trkpt>
      <trkpt lat="42.146584" lon="-4.042383">
        <ele>2670.0</ele>
        <time>2017-06-23T14:22:03Z</time>
      </trkpt>
      <trkpt lat="42.147004" lon="-4.041867">
        <ele>2663.0</ele>
        <time>2017-06-23T14:22:06Z</time>
      </trkpt>
      <trkpt lat="42.147369" lon="-4.041317">
        <ele>2651.0</ele>
        <time>2017-06-23T14:22:09Z</time>
      </trkpt>
      <trkpt lat="42.147786" lon="-4.040767">
        <ele>2644.0</ele>
        <time>2017-06-23T14:22:12Z</time>
      </trkpt>
      <trkpt lat="42.148165" lon="-4.040267">
        <ele>2636.0</ele>
        <time>2017-06-23T14:22:15Z</time>
      </trkpt>
      <trkpt lat="42.148602" lon="-4.039850">
        <ele>2626.0</ele>
        <time>2017-06-23T14:22:18Z</time>
      </trkpt>
      <trkpt lat="42.149053" lon="-4.039500">
        <ele>2617.0</ele>
        <time>2017-06-23T14:22:21Z</time>
      </trkpt>
      <trkpt lat="42.149500" lon="-4.039150">
        <ele>2608.0</ele>
        <time>2017-06-23T14:22:24Z</time>
      </trkpt>
      <trkpt lat="42.149938" lon="-4.038666">
        <ele>2598.0</ele>
        <time>2017-06-23T14:22:27Z</time>
      </trkpt>
      <trkpt lat="42.150368" lon="-4.038167">
        <ele>2585.0</ele>
        <time>2017-06-23T14:22:30Z</time>
      </trkpt>
      <trkpt lat="42.150784" lon="-4.037600">
        <ele>2574.0</ele>
        <time>2017-06-23T14:22:33Z</time>
      </trkpt>
      <trkpt lat="42.151205" lon="-4.037000">
        <ele>2567.0</ele>
        <time>2017-06-23T14:22:36Z</time>
      </trkpt>
      <trkpt lat="42.151601" lon="-4.036450">
        <ele>2558.0</ele>
        <time>2017-06-23T14:22:39Z</time>
      </trkpt>
      <trkpt lat="42.152034" lon="-4.035900">
        <ele>2551.0</ele>
        <time>2017-06-23T14:22:42Z</time>
      </trkpt>
      <trkpt lat="42.152584" lon="-4.035184">
        <ele>2545.0</ele>
        <time>2017-06-23T14:22:46Z</time>
      </trkpt>
      <trkpt lat="42.152984" lon="-4.034633">
        <ele>2540.0</ele>
        <time>2017-06-23T14:22:49Z</time>
      </trkpt>
      <trkpt lat="42.153383" lon="-4.034100">
        <ele>2537.0</ele>
        <time>2017-06-23T14:22:52Z</time>
      </trkpt>
      <trkpt lat="42.153766" lon="-4.033616">
        <ele>2537.0</ele>
        <time>2017-06-23T14:22:55Z</time>
      </trkpt>
      <trkpt lat="42.154135" lon="-4.033200">
        <ele>2534.0</ele>
        <time>2017-06-23T14:22:58Z</time>
      </trkpt>
      <trkpt lat="42.154517" lon="-4.032750">
        <ele>2529.0</ele>
        <time>2017-06-23T14:23:01Z</time>
      </trkpt>
      <trkpt lat="42.154903" lon="-4.032284">
        <ele>2529.0</ele>
        <time>2017-06-23T14:23:04Z</time>
      </trkpt>
      <trkpt lat="42.155251" lon="-4.031850">
        <ele>2528.0</ele>
        <time>2017-06-23T14:23:07Z</time>
      </trkpt>
      <trkpt lat="42.155600" lon="-4.031450">
        <ele>2525.0</ele>
        <time>2017-06-23T14:23:10Z</time>
      </trkpt>
      <trkpt lat="42.156085" lon="-4.030867">
        <ele>2525.0</ele>
        <time>2017-06-23T14:23:14Z</time>
      </trkpt>
      <trkpt lat="42.156416" lon="-4.030434">
        <ele>2526.0</ele>
        <time>2017-06-23T14:23:17Z</time>
      </trkpt>
      <trkpt lat="42.156699" lon="-4.029967">
        <ele>2527.0</ele>
        <time>2017-06-23T14:23:20Z</time>
      </trkpt>
      <trkpt lat="42.156867" lon="-4.029417">
        <ele>2525.0</ele>
        <time>2017-06-23T14:23:23Z</time>
      </trkpt>
      <trkpt lat="42.156901" lon="-4.028867">
        <ele>2526.0</ele>
        <time>2017-06-23T14:23:26Z</time>
      </trkpt>
      <trkpt lat="42.156918" lon="-4.028350">
        <ele>2527.0</ele>
        <time>2017-06-23T14:23:29Z</time>
      </trkpt>
      <trkpt lat="42.156884" lon="-4.027934">
        <ele>2526.0</ele>
        <time>2017-06-23T14:23:32Z</time>
      </trkpt>
      <trkpt lat="42.156768" lon="-4.027634">
        <ele>2524.0</ele>
        <time>2017-06-23T14:23:35Z</time>
      </trkpt>
      <trkpt lat="42.156669" lon="-4.027483">
        <ele>2519.0</ele>
        <time>2017-06-23T14:23:38Z</time>
      </trkpt>
      <trkpt lat="42.156634" lon="-4.027467">
        <ele>2518.0</ele>
        <time>2017-06-23T14:23:41Z</time>
      </trkpt>
      <trkpt lat="42.156785" lon="-4.027567">
        <ele>2515.0</ele>
        <time>2017-06-23T14:23:44Z</time>
      </trkpt>
      <trkpt lat="42.156986" lon="-4.027667">
        <ele>2515.0</ele>
        <time>2017-06-23T14:23:47Z</time>
      </trkpt>
      <trkpt lat="42.157236" lon="-4.027750">
        <ele>2515.0</ele>
        <time>2017-06-23T14:23:50Z</time>
      </trkpt>
      <trkpt lat="42.157502" lon="-4.027833">
        <ele>2513.0</ele>
        <time>2017-06-23T14:23:53Z</time>
      </trkpt>
      <trkpt lat="42.157816" lon="-4.027917">
        <ele>2512.0</ele>
        <time>2017-06-23T14:23:56Z</time>
      </trkpt>
      <trkpt lat="42.158134" lon="-4.028034">
        <ele>2516.0</ele>
        <time>2017-06-23T14:23:59Z</time>
      </trkpt>
      <trkpt lat="42.158417" lon="-4.028083">
        <ele>2518.0</ele>
        <time>2017-06-23T14:24:02Z</time>
      </trkpt>
      <trkpt lat="42.158731" lon="-4.028117">
        <ele>2521.0</ele>
        <time>2017-06-23T14:24:05Z</time>
      </trkpt>
      <trkpt lat="42.159203" lon="-4.028183">
        <ele>2528.0</ele>
        <time>2017-06-23T14:24:09Z</time>
      </trkpt>
      <trkpt lat="42.159520" lon="-4.028134">
        <ele>2535.0</ele>
        <time>2017-06-23T14:24:12Z</time>
      </trkpt>
      <trkpt lat="42.159865" lon="-4.027917">
        <ele>2541.0</ele>
        <time>2017-06-23T14:24:15Z</time>
      </trkpt>
      <trkpt lat="42.159985" lon="-4.027433">
        <ele>2550.0</ele>
        <time>2017-06-23T14:24:18Z</time>
      </trkpt>
      <trkpt lat="42.159899" lon="-4.027083">
        <ele>2561.0</ele>
        <time>2017-06-23T14:24:21Z</time>
      </trkpt>
      <trkpt lat="42.159817" lon="-4.027017">
        <ele>2570.0</ele>
        <time>2017-06-23T14:24:24Z</time>
      </trkpt>
      <trkpt lat="42.159834" lon="-4.027167">
        <ele>2577.0</ele>
        <time>2017-06-23T14:24:27Z</time>
      </trkpt>
      <trkpt lat="42.159998" lon="-4.027367">
        <ele>2583.0</ele>
        <time>2017-06-23T14:24:30Z</time>
      </trkpt>
      <trkpt lat="42.160152" lon="-4.027567">
        <ele>2581.0</ele>
        <time>2017-06-23T14:24:33Z</time>
      </trkpt>
      <trkpt lat="42.160401" lon="-4.027784">
        <ele>2586.0</ele>
        <time>2017-06-23T14:24:36Z</time>
      </trkpt>
      <trkpt lat="42.160716" lon="-4.027917">
        <ele>2591.0</ele>
        <time>2017-06-23T14:24:39Z</time>
      </trkpt>
      <trkpt lat="42.161054" lon="-4.027984">
        <ele>2589.0</ele>
        <time>2017-06-23T14:24:42Z</time>
      </trkpt>
      <trkpt lat="42.161484" lon="-4.027867">
        <ele>2588.0</ele>
        <time>2017-06-23T14:24:45Z</time>
      </trkpt>
      <trkpt lat="42.161870" lon="-4.027650">
        <ele>2586.0</ele>
        <time>2017-06-23T14:24:48Z</time>
      </trkpt>
      <trkpt lat="42.162348" lon="-4.027267">
        <ele>2585.0</ele>
        <time>2017-06-23T14:24:52Z</time>
      </trkpt>
      <trkpt lat="42.162686" lon="-4.026967">
        <ele>2588.0</ele>
        <time>2017-06-23T14:24:55Z</time>
      </trkpt>
      <trkpt lat="42.162987" lon="-4.026600">
        <ele>2590.0</ele>
        <time>2017-06-23T14:24:58Z</time>
      </trkpt>
      <trkpt lat="42.163202" lon="-4.026100">
        <ele>2593.0</ele>
        <time>2017-06-23T14:25:01Z</time>
      </trkpt>
      <trkpt lat="42.163352" lon="-4.025600">
        <ele>2599.0</ele>
        <time>2017-06-23T14:25:04Z</time>
      </trkpt>
      <trkpt lat="42.163434" lon="-4.025117">
        <ele>2606.0</ele>
        <time>2017-06-23T14:25:07Z</time>
      </trkpt>
      <trkpt lat="42.163516" lon="-4.024617">
        <ele>2611.0</ele>
        <time>2017-06-23T14:25:10Z</time>
      </trkpt>
      <trkpt lat="42.163434" lon="-4.024333">
        <ele>2621.0</ele>
        <time>2017-06-23T14:25:13Z</time>
      </trkpt>
      <trkpt lat="42.163383" lon="-4.024134">
        <ele>2627.0</ele>
        <time>2017-06-23T14:25:16Z</time>
      </trkpt>
      <trkpt lat="42.163369" lon="-4.024167">
        <ele>2631.0</ele>
        <time>2017-06-23T14:25:19Z</time>
      </trkpt>
      <trkpt lat="42.163550" lon="-4.024333">
        <ele>2635.0</ele>
        <time>2017-06-23T14:25:22Z</time>
      </trkpt>
      <trkpt lat="42.163734" lon="-4.024484">
        <ele>2639.0</ele>
        <time>2017-06-23T14:25:25Z</time>
      </trkpt>
      <trkpt lat="42.164001" lon="-4.024534">
        <ele>2638.0</ele>
        <time>2017-06-23T14:25:28Z</time>
      </trkpt>
      <trkpt lat="42.164516" lon="-4.024467">
        <ele>2637.0</ele>
        <time>2017-06-23T14:25:32Z</time>
      </trkpt>
      <trkpt lat="42.164937" lon="-4.024350">
        <ele>2641.0</ele>
        <time>2017-06-23T14:25:35Z</time>
      </trkpt>
      <trkpt lat="42.165302" lon="-4.024150">
        <ele>2643.0</ele>
        <time>2017-06-23T14:25:38Z</time>
      </trkpt>
      <trkpt lat="42.165654" lon="-4.023867">
        <ele>2643.0</ele>
        <time>2017-06-23T14:25:41Z</time>
      </trkpt>
      <trkpt lat="42.165934" lon="-4.023384">
        <ele>2644.0</ele>
        <time>2017-06-23T14:25:44Z</time>
      </trkpt>
      <trkpt lat="42.166152" lon="-4.022883">
        <ele>2646.0</ele>
        <time>2017-06-23T14:25:47Z</time>
      </trkpt>
      <trkpt lat="42.166217" lon="-4.022367">
        <ele>2649.0</ele>
        <time>2017-06-23T14:25:50Z</time>
      </trkpt>
      <trkpt lat="42.166234" lon="-4.021900">
        <ele>2651.0</ele>
        <time>2017-06-23T14:25:53Z</time>
      </trkpt>
      <trkpt lat="42.166183" lon="-4.021450">
        <ele>2651.0</ele>
        <time>2017-06-23T14:25:56Z</time>
      </trkpt>
      <trkpt lat="42.166050" lon="-4.021200">
        <ele>2656.0</ele>
        <time>2017-06-23T14:25:59Z</time>
      </trkpt>
      <trkpt lat="42.165968" lon="-4.021067">
        <ele>2657.0</ele>
        <time>2017-06-23T14:26:02Z</time>
      </trkpt>
      <trkpt lat="42.165917" lon="-4.021000">
        <ele>2654.0</ele>
        <time>2017-06-23T14:26:05Z</time>
      </trkpt>
      <trkpt lat="42.165900" lon="-4.021100">
        <ele>2654.0</ele>
        <time>2017-06-23T14:26:08Z</time>
      </trkpt>
      <trkpt lat="42.165985" lon="-4.021233">
        <ele>2653.0</ele>
        <time>2017-06-23T14:26:11Z</time>
      </trkpt>
      <trkpt lat="42.166204" lon="-4.021434">
        <ele>2653.0</ele>
        <time>2017-06-23T14:26:15Z</time>
      </trkpt>
      <trkpt lat="42.166436" lon="-4.021583">
        <ele>2653.0</ele>
        <time>2017-06-23T14:26:18Z</time>
      </trkpt>
      <trkpt lat="42.166682" lon="-4.021684">
        <ele>2651.0</ele>
        <time>2017-06-23T14:26:21Z</time>
      </trkpt>
      <trkpt lat="42.166952" lon="-4.021783">
        <ele>2650.0</ele>
        <time>2017-06-23T14:26:24Z</time>
      </trkpt>
      <trkpt lat="42.167235" lon="-4.021883">
        <ele>2648.0</ele>
        <time>2017-06-23T14:26:27Z</time>
      </trkpt>
      <trkpt lat="42.167566" lon="-4.021917">
        <ele>2645.0</ele>
        <time>2017-06-23T14:26:30Z</time>
      </trkpt>
      <trkpt lat="42.167935" lon="-4.021933">
        <ele>2636.0</ele>
        <time>2017-06-23T14:26:33Z</time>
      </trkpt>
      <trkpt lat="42.168386" lon="-4.021766">
        <ele>2629.0</ele>
        <time>2017-06-23T14:26:36Z</time>
      </trkpt>
      <trkpt lat="42.168850" lon="-4.021500">
        <ele>2622.0</ele>
        <time>2017-06-23T14:26:39Z</time>
      </trkpt>
      <trkpt lat="42.169250" lon="-4.021117">
        <ele>2619.0</ele>
        <time>2017-06-23T14:26:42Z</time>
      </trkpt>
      <trkpt lat="42.169636" lon="-4.020783">
        <ele>2609.0</ele>
        <time>2017-06-23T14:26:45Z</time>
      </trkpt>
      <trkpt lat="42.170001" lon="-4.020317">
        <ele>2600.0</ele>
        <time>2017-06-23T14:26:48Z</time>
      </trkpt>
      <trkpt lat="42.170298" lon="-4.019817">
        <ele>2589.0</ele>
        <time>2017-06-23T14:26:51Z</time>
      </trkpt>
      <trkpt lat="42.170517" lon="-4.019250">
        <ele>2580.0</ele>
        <time>2017-06-23T14:26:54Z</time>
      </trkpt>
      <trkpt lat="42.170882" lon="-4.018700">
        <ele>2572.0</ele>
        <time>2017-06-23T14:26:58Z</time>
      </trkpt>
      <trkpt lat="42.171183" lon="-4.018266">
        <ele>2559.0</ele>
        <time>2017-06-23T14:27:01Z</time>
      </trkpt>
      <trkpt lat="42.171466" lon="-4.017950">
        <ele>2560.0</ele>
        <time>2017-06-23T14:27:04Z</time>
      </trkpt>
      <trkpt lat="42.171753" lon="-4.017650">
        <ele>2546.0</ele>
        <time>2017-06-23T14:27:07Z</time>
      </trkpt>
      <trkpt lat="42.172149" lon="-4.017317">
        <ele>2540.0</ele>
        <time>2017-06-23T14:27:10Z</time>
      </trkpt>
      <trkpt lat="42.172484" lon="-4.016883">
        <ele>2537.0</ele>
        <time>2017-06-23T14:27:13Z</time>
      </trkpt>
      <trkpt lat="42.172802" lon="-4.016450">
        <ele>2535.0</ele>
        <time>2017-06-23T14:27:16Z</time>
      </trkpt>
      <trkpt lat="42.173020" lon="-4.015983">
        <ele>2527.0</ele>
        <time>2017-06-23T14:27:19Z</time>
      </trkpt>
      <trkpt lat="42.173334" lon="-4.015550">
        <ele>2517.0</ele>
        <time>2017-06-23T14:27:22Z</time>
      </trkpt>
      <trkpt lat="42.173635" lon="-4.015183">
        <ele>2508.0</ele>
        <time>2017-06-23T14:27:25Z</time>
      </trkpt>
      <trkpt lat="42.174017" lon="-4.014817">
        <ele>2502.0</ele>
        <time>2017-06-23T14:27:28Z</time>
      </trkpt>
      <trkpt lat="42.174369" lon="-4.014567">
        <ele>2494.0</ele>
        <time>2017-06-23T14:27:31Z</time>
      </trkpt>
      <trkpt lat="42.174752" lon="-4.014333">
        <ele>2484.0</ele>
        <time>2017-06-23T14:27:34Z</time>
      </trkpt>
      <trkpt lat="42.175284" lon="-4.013916">
        <ele>2485.0</ele>
        <time>2017-06-23T14:27:38Z</time>
      </trkpt>
      <trkpt lat="42.175636" lon="-4.013616">
        <ele>2482.0</ele>
        <time>2017-06-23T14:27:41Z</time>
      </trkpt>
      <trkpt lat="42.176032" lon="-4.013400">
        <ele>2482.0</ele>
        <time>2017-06-23T14:27:44Z</time>
      </trkpt>
      <trkpt lat="42.176384" lon="-4.013117">
        <ele>2481.0</ele>
        <time>2017-06-23T14:27:47Z</time>
      </trkpt>
      <trkpt lat="42.176749" lon="-4.012833">
        <ele>2478.0</ele>
        <time>2017-06-23T14:27:50Z</time>
      </trkpt>
      <trkpt lat="42.177084" lon="-4.012400">
        <ele>2474.0</ele>
        <time>2017-06-23T14:27:53Z</time>
      </trkpt>
      <trkpt lat="42.177385" lon="-4.011950">
        <ele>2469.0</ele>
        <time>2017-06-23T14:27:56Z</time>
      </trkpt>
      <trkpt lat="42.177685" lon="-4.011416">
        <ele>2463.0</ele>
        <time>2017-06-23T14:27:59Z</time>
      </trkpt>
      <trkpt lat="42.177952" lon="-4.010933">
        <ele>2459.0</ele>
        <time>2017-06-23T14:28:02Z</time>
      </trkpt>
      <trkpt lat="42.178235" lon="-4.010433">
        <ele>2453.0</ele>
        <time>2017-06-23T14:28:05Z</time>
      </trkpt>
      <trkpt lat="42.178570" lon="-4.009984">
        <ele>2447.0</ele>
        <time>2017-06-23T14:28:08Z</time>
      </trkpt>
      <trkpt lat="42.178918" lon="-4.009550">
        <ele>2441.0</ele>
        <time>2017-06-23T14:28:11Z</time>
      </trkpt>
      <trkpt lat="42.179266" lon="-4.009117">
        <ele>2434.0</ele>
        <time>2017-06-23T14:28:14Z</time>
      </trkpt>
      <trkpt lat="42.179635" lon="-4.008667">
        <ele>2423.0</ele>
        <time>2017-06-23T14:28:17Z</time>
      </trkpt>
      <trkpt lat="42.180069" lon="-4.007950">
        <ele>2412.0</ele>
        <time>2017-06-23T14:28:21Z</time>
      </trkpt>
      <trkpt lat="42.180468" lon="-4.007483">
        <ele>2402.0</ele>
        <time>2017-06-23T14:28:24Z</time>
      </trkpt>
      <trkpt lat="42.180899" lon="-4.007067">
        <ele>2389.0</ele>
        <time>2017-06-23T14:28:27Z</time>
      </trkpt>
      <trkpt lat="42.181336" lon="-4.006617">
        <ele>2378.0</ele>
        <time>2017-06-23T14:28:30Z</time>
      </trkpt>
      <trkpt lat="42.181753" lon="-4.006250">
        <ele>2368.0</ele>
        <time>2017-06-23T14:28:33Z</time>
      </trkpt>
      <trkpt lat="42.182166" lon="-4.005783">
        <ele>2354.0</ele>
        <time>2017-06-23T14:28:36Z</time>
      </trkpt>
      <trkpt lat="42.182582" lon="-4.005317">
        <ele>2345.0</ele>
        <time>2017-06-23T14:28:39Z</time>
      </trkpt>
      <trkpt lat="42.182982" lon="-4.004850">
        <ele>2334.0</ele>
        <time>2017-06-23T14:28:42Z</time>
      </trkpt>
      <trkpt lat="42.183419" lon="-4.004400">
        <ele>2320.0</ele>
        <time>2017-06-23T14:28:45Z</time>
      </trkpt>
      <trkpt lat="42.183849" lon="-4.003933">
        <ele>2306.0</ele>
        <time>2017-06-23T14:28:48Z</time>
      </trkpt>
      <trkpt lat="42.184300" lon="-4.003517">
        <ele>2295.0</ele>
        <time>2017-06-23T14:28:51Z</time>
      </trkpt>
      <trkpt lat="42.184768" lon="-4.003083">
        <ele>2288.0</ele>
        <time>2017-06-23T14:28:54Z</time>
      </trkpt>
      <trkpt lat="42.185219" lon="-4.002750">
        <ele>2278.0</ele>
        <time>2017-06-23T14:28:57Z</time>
      </trkpt>
      <trkpt lat="42.185683" lon="-4.002367">
        <ele>2270.0</ele>
        <time>2017-06-23T14:29:00Z</time>
      </trkpt>
      <trkpt lat="42.186301" lon="-4.001900">
        <ele>2264.0</ele>
        <time>2017-06-23T14:29:04Z</time>
      </trkpt>
      <trkpt lat="42.186752" lon="-4.001517">
        <ele>2258.0</ele>
        <time>2017-06-23T14:29:07Z</time>
      </trkpt>
      <trkpt lat="42.187217" lon="-4.001167">
        <ele>2253.0</ele>
        <time>2017-06-23T14:29:10Z</time>
      </trkpt>
      <trkpt lat="42.187654" lon="-4.000750">
        <ele>2246.0</ele>
        <time>2017-06-23T14:29:13Z</time>
      </trkpt>
      <trkpt lat="42.188132" lon="-4.000417">
        <ele>2238.0</ele>
        <time>2017-06-23T14:29:16Z</time>
      </trkpt>
      <trkpt lat="42.188603" lon="-4.000017">
        <ele>2232.0</ele>
        <time>2017-06-23T14:29:19Z</time>
      </trkpt>
      <trkpt lat="42.189068" lon="-3.999717">
        <ele>2224.0</ele>
        <time>2017-06-23T14:29:22Z</time>
      </trkpt>
      <trkpt lat="42.189532" lon="-3.999433">
        <ele>2220.0</ele>
        <time>2017-06-23T14:29:25Z</time>
      </trkpt>
      <trkpt lat="42.189983" lon="-3.999283">
        <ele>2217.0</ele>
        <time>2017-06-23T14:29:28Z</time>
      </trkpt>
      <trkpt lat="42.190382" lon="-3.999083">
        <ele>2211.0</ele>
        <time>2017-06-23T14:29:31Z</time>
      </trkpt>
      <trkpt lat="42.190799" lon="-3.998933">
        <ele>2205.0</ele>
        <time>2017-06-23T14:29:34Z</time>
      </trkpt>
      <trkpt lat="42.191199" lon="-3.998683">
        <ele>2201.0</ele>
        <time>2017-06-23T14:29:37Z</time>
      </trkpt>
      <trkpt lat="42.191602" lon="-3.998433">
        <ele>2193.0</ele>
        <time>2017-06-23T14:29:40Z</time>
      </trkpt>
      <trkpt lat="42.192169" lon="-3.998117">
        <ele>2190.0</ele>
        <time>2017-06-23T14:29:44Z</time>
      </trkpt>
      <trkpt lat="42.192565" lon="-3.997950">
        <ele>2184.0</ele>
        <time>2017-06-23T14:29:47Z</time>
      </trkpt>
      <trkpt lat="42.192985" lon="-3.997766">
        <ele>2178.0</ele>
        <time>2017-06-23T14:29:50Z</time>
      </trkpt>
      <trkpt lat="42.193384" lon="-3.997583">
        <ele>2171.0</ele>
        <time>2017-06-23T14:29:53Z</time>
      </trkpt>
      <trkpt lat="42.193818" lon="-3.997333">
        <ele>2166.0</ele>
        <time>2017-06-23T14:29:56Z</time>
      </trkpt>
      <trkpt lat="42.194231" lon="-3.997083">
        <ele>2160.0</ele>
        <time>2017-06-23T14:29:59Z</time>
      </trkpt>
      <trkpt lat="42.194668" lon="-3.996850">
        <ele>2156.0</ele>
        <time>2017-06-23T14:30:02Z</time>
      </trkpt>
      <trkpt lat="42.195102" lon="-3.996633">
        <ele>2153.0</ele>
        <time>2017-06-23T14:30:05Z</time>
      </trkpt>
      <trkpt lat="42.195532" lon="-3.996433">
        <ele>2148.0</ele>
        <time>2017-06-23T14:30:08Z</time>
      </trkpt>
      <trkpt lat="42.195970" lon="-3.996183">
        <ele>2143.0</ele>
        <time>2017-06-23T14:30:11Z</time>
      </trkpt>
      <trkpt lat="42.196400" lon="-3.995900">
        <ele>2137.0</ele>
        <time>2017-06-23T14:30:14Z</time>
      </trkpt>
      <trkpt lat="42.196786" lon="-3.995467">
        <ele>2133.0</ele>
        <time>2017-06-23T14:30:17Z</time>
      </trkpt>
      <trkpt lat="42.197066" lon="-3.994950">
        <ele>2128.0</ele>
        <time>2017-06-23T14:30:20Z</time>
      </trkpt>
      <trkpt lat="42.197370" lon="-3.994417">
        <ele>2119.0</ele>
        <time>2017-06-23T14:30:23Z</time>
      </trkpt>
      <trkpt lat="42.197585" lon="-3.993633">
        <ele>2116.0</ele>
        <time>2017-06-23T14:30:27Z</time>
      </trkpt>
      <trkpt lat="42.197718" lon="-3.993067">
        <ele>2109.0</ele>
        <time>2017-06-23T14:30:30Z</time>
      </trkpt>
      <trkpt lat="42.197769" lon="-3.992450">
        <ele>2107.0</ele>
        <time>2017-06-23T14:30:33Z</time>
      </trkpt>
      <trkpt lat="42.197817" lon="-3.991900">
        <ele>2104.0</ele>
        <time>2017-06-23T14:30:36Z</time>
      </trkpt>
      <trkpt lat="42.197882" lon="-3.991283">
        <ele>2097.0</ele>
        <time>2017-06-23T14:30:39Z</time>
      </trkpt>
      <trkpt lat="42.197950" lon="-3.990650">
        <ele>2095.0</ele>
        <time>2017-06-23T14:30:42Z</time>
      </trkpt>
      <trkpt lat="42.198015" lon="-3.990050">
        <ele>2097.0</ele>
        <time>2017-06-23T14:30:45Z</time>
      </trkpt>
      <trkpt lat="42.198118" lon="-3.989483">
        <ele>2101.0</ele>
        <time>2017-06-23T14:30:48Z</time>
      </trkpt>
      <trkpt lat="42.198234" lon="-3.988933">
        <ele>2106.0</ele>
        <time>2017-06-23T14:30:51Z</time>
      </trkpt>
      <trkpt lat="42.198353" lon="-3.988417">
        <ele>2111.0</ele>
        <time>2017-06-23T14:30:54Z</time>
      </trkpt>
      <trkpt lat="42.198367" lon="-3.987984">
        <ele>2107.0</ele>
        <time>2017-06-23T14:30:57Z</time>
      </trkpt>
      <trkpt lat="42.198268" lon="-3.987733">
        <ele>2101.0</ele>
        <time>2017-06-23T14:31:00Z</time>
      </trkpt>
      <trkpt lat="42.198251" lon="-3.987867">
        <ele>2096.0</ele>
        <time>2017-06-23T14:31:03Z</time>
      </trkpt>
      <trkpt lat="42.198500" lon="-3.988033">
        <ele>2096.0</ele>
        <time>2017-06-23T14:31:06Z</time>
      </trkpt>
      <trkpt lat="42.198784" lon="-3.988167">
        <ele>2104.0</ele>
        <time>2017-06-23T14:31:10Z</time>
      </trkpt>
      <trkpt lat="42.198985" lon="-3.988200">
        <ele>2108.0</ele>
        <time>2017-06-23T14:31:13Z</time>
      </trkpt>
      <trkpt lat="42.199303" lon="-3.988117">
        <ele>2109.0</ele>
        <time>2017-06-23T14:31:16Z</time>
      </trkpt>
      <trkpt lat="42.199668" lon="-3.987800">
        <ele>2109.0</ele>
        <time>2017-06-23T14:31:19Z</time>
      </trkpt>
      <trkpt lat="42.199934" lon="-3.987267">
        <ele>2111.0</ele>
        <time>2017-06-23T14:31:22Z</time>
      </trkpt>
      <trkpt lat="42.200051" lon="-3.986783">
        <ele>2117.0</ele>
        <time>2017-06-23T14:31:25Z</time>
      </trkpt>
      <trkpt lat="42.200051" lon="-3.986350">
        <ele>2117.0</ele>
        <time>2017-06-23T14:31:28Z</time>
      </trkpt>
      <trkpt lat="42.199934" lon="-3.986183">
        <ele>2117.0</ele>
        <time>2017-06-23T14:31:31Z</time>
      </trkpt>
      <trkpt lat="42.199883" lon="-3.986183">
        <ele>2118.0</ele>
        <time>2017-06-23T14:31:34Z</time>
      </trkpt>
      <trkpt lat="42.200016" lon="-3.986300">
        <ele>2120.0</ele>
        <time>2017-06-23T14:31:37Z</time>
      </trkpt>
      <trkpt lat="42.200232" lon="-3.986367">
        <ele>2123.0</ele>
        <time>2017-06-23T14:31:40Z</time>
      </trkpt>
      <trkpt lat="42.200515" lon="-3.986317">
        <ele>2121.0</ele>
        <time>2017-06-23T14:31:43Z</time>
      </trkpt>
      <trkpt lat="42.200867" lon="-3.986150">
        <ele>2122.0</ele>
        <time>2017-06-23T14:31:46Z</time>
      </trkpt>
      <trkpt lat="42.201335" lon="-3.985800">
        <ele>2124.0</ele>
        <time>2017-06-23T14:31:50Z</time>
      </trkpt>
      <trkpt lat="42.201683" lon="-3.985600">
        <ele>2121.0</ele>
        <time>2017-06-23T14:31:53Z</time>
      </trkpt>
      <trkpt lat="42.202001" lon="-3.985250">
        <ele>2114.0</ele>
        <time>2017-06-23T14:31:56Z</time>
      </trkpt>
      <trkpt lat="42.202202" lon="-3.984766">
        <ele>2109.0</ele>
        <time>2017-06-23T14:31:59Z</time>
      </trkpt>
      <trkpt lat="42.202421" lon="-3.984267">
        <ele>2102.0</ele>
        <time>2017-06-23T14:32:02Z</time>
      </trkpt>
      <trkpt lat="42.202602" lon="-3.983733">
        <ele>2101.0</ele>
        <time>2017-06-23T14:32:05Z</time>
      </trkpt>
      <trkpt lat="42.202786" lon="-3.983217">
        <ele>2101.0</ele>
        <time>2017-06-23T14:32:08Z</time>
      </trkpt>
      <trkpt lat="42.202899" lon="-3.982667">
        <ele>2095.0</ele>
        <time>2017-06-23T14:32:11Z</time>
      </trkpt>
      <trkpt lat="42.202967" lon="-3.982033">
        <ele>2089.0</ele>
        <time>2017-06-23T14:32:14Z</time>
      </trkpt>
      <trkpt lat="42.203032" lon="-3.981467">
        <ele>2082.0</ele>
        <time>2017-06-23T14:32:17Z</time>
      </trkpt>
      <trkpt lat="42.203066" lon="-3.980934">
        <ele>2074.0</ele>
        <time>2017-06-23T14:32:20Z</time>
      </trkpt>
      <trkpt lat="42.203251" lon="-3.980417">
        <ele>2065.0</ele>
        <time>2017-06-23T14:32:23Z</time>
      </trkpt>
      <trkpt lat="42.203582" lon="-3.980067">
        <ele>2057.0</ele>
        <time>2017-06-23T14:32:26Z</time>
      </trkpt>
      <trkpt lat="42.204084" lon="-3.979766">
        <ele>2048.0</ele>
        <time>2017-06-23T14:32:30Z</time>
      </trkpt>
      <trkpt lat="42.204483" lon="-3.979450">
        <ele>2042.0</ele>
        <time>2017-06-23T14:32:33Z</time>
      </trkpt>
      <trkpt lat="42.204849" lon="-3.979117">
        <ele>2035.0</ele>
        <time>2017-06-23T14:32:36Z</time>
      </trkpt>
      <trkpt lat="42.205218" lon="-3.978717">
        <ele>2028.0</ele>
        <time>2017-06-23T14:32:39Z</time>
      </trkpt>
      <trkpt lat="42.205600" lon="-3.978350">
        <ele>2022.0</ele>
        <time>2017-06-23T14:32:42Z</time>
      </trkpt>
      <trkpt lat="42.205966" lon="-3.978000">
        <ele>2016.0</ele>
        <time>2017-06-23T14:32:45Z</time>
      </trkpt>
      <trkpt lat="42.206351" lon="-3.977633">
        <ele>2007.0</ele>
        <time>2017-06-23T14:32:48Z</time>
      </trkpt>
      <trkpt lat="42.206717" lon="-3.977233">
        <ele>2001.0</ele>
        <time>2017-06-23T14:32:51Z</time>
      </trkpt>
      <trkpt lat="42.207086" lon="-3.976850">
        <ele>1991.0</ele>
        <time>2017-06-23T14:32:54Z</time>
      </trkpt>
      <trkpt lat="42.207499" lon="-3.976433">
        <ele>1984.0</ele>
        <time>2017-06-23T14:32:57Z</time>
      </trkpt>
      <trkpt lat="42.207868" lon="-3.976050">
        <ele>1977.0</ele>
        <time>2017-06-23T14:33:00Z</time>
      </trkpt>
      <trkpt lat="42.208250" lon="-3.975700">
        <ele>1971.0</ele>
        <time>2017-06-23T14:33:03Z</time>
      </trkpt>
      <trkpt lat="42.208619" lon="-3.975433">
        <ele>1964.0</ele>
        <time>2017-06-23T14:33:06Z</time>
      </trkpt>
      <trkpt lat="42.209083" lon="-3.975083">
        <ele>1956.0</ele>
        <time>2017-06-23T14:33:10Z</time>
      </trkpt>
      <trkpt lat="42.209435" lon="-3.974800">
        <ele>1948.0</ele>
        <time>2017-06-23T14:33:13Z</time>
      </trkpt>
      <trkpt lat="42.209784" lon="-3.974517">
        <ele>1942.0</ele>
        <time>2017-06-23T14:33:16Z</time>
      </trkpt>
      <trkpt lat="42.210152" lon="-3.974217">
        <ele>1933.0</ele>
        <time>2017-06-23T14:33:19Z</time>
      </trkpt>
      <trkpt lat="42.210532" lon="-3.973883">
        <ele>1926.0</ele>
        <time>2017-06-23T14:33:22Z</time>
      </trkpt>
      <trkpt lat="42.210900" lon="-3.973550">
        <ele>1919.0</ele>
        <time>2017-06-23T14:33:25Z</time>
      </trkpt>
      <trkpt lat="42.211235" lon="-3.973183">
        <ele>1911.0</ele>
        <time>2017-06-23T14:33:28Z</time>
      </trkpt>
      <trkpt lat="42.211566" lon="-3.972800">
        <ele>1902.0</ele>
        <time>2017-06-23T14:33:31Z</time>
      </trkpt>
      <trkpt lat="42.211884" lon="-3.972383">
        <ele>1892.0</ele>
        <time>2017-06-23T14:33:34Z</time>
      </trkpt>
      <trkpt lat="42.212236" lon="-3.971883">
        <ele>1878.0</ele>
        <time>2017-06-23T14:33:37Z</time>
      </trkpt>
      <trkpt lat="42.212567" lon="-3.971367">
        <ele>1871.0</ele>
        <time>2017-06-23T14:33:40Z</time>
      </trkpt>
      <trkpt lat="42.212854" lon="-3.970867">
        <ele>1863.0</ele>
        <time>2017-06-23T14:33:43Z</time>
      </trkpt>
      <trkpt lat="42.213151" lon="-3.970333">
        <ele>1852.0</ele>
        <time>2017-06-23T14:33:46Z</time>
      </trkpt>
      <trkpt lat="42.213400" lon="-3.969750">
        <ele>1845.0</ele>
        <time>2017-06-23T14:33:49Z</time>
      </trkpt>
      <trkpt lat="42.213749" lon="-3.969050">
        <ele>1834.0</ele>
        <time>2017-06-23T14:33:53Z</time>
      </trkpt>
      <trkpt lat="42.214035" lon="-3.968433">
        <ele>1826.0</ele>
        <time>2017-06-23T14:33:56Z</time>
      </trkpt>
      <trkpt lat="42.214332" lon="-3.967850">
        <ele>1821.0</ele>
        <time>2017-06-23T14:33:59Z</time>
      </trkpt>
      <trkpt lat="42.214599" lon="-3.967267">
        <ele>1817.0</ele>
        <time>2017-06-23T14:34:02Z</time>
      </trkpt>
      <trkpt lat="42.214916" lon="-3.966700">
        <ele>1813.0</ele>
        <time>2017-06-23T14:34:05Z</time>
      </trkpt>
      <trkpt lat="42.215217" lon="-3.966083">
        <ele>1808.0</ele>
        <time>2017-06-23T14:34:08Z</time>
      </trkpt>
      <trkpt lat="42.215483" lon="-3.965484">
        <ele>1806.0</ele>
        <time>2017-06-23T14:34:11Z</time>
      </trkpt>
      <trkpt lat="42.215733" lon="-3.964983">
        <ele>1806.0</ele>
        <time>2017-06-23T14:34:14Z</time>
      </trkpt>
      <trkpt lat="42.215985" lon="-3.964550">
        <ele>1804.0</ele>
        <time>2017-06-23T14:34:17Z</time>
      </trkpt>
      <trkpt lat="42.216252" lon="-3.964100">
        <ele>1798.0</ele>
        <time>2017-06-23T14:34:20Z</time>
      </trkpt>
      <trkpt lat="42.216532" lon="-3.963583">
        <ele>1793.0</ele>
        <time>2017-06-23T14:34:23Z</time>
      </trkpt>
      <trkpt lat="42.216802" lon="-3.963033">
        <ele>1789.0</ele>
        <time>2017-06-23T14:34:26Z</time>
      </trkpt>
      <trkpt lat="42.217102" lon="-3.962500">
        <ele>1786.0</ele>
        <time>2017-06-23T14:34:29Z</time>
      </trkpt>
      <trkpt lat="42.217386" lon="-3.962000">
        <ele>1780.0</ele>
        <time>2017-06-23T14:34:32Z</time>
      </trkpt>
      <trkpt lat="42.217816" lon="-3.961350">
        <ele>1774.0</ele>
        <time>2017-06-23T14:34:36Z</time>
      </trkpt>
      <trkpt lat="42.218130" lon="-3.960833">
        <ele>1768.0</ele>
        <time>2017-06-23T14:34:39Z</time>
      </trkpt>
      <trkpt lat="42.218448" lon="-3.960300">
        <ele>1761.0</ele>
        <time>2017-06-23T14:34:42Z</time>
      </trkpt>
      <trkpt lat="42.218782" lon="-3.959767">
        <ele>1756.0</ele>
        <time>2017-06-23T14:34:45Z</time>
      </trkpt>
      <trkpt lat="42.219100" lon="-3.959250">
        <ele>1750.0</ele>
        <time>2017-06-23T14:34:48Z</time>
      </trkpt>
      <trkpt lat="42.219401" lon="-3.958733">
        <ele>1746.0</ele>
        <time>2017-06-23T14:34:51Z</time>
      </trkpt>
      <trkpt lat="42.219735" lon="-3.958233">
        <ele>1740.0</ele>
        <time>2017-06-23T14:34:54Z</time>
      </trkpt>
      <trkpt lat="42.220066" lon="-3.957767">
        <ele>1734.0</ele>
        <time>2017-06-23T14:34:57Z</time>
      </trkpt>
      <trkpt lat="42.220418" lon="-3.957284">
        <ele>1726.0</ele>
        <time>2017-06-23T14:35:00Z</time>
      </trkpt>
      <trkpt lat="42.220767" lon="-3.956817">
        <ele>1719.0</ele>
        <time>2017-06-23T14:35:03Z</time>
      </trkpt>
      <trkpt lat="42.221135" lon="-3.956367">
        <ele>1708.0</ele>
        <time>2017-06-23T14:35:06Z</time>
      </trkpt>
      <trkpt lat="42.221501" lon="-3.955917">
        <ele>1704.0</ele>
        <time>2017-06-23T14:35:09Z</time>
      </trkpt>
      <trkpt lat="42.221853" lon="-3.955483">
        <ele>1698.0</ele>
        <time>2017-06-23T14:35:12Z</time>
      </trkpt>
      <trkpt lat="42.222184" lon="-3.955033">
        <ele>1695.0</ele>
        <time>2017-06-23T14:35:15Z</time>
      </trkpt>
      <trkpt lat="42.222617" lon="-3.954516">
        <ele>1690.0</ele>
        <time>2017-06-23T14:35:19Z</time>
      </trkpt>
      <trkpt lat="42.222969" lon="-3.954150">
        <ele>1686.0</ele>
        <time>2017-06-23T14:35:22Z</time>
      </trkpt>
      <trkpt lat="42.223352" lon="-3.953833">
        <ele>1682.0</ele>
        <time>2017-06-23T14:35:25Z</time>
      </trkpt>
      <trkpt lat="42.223731" lon="-3.953567">
        <ele>1679.0</ele>
        <time>2017-06-23T14:35:28Z</time>
      </trkpt>
      <trkpt lat="42.224103" lon="-3.953300">
        <ele>1672.0</ele>
        <time>2017-06-23T14:35:31Z</time>
      </trkpt>
      <trkpt lat="42.224482" lon="-3.953017">
        <ele>1668.0</ele>
        <time>2017-06-23T14:35:34Z</time>
      </trkpt>
      <trkpt lat="42.224868" lon="-3.952817">
        <ele>1664.0</ele>
        <time>2017-06-23T14:35:37Z</time>
      </trkpt>
      <trkpt lat="42.225264" lon="-3.952633">
        <ele>1656.0</ele>
        <time>2017-06-23T14:35:40Z</time>
      </trkpt>
      <trkpt lat="42.225667" lon="-3.952417">
        <ele>1652.0</ele>
        <time>2017-06-23T14:35:43Z</time>
      </trkpt>
      <trkpt lat="42.226033" lon="-3.952233">
        <ele>1645.0</ele>
        <time>2017-06-23T14:35:46Z</time>
      </trkpt>
      <trkpt lat="42.226419" lon="-3.952050">
        <ele>1640.0</ele>
        <time>2017-06-23T14:35:49Z</time>
      </trkpt>
      <trkpt lat="42.226767" lon="-3.951850">
        <ele>1632.0</ele>
        <time>2017-06-23T14:35:52Z</time>
      </trkpt>
      <trkpt lat="42.227149" lon="-3.951683">
        <ele>1625.0</ele>
        <time>2017-06-23T14:35:55Z</time>
      </trkpt>
      <trkpt lat="42.227668" lon="-3.951450">
        <ele>1620.0</ele>
        <time>2017-06-23T14:35:59Z</time>
      </trkpt>
      <trkpt lat="42.228065" lon="-3.951267">
        <ele>1616.0</ele>
        <time>2017-06-23T14:36:02Z</time>
      </trkpt>
      <trkpt lat="42.228451" lon="-3.951133">
        <ele>1613.0</ele>
        <time>2017-06-23T14:36:05Z</time>
      </trkpt>
      <trkpt lat="42.228833" lon="-3.950983">
        <ele>1609.0</ele>
        <time>2017-06-23T14:36:08Z</time>
      </trkpt>
      <trkpt lat="42.229202" lon="-3.950800">
        <ele>1608.0</ele>
        <time>2017-06-23T14:36:11Z</time>
      </trkpt>
      <trkpt lat="42.229584" lon="-3.950616">
        <ele>1606.0</ele>
        <time>2017-06-23T14:36:14Z</time>
      </trkpt>
      <trkpt lat="42.229936" lon="-3.950417">
        <ele>1605.0</ele>
        <time>2017-06-23T14:36:17Z</time>
      </trkpt>
      <trkpt lat="42.230267" lon="-3.950166">
        <ele>1603.0</ele>
        <time>2017-06-23T14:36:20Z</time>
      </trkpt>
      <trkpt lat="42.230568" lon="-3.949833">
        <ele>1600.0</ele>
        <time>2017-06-23T14:36:23Z</time>
      </trkpt>
      <trkpt lat="42.230817" lon="-3.949384">
        <ele>1598.0</ele>
        <time>2017-06-23T14:36:26Z</time>
      </trkpt>
      <trkpt lat="42.231084" lon="-3.949017">
        <ele>1593.0</ele>
        <time>2017-06-23T14:36:29Z</time>
      </trkpt>
      <trkpt lat="42.231333" lon="-3.948566">
        <ele>1588.0</ele>
        <time>2017-06-23T14:36:32Z</time>
      </trkpt>
      <trkpt lat="42.231603" lon="-3.948200">
        <ele>1579.0</ele>
        <time>2017-06-23T14:36:35Z</time>
      </trkpt>
      <trkpt lat="42.231948" lon="-3.947850">
        <ele>1570.0</ele>
        <time>2017-06-23T14:36:38Z</time>
      </trkpt>
      <trkpt lat="42.232351" lon="-3.947300">
        <ele>1563.0</ele>
        <time>2017-06-23T14:36:42Z</time>
      </trkpt>
      <trkpt lat="42.232617" lon="-3.946867">
        <ele>1552.0</ele>
        <time>2017-06-23T14:36:45Z</time>
      </trkpt>
      <trkpt lat="42.232883" lon="-3.946433">
        <ele>1542.0</ele>
        <time>2017-06-23T14:36:48Z</time>
      </trkpt>
      <trkpt lat="42.233167" lon="-3.946050">
        <ele>1531.0</ele>
        <time>2017-06-23T14:36:51Z</time>
      </trkpt>
      <trkpt lat="42.233481" lon="-3.945633">
        <ele>1520.0</ele>
        <time>2017-06-23T14:36:54Z</time>
      </trkpt>
      <trkpt lat="42.233819" lon="-3.945250">
        <ele>1510.0</ele>
        <time>2017-06-23T14:36:57Z</time>
      </trkpt>
      <trkpt lat="42.234184" lon="-3.944917">
        <ele>1498.0</ele>
        <time>2017-06-23T14:37:00Z</time>
      </trkpt>
      <trkpt lat="42.234584" lon="-3.944683">
        <ele>1487.0</ele>
        <time>2017-06-23T14:37:03Z</time>
      </trkpt>
      <trkpt lat="42.235001" lon="-3.944483">
        <ele>1476.0</ele>
        <time>2017-06-23T14:37:06Z</time>
      </trkpt>
      <trkpt lat="42.235417" lon="-3.944284">
        <ele>1462.0</ele>
        <time>2017-06-23T14:37:09Z</time>
      </trkpt>
      <trkpt lat="42.235851" lon="-3.944083">
        <ele>1453.0</ele>
        <time>2017-06-23T14:37:12Z</time>
      </trkpt>
      <trkpt lat="42.236251" lon="-3.943900">
        <ele>1443.0</ele>
        <time>2017-06-23T14:37:15Z</time>
      </trkpt>
      <trkpt lat="42.236647" lon="-3.943683">
        <ele>1434.0</ele>
        <time>2017-06-23T14:37:18Z</time>
      </trkpt>
      <trkpt lat="42.237200" lon="-3.943400">
        <ele>1424.0</ele>
        <time>2017-06-23T14:37:22Z</time>
      </trkpt>
      <trkpt lat="42.237634" lon="-3.943167">
        <ele>1417.0</ele>
        <time>2017-06-23T14:37:25Z</time>
      </trkpt>
      <trkpt lat="42.238033" lon="-3.942933">
        <ele>1410.0</ele>
        <time>2017-06-23T14:37:28Z</time>
      </trkpt>
      <trkpt lat="42.238450" lon="-3.942733">
        <ele>1403.0</ele>
        <time>2017-06-23T14:37:31Z</time>
      </trkpt>
      <trkpt lat="42.238884" lon="-3.942583">
        <ele>1399.0</ele>
        <time>2017-06-23T14:37:34Z</time>
      </trkpt>
      <trkpt lat="42.239300" lon="-3.942467">
        <ele>1394.0</ele>
        <time>2017-06-23T14:37:37Z</time>
      </trkpt>
      <trkpt lat="42.239751" lon="-3.942383">
        <ele>1388.0</ele>
        <time>2017-06-23T14:37:40Z</time>
      </trkpt>
      <trkpt lat="42.240185" lon="-3.942300">
        <ele>1382.0</ele>
        <time>2017-06-23T14:37:43Z</time>
      </trkpt>
      <trkpt lat="42.240636" lon="-3.942200">
        <ele>1376.0</ele>
        <time>2017-06-23T14:37:46Z</time>
      </trkpt>
      <trkpt lat="42.241086" lon="-3.942083">
        <ele>1367.0</ele>
        <time>2017-06-23T14:37:49Z</time>
      </trkpt>
      <trkpt lat="42.241551" lon="-3.941934">
        <ele>1360.0</ele>
        <time>2017-06-23T14:37:52Z</time>
      </trkpt>
      <trkpt lat="42.242002" lon="-3.941783">
        <ele>1353.0</ele>
        <time>2017-06-23T14:37:55Z</time>
      </trkpt>
      <trkpt lat="42.242466" lon="-3.941600">
        <ele>1346.0</ele>
        <time>2017-06-23T14:37:58Z</time>
      </trkpt>
      <trkpt lat="42.242900" lon="-3.941417">
        <ele>1339.0</ele>
        <time>2017-06-23T14:38:01Z</time>
      </trkpt>
      <trkpt lat="42.243484" lon="-3.941150">
        <ele>1333.0</ele>
        <time>2017-06-23T14:38:05Z</time>
      </trkpt>
      <trkpt lat="42.243914" lon="-3.940933">
        <ele>1330.0</ele>
        <time>2017-06-23T14:38:08Z</time>
      </trkpt>
      <trkpt lat="42.244334" lon="-3.940734">
        <ele>1322.0</ele>
        <time>2017-06-23T14:38:11Z</time>
      </trkpt>
      <trkpt lat="42.244785" lon="-3.940533">
        <ele>1312.0</ele>
        <time>2017-06-23T14:38:14Z</time>
      </trkpt>
      <trkpt lat="42.245215" lon="-3.940333">
        <ele>1305.0</ele>
        <time>2017-06-23T14:38:17Z</time>
      </trkpt>
      <trkpt lat="42.245652" lon="-3.940150">
        <ele>1298.0</ele>
        <time>2017-06-23T14:38:20Z</time>
      </trkpt>
      <trkpt lat="42.246083" lon="-3.939966">
        <ele>1292.0</ele>
        <time>2017-06-23T14:38:23Z</time>
      </trkpt>
      <trkpt lat="42.246516" lon="-3.939750">
        <ele>1284.0</ele>
        <time>2017-06-23T14:38:26Z</time>
      </trkpt>
      <trkpt lat="42.246950" lon="-3.939534">
        <ele>1274.0</ele>
        <time>2017-06-23T14:38:29Z</time>
      </trkpt>
      <trkpt lat="42.247397" lon="-3.939333">
        <ele>1278.0</ele>
        <time>2017-06-23T14:38:32Z</time>
      </trkpt>
      <trkpt lat="42.247749" lon="-3.939216">
        <ele>1275.0</ele>
        <time>2017-06-23T14:38:35Z</time>
      </trkpt>
      <trkpt lat="42.248135" lon="-3.939233">
        <ele>1271.0</ele>
        <time>2017-06-23T14:38:38Z</time>
      </trkpt>
      <trkpt lat="42.248514" lon="-3.939200">
        <ele>1265.0</ele>
        <time>2017-06-23T14:38:41Z</time>
      </trkpt>
      <trkpt lat="42.248931" lon="-3.939033">
        <ele>1261.0</ele>
        <time>2017-06-23T14:38:44Z</time>
      </trkpt>
      <trkpt lat="42.249467" lon="-3.938750">
        <ele>1263.0</ele>
        <time>2017-06-23T14:38:48Z</time>
      </trkpt>
      <trkpt lat="42.249802" lon="-3.938483">
        <ele>1262.0</ele>
        <time>2017-06-23T14:38:51Z</time>
      </trkpt>
      <trkpt lat="42.249935" lon="-3.938067">
        <ele>1259.0</ele>
        <time>2017-06-23T14:38:54Z</time>
      </trkpt>
      <trkpt lat="42.249849" lon="-3.938050">
        <ele>1255.0</ele>
        <time>2017-06-23T14:38:57Z</time>
      </trkpt>
      <trkpt lat="42.249849" lon="-3.938250">
        <ele>1255.0</ele>
        <time>2017-06-23T14:39:00Z</time>
      </trkpt>
      <trkpt lat="42.249867" lon="-3.938366">
        <ele>1253.0</ele>
        <time>2017-06-23T14:39:03Z</time>
      </trkpt>
      <trkpt lat="42.249901" lon="-3.938550">
        <ele>1246.0</ele>
        <time>2017-06-23T14:39:06Z</time>
      </trkpt>
      <trkpt lat="42.250000" lon="-3.938750">
        <ele>1243.0</ele>
        <time>2017-06-23T14:39:09Z</time>
      </trkpt>
      <trkpt lat="42.250099" lon="-3.938900">
        <ele>1241.0</ele>
        <time>2017-06-23T14:39:12Z</time>
      </trkpt>
      <trkpt lat="42.250232" lon="-3.939033">
        <ele>1238.0</ele>
        <time>2017-06-23T14:39:15Z</time>
      </trkpt>
      <trkpt lat="42.250300" lon="-3.939133">
        <ele>1239.0</ele>
        <time>2017-06-23T14:39:18Z</time>
      </trkpt>
      <trkpt lat="42.250283" lon="-3.939133">
        <ele>1239.0</ele>
        <time>2017-06-23T14:39:21Z</time>
      </trkpt>
      <trkpt lat="42.250283" lon="-3.939150">
        <ele>1237.0</ele>
        <time>2017-06-23T14:39:24Z</time>
      </trkpt>
      <trkpt lat="42.250184" lon="-3.939184">
        <ele>1236.0</ele>
        <time>2017-06-23T14:39:27Z</time>
      </trkpt>
      <trkpt lat="42.250065" lon="-3.939317">
        <ele>1237.0</ele>
        <time>2017-06-23T14:39:31Z</time>
      </trkpt>
      <trkpt lat="42.250119" lon="-3.939450">
        <ele>1232.0</ele>
        <time>2017-06-23T14:39:34Z</time>
      </trkpt>
      <trkpt lat="42.250119" lon="-3.939617">
        <ele>1227.0</ele>
        <time>2017-06-23T14:39:37Z</time>
      </trkpt>
      <trkpt lat="42.250232" lon="-3.939817">
        <ele>1225.0</ele>
        <time>2017-06-23T14:39:40Z</time>
      </trkpt>
      <trkpt lat="42.250382" lon="-3.940033">
        <ele>1220.0</ele>
        <time>2017-06-23T14:39:43Z</time>
      </trkpt>
      <trkpt lat="42.250584" lon="-3.940233">
        <ele>1217.0</ele>
        <time>2017-06-23T14:39:46Z</time>
      </trkpt>
      <trkpt lat="42.250850" lon="-3.940383">
        <ele>1216.0</ele>
        <time>2017-06-23T14:39:49Z</time>
      </trkpt>
      <trkpt lat="42.251202" lon="-3.940467">
        <ele>1217.0</ele>
        <time>2017-06-23T14:39:52Z</time>
      </trkpt>
      <trkpt lat="42.251519" lon="-3.940583">
        <ele>1216.0</ele>
        <time>2017-06-23T14:39:55Z</time>
      </trkpt>
      <trkpt lat="42.251916" lon="-3.940583">
        <ele>1215.0</ele>
        <time>2017-06-23T14:39:58Z</time>
      </trkpt>
      <trkpt lat="42.252349" lon="-3.940533">
        <ele>1218.0</ele>
        <time>2017-06-23T14:40:01Z</time>
      </trkpt>
      <trkpt lat="42.252735" lon="-3.940350">
        <ele>1220.0</ele>
        <time>2017-06-23T14:40:04Z</time>
      </trkpt>
      <trkpt lat="42.253084" lon="-3.940117">
        <ele>1225.0</ele>
        <time>2017-06-23T14:40:07Z</time>
      </trkpt>
      <trkpt lat="42.253398" lon="-3.939817">
        <ele>1232.0</ele>
        <time>2017-06-23T14:40:10Z</time>
      </trkpt>
      <trkpt lat="42.253630" lon="-3.939367">
        <ele>1237.0</ele>
        <time>2017-06-23T14:40:14Z</time>
      </trkpt>
      <trkpt lat="42.253517" lon="-3.939300">
        <ele>1243.0</ele>
        <time>2017-06-23T14:40:17Z</time>
      </trkpt>
      <trkpt lat="42.253517" lon="-3.939433">
        <ele>1248.0</ele>
        <time>2017-06-23T14:40:20Z</time>
      </trkpt>
      <trkpt lat="42.253551" lon="-3.939583">
        <ele>1250.0</ele>
        <time>2017-06-23T14:40:23Z</time>
      </trkpt>
      <trkpt lat="42.253763" lon="-3.939800">
        <ele>1250.0</ele>
        <time>2017-06-23T14:40:26Z</time>
      </trkpt>
      <trkpt lat="42.254002" lon="-3.940000">
        <ele>1256.0</ele>
        <time>2017-06-23T14:40:29Z</time>
      </trkpt>
      <trkpt lat="42.254183" lon="-3.940167">
        <ele>1265.0</ele>
        <time>2017-06-23T14:40:32Z</time>
      </trkpt>
      <trkpt lat="42.254415" lon="-3.940350">
        <ele>1275.0</ele>
        <time>2017-06-23T14:40:35Z</time>
      </trkpt>
      <trkpt lat="42.254733" lon="-3.940500">
        <ele>1289.0</ele>
        <time>2017-06-23T14:40:38Z</time>
      </trkpt>
      <trkpt lat="42.255064" lon="-3.940350">
        <ele>1296.0</ele>
        <time>2017-06-23T14:40:41Z</time>
      </trkpt>
      <trkpt lat="42.255235" lon="-3.939933">
        <ele>1308.0</ele>
        <time>2017-06-23T14:40:44Z</time>
      </trkpt>
      <trkpt lat="42.255269" lon="-3.939600">
        <ele>1315.0</ele>
        <time>2017-06-23T14:40:47Z</time>
      </trkpt>
      <trkpt lat="42.255269" lon="-3.939283">
        <ele>1324.0</ele>
        <time>2017-06-23T14:40:50Z</time>
      </trkpt>
      <trkpt lat="42.255235" lon="-3.939100">
        <ele>1333.0</ele>
        <time>2017-06-23T14:40:54Z</time>
      </trkpt>
      <trkpt lat="42.255235" lon="-3.939200">
        <ele>1341.0</ele>
        <time>2017-06-23T14:40:57Z</time>
      </trkpt>
      <trkpt lat="42.255450" lon="-3.939433">
        <ele>1352.0</ele>
        <time>2017-06-23T14:41:00Z</time>
      </trkpt>
      <trkpt lat="42.255648" lon="-3.939617">
        <ele>1362.0</ele>
        <time>2017-06-23T14:41:03Z</time>
      </trkpt>
      <trkpt lat="42.255932" lon="-3.939767">
        <ele>1368.0</ele>
        <time>2017-06-23T14:41:06Z</time>
      </trkpt>
      <trkpt lat="42.256249" lon="-3.939783">
        <ele>1376.0</ele>
        <time>2017-06-23T14:41:09Z</time>
      </trkpt>
      <trkpt lat="42.256618" lon="-3.939617">
        <ele>1376.0</ele>
        <time>2017-06-23T14:41:12Z</time>
      </trkpt>
      <trkpt lat="42.256850" lon="-3.939167">
        <ele>1377.0</ele>
        <time>2017-06-23T14:41:15Z</time>
      </trkpt>
      <trkpt lat="42.256902" lon="-3.938833">
        <ele>1385.0</ele>
        <time>2017-06-23T14:41:18Z</time>
      </trkpt>
      <trkpt lat="42.256868" lon="-3.938617">
        <ele>1399.0</ele>
        <time>2017-06-23T14:41:21Z</time>
      </trkpt>
      <trkpt lat="42.256881" lon="-3.938434">
        <ele>1405.0</ele>
        <time>2017-06-23T14:41:24Z</time>
      </trkpt>
      <trkpt lat="42.256868" lon="-3.938417">
        <ele>1413.0</ele>
        <time>2017-06-23T14:41:27Z</time>
      </trkpt>
      <trkpt lat="42.256949" lon="-3.938533">
        <ele>1418.0</ele>
        <time>2017-06-23T14:41:30Z</time>
      </trkpt>
      <trkpt lat="42.257281" lon="-3.938767">
        <ele>1423.0</ele>
        <time>2017-06-23T14:41:34Z</time>
      </trkpt>
      <trkpt lat="42.257499" lon="-3.938817">
        <ele>1426.0</ele>
        <time>2017-06-23T14:41:36Z</time>
      </trkpt>
      <trkpt lat="42.257916" lon="-3.938883">
        <ele>1424.0</ele>
        <time>2017-06-23T14:41:40Z</time>
      </trkpt>
      <trkpt lat="42.258336" lon="-3.938667">
        <ele>1422.0</ele>
        <time>2017-06-23T14:41:43Z</time>
      </trkpt>
      <trkpt lat="42.258667" lon="-3.938317">
        <ele>1422.0</ele>
        <time>2017-06-23T14:41:46Z</time>
      </trkpt>
      <trkpt lat="42.258848" lon="-3.937833">
        <ele>1418.0</ele>
        <time>2017-06-23T14:41:49Z</time>
      </trkpt>
      <trkpt lat="42.258865" lon="-3.937433">
        <ele>1421.0</ele>
        <time>2017-06-23T14:41:52Z</time>
      </trkpt>
      <trkpt lat="42.258865" lon="-3.937100">
        <ele>1426.0</ele>
        <time>2017-06-23T14:41:55Z</time>
      </trkpt>
      <trkpt lat="42.258814" lon="-3.936833">
        <ele>1435.0</ele>
        <time>2017-06-23T14:41:58Z</time>
      </trkpt>
      <trkpt lat="42.258835" lon="-3.936667">
        <ele>1444.0</ele>
        <time>2017-06-23T14:42:01Z</time>
      </trkpt>
      <trkpt lat="42.258800" lon="-3.936517">
        <ele>1450.0</ele>
        <time>2017-06-23T14:42:04Z</time>
      </trkpt>
      <trkpt lat="42.258715" lon="-3.936400">
        <ele>1456.0</ele>
        <time>2017-06-23T14:42:07Z</time>
      </trkpt>
      <trkpt lat="42.258633" lon="-3.936183">
        <ele>1469.0</ele>
        <time>2017-06-23T14:42:10Z</time>
      </trkpt>
      <trkpt lat="42.258599" lon="-3.935967">
        <ele>1477.0</ele>
        <time>2017-06-23T14:42:13Z</time>
      </trkpt>
      <trkpt lat="42.258582" lon="-3.935917">
        <ele>1483.0</ele>
        <time>2017-06-23T14:42:17Z</time>
      </trkpt>
      <trkpt lat="42.258800" lon="-3.936117">
        <ele>1487.0</ele>
        <time>2017-06-23T14:42:20Z</time>
      </trkpt>
      <trkpt lat="42.259152" lon="-3.936083">
        <ele>1496.0</ele>
        <time>2017-06-23T14:42:23Z</time>
      </trkpt>
      <trkpt lat="42.259497" lon="-3.935917">
        <ele>1501.0</ele>
        <time>2017-06-23T14:42:26Z</time>
      </trkpt>
      <trkpt lat="42.259849" lon="-3.935567">
        <ele>1511.0</ele>
        <time>2017-06-23T14:42:29Z</time>
      </trkpt>
      <trkpt lat="42.260033" lon="-3.935167">
        <ele>1517.0</ele>
        <time>2017-06-23T14:42:32Z</time>
      </trkpt>
      <trkpt lat="42.260115" lon="-3.934750">
        <ele>1525.0</ele>
        <time>2017-06-23T14:42:35Z</time>
      </trkpt>
      <trkpt lat="42.260115" lon="-3.934483">
        <ele>1532.0</ele>
        <time>2017-06-23T14:42:38Z</time>
      </trkpt>
      <trkpt lat="42.260050" lon="-3.934283">
        <ele>1538.0</ele>
        <time>2017-06-23T14:42:41Z</time>
      </trkpt>
      <trkpt lat="42.259999" lon="-3.934267">
        <ele>1545.0</ele>
        <time>2017-06-23T14:42:44Z</time>
      </trkpt>
      <trkpt lat="42.260081" lon="-3.934400">
        <ele>1554.0</ele>
        <time>2017-06-23T14:42:47Z</time>
      </trkpt>
      <trkpt lat="42.260368" lon="-3.934583">
        <ele>1559.0</ele>
        <time>2017-06-23T14:42:50Z</time>
      </trkpt>
      <trkpt lat="42.260750" lon="-3.934567">
        <ele>1564.0</ele>
        <time>2017-06-23T14:42:53Z</time>
      </trkpt>
      <trkpt lat="42.261150" lon="-3.934333">
        <ele>1572.0</ele>
        <time>2017-06-23T14:42:56Z</time>
      </trkpt>
      <trkpt lat="42.261532" lon="-3.933867">
        <ele>1579.0</ele>
        <time>2017-06-23T14:43:00Z</time>
      </trkpt>
      <trkpt lat="42.261700" lon="-3.933467">
        <ele>1586.0</ele>
        <time>2017-06-23T14:43:03Z</time>
      </trkpt>
      <trkpt lat="42.261683" lon="-3.933266">
        <ele>1591.0</ele>
        <time>2017-06-23T14:43:06Z</time>
      </trkpt>
      <trkpt lat="42.261635" lon="-3.933283">
        <ele>1597.0</ele>
        <time>2017-06-23T14:43:09Z</time>
      </trkpt>
      <trkpt lat="42.261782" lon="-3.933500">
        <ele>1605.0</ele>
        <time>2017-06-23T14:43:12Z</time>
      </trkpt>
      <trkpt lat="42.262065" lon="-3.933650">
        <ele>1611.0</ele>
        <time>2017-06-23T14:43:15Z</time>
      </trkpt>
      <trkpt lat="42.262417" lon="-3.933767">
        <ele>1618.0</ele>
        <time>2017-06-23T14:43:18Z</time>
      </trkpt>
      <trkpt lat="42.262748" lon="-3.933817">
        <ele>1624.0</ele>
        <time>2017-06-23T14:43:21Z</time>
      </trkpt>
      <trkpt lat="42.263148" lon="-3.933684">
        <ele>1628.0</ele>
        <time>2017-06-23T14:43:24Z</time>
      </trkpt>
      <trkpt lat="42.263500" lon="-3.933383">
        <ele>1640.0</ele>
        <time>2017-06-23T14:43:27Z</time>
      </trkpt>
      <trkpt lat="42.263783" lon="-3.933067">
        <ele>1643.0</ele>
        <time>2017-06-23T14:43:30Z</time>
      </trkpt>
      <trkpt lat="42.263933" lon="-3.932683">
        <ele>1648.0</ele>
        <time>2017-06-23T14:43:33Z</time>
      </trkpt>
      <trkpt lat="42.263950" lon="-3.932450">
        <ele>1653.0</ele>
        <time>2017-06-23T14:43:36Z</time>
      </trkpt>
      <trkpt lat="42.263899" lon="-3.932417">
        <ele>1657.0</ele>
        <time>2017-06-23T14:43:40Z</time>
      </trkpt>
      <trkpt lat="42.263933" lon="-3.932567">
        <ele>1666.0</ele>
        <time>2017-06-23T14:43:43Z</time>
      </trkpt>
      <trkpt lat="42.264032" lon="-3.932750">
        <ele>1672.0</ele>
        <time>2017-06-23T14:43:46Z</time>
      </trkpt>
      <trkpt lat="42.264268" lon="-3.932916">
        <ele>1677.0</ele>
        <time>2017-06-23T14:43:49Z</time>
      </trkpt>
      <trkpt lat="42.264534" lon="-3.933033">
        <ele>1681.0</ele>
        <time>2017-06-23T14:43:52Z</time>
      </trkpt>
      <trkpt lat="42.264866" lon="-3.933117">
        <ele>1684.0</ele>
        <time>2017-06-23T14:43:55Z</time>
      </trkpt>
      <trkpt lat="42.265231" lon="-3.932983">
        <ele>1686.0</ele>
        <time>2017-06-23T14:43:58Z</time>
      </trkpt>
      <trkpt lat="42.265583" lon="-3.932683">
        <ele>1690.0</ele>
        <time>2017-06-23T14:44:01Z</time>
      </trkpt>
      <trkpt lat="42.265836" lon="-3.932333">
        <ele>1694.0</ele>
        <time>2017-06-23T14:44:04Z</time>
      </trkpt>
      <trkpt lat="42.266081" lon="-3.931917">
        <ele>1699.0</ele>
        <time>2017-06-23T14:44:07Z</time>
      </trkpt>
      <trkpt lat="42.266232" lon="-3.931483">
        <ele>1709.0</ele>
        <time>2017-06-23T14:44:10Z</time>
      </trkpt>
      <trkpt lat="42.266385" lon="-3.931033">
        <ele>1717.0</ele>
        <time>2017-06-23T14:44:13Z</time>
      </trkpt>
      <trkpt lat="42.266484" lon="-3.930567">
        <ele>1727.0</ele>
        <time>2017-06-23T14:44:16Z</time>
      </trkpt>
      <trkpt lat="42.266549" lon="-3.930167">
        <ele>1734.0</ele>
        <time>2017-06-23T14:44:19Z</time>
      </trkpt>
      <trkpt lat="42.266484" lon="-3.929817">
        <ele>1735.0</ele>
        <time>2017-06-23T14:44:23Z</time>
      </trkpt>
      <trkpt lat="42.266399" lon="-3.929800">
        <ele>1736.0</ele>
        <time>2017-06-23T14:44:26Z</time>
      </trkpt>
      <trkpt lat="42.266433" lon="-3.930017">
        <ele>1740.0</ele>
        <time>2017-06-23T14:44:29Z</time>
      </trkpt>
      <trkpt lat="42.266433" lon="-3.930150">
        <ele>1745.0</ele>
        <time>2017-06-23T14:44:32Z</time>
      </trkpt>
      <trkpt lat="42.266519" lon="-3.930333">
        <ele>1749.0</ele>
        <time>2017-06-23T14:44:35Z</time>
      </trkpt>
      <trkpt lat="42.266631" lon="-3.930550">
        <ele>1755.0</ele>
        <time>2017-06-23T14:44:38Z</time>
      </trkpt>
      <trkpt lat="42.266764" lon="-3.930683">
        <ele>1758.0</ele>
        <time>2017-06-23T14:44:41Z</time>
      </trkpt>
      <trkpt lat="42.266997" lon="-3.930866">
        <ele>1759.0</ele>
        <time>2017-06-23T14:44:44Z</time>
      </trkpt>
      <trkpt lat="42.267369" lon="-3.930950">
        <ele>1765.0</ele>
        <time>2017-06-23T14:44:47Z</time>
      </trkpt>
      <trkpt lat="42.267748" lon="-3.930900">
        <ele>1773.0</ele>
        <time>2017-06-23T14:44:50Z</time>
      </trkpt>
      <trkpt lat="42.268130" lon="-3.930733">
        <ele>1777.0</ele>
        <time>2017-06-23T14:44:53Z</time>
      </trkpt>
      <trkpt lat="42.268482" lon="-3.930467">
        <ele>1779.0</ele>
        <time>2017-06-23T14:44:56Z</time>
      </trkpt>
      <trkpt lat="42.268800" lon="-3.930067">
        <ele>1784.0</ele>
        <time>2017-06-23T14:44:59Z</time>
      </trkpt>
      <trkpt lat="42.269032" lon="-3.929650">
        <ele>1791.0</ele>
        <time>2017-06-23T14:45:02Z</time>
      </trkpt>
      <trkpt lat="42.269319" lon="-3.929167">
        <ele>1794.0</ele>
        <time>2017-06-23T14:45:06Z</time>
      </trkpt>
      <trkpt lat="42.269346" lon="-3.928783">
        <ele>1796.0</ele>
        <time>2017-06-23T14:45:09Z</time>
      </trkpt>
      <trkpt lat="42.269346" lon="-3.928450">
        <ele>1802.0</ele>
        <time>2017-06-23T14:45:12Z</time>
      </trkpt>
      <trkpt lat="42.269319" lon="-3.928267">
        <ele>1806.0</ele>
        <time>2017-06-23T14:45:15Z</time>
      </trkpt>
      <trkpt lat="42.269298" lon="-3.928350">
        <ele>1807.0</ele>
        <time>2017-06-23T14:45:18Z</time>
      </trkpt>
      <trkpt lat="42.269281" lon="-3.928417">
        <ele>1811.0</ele>
        <time>2017-06-23T14:45:21Z</time>
      </trkpt>
      <trkpt lat="42.269247" lon="-3.928400">
        <ele>1812.0</ele>
        <time>2017-06-23T14:45:24Z</time>
      </trkpt>
      <trkpt lat="42.269199" lon="-3.928417">
        <ele>1814.0</ele>
        <time>2017-06-23T14:45:27Z</time>
      </trkpt>
      <trkpt lat="42.269182" lon="-3.928533">
        <ele>1814.0</ele>
        <time>2017-06-23T14:45:30Z</time>
      </trkpt>
      <trkpt lat="42.269199" lon="-3.928733">
        <ele>1818.0</ele>
        <time>2017-06-23T14:45:33Z</time>
      </trkpt>
      <trkpt lat="42.269247" lon="-3.928934">
        <ele>1820.0</ele>
        <time>2017-06-23T14:45:36Z</time>
      </trkpt>
      <trkpt lat="42.269367" lon="-3.929150">
        <ele>1823.0</ele>
        <time>2017-06-23T14:45:39Z</time>
      </trkpt>
      <trkpt lat="42.269500" lon="-3.929334">
        <ele>1821.0</ele>
        <time>2017-06-23T14:45:42Z</time>
      </trkpt>
      <trkpt lat="42.269766" lon="-3.929583">
        <ele>1827.0</ele>
        <time>2017-06-23T14:45:46Z</time>
      </trkpt>
      <trkpt lat="42.269917" lon="-3.929717">
        <ele>1832.0</ele>
        <time>2017-06-23T14:45:49Z</time>
      </trkpt>
      <trkpt lat="42.270115" lon="-3.929883">
        <ele>1835.0</ele>
        <time>2017-06-23T14:45:52Z</time>
      </trkpt>
      <trkpt lat="42.270268" lon="-3.930033">
        <ele>1838.0</ele>
        <time>2017-06-23T14:45:55Z</time>
      </trkpt>
      <trkpt lat="42.270449" lon="-3.930183">
        <ele>1842.0</ele>
        <time>2017-06-23T14:45:58Z</time>
      </trkpt>
      <trkpt lat="42.270668" lon="-3.930250">
        <ele>1843.0</ele>
        <time>2017-06-23T14:46:01Z</time>
      </trkpt>
      <trkpt lat="42.271016" lon="-3.930200">
        <ele>1840.0</ele>
        <time>2017-06-23T14:46:04Z</time>
      </trkpt>
      <trkpt lat="42.271365" lon="-3.930017">
        <ele>1840.0</ele>
        <time>2017-06-23T14:46:07Z</time>
      </trkpt>
      <trkpt lat="42.271648" lon="-3.929750">
        <ele>1839.0</ele>
        <time>2017-06-23T14:46:10Z</time>
      </trkpt>
      <trkpt lat="42.271901" lon="-3.929334">
        <ele>1841.0</ele>
        <time>2017-06-23T14:46:13Z</time>
      </trkpt>
      <trkpt lat="42.272068" lon="-3.928934">
        <ele>1838.0</ele>
        <time>2017-06-23T14:46:16Z</time>
      </trkpt>
      <trkpt lat="42.272181" lon="-3.928450">
        <ele>1836.0</ele>
        <time>2017-06-23T14:46:19Z</time>
      </trkpt>
      <trkpt lat="42.272215" lon="-3.928000">
        <ele>1834.0</ele>
        <time>2017-06-23T14:46:22Z</time>
      </trkpt>
      <trkpt lat="42.272167" lon="-3.927583">
        <ele>1834.0</ele>
        <time>2017-06-23T14:46:25Z</time>
      </trkpt>
      <trkpt lat="42.272068" lon="-3.927200">
        <ele>1839.0</ele>
        <time>2017-06-23T14:46:29Z</time>
      </trkpt>
      <trkpt lat="42.272013" lon="-3.926966">
        <ele>1843.0</ele>
        <time>2017-06-23T14:46:32Z</time>
      </trkpt>
      <trkpt lat="42.271966" lon="-3.926750">
        <ele>1845.0</ele>
        <time>2017-06-23T14:46:35Z</time>
      </trkpt>
      <trkpt lat="42.271901" lon="-3.926567">
        <ele>1845.0</ele>
        <time>2017-06-23T14:46:38Z</time>
      </trkpt>
      <trkpt lat="42.271802" lon="-3.926400">
        <ele>1846.0</ele>
        <time>2017-06-23T14:46:41Z</time>
      </trkpt>
      <trkpt lat="42.271716" lon="-3.926317">
        <ele>1846.0</ele>
        <time>2017-06-23T14:46:44Z</time>
      </trkpt>
      <trkpt lat="42.271597" lon="-3.926184">
        <ele>1846.0</ele>
        <time>2017-06-23T14:46:47Z</time>
      </trkpt>
      <trkpt lat="42.271498" lon="-3.926100">
        <ele>1846.0</ele>
        <time>2017-06-23T14:46:50Z</time>
      </trkpt>
      <trkpt lat="42.271399" lon="-3.926033">
        <ele>1849.0</ele>
        <time>2017-06-23T14:46:53Z</time>
      </trkpt>
      <trkpt lat="42.271283" lon="-3.926017">
        <ele>1851.0</ele>
        <time>2017-06-23T14:46:56Z</time>
      </trkpt>
      <trkpt lat="42.271166" lon="-3.926000">
        <ele>1857.0</ele>
        <time>2017-06-23T14:46:59Z</time>
      </trkpt>
      <trkpt lat="42.271085" lon="-3.926000">
        <ele>1860.0</ele>
        <time>2017-06-23T14:47:02Z</time>
      </trkpt>
      <trkpt lat="42.271033" lon="-3.926000">
        <ele>1860.0</ele>
        <time>2017-06-23T14:47:05Z</time>
      </trkpt>
      <trkpt lat="42.271033" lon="-3.926150">
        <ele>1859.0</ele>
        <time>2017-06-23T14:47:08Z</time>
      </trkpt>
      <trkpt lat="42.271266" lon="-3.926517">
        <ele>1860.0</ele>
        <time>2017-06-23T14:47:12Z</time>
      </trkpt>
      <trkpt lat="42.271634" lon="-3.926483">
        <ele>1862.0</ele>
        <time>2017-06-23T14:47:15Z</time>
      </trkpt>
      <trkpt lat="42.271935" lon="-3.926184">
        <ele>1861.0</ele>
        <time>2017-06-23T14:47:18Z</time>
      </trkpt>
      <trkpt lat="42.272181" lon="-3.925850">
        <ele>1863.0</ele>
        <time>2017-06-23T14:47:21Z</time>
      </trkpt>
      <trkpt lat="42.272386" lon="-3.925517">
        <ele>1862.0</ele>
        <time>2017-06-23T14:47:24Z</time>
      </trkpt>
      <trkpt lat="42.272498" lon="-3.925133">
        <ele>1863.0</ele>
        <time>2017-06-23T14:47:27Z</time>
      </trkpt>
      <trkpt lat="42.272567" lon="-3.924717">
        <ele>1866.0</ele>
        <time>2017-06-23T14:47:30Z</time>
      </trkpt>
      <trkpt lat="42.272597" lon="-3.924383">
        <ele>1873.0</ele>
        <time>2017-06-23T14:47:33Z</time>
      </trkpt>
      <trkpt lat="42.272618" lon="-3.924083">
        <ele>1875.0</ele>
        <time>2017-06-23T14:47:36Z</time>
      </trkpt>
      <trkpt lat="42.272567" lon="-3.923816">
        <ele>1881.0</ele>
        <time>2017-06-23T14:47:39Z</time>
      </trkpt>
      <trkpt lat="42.272519" lon="-3.923550">
        <ele>1888.0</ele>
        <time>2017-06-23T14:47:42Z</time>
      </trkpt>
      <trkpt lat="42.272464" lon="-3.923267">
        <ele>1895.0</ele>
        <time>2017-06-23T14:47:45Z</time>
      </trkpt>
      <trkpt lat="42.272331" lon="-3.923133">
        <ele>1906.0</ele>
        <time>2017-06-23T14:47:48Z</time>
      </trkpt>
      <trkpt lat="42.272266" lon="-3.923100">
        <ele>1910.0</ele>
        <time>2017-06-23T14:47:51Z</time>
      </trkpt>
      <trkpt lat="42.272300" lon="-3.923367">
        <ele>1918.0</ele>
        <time>2017-06-23T14:47:55Z</time>
      </trkpt>
      <trkpt lat="42.272533" lon="-3.923550">
        <ele>1923.0</ele>
        <time>2017-06-23T14:47:58Z</time>
      </trkpt>
      <trkpt lat="42.272864" lon="-3.923633">
        <ele>1926.0</ele>
        <time>2017-06-23T14:48:01Z</time>
      </trkpt>
      <trkpt lat="42.273250" lon="-3.923467">
        <ele>1931.0</ele>
        <time>2017-06-23T14:48:04Z</time>
      </trkpt>
      <trkpt lat="42.273602" lon="-3.923250">
        <ele>1937.0</ele>
        <time>2017-06-23T14:48:07Z</time>
      </trkpt>
      <trkpt lat="42.273919" lon="-3.922900">
        <ele>1942.0</ele>
        <time>2017-06-23T14:48:10Z</time>
      </trkpt>
      <trkpt lat="42.274151" lon="-3.922534">
        <ele>1948.0</ele>
        <time>2017-06-23T14:48:13Z</time>
      </trkpt>
      <trkpt lat="42.274233" lon="-3.922150">
        <ele>1948.0</ele>
        <time>2017-06-23T14:48:16Z</time>
      </trkpt>
      <trkpt lat="42.274182" lon="-3.921850">
        <ele>1948.0</ele>
        <time>2017-06-23T14:48:19Z</time>
      </trkpt>
      <trkpt lat="42.274032" lon="-3.921750">
        <ele>1950.0</ele>
        <time>2017-06-23T14:48:22Z</time>
      </trkpt>
      <trkpt lat="42.273933" lon="-3.921783">
        <ele>1957.0</ele>
        <time>2017-06-23T14:48:25Z</time>
      </trkpt>
      <trkpt lat="42.273834" lon="-3.921817">
        <ele>1961.0</ele>
        <time>2017-06-23T14:48:28Z</time>
      </trkpt>
      <trkpt lat="42.273813" lon="-3.922017">
        <ele>1969.0</ele>
        <time>2017-06-23T14:48:31Z</time>
      </trkpt>
      <trkpt lat="42.273851" lon="-3.922267">
        <ele>1976.0</ele>
        <time>2017-06-23T14:48:35Z</time>
      </trkpt>
      <trkpt lat="42.273998" lon="-3.922500">
        <ele>1980.0</ele>
        <time>2017-06-23T14:48:38Z</time>
      </trkpt>
      <trkpt lat="42.274298" lon="-3.922634">
        <ele>1986.0</ele>
        <time>2017-06-23T14:48:41Z</time>
      </trkpt>
      <trkpt lat="42.274667" lon="-3.922517">
        <ele>1990.0</ele>
        <time>2017-06-23T14:48:44Z</time>
      </trkpt>
      <trkpt lat="42.274947" lon="-3.922150">
        <ele>1993.0</ele>
        <time>2017-06-23T14:48:47Z</time>
      </trkpt>
      <trkpt lat="42.275067" lon="-3.921733">
        <ele>1998.0</ele>
        <time>2017-06-23T14:48:50Z</time>
      </trkpt>
      <trkpt lat="42.275101" lon="-3.921367">
        <ele>2004.0</ele>
        <time>2017-06-23T14:48:53Z</time>
      </trkpt>
      <trkpt lat="42.275067" lon="-3.921134">
        <ele>2011.0</ele>
        <time>2017-06-23T14:48:56Z</time>
      </trkpt>
      <trkpt lat="42.274981" lon="-3.921000">
        <ele>2015.0</ele>
        <time>2017-06-23T14:48:59Z</time>
      </trkpt>
      <trkpt lat="42.274899" lon="-3.921017">
        <ele>2023.0</ele>
        <time>2017-06-23T14:49:02Z</time>
      </trkpt>
      <trkpt lat="42.274882" lon="-3.921183">
        <ele>2025.0</ele>
        <time>2017-06-23T14:49:05Z</time>
      </trkpt>
      <trkpt lat="42.275002" lon="-3.921434">
        <ele>2030.0</ele>
        <time>2017-06-23T14:49:08Z</time>
      </trkpt>
      <trkpt lat="42.275213" lon="-3.921617">
        <ele>2032.0</ele>
        <time>2017-06-23T14:49:11Z</time>
      </trkpt>
      <trkpt lat="42.275664" lon="-3.921600">
        <ele>2035.0</ele>
        <time>2017-06-23T14:49:15Z</time>
      </trkpt>
      <trkpt lat="42.276016" lon="-3.921367">
        <ele>2038.0</ele>
        <time>2017-06-23T14:49:18Z</time>
      </trkpt>
      <trkpt lat="42.276248" lon="-3.920983">
        <ele>2040.0</ele>
        <time>2017-06-23T14:49:21Z</time>
      </trkpt>
      <trkpt lat="42.276402" lon="-3.920567">
        <ele>2041.0</ele>
        <time>2017-06-23T14:49:24Z</time>
      </trkpt>
      <trkpt lat="42.276501" lon="-3.920133">
        <ele>2047.0</ele>
        <time>2017-06-23T14:49:27Z</time>
      </trkpt>
      <trkpt lat="42.276566" lon="-3.919817">
        <ele>2051.0</ele>
        <time>2017-06-23T14:49:30Z</time>
      </trkpt>
      <trkpt lat="42.276566" lon="-3.919433">
        <ele>2051.0</ele>
        <time>2017-06-23T14:49:33Z</time>
      </trkpt>
      <trkpt lat="42.276480" lon="-3.919150">
        <ele>2057.0</ele>
        <time>2017-06-23T14:49:36Z</time>
      </trkpt>
      <trkpt lat="42.276402" lon="-3.918983">
        <ele>2059.0</ele>
        <time>2017-06-23T14:49:39Z</time>
      </trkpt>
      <trkpt lat="42.276316" lon="-3.919017">
        <ele>2061.0</ele>
        <time>2017-06-23T14:49:42Z</time>
      </trkpt>
      <trkpt lat="42.276334" lon="-3.919233">
        <ele>2061.0</ele>
        <time>2017-06-23T14:49:45Z</time>
      </trkpt>
      <trkpt lat="42.276515" lon="-3.919467">
        <ele>2059.0</ele>
        <time>2017-06-23T14:49:48Z</time>
      </trkpt>
      <trkpt lat="42.276832" lon="-3.919667">
        <ele>2062.0</ele>
        <time>2017-06-23T14:49:51Z</time>
      </trkpt>
      <trkpt lat="42.277116" lon="-3.919833">
        <ele>2064.0</ele>
        <time>2017-06-23T14:49:54Z</time>
      </trkpt>
      <trkpt lat="42.277549" lon="-3.919867">
        <ele>2065.0</ele>
        <time>2017-06-23T14:49:58Z</time>
      </trkpt>
      <trkpt lat="42.277915" lon="-3.919700">
        <ele>2067.0</ele>
        <time>2017-06-23T14:50:01Z</time>
      </trkpt>
      <trkpt lat="42.278219" lon="-3.919450">
        <ele>2070.0</ele>
        <time>2017-06-23T14:50:04Z</time>
      </trkpt>
      <trkpt lat="42.278499" lon="-3.919134">
        <ele>2069.0</ele>
        <time>2017-06-23T14:50:07Z</time>
      </trkpt>
      <trkpt lat="42.278717" lon="-3.918767">
        <ele>2071.0</ele>
        <time>2017-06-23T14:50:10Z</time>
      </trkpt>
      <trkpt lat="42.278885" lon="-3.918367">
        <ele>2071.0</ele>
        <time>2017-06-23T14:50:13Z</time>
      </trkpt>
      <trkpt lat="42.278949" lon="-3.917950">
        <ele>2074.0</ele>
        <time>2017-06-23T14:50:16Z</time>
      </trkpt>
      <trkpt lat="42.278898" lon="-3.917667">
        <ele>2079.0</ele>
        <time>2017-06-23T14:50:19Z</time>
      </trkpt>
      <trkpt lat="42.278816" lon="-3.917467">
        <ele>2080.0</ele>
        <time>2017-06-23T14:50:22Z</time>
      </trkpt>
      <trkpt lat="42.278717" lon="-3.917417">
        <ele>2081.0</ele>
        <time>2017-06-23T14:50:25Z</time>
      </trkpt>
      <trkpt lat="42.278666" lon="-3.917567">
        <ele>2082.0</ele>
        <time>2017-06-23T14:50:28Z</time>
      </trkpt>
      <trkpt lat="42.278751" lon="-3.917767">
        <ele>2085.0</ele>
        <time>2017-06-23T14:50:31Z</time>
      </trkpt>
      <trkpt lat="42.278898" lon="-3.917967">
        <ele>2088.0</ele>
        <time>2017-06-23T14:50:34Z</time>
      </trkpt>
      <trkpt lat="42.279083" lon="-3.918133">
        <ele>2088.0</ele>
        <time>2017-06-23T14:50:37Z</time>
      </trkpt>
      <trkpt lat="42.279482" lon="-3.918200">
        <ele>2090.0</ele>
        <time>2017-06-23T14:50:41Z</time>
      </trkpt>
      <trkpt lat="42.279779" lon="-3.918083">
        <ele>2091.0</ele>
        <time>2017-06-23T14:50:44Z</time>
      </trkpt>
      <trkpt lat="42.280097" lon="-3.917833">
        <ele>2089.0</ele>
        <time>2017-06-23T14:50:47Z</time>
      </trkpt>
      <trkpt lat="42.280316" lon="-3.917400">
        <ele>2087.0</ele>
        <time>2017-06-23T14:50:50Z</time>
      </trkpt>
      <trkpt lat="42.280384" lon="-3.917000">
        <ele>2090.0</ele>
        <time>2017-06-23T14:50:53Z</time>
      </trkpt>
      <trkpt lat="42.280415" lon="-3.916617">
        <ele>2091.0</ele>
        <time>2017-06-23T14:50:56Z</time>
      </trkpt>
      <trkpt lat="42.280384" lon="-3.916317">
        <ele>2091.0</ele>
        <time>2017-06-23T14:50:59Z</time>
      </trkpt>
      <trkpt lat="42.280264" lon="-3.916117">
        <ele>2091.0</ele>
        <time>2017-06-23T14:51:02Z</time>
      </trkpt>
      <trkpt lat="42.280152" lon="-3.916100">
        <ele>2092.0</ele>
        <time>2017-06-23T14:51:05Z</time>
      </trkpt>
      <trkpt lat="42.280066" lon="-3.916217">
        <ele>2096.0</ele>
        <time>2017-06-23T14:51:08Z</time>
      </trkpt>
      <trkpt lat="42.280032" lon="-3.916334">
        <ele>2097.0</ele>
        <time>2017-06-23T14:51:11Z</time>
      </trkpt>
      <trkpt lat="42.280049" lon="-3.916517">
        <ele>2099.0</ele>
        <time>2017-06-23T14:51:14Z</time>
      </trkpt>
      <trkpt lat="42.280165" lon="-3.916750">
        <ele>2099.0</ele>
        <time>2017-06-23T14:51:17Z</time>
      </trkpt>
      <trkpt lat="42.280497" lon="-3.916950">
        <ele>2099.0</ele>
        <time>2017-06-23T14:51:21Z</time>
      </trkpt>
      <trkpt lat="42.280814" lon="-3.916917">
        <ele>2101.0</ele>
        <time>2017-06-23T14:51:24Z</time>
      </trkpt>
      <trkpt lat="42.281132" lon="-3.916833">
        <ele>2098.0</ele>
        <time>2017-06-23T14:51:27Z</time>
      </trkpt>
      <trkpt lat="42.281449" lon="-3.916500">
        <ele>2100.0</ele>
        <time>2017-06-23T14:51:30Z</time>
      </trkpt>
      <trkpt lat="42.281716" lon="-3.916150">
        <ele>2102.0</ele>
        <time>2017-06-23T14:51:33Z</time>
      </trkpt>
      <trkpt lat="42.281948" lon="-3.915800">
        <ele>2099.0</ele>
        <time>2017-06-23T14:51:36Z</time>
      </trkpt>
      <trkpt lat="42.282081" lon="-3.915333">
        <ele>2099.0</ele>
        <time>2017-06-23T14:51:39Z</time>
      </trkpt>
      <trkpt lat="42.282201" lon="-3.914933">
        <ele>2102.0</ele>
        <time>2017-06-23T14:51:42Z</time>
      </trkpt>
      <trkpt lat="42.282334" lon="-3.914517">
        <ele>2100.0</ele>
        <time>2017-06-23T14:51:45Z</time>
      </trkpt>
      <trkpt lat="42.282399" lon="-3.914100">
        <ele>2096.0</ele>
        <time>2017-06-23T14:51:48Z</time>
      </trkpt>
      <trkpt lat="42.282382" lon="-3.913717">
        <ele>2088.0</ele>
        <time>2017-06-23T14:51:51Z</time>
      </trkpt>
      <trkpt lat="42.282249" lon="-3.913450">
        <ele>2083.0</ele>
        <time>2017-06-23T14:51:54Z</time>
      </trkpt>
      <trkpt lat="42.282167" lon="-3.913517">
        <ele>2078.0</ele>
        <time>2017-06-23T14:51:57Z</time>
      </trkpt>
      <trkpt lat="42.282201" lon="-3.913667">
        <ele>2075.0</ele>
        <time>2017-06-23T14:52:00Z</time>
      </trkpt>
      <trkpt lat="42.282334" lon="-3.913934">
        <ele>2072.0</ele>
        <time>2017-06-23T14:52:04Z</time>
      </trkpt>
      <trkpt lat="42.282532" lon="-3.914100">
        <ele>2070.0</ele>
        <time>2017-06-23T14:52:07Z</time>
      </trkpt>
      <trkpt lat="42.282768" lon="-3.914250">
        <ele>2068.0</ele>
        <time>2017-06-23T14:52:10Z</time>
      </trkpt>
      <trkpt lat="42.283031" lon="-3.914384">
        <ele>2068.0</ele>
        <time>2017-06-23T14:52:13Z</time>
      </trkpt>
      <trkpt lat="42.283317" lon="-3.914483">
        <ele>2070.0</ele>
        <time>2017-06-23T14:52:16Z</time>
      </trkpt>
      <trkpt lat="42.283584" lon="-3.914567">
        <ele>2068.0</ele>
        <time>2017-06-23T14:52:19Z</time>
      </trkpt>
      <trkpt lat="42.283932" lon="-3.914517">
        <ele>2065.0</ele>
        <time>2017-06-23T14:52:22Z</time>
      </trkpt>
      <trkpt lat="42.284246" lon="-3.914434">
        <ele>2062.0</ele>
        <time>2017-06-23T14:52:25Z</time>
      </trkpt>
      <trkpt lat="42.284584" lon="-3.914367">
        <ele>2055.0</ele>
        <time>2017-06-23T14:52:28Z</time>
      </trkpt>
      <trkpt lat="42.284950" lon="-3.914284">
        <ele>2043.0</ele>
        <time>2017-06-23T14:52:31Z</time>
      </trkpt>
      <trkpt lat="42.285281" lon="-3.914050">
        <ele>2035.0</ele>
        <time>2017-06-23T14:52:34Z</time>
      </trkpt>
      <trkpt lat="42.285582" lon="-3.913883">
        <ele>2031.0</ele>
        <time>2017-06-23T14:52:37Z</time>
      </trkpt>
      <trkpt lat="42.285783" lon="-3.913567">
        <ele>2023.0</ele>
        <time>2017-06-23T14:52:40Z</time>
      </trkpt>
      <trkpt lat="42.286032" lon="-3.913017">
        <ele>2021.0</ele>
        <time>2017-06-23T14:52:44Z</time>
      </trkpt>
      <trkpt lat="42.286131" lon="-3.912533">
        <ele>2018.0</ele>
        <time>2017-06-23T14:52:47Z</time>
      </trkpt>
      <trkpt lat="42.286265" lon="-3.912033">
        <ele>2019.0</ele>
        <time>2017-06-23T14:52:50Z</time>
      </trkpt>
      <trkpt lat="42.286398" lon="-3.911600">
        <ele>2020.0</ele>
        <time>2017-06-23T14:52:53Z</time>
      </trkpt>
      <trkpt lat="42.286514" lon="-3.911167">
        <ele>2017.0</ele>
        <time>2017-06-23T14:52:56Z</time>
      </trkpt>
      <trkpt lat="42.286548" lon="-3.910717">
        <ele>2009.0</ele>
        <time>2017-06-23T14:52:59Z</time>
      </trkpt>
      <trkpt lat="42.286681" lon="-3.910267">
        <ele>2002.0</ele>
        <time>2017-06-23T14:53:02Z</time>
      </trkpt>
      <trkpt lat="42.286982" lon="-3.909883">
        <ele>1998.0</ele>
        <time>2017-06-23T14:53:05Z</time>
      </trkpt>
      <trkpt lat="42.287252" lon="-3.909483">
        <ele>1992.0</ele>
        <time>2017-06-23T14:53:08Z</time>
      </trkpt>
      <trkpt lat="42.287498" lon="-3.909000">
        <ele>1984.0</ele>
        <time>2017-06-23T14:53:11Z</time>
      </trkpt>
      <trkpt lat="42.287784" lon="-3.908534">
        <ele>1972.0</ele>
        <time>2017-06-23T14:53:14Z</time>
      </trkpt>
      <trkpt lat="42.288034" lon="-3.908017">
        <ele>1967.0</ele>
        <time>2017-06-23T14:53:17Z</time>
      </trkpt>
      <trkpt lat="42.288249" lon="-3.907533">
        <ele>1959.0</ele>
        <time>2017-06-23T14:53:20Z</time>
      </trkpt>
      <trkpt lat="42.288481" lon="-3.907033">
        <ele>1959.0</ele>
        <time>2017-06-23T14:53:23Z</time>
      </trkpt>
      <trkpt lat="42.288679" lon="-3.906517">
        <ele>1956.0</ele>
        <time>2017-06-23T14:53:27Z</time>
      </trkpt>
      <trkpt lat="42.288898" lon="-3.906050">
        <ele>1949.0</ele>
        <time>2017-06-23T14:53:30Z</time>
      </trkpt>
      <trkpt lat="42.289150" lon="-3.905567">
        <ele>1949.0</ele>
        <time>2017-06-23T14:53:33Z</time>
      </trkpt>
      <trkpt lat="42.289383" lon="-3.905133">
        <ele>1945.0</ele>
        <time>2017-06-23T14:53:36Z</time>
      </trkpt>
      <trkpt lat="42.289615" lon="-3.904650">
        <ele>1940.0</ele>
        <time>2017-06-23T14:53:39Z</time>
      </trkpt>
      <trkpt lat="42.289833" lon="-3.904133">
        <ele>1936.0</ele>
        <time>2017-06-23T14:53:42Z</time>
      </trkpt>
      <trkpt lat="42.289967" lon="-3.903600">
        <ele>1932.0</ele>
        <time>2017-06-23T14:53:45Z</time>
      </trkpt>
      <trkpt lat="42.290134" lon="-3.903117">
        <ele>1929.0</ele>
        <time>2017-06-23T14:53:48Z</time>
      </trkpt>
      <trkpt lat="42.290284" lon="-3.902650">
        <ele>1924.0</ele>
        <time>2017-06-23T14:53:51Z</time>
      </trkpt>
      <trkpt lat="42.290431" lon="-3.902167">
        <ele>1921.0</ele>
        <time>2017-06-23T14:53:54Z</time>
      </trkpt>
      <trkpt lat="42.290585" lon="-3.901683">
        <ele>1914.0</ele>
        <time>2017-06-23T14:53:57Z</time>
      </trkpt>
      <trkpt lat="42.290749" lon="-3.901167">
        <ele>1909.0</ele>
        <time>2017-06-23T14:54:00Z</time>
      </trkpt>
      <trkpt lat="42.290916" lon="-3.900667">
        <ele>1904.0</ele>
        <time>2017-06-23T14:54:03Z</time>
      </trkpt>
      <trkpt lat="42.291165" lon="-3.900184">
        <ele>1899.0</ele>
        <time>2017-06-23T14:54:06Z</time>
      </trkpt>
      <trkpt lat="42.291480" lon="-3.899567">
        <ele>1896.0</ele>
        <time>2017-06-23T14:54:10Z</time>
      </trkpt>
      <trkpt lat="42.291647" lon="-3.899066">
        <ele>1891.0</ele>
        <time>2017-06-23T14:54:13Z</time>
      </trkpt>
      <trkpt lat="42.291818" lon="-3.898583">
        <ele>1887.0</ele>
        <time>2017-06-23T14:54:16Z</time>
      </trkpt>
      <trkpt lat="42.292033" lon="-3.898067">
        <ele>1883.0</ele>
        <time>2017-06-23T14:54:19Z</time>
      </trkpt>
      <trkpt lat="42.292197" lon="-3.897583">
        <ele>1880.0</ele>
        <time>2017-06-23T14:54:22Z</time>
      </trkpt>
      <trkpt lat="42.292381" lon="-3.897083">
        <ele>1876.0</ele>
        <time>2017-06-23T14:54:25Z</time>
      </trkpt>
      <trkpt lat="42.292565" lon="-3.896650">
        <ele>1874.0</ele>
        <time>2017-06-23T14:54:28Z</time>
      </trkpt>
      <trkpt lat="42.292750" lon="-3.896183">
        <ele>1869.0</ele>
        <time>2017-06-23T14:54:31Z</time>
      </trkpt>
      <trkpt lat="42.292914" lon="-3.895733">
        <ele>1868.0</ele>
        <time>2017-06-23T14:54:34Z</time>
      </trkpt>
      <trkpt lat="42.293119" lon="-3.895267">
        <ele>1862.0</ele>
        <time>2017-06-23T14:54:37Z</time>
      </trkpt>
      <trkpt lat="42.293266" lon="-3.894766">
        <ele>1862.0</ele>
        <time>2017-06-23T14:54:40Z</time>
      </trkpt>
      <trkpt lat="42.293450" lon="-3.894316">
        <ele>1861.0</ele>
        <time>2017-06-23T14:54:43Z</time>
      </trkpt>
      <trkpt lat="42.293597" lon="-3.893817">
        <ele>1863.0</ele>
        <time>2017-06-23T14:54:46Z</time>
      </trkpt>
      <trkpt lat="42.293730" lon="-3.893233">
        <ele>1862.0</ele>
        <time>2017-06-23T14:54:50Z</time>
      </trkpt>
      <trkpt lat="42.293716" lon="-3.892816">
        <ele>1857.0</ele>
        <time>2017-06-23T14:54:53Z</time>
      </trkpt>
      <trkpt lat="42.293597" lon="-3.892433">
        <ele>1852.0</ele>
        <time>2017-06-23T14:54:56Z</time>
      </trkpt>
      <trkpt lat="42.293399" lon="-3.892316">
        <ele>1848.0</ele>
        <time>2017-06-23T14:54:59Z</time>
      </trkpt>
      <trkpt lat="42.293266" lon="-3.892416">
        <ele>1845.0</ele>
        <time>2017-06-23T14:55:02Z</time>
      </trkpt>
      <trkpt lat="42.293231" lon="-3.892600">
        <ele>1846.0</ele>
        <time>2017-06-23T14:55:05Z</time>
      </trkpt>
      <trkpt lat="42.293146" lon="-3.892667">
        <ele>1844.0</ele>
        <time>2017-06-23T14:55:08Z</time>
      </trkpt>
      <trkpt lat="42.293081" lon="-3.892816">
        <ele>1842.0</ele>
        <time>2017-06-23T14:55:11Z</time>
      </trkpt>
      <trkpt lat="42.293033" lon="-3.892983">
        <ele>1840.0</ele>
        <time>2017-06-23T14:55:14Z</time>
      </trkpt>
      <trkpt lat="42.293119" lon="-3.893200">
        <ele>1837.0</ele>
        <time>2017-06-23T14:55:17Z</time>
      </trkpt>
      <trkpt lat="42.293283" lon="-3.893400">
        <ele>1832.0</ele>
        <time>2017-06-23T14:55:20Z</time>
      </trkpt>
      <trkpt lat="42.293631" lon="-3.893500">
        <ele>1830.0</ele>
        <time>2017-06-23T14:55:23Z</time>
      </trkpt>
      <trkpt lat="42.294068" lon="-3.893350">
        <ele>1829.0</ele>
        <time>2017-06-23T14:55:26Z</time>
      </trkpt>
      <trkpt lat="42.294447" lon="-3.893150">
        <ele>1830.0</ele>
        <time>2017-06-23T14:55:29Z</time>
      </trkpt>
      <trkpt lat="42.294949" lon="-3.892983">
        <ele>1831.0</ele>
        <time>2017-06-23T14:55:33Z</time>
      </trkpt>
      <trkpt lat="42.295298" lon="-3.892833">
        <ele>1829.0</ele>
        <time>2017-06-23T14:55:36Z</time>
      </trkpt>
      <trkpt lat="42.295649" lon="-3.892650">
        <ele>1827.0</ele>
        <time>2017-06-23T14:55:39Z</time>
      </trkpt>
      <trkpt lat="42.295967" lon="-3.892333">
        <ele>1824.0</ele>
        <time>2017-06-23T14:55:42Z</time>
      </trkpt>
      <trkpt lat="42.296285" lon="-3.891966">
        <ele>1821.0</ele>
        <time>2017-06-23T14:55:45Z</time>
      </trkpt>
      <trkpt lat="42.296551" lon="-3.891633">
        <ele>1823.0</ele>
        <time>2017-06-23T14:55:48Z</time>
      </trkpt>
      <trkpt lat="42.296834" lon="-3.891367">
        <ele>1820.0</ele>
        <time>2017-06-23T14:55:51Z</time>
      </trkpt>
      <trkpt lat="42.297166" lon="-3.891033">
        <ele>1822.0</ele>
        <time>2017-06-23T14:55:54Z</time>
      </trkpt>
      <trkpt lat="42.297415" lon="-3.890700">
        <ele>1823.0</ele>
        <time>2017-06-23T14:55:57Z</time>
      </trkpt>
      <trkpt lat="42.297586" lon="-3.890250">
        <ele>1819.0</ele>
        <time>2017-06-23T14:56:00Z</time>
      </trkpt>
      <trkpt lat="42.297565" lon="-3.889733">
        <ele>1818.0</ele>
        <time>2017-06-23T14:56:03Z</time>
      </trkpt>
      <trkpt lat="42.297398" lon="-3.889416">
        <ele>1819.0</ele>
        <time>2017-06-23T14:56:06Z</time>
      </trkpt>
      <trkpt lat="42.297213" lon="-3.889167">
        <ele>1820.0</ele>
        <time>2017-06-23T14:56:09Z</time>
      </trkpt>
      <trkpt lat="42.297050" lon="-3.888967">
        <ele>1819.0</ele>
        <time>2017-06-23T14:56:12Z</time>
      </trkpt>
      <trkpt lat="42.296834" lon="-3.888717">
        <ele>1819.0</ele>
        <time>2017-06-23T14:56:16Z</time>
      </trkpt>
      <trkpt lat="42.296664" lon="-3.888550">
        <ele>1820.0</ele>
        <time>2017-06-23T14:56:19Z</time>
      </trkpt>
      <trkpt lat="42.296500" lon="-3.888400">
        <ele>1820.0</ele>
        <time>2017-06-23T14:56:22Z</time>
      </trkpt>
      <trkpt lat="42.296349" lon="-3.888267">
        <ele>1817.0</ele>
        <time>2017-06-23T14:56:25Z</time>
      </trkpt>
      <trkpt lat="42.296199" lon="-3.888150">
        <ele>1815.0</ele>
        <time>2017-06-23T14:56:28Z</time>
      </trkpt>
      <trkpt lat="42.296080" lon="-3.888083">
        <ele>1816.0</ele>
        <time>2017-06-23T14:56:31Z</time>
      </trkpt>
      <trkpt lat="42.296015" lon="-3.888083">
        <ele>1817.0</ele>
        <time>2017-06-23T14:56:34Z</time>
      </trkpt>
      <trkpt lat="42.295998" lon="-3.888150">
        <ele>1817.0</ele>
        <time>2017-06-23T14:56:37Z</time>
      </trkpt>
      <trkpt lat="42.296131" lon="-3.888250">
        <ele>1818.0</ele>
        <time>2017-06-23T14:56:40Z</time>
      </trkpt>
      <trkpt lat="42.296431" lon="-3.888267">
        <ele>1816.0</ele>
        <time>2017-06-23T14:56:43Z</time>
      </trkpt>
      <trkpt lat="42.296763" lon="-3.888016">
        <ele>1821.0</ele>
        <time>2017-06-23T14:56:46Z</time>
      </trkpt>
      <trkpt lat="42.297032" lon="-3.887650">
        <ele>1823.0</ele>
        <time>2017-06-23T14:56:49Z</time>
      </trkpt>
      <trkpt lat="42.297234" lon="-3.887167">
        <ele>1823.0</ele>
        <time>2017-06-23T14:56:52Z</time>
      </trkpt>
      <trkpt lat="42.297234" lon="-3.886483">
        <ele>1818.0</ele>
        <time>2017-06-23T14:56:56Z</time>
      </trkpt>
      <trkpt lat="42.297080" lon="-3.886150">
        <ele>1817.0</ele>
        <time>2017-06-23T14:56:59Z</time>
      </trkpt>
      <trkpt lat="42.296933" lon="-3.886066">
        <ele>1812.0</ele>
        <time>2017-06-23T14:57:02Z</time>
      </trkpt>
      <trkpt lat="42.296783" lon="-3.886200">
        <ele>1813.0</ele>
        <time>2017-06-23T14:57:05Z</time>
      </trkpt>
      <trkpt lat="42.296664" lon="-3.886250">
        <ele>1816.0</ele>
        <time>2017-06-23T14:57:08Z</time>
      </trkpt>
      <trkpt lat="42.296565" lon="-3.886350">
        <ele>1818.0</ele>
        <time>2017-06-23T14:57:11Z</time>
      </trkpt>
      <trkpt lat="42.296483" lon="-3.886400">
        <ele>1819.0</ele>
        <time>2017-06-23T14:57:14Z</time>
      </trkpt>
      <trkpt lat="42.296431" lon="-3.886450">
        <ele>1815.0</ele>
        <time>2017-06-23T14:57:17Z</time>
      </trkpt>
      <trkpt lat="42.296397" lon="-3.886550">
        <ele>1809.0</ele>
        <time>2017-06-23T14:57:20Z</time>
      </trkpt>
      <trkpt lat="42.296530" lon="-3.886683">
        <ele>1801.0</ele>
        <time>2017-06-23T14:57:23Z</time>
      </trkpt>
      <trkpt lat="42.296848" lon="-3.886616">
        <ele>1791.0</ele>
        <time>2017-06-23T14:57:26Z</time>
      </trkpt>
      <trkpt lat="42.297183" lon="-3.886317">
        <ele>1785.0</ele>
        <time>2017-06-23T14:57:29Z</time>
      </trkpt>
      <trkpt lat="42.297480" lon="-3.885950">
        <ele>1783.0</ele>
        <time>2017-06-23T14:57:32Z</time>
      </trkpt>
      <trkpt lat="42.297719" lon="-3.885567">
        <ele>1780.0</ele>
        <time>2017-06-23T14:57:35Z</time>
      </trkpt>
      <trkpt lat="42.297900" lon="-3.884933">
        <ele>1782.0</ele>
        <time>2017-06-23T14:57:39Z</time>
      </trkpt>
      <trkpt lat="42.298050" lon="-3.884500">
        <ele>1783.0</ele>
        <time>2017-06-23T14:57:42Z</time>
      </trkpt>
      <trkpt lat="42.298163" lon="-3.884066">
        <ele>1785.0</ele>
        <time>2017-06-23T14:57:45Z</time>
      </trkpt>
      <trkpt lat="42.298248" lon="-3.883666">
        <ele>1785.0</ele>
        <time>2017-06-23T14:57:48Z</time>
      </trkpt>
      <trkpt lat="42.298231" lon="-3.883300">
        <ele>1779.0</ele>
        <time>2017-06-23T14:57:51Z</time>
      </trkpt>
      <trkpt lat="42.298064" lon="-3.883033">
        <ele>1776.0</ele>
        <time>2017-06-23T14:57:54Z</time>
      </trkpt>
      <trkpt lat="42.297931" lon="-3.883117">
        <ele>1773.0</ele>
        <time>2017-06-23T14:57:57Z</time>
      </trkpt>
      <trkpt lat="42.297866" lon="-3.883300">
        <ele>1776.0</ele>
        <time>2017-06-23T14:58:00Z</time>
      </trkpt>
      <trkpt lat="42.297900" lon="-3.883483">
        <ele>1776.0</ele>
        <time>2017-06-23T14:58:03Z</time>
      </trkpt>
      <trkpt lat="42.297951" lon="-3.883666">
        <ele>1780.0</ele>
        <time>2017-06-23T14:58:06Z</time>
      </trkpt>
      <trkpt lat="42.298033" lon="-3.883816">
        <ele>1781.0</ele>
        <time>2017-06-23T14:58:09Z</time>
      </trkpt>
      <trkpt lat="42.298217" lon="-3.883933">
        <ele>1780.0</ele>
        <time>2017-06-23T14:58:12Z</time>
      </trkpt>
      <trkpt lat="42.298515" lon="-3.883883">
        <ele>1775.0</ele>
        <time>2017-06-23T14:58:15Z</time>
      </trkpt>
      <trkpt lat="42.298849" lon="-3.883617">
        <ele>1773.0</ele>
        <time>2017-06-23T14:58:18Z</time>
      </trkpt>
      <trkpt lat="42.299150" lon="-3.883017">
        <ele>1774.0</ele>
        <time>2017-06-23T14:58:22Z</time>
      </trkpt>
      <trkpt lat="42.299266" lon="-3.882567">
        <ele>1777.0</ele>
        <time>2017-06-23T14:58:25Z</time>
      </trkpt>
      <trkpt lat="42.299382" lon="-3.882134">
        <ele>1777.0</ele>
        <time>2017-06-23T14:58:28Z</time>
      </trkpt>
      <trkpt lat="42.299450" lon="-3.881683">
        <ele>1777.0</ele>
        <time>2017-06-23T14:58:31Z</time>
      </trkpt>
      <trkpt lat="42.299515" lon="-3.881233">
        <ele>1775.0</ele>
        <time>2017-06-23T14:58:34Z</time>
      </trkpt>
      <trkpt lat="42.299563" lon="-3.880767">
        <ele>1772.0</ele>
        <time>2017-06-23T14:58:37Z</time>
      </trkpt>
      <trkpt lat="42.299549" lon="-3.880333">
        <ele>1768.0</ele>
        <time>2017-06-23T14:58:40Z</time>
      </trkpt>
      <trkpt lat="42.299399" lon="-3.880017">
        <ele>1762.0</ele>
        <time>2017-06-23T14:58:43Z</time>
      </trkpt>
      <trkpt lat="42.299218" lon="-3.880000">
        <ele>1755.0</ele>
        <time>2017-06-23T14:58:46Z</time>
      </trkpt>
      <trkpt lat="42.299133" lon="-3.880233">
        <ele>1754.0</ele>
        <time>2017-06-23T14:58:49Z</time>
      </trkpt>
      <trkpt lat="42.299051" lon="-3.880400">
        <ele>1751.0</ele>
        <time>2017-06-23T14:58:52Z</time>
      </trkpt>
      <trkpt lat="42.298965" lon="-3.880584">
        <ele>1753.0</ele>
        <time>2017-06-23T14:58:55Z</time>
      </trkpt>
      <trkpt lat="42.298849" lon="-3.880784">
        <ele>1753.0</ele>
        <time>2017-06-23T14:58:59Z</time>
      </trkpt>
      <trkpt lat="42.298747" lon="-3.880917">
        <ele>1754.0</ele>
        <time>2017-06-23T14:59:02Z</time>
      </trkpt>
      <trkpt lat="42.298648" lon="-3.881033">
        <ele>1754.0</ele>
        <time>2017-06-23T14:59:05Z</time>
      </trkpt>
      <trkpt lat="42.298515" lon="-3.881150">
        <ele>1751.0</ele>
        <time>2017-06-23T14:59:08Z</time>
      </trkpt>
      <trkpt lat="42.298368" lon="-3.881284">
        <ele>1750.0</ele>
        <time>2017-06-23T14:59:11Z</time>
      </trkpt>
      <trkpt lat="42.298296" lon="-3.881433">
        <ele>1749.0</ele>
        <time>2017-06-23T14:59:14Z</time>
      </trkpt>
      <trkpt lat="42.298217" lon="-3.881617">
        <ele>1746.0</ele>
        <time>2017-06-23T14:59:17Z</time>
      </trkpt>
      <trkpt lat="42.298183" lon="-3.881833">
        <ele>1747.0</ele>
        <time>2017-06-23T14:59:20Z</time>
      </trkpt>
      <trkpt lat="42.298217" lon="-3.882033">
        <ele>1747.0</ele>
        <time>2017-06-23T14:59:23Z</time>
      </trkpt>
      <trkpt lat="42.298183" lon="-3.882150">
        <ele>1742.0</ele>
        <time>2017-06-23T14:59:26Z</time>
      </trkpt>
      <trkpt lat="42.298064" lon="-3.882100">
        <ele>1730.0</ele>
        <time>2017-06-23T14:59:29Z</time>
      </trkpt>
      <trkpt lat="42.297965" lon="-3.882017">
        <ele>1721.0</ele>
        <time>2017-06-23T14:59:32Z</time>
      </trkpt>
      <trkpt lat="42.297797" lon="-3.881833">
        <ele>1716.0</ele>
        <time>2017-06-23T14:59:35Z</time>
      </trkpt>
      <trkpt lat="42.297733" lon="-3.881550">
        <ele>1710.0</ele>
        <time>2017-06-23T14:59:38Z</time>
      </trkpt>
      <trkpt lat="42.297866" lon="-3.881050">
        <ele>1706.0</ele>
        <time>2017-06-23T14:59:42Z</time>
      </trkpt>
      <trkpt lat="42.298084" lon="-3.880717">
        <ele>1702.0</ele>
        <time>2017-06-23T14:59:45Z</time>
      </trkpt>
      <trkpt lat="42.298381" lon="-3.880350">
        <ele>1697.0</ele>
        <time>2017-06-23T14:59:48Z</time>
      </trkpt>
      <trkpt lat="42.298682" lon="-3.879983">
        <ele>1697.0</ele>
        <time>2017-06-23T14:59:51Z</time>
      </trkpt>
      <trkpt lat="42.298931" lon="-3.879600">
        <ele>1695.0</ele>
        <time>2017-06-23T14:59:54Z</time>
      </trkpt>
      <trkpt lat="42.299218" lon="-3.879267">
        <ele>1695.0</ele>
        <time>2017-06-23T14:59:57Z</time>
      </trkpt>
      <trkpt lat="42.299498" lon="-3.878967">
        <ele>1694.0</ele>
        <time>2017-06-23T15:00:00Z</time>
      </trkpt>
      <trkpt lat="42.299765" lon="-3.878683">
        <ele>1695.0</ele>
        <time>2017-06-23T15:00:03Z</time>
      </trkpt>
      <trkpt lat="42.300000" lon="-3.878400">
        <ele>1695.0</ele>
        <time>2017-06-23T15:00:06Z</time>
      </trkpt>
      <trkpt lat="42.300249" lon="-3.878083">
        <ele>1696.0</ele>
        <time>2017-06-23T15:00:09Z</time>
      </trkpt>
      <trkpt lat="42.300448" lon="-3.877750">
        <ele>1695.0</ele>
        <time>2017-06-23T15:00:12Z</time>
      </trkpt>
      <trkpt lat="42.300632" lon="-3.877384">
        <ele>1691.0</ele>
        <time>2017-06-23T15:00:15Z</time>
      </trkpt>
      <trkpt lat="42.300751" lon="-3.876966">
        <ele>1691.0</ele>
        <time>2017-06-23T15:00:18Z</time>
      </trkpt>
      <trkpt lat="42.300932" lon="-3.876584">
        <ele>1688.0</ele>
        <time>2017-06-23T15:00:21Z</time>
      </trkpt>
      <trkpt lat="42.301148" lon="-3.876167">
        <ele>1681.0</ele>
        <time>2017-06-23T15:00:24Z</time>
      </trkpt>
      <trkpt lat="42.301349" lon="-3.875500">
        <ele>1678.0</ele>
        <time>2017-06-23T15:00:28Z</time>
      </trkpt>
      <trkpt lat="42.301465" lon="-3.875034">
        <ele>1675.0</ele>
        <time>2017-06-23T15:00:31Z</time>
      </trkpt>
      <trkpt lat="42.301581" lon="-3.874567">
        <ele>1670.0</ele>
        <time>2017-06-23T15:00:34Z</time>
      </trkpt>
      <trkpt lat="42.301732" lon="-3.874083">
        <ele>1666.0</ele>
        <time>2017-06-23T15:00:37Z</time>
      </trkpt>
      <trkpt lat="42.301834" lon="-3.873650">
        <ele>1661.0</ele>
        <time>2017-06-23T15:00:40Z</time>
      </trkpt>
      <trkpt lat="42.301947" lon="-3.873167">
        <ele>1653.0</ele>
        <time>2017-06-23T15:00:43Z</time>
      </trkpt>
      <trkpt lat="42.302117" lon="-3.872700">
        <ele>1649.0</ele>
        <time>2017-06-23T15:00:46Z</time>
      </trkpt>
      <trkpt lat="42.302264" lon="-3.872233">
        <ele>1641.0</ele>
        <time>2017-06-23T15:00:49Z</time>
      </trkpt>
      <trkpt lat="42.302466" lon="-3.871717">
        <ele>1635.0</ele>
        <time>2017-06-23T15:00:52Z</time>
      </trkpt>
      <trkpt lat="42.302630" lon="-3.871200">
        <ele>1630.0</ele>
        <time>2017-06-23T15:00:55Z</time>
      </trkpt>
      <trkpt lat="42.302801" lon="-3.870717">
        <ele>1626.0</ele>
        <time>2017-06-23T15:00:58Z</time>
      </trkpt>
      <trkpt lat="42.302982" lon="-3.870217">
        <ele>1630.0</ele>
        <time>2017-06-23T15:01:01Z</time>
      </trkpt>
      <trkpt lat="42.303132" lon="-3.869767">
        <ele>1631.0</ele>
        <time>2017-06-23T15:01:04Z</time>
      </trkpt>
      <trkpt lat="42.303166" lon="-3.869134">
        <ele>1630.0</ele>
        <time>2017-06-23T15:01:08Z</time>
      </trkpt>
      <trkpt lat="42.302999" lon="-3.868933">
        <ele>1628.0</ele>
        <time>2017-06-23T15:01:11Z</time>
      </trkpt>
      <trkpt lat="42.302917" lon="-3.869000">
        <ele>1625.0</ele>
        <time>2017-06-23T15:01:14Z</time>
      </trkpt>
      <trkpt lat="42.302835" lon="-3.869083">
        <ele>1621.0</ele>
        <time>2017-06-23T15:01:17Z</time>
      </trkpt>
      <trkpt lat="42.302934" lon="-3.869267">
        <ele>1619.0</ele>
        <time>2017-06-23T15:01:20Z</time>
      </trkpt>
      <trkpt lat="42.303149" lon="-3.869384">
        <ele>1622.0</ele>
        <time>2017-06-23T15:01:23Z</time>
      </trkpt>
      <trkpt lat="42.303381" lon="-3.869450">
        <ele>1624.0</ele>
        <time>2017-06-23T15:01:26Z</time>
      </trkpt>
      <trkpt lat="42.303600" lon="-3.869417">
        <ele>1621.0</ele>
        <time>2017-06-23T15:01:29Z</time>
      </trkpt>
      <trkpt lat="42.303798" lon="-3.869500">
        <ele>1614.0</ele>
        <time>2017-06-23T15:01:32Z</time>
      </trkpt>
      <trkpt lat="42.303630" lon="-3.869550">
        <ele>1607.0</ele>
        <time>2017-06-23T15:01:35Z</time>
      </trkpt>
      <trkpt lat="42.303480" lon="-3.869150">
        <ele>1603.0</ele>
        <time>2017-06-23T15:01:38Z</time>
      </trkpt>
      <trkpt lat="42.303518" lon="-3.868684">
        <ele>1599.0</ele>
        <time>2017-06-23T15:01:41Z</time>
      </trkpt>
      <trkpt lat="42.303685" lon="-3.868183">
        <ele>1596.0</ele>
        <time>2017-06-23T15:01:44Z</time>
      </trkpt>
      <trkpt lat="42.303866" lon="-3.867717">
        <ele>1597.0</ele>
        <time>2017-06-23T15:01:47Z</time>
      </trkpt>
      <trkpt lat="42.304163" lon="-3.867133">
        <ele>1592.0</ele>
        <time>2017-06-23T15:01:51Z</time>
      </trkpt>
      <trkpt lat="42.304382" lon="-3.866650">
        <ele>1594.0</ele>
        <time>2017-06-23T15:01:54Z</time>
      </trkpt>
      <trkpt lat="42.304580" lon="-3.866300">
        <ele>1590.0</ele>
        <time>2017-06-23T15:01:57Z</time>
      </trkpt>
      <trkpt lat="42.304846" lon="-3.865883">
        <ele>1580.0</ele>
        <time>2017-06-23T15:02:00Z</time>
      </trkpt>
      <trkpt lat="42.305017" lon="-3.865383">
        <ele>1581.0</ele>
        <time>2017-06-23T15:02:03Z</time>
      </trkpt>
      <trkpt lat="42.305150" lon="-3.864967">
        <ele>1579.0</ele>
        <time>2017-06-23T15:02:06Z</time>
      </trkpt>
      <trkpt lat="42.305331" lon="-3.864516">
        <ele>1575.0</ele>
        <time>2017-06-23T15:02:09Z</time>
      </trkpt>
      <trkpt lat="42.305464" lon="-3.864033">
        <ele>1572.0</ele>
        <time>2017-06-23T15:02:12Z</time>
      </trkpt>
      <trkpt lat="42.305533" lon="-3.863533">
        <ele>1569.0</ele>
        <time>2017-06-23T15:02:15Z</time>
      </trkpt>
      <trkpt lat="42.305632" lon="-3.863050">
        <ele>1566.0</ele>
        <time>2017-06-23T15:02:18Z</time>
      </trkpt>
      <trkpt lat="42.305768" lon="-3.862533">
        <ele>1562.0</ele>
        <time>2017-06-23T15:02:21Z</time>
      </trkpt>
      <trkpt lat="42.305901" lon="-3.862000">
        <ele>1559.0</ele>
        <time>2017-06-23T15:02:24Z</time>
      </trkpt>
      <trkpt lat="42.305966" lon="-3.861533">
        <ele>1552.0</ele>
        <time>2017-06-23T15:02:27Z</time>
      </trkpt>
      <trkpt lat="42.306082" lon="-3.861016">
        <ele>1544.0</ele>
        <time>2017-06-23T15:02:30Z</time>
      </trkpt>
      <trkpt lat="42.306168" lon="-3.860317">
        <ele>1538.0</ele>
        <time>2017-06-23T15:02:34Z</time>
      </trkpt>
      <trkpt lat="42.306332" lon="-3.859783">
        <ele>1528.0</ele>
        <time>2017-06-23T15:02:37Z</time>
      </trkpt>
      <trkpt lat="42.306499" lon="-3.859267">
        <ele>1520.0</ele>
        <time>2017-06-23T15:02:40Z</time>
      </trkpt>
      <trkpt lat="42.306697" lon="-3.858767">
        <ele>1509.0</ele>
        <time>2017-06-23T15:02:43Z</time>
      </trkpt>
      <trkpt lat="42.306882" lon="-3.858233">
        <ele>1500.0</ele>
        <time>2017-06-23T15:02:46Z</time>
      </trkpt>
      <trkpt lat="42.307049" lon="-3.857733">
        <ele>1493.0</ele>
        <time>2017-06-23T15:02:49Z</time>
      </trkpt>
      <trkpt lat="42.307230" lon="-3.857250">
        <ele>1483.0</ele>
        <time>2017-06-23T15:02:52Z</time>
      </trkpt>
      <trkpt lat="42.307448" lon="-3.856750">
        <ele>1476.0</ele>
        <time>2017-06-23T15:02:55Z</time>
      </trkpt>
      <trkpt lat="42.307633" lon="-3.856250">
        <ele>1467.0</ele>
        <time>2017-06-23T15:02:58Z</time>
      </trkpt>
      <trkpt lat="42.307848" lon="-3.855783">
        <ele>1459.0</ele>
        <time>2017-06-23T15:03:01Z</time>
      </trkpt>
      <trkpt lat="42.308050" lon="-3.855267">
        <ele>1456.0</ele>
        <time>2017-06-23T15:03:04Z</time>
      </trkpt>
      <trkpt lat="42.308231" lon="-3.854783">
        <ele>1451.0</ele>
        <time>2017-06-23T15:03:07Z</time>
      </trkpt>
      <trkpt lat="42.308415" lon="-3.854316">
        <ele>1445.0</ele>
        <time>2017-06-23T15:03:10Z</time>
      </trkpt>
      <trkpt lat="42.308616" lon="-3.853583">
        <ele>1440.0</ele>
        <time>2017-06-23T15:03:14Z</time>
      </trkpt>
      <trkpt lat="42.308702" lon="-3.853016">
        <ele>1432.0</ele>
        <time>2017-06-23T15:03:17Z</time>
      </trkpt>
      <trkpt lat="42.308801" lon="-3.852383">
        <ele>1426.0</ele>
        <time>2017-06-23T15:03:20Z</time>
      </trkpt>
      <trkpt lat="42.308849" lon="-3.851816">
        <ele>1423.0</ele>
        <time>2017-06-23T15:03:23Z</time>
      </trkpt>
      <trkpt lat="42.308948" lon="-3.851300">
        <ele>1420.0</ele>
        <time>2017-06-23T15:03:26Z</time>
      </trkpt>
      <trkpt lat="42.309101" lon="-3.850767">
        <ele>1414.0</ele>
        <time>2017-06-23T15:03:29Z</time>
      </trkpt>
      <trkpt lat="42.309214" lon="-3.850216">
        <ele>1408.0</ele>
        <time>2017-06-23T15:03:32Z</time>
      </trkpt>
      <trkpt lat="42.309347" lon="-3.849683">
        <ele>1404.0</ele>
        <time>2017-06-23T15:03:35Z</time>
      </trkpt>
      <trkpt lat="42.309484" lon="-3.849133">
        <ele>1399.0</ele>
        <time>2017-06-23T15:03:38Z</time>
      </trkpt>
      <trkpt lat="42.309631" lon="-3.848600">
        <ele>1397.0</ele>
        <time>2017-06-23T15:03:41Z</time>
      </trkpt>
      <trkpt lat="42.309764" lon="-3.848067">
        <ele>1394.0</ele>
        <time>2017-06-23T15:03:44Z</time>
      </trkpt>
      <trkpt lat="42.309931" lon="-3.847533">
        <ele>1392.0</ele>
        <time>2017-06-23T15:03:47Z</time>
      </trkpt>
      <trkpt lat="42.310099" lon="-3.847017">
        <ele>1387.0</ele>
        <time>2017-06-23T15:03:50Z</time>
      </trkpt>
      <trkpt lat="42.310348" lon="-3.846316">
        <ele>1383.0</ele>
        <time>2017-06-23T15:03:54Z</time>
      </trkpt>
      <trkpt lat="42.310532" lon="-3.845833">
        <ele>1377.0</ele>
        <time>2017-06-23T15:03:57Z</time>
      </trkpt>
      <trkpt lat="42.310734" lon="-3.845300">
        <ele>1371.0</ele>
        <time>2017-06-23T15:04:00Z</time>
      </trkpt>
      <trkpt lat="42.310932" lon="-3.844783">
        <ele>1366.0</ele>
        <time>2017-06-23T15:04:03Z</time>
      </trkpt>
      <trkpt lat="42.311133" lon="-3.844267">
        <ele>1358.0</ele>
        <time>2017-06-23T15:04:06Z</time>
      </trkpt>
      <trkpt lat="42.311318" lon="-3.843733">
        <ele>1352.0</ele>
        <time>2017-06-23T15:04:09Z</time>
      </trkpt>
      <trkpt lat="42.311482" lon="-3.843283">
        <ele>1343.0</ele>
        <time>2017-06-23T15:04:12Z</time>
      </trkpt>
      <trkpt lat="42.311598" lon="-3.842733">
        <ele>1330.0</ele>
        <time>2017-06-23T15:04:15Z</time>
      </trkpt>
      <trkpt lat="42.311714" lon="-3.842200">
        <ele>1325.0</ele>
        <time>2017-06-23T15:04:18Z</time>
      </trkpt>
      <trkpt lat="42.311833" lon="-3.841650">
        <ele>1314.0</ele>
        <time>2017-06-23T15:04:21Z</time>
      </trkpt>
      <trkpt lat="42.311967" lon="-3.841100">
        <ele>1308.0</ele>
        <time>2017-06-23T15:04:24Z</time>
      </trkpt>
      <trkpt lat="42.312032" lon="-3.840567">
        <ele>1299.0</ele>
        <time>2017-06-23T15:04:27Z</time>
      </trkpt>
      <trkpt lat="42.312114" lon="-3.840000">
        <ele>1296.0</ele>
        <time>2017-06-23T15:04:30Z</time>
      </trkpt>
      <trkpt lat="42.312199" lon="-3.839500">
        <ele>1290.0</ele>
        <time>2017-06-23T15:04:33Z</time>
      </trkpt>
      <trkpt lat="42.312366" lon="-3.838783">
        <ele>1290.0</ele>
        <time>2017-06-23T15:04:37Z</time>
      </trkpt>
      <trkpt lat="42.312499" lon="-3.838400">
        <ele>1295.0</ele>
        <time>2017-06-23T15:04:40Z</time>
      </trkpt>
      <trkpt lat="42.312718" lon="-3.838016">
        <ele>1294.0</ele>
        <time>2017-06-23T15:04:43Z</time>
      </trkpt>
      <trkpt lat="42.312930" lon="-3.837600">
        <ele>1295.0</ele>
        <time>2017-06-23T15:04:46Z</time>
      </trkpt>
      <trkpt lat="42.313063" lon="-3.837183">
        <ele>1293.0</ele>
        <time>2017-06-23T15:04:49Z</time>
      </trkpt>
      <trkpt lat="42.313234" lon="-3.836750">
        <ele>1291.0</ele>
        <time>2017-06-23T15:04:52Z</time>
      </trkpt>
      <trkpt lat="42.313381" lon="-3.836300">
        <ele>1289.0</ele>
        <time>2017-06-23T15:04:55Z</time>
      </trkpt>
      <trkpt lat="42.313500" lon="-3.835850">
        <ele>1288.0</ele>
        <time>2017-06-23T15:04:58Z</time>
      </trkpt>
      <trkpt lat="42.313667" lon="-3.835433">
        <ele>1286.0</ele>
        <time>2017-06-23T15:05:01Z</time>
      </trkpt>
      <trkpt lat="42.313865" lon="-3.835050">
        <ele>1286.0</ele>
        <time>2017-06-23T15:05:04Z</time>
      </trkpt>
      <trkpt lat="42.314084" lon="-3.834700">
        <ele>1279.0</ele>
        <time>2017-06-23T15:05:07Z</time>
      </trkpt>
      <trkpt lat="42.314217" lon="-3.834217">
        <ele>1274.0</ele>
        <time>2017-06-23T15:05:10Z</time>
      </trkpt>
      <trkpt lat="42.314350" lon="-3.833750">
        <ele>1274.0</ele>
        <time>2017-06-23T15:05:13Z</time>
      </trkpt>
      <trkpt lat="42.314497" lon="-3.833300">
        <ele>1272.0</ele>
        <time>2017-06-23T15:05:16Z</time>
      </trkpt>
      <trkpt lat="42.314849" lon="-3.832783">
        <ele>1270.0</ele>
        <time>2017-06-23T15:05:20Z</time>
      </trkpt>
      <trkpt lat="42.315033" lon="-3.832367">
        <ele>1274.0</ele>
        <time>2017-06-23T15:05:23Z</time>
      </trkpt>
      <trkpt lat="42.315132" lon="-3.832017">
        <ele>1283.0</ele>
        <time>2017-06-23T15:05:26Z</time>
      </trkpt>
      <trkpt lat="42.315201" lon="-3.831633">
        <ele>1282.0</ele>
        <time>2017-06-23T15:05:29Z</time>
      </trkpt>
      <trkpt lat="42.315146" lon="-3.831483">
        <ele>1281.0</ele>
        <time>2017-06-23T15:05:32Z</time>
      </trkpt>
      <trkpt lat="42.315266" lon="-3.831683">
        <ele>1281.0</ele>
        <time>2017-06-23T15:05:35Z</time>
      </trkpt>
      <trkpt lat="42.315498" lon="-3.831800">
        <ele>1283.0</ele>
        <time>2017-06-23T15:05:38Z</time>
      </trkpt>
      <trkpt lat="42.315764" lon="-3.831917">
        <ele>1286.0</ele>
        <time>2017-06-23T15:05:41Z</time>
      </trkpt>
      <trkpt lat="42.316048" lon="-3.831883">
        <ele>1283.0</ele>
        <time>2017-06-23T15:05:44Z</time>
      </trkpt>
      <trkpt lat="42.316348" lon="-3.831800">
        <ele>1274.0</ele>
        <time>2017-06-23T15:05:47Z</time>
      </trkpt>
      <trkpt lat="42.316567" lon="-3.831450">
        <ele>1266.0</ele>
        <time>2017-06-23T15:05:50Z</time>
      </trkpt>
      <trkpt lat="42.316649" lon="-3.830950">
        <ele>1257.0</ele>
        <time>2017-06-23T15:05:53Z</time>
      </trkpt>
      <trkpt lat="42.316546" lon="-3.830517">
        <ele>1250.0</ele>
        <time>2017-06-23T15:05:56Z</time>
      </trkpt>
      <trkpt lat="42.316399" lon="-3.829950">
        <ele>1246.0</ele>
        <time>2017-06-23T15:06:00Z</time>
      </trkpt>
      <trkpt lat="42.316314" lon="-3.829533">
        <ele>1245.0</ele>
        <time>2017-06-23T15:06:03Z</time>
      </trkpt>
      <trkpt lat="42.316283" lon="-3.829150">
        <ele>1247.0</ele>
        <time>2017-06-23T15:06:06Z</time>
      </trkpt>
      <trkpt lat="42.316314" lon="-3.828767">
        <ele>1244.0</ele>
        <time>2017-06-23T15:06:09Z</time>
      </trkpt>
      <trkpt lat="42.316335" lon="-3.828350">
        <ele>1245.0</ele>
        <time>2017-06-23T15:06:12Z</time>
      </trkpt>
      <trkpt lat="42.316365" lon="-3.827950">
        <ele>1245.0</ele>
        <time>2017-06-23T15:06:15Z</time>
      </trkpt>
      <trkpt lat="42.316348" lon="-3.827633">
        <ele>1245.0</ele>
        <time>2017-06-23T15:06:18Z</time>
      </trkpt>
      <trkpt lat="42.316283" lon="-3.827400">
        <ele>1243.0</ele>
        <time>2017-06-23T15:06:21Z</time>
      </trkpt>
      <trkpt lat="42.316249" lon="-3.827050">
        <ele>1243.0</ele>
        <time>2017-06-23T15:06:24Z</time>
      </trkpt>
      <trkpt lat="42.316215" lon="-3.826683">
        <ele>1244.0</ele>
        <time>2017-06-23T15:06:27Z</time>
      </trkpt>
      <trkpt lat="42.316215" lon="-3.826283">
        <ele>1243.0</ele>
        <time>2017-06-23T15:06:30Z</time>
      </trkpt>
      <trkpt lat="42.316167" lon="-3.825900">
        <ele>1243.0</ele>
        <time>2017-06-23T15:06:33Z</time>
      </trkpt>
      <trkpt lat="42.316167" lon="-3.825483">
        <ele>1245.0</ele>
        <time>2017-06-23T15:06:36Z</time>
      </trkpt>
      <trkpt lat="42.316348" lon="-3.825033">
        <ele>1245.0</ele>
        <time>2017-06-23T15:06:39Z</time>
      </trkpt>
      <trkpt lat="42.316782" lon="-3.824767">
        <ele>1241.0</ele>
        <time>2017-06-23T15:06:43Z</time>
      </trkpt>
      <trkpt lat="42.316997" lon="-3.824833">
        <ele>1232.0</ele>
        <time>2017-06-23T15:06:46Z</time>
      </trkpt>
      <trkpt lat="42.317048" lon="-3.825050">
        <ele>1221.0</ele>
        <time>2017-06-23T15:06:49Z</time>
      </trkpt>
      <trkpt lat="42.316898" lon="-3.824917">
        <ele>1217.0</ele>
        <time>2017-06-23T15:06:52Z</time>
      </trkpt>
      <trkpt lat="42.316813" lon="-3.824616">
        <ele>1216.0</ele>
        <time>2017-06-23T15:06:55Z</time>
      </trkpt>
      <trkpt lat="42.316714" lon="-3.824300">
        <ele>1219.0</ele>
        <time>2017-06-23T15:06:58Z</time>
      </trkpt>
      <trkpt lat="42.316580" lon="-3.824000">
        <ele>1222.0</ele>
        <time>2017-06-23T15:07:01Z</time>
      </trkpt>
      <trkpt lat="42.316434" lon="-3.823850">
        <ele>1223.0</ele>
        <time>2017-06-23T15:07:04Z</time>
      </trkpt>
      <trkpt lat="42.316300" lon="-3.823833">
        <ele>1226.0</ele>
        <time>2017-06-23T15:07:07Z</time>
      </trkpt>
      <trkpt lat="42.316201" lon="-3.823800">
        <ele>1229.0</ele>
        <time>2017-06-23T15:07:10Z</time>
      </trkpt>
      <trkpt lat="42.316215" lon="-3.823850">
        <ele>1228.0</ele>
        <time>2017-06-23T15:07:13Z</time>
      </trkpt>
      <trkpt lat="42.316533" lon="-3.824000">
        <ele>1233.0</ele>
        <time>2017-06-23T15:07:16Z</time>
      </trkpt>
      <trkpt lat="42.316884" lon="-3.823750">
        <ele>1239.0</ele>
        <time>2017-06-23T15:07:19Z</time>
      </trkpt>
      <trkpt lat="42.317130" lon="-3.823183">
        <ele>1243.0</ele>
        <time>2017-06-23T15:07:23Z</time>
      </trkpt>
      <trkpt lat="42.317117" lon="-3.822800">
        <ele>1245.0</ele>
        <time>2017-06-23T15:07:26Z</time>
      </trkpt>
      <trkpt lat="42.317018" lon="-3.822667">
        <ele>1244.0</ele>
        <time>2017-06-23T15:07:29Z</time>
      </trkpt>
      <trkpt lat="42.317031" lon="-3.822800">
        <ele>1243.0</ele>
        <time>2017-06-23T15:07:32Z</time>
      </trkpt>
      <trkpt lat="42.317164" lon="-3.822967">
        <ele>1244.0</ele>
        <time>2017-06-23T15:07:35Z</time>
      </trkpt>
      <trkpt lat="42.317315" lon="-3.823150">
        <ele>1248.0</ele>
        <time>2017-06-23T15:07:38Z</time>
      </trkpt>
      <trkpt lat="42.317516" lon="-3.823300">
        <ele>1255.0</ele>
        <time>2017-06-23T15:07:41Z</time>
      </trkpt>
      <trkpt lat="42.317748" lon="-3.823400">
        <ele>1258.0</ele>
        <time>2017-06-23T15:07:44Z</time>
      </trkpt>
      <trkpt lat="42.318114" lon="-3.823283">
        <ele>1261.0</ele>
        <time>2017-06-23T15:07:47Z</time>
      </trkpt>
      <trkpt lat="42.318319" lon="-3.822850">
        <ele>1265.0</ele>
        <time>2017-06-23T15:07:50Z</time>
      </trkpt>
      <trkpt lat="42.318213" lon="-3.822533">
        <ele>1268.0</ele>
        <time>2017-06-23T15:07:53Z</time>
      </trkpt>
      <trkpt lat="42.318148" lon="-3.822567">
        <ele>1273.0</ele>
        <time>2017-06-23T15:07:56Z</time>
      </trkpt>
      <trkpt lat="42.318148" lon="-3.822667">
        <ele>1279.0</ele>
        <time>2017-06-23T15:07:59Z</time>
      </trkpt>
      <trkpt lat="42.318247" lon="-3.822833">
        <ele>1284.0</ele>
        <time>2017-06-23T15:08:02Z</time>
      </trkpt>
      <trkpt lat="42.318500" lon="-3.823000">
        <ele>1288.0</ele>
        <time>2017-06-23T15:08:06Z</time>
      </trkpt>
      <trkpt lat="42.318749" lon="-3.823033">
        <ele>1290.0</ele>
        <time>2017-06-23T15:08:09Z</time>
      </trkpt>
      <trkpt lat="42.319050" lon="-3.822800">
        <ele>1293.0</ele>
        <time>2017-06-23T15:08:12Z</time>
      </trkpt>
      <trkpt lat="42.319316" lon="-3.822550">
        <ele>1292.0</ele>
        <time>2017-06-23T15:08:15Z</time>
      </trkpt>
      <trkpt lat="42.319466" lon="-3.822083">
        <ele>1294.0</ele>
        <time>2017-06-23T15:08:18Z</time>
      </trkpt>
      <trkpt lat="42.319449" lon="-3.821767">
        <ele>1296.0</ele>
        <time>2017-06-23T15:08:21Z</time>
      </trkpt>
      <trkpt lat="42.319381" lon="-3.821483">
        <ele>1296.0</ele>
        <time>2017-06-23T15:08:24Z</time>
      </trkpt>
      <trkpt lat="42.319248" lon="-3.821267">
        <ele>1301.0</ele>
        <time>2017-06-23T15:08:27Z</time>
      </trkpt>
      <trkpt lat="42.319135" lon="-3.820983">
        <ele>1306.0</ele>
        <time>2017-06-23T15:08:30Z</time>
      </trkpt>
      <trkpt lat="42.318998" lon="-3.820800">
        <ele>1310.0</ele>
        <time>2017-06-23T15:08:33Z</time>
      </trkpt>
      <trkpt lat="42.318882" lon="-3.820683">
        <ele>1315.0</ele>
        <time>2017-06-23T15:08:36Z</time>
      </trkpt>
      <trkpt lat="42.318766" lon="-3.820617">
        <ele>1318.0</ele>
        <time>2017-06-23T15:08:39Z</time>
      </trkpt>
      <trkpt lat="42.318715" lon="-3.820683">
        <ele>1323.0</ele>
        <time>2017-06-23T15:08:42Z</time>
      </trkpt>
      <trkpt lat="42.318766" lon="-3.820800">
        <ele>1327.0</ele>
        <time>2017-06-23T15:08:45Z</time>
      </trkpt>
      <trkpt lat="42.318916" lon="-3.820950">
        <ele>1333.0</ele>
        <time>2017-06-23T15:08:49Z</time>
      </trkpt>
      <trkpt lat="42.319050" lon="-3.821050">
        <ele>1339.0</ele>
        <time>2017-06-23T15:08:52Z</time>
      </trkpt>
      <trkpt lat="42.319015" lon="-3.821116">
        <ele>1345.0</ele>
        <time>2017-06-23T15:08:55Z</time>
      </trkpt>
      <trkpt lat="42.318916" lon="-3.821017">
        <ele>1349.0</ele>
        <time>2017-06-23T15:08:58Z</time>
      </trkpt>
      <trkpt lat="42.318817" lon="-3.820883">
        <ele>1353.0</ele>
        <time>2017-06-23T15:09:01Z</time>
      </trkpt>
      <trkpt lat="42.318715" lon="-3.820667">
        <ele>1360.0</ele>
        <time>2017-06-23T15:09:04Z</time>
      </trkpt>
      <trkpt lat="42.318664" lon="-3.820333">
        <ele>1376.0</ele>
        <time>2017-06-23T15:09:07Z</time>
      </trkpt>
      <trkpt lat="42.318698" lon="-3.819867">
        <ele>1381.0</ele>
        <time>2017-06-23T15:09:11Z</time>
      </trkpt>
      <trkpt lat="42.318865" lon="-3.819433">
        <ele>1388.0</ele>
        <time>2017-06-23T15:09:14Z</time>
      </trkpt>
      <trkpt lat="42.319135" lon="-3.819133">
        <ele>1400.0</ele>
        <time>2017-06-23T15:09:17Z</time>
      </trkpt>
      <trkpt lat="42.319466" lon="-3.818900">
        <ele>1409.0</ele>
        <time>2017-06-23T15:09:20Z</time>
      </trkpt>
      <trkpt lat="42.319767" lon="-3.818883">
        <ele>1416.0</ele>
        <time>2017-06-23T15:09:23Z</time>
      </trkpt>
      <trkpt lat="42.319999" lon="-3.819017">
        <ele>1424.0</ele>
        <time>2017-06-23T15:09:26Z</time>
      </trkpt>
      <trkpt lat="42.320197" lon="-3.819184">
        <ele>1431.0</ele>
        <time>2017-06-23T15:09:30Z</time>
      </trkpt>
      <trkpt lat="42.320231" lon="-3.819333">
        <ele>1436.0</ele>
        <time>2017-06-23T15:09:33Z</time>
      </trkpt>
      <trkpt lat="42.320183" lon="-3.819417">
        <ele>1441.0</ele>
        <time>2017-06-23T15:09:36Z</time>
      </trkpt>
      <trkpt lat="42.320064" lon="-3.819383">
        <ele>1446.0</ele>
        <time>2017-06-23T15:09:39Z</time>
      </trkpt>
      <trkpt lat="42.319931" lon="-3.819250">
        <ele>1449.0</ele>
        <time>2017-06-23T15:09:42Z</time>
      </trkpt>
      <trkpt lat="42.319832" lon="-3.818866">
        <ele>1455.0</ele>
        <time>2017-06-23T15:09:45Z</time>
      </trkpt>
      <trkpt lat="42.319866" lon="-3.818383">
        <ele>1460.0</ele>
        <time>2017-06-23T15:09:48Z</time>
      </trkpt>
      <trkpt lat="42.320050" lon="-3.817900">
        <ele>1470.0</ele>
        <time>2017-06-23T15:09:51Z</time>
      </trkpt>
      <trkpt lat="42.320265" lon="-3.817483">
        <ele>1479.0</ele>
        <time>2017-06-23T15:09:54Z</time>
      </trkpt>
      <trkpt lat="42.320583" lon="-3.817166">
        <ele>1483.0</ele>
        <time>2017-06-23T15:09:57Z</time>
      </trkpt>
      <trkpt lat="42.320901" lon="-3.817150">
        <ele>1492.0</ele>
        <time>2017-06-23T15:10:00Z</time>
      </trkpt>
      <trkpt lat="42.321099" lon="-3.817283">
        <ele>1499.0</ele>
        <time>2017-06-23T15:10:03Z</time>
      </trkpt>
      <trkpt lat="42.321181" lon="-3.817433">
        <ele>1505.0</ele>
        <time>2017-06-23T15:10:06Z</time>
      </trkpt>
      <trkpt lat="42.321082" lon="-3.817400">
        <ele>1511.0</ele>
        <time>2017-06-23T15:10:09Z</time>
      </trkpt>
      <trkpt lat="42.321000" lon="-3.816900">
        <ele>1516.0</ele>
        <time>2017-06-23T15:10:13Z</time>
      </trkpt>
      <trkpt lat="42.321245" lon="-3.816433">
        <ele>1524.0</ele>
        <time>2017-06-23T15:10:16Z</time>
      </trkpt>
      <trkpt lat="42.321597" lon="-3.816200">
        <ele>1533.0</ele>
        <time>2017-06-23T15:10:19Z</time>
      </trkpt>
      <trkpt lat="42.321949" lon="-3.816150">
        <ele>1537.0</ele>
        <time>2017-06-23T15:10:22Z</time>
      </trkpt>
      <trkpt lat="42.322181" lon="-3.816283">
        <ele>1545.0</ele>
        <time>2017-06-23T15:10:25Z</time>
      </trkpt>
      <trkpt lat="42.322267" lon="-3.816416">
        <ele>1548.0</ele>
        <time>2017-06-23T15:10:28Z</time>
      </trkpt>
      <trkpt lat="42.322133" lon="-3.816383">
        <ele>1550.0</ele>
        <time>2017-06-23T15:10:31Z</time>
      </trkpt>
      <trkpt lat="42.322096" lon="-3.815933">
        <ele>1554.0</ele>
        <time>2017-06-23T15:10:34Z</time>
      </trkpt>
      <trkpt lat="42.322301" lon="-3.815450">
        <ele>1559.0</ele>
        <time>2017-06-23T15:10:37Z</time>
      </trkpt>
      <trkpt lat="42.322632" lon="-3.815200">
        <ele>1564.0</ele>
        <time>2017-06-23T15:10:40Z</time>
      </trkpt>
      <trkpt lat="42.322984" lon="-3.815216">
        <ele>1572.0</ele>
        <time>2017-06-23T15:10:43Z</time>
      </trkpt>
      <trkpt lat="42.323216" lon="-3.815283">
        <ele>1574.0</ele>
        <time>2017-06-23T15:10:46Z</time>
      </trkpt>
      <trkpt lat="42.323349" lon="-3.815450">
        <ele>1576.0</ele>
        <time>2017-06-23T15:10:49Z</time>
      </trkpt>
      <trkpt lat="42.323250" lon="-3.815500">
        <ele>1580.0</ele>
        <time>2017-06-23T15:10:53Z</time>
      </trkpt>
      <trkpt lat="42.323131" lon="-3.815266">
        <ele>1581.0</ele>
        <time>2017-06-23T15:10:56Z</time>
      </trkpt>
      <trkpt lat="42.323216" lon="-3.814783">
        <ele>1582.0</ele>
        <time>2017-06-23T15:10:59Z</time>
      </trkpt>
      <trkpt lat="42.323482" lon="-3.814350">
        <ele>1588.0</ele>
        <time>2017-06-23T15:11:02Z</time>
      </trkpt>
      <trkpt lat="42.323800" lon="-3.814084">
        <ele>1590.0</ele>
        <time>2017-06-23T15:11:05Z</time>
      </trkpt>
      <trkpt lat="42.324165" lon="-3.813967">
        <ele>1593.0</ele>
        <time>2017-06-23T15:11:08Z</time>
      </trkpt>
      <trkpt lat="42.324483" lon="-3.814016">
        <ele>1596.0</ele>
        <time>2017-06-23T15:11:11Z</time>
      </trkpt>
      <trkpt lat="42.324698" lon="-3.814200">
        <ele>1597.0</ele>
        <time>2017-06-23T15:11:14Z</time>
      </trkpt>
      <trkpt lat="42.324749" lon="-3.814367">
        <ele>1599.0</ele>
        <time>2017-06-23T15:11:17Z</time>
      </trkpt>
      <trkpt lat="42.324664" lon="-3.814383">
        <ele>1599.0</ele>
        <time>2017-06-23T15:11:20Z</time>
      </trkpt>
      <trkpt lat="42.324565" lon="-3.814183">
        <ele>1601.0</ele>
        <time>2017-06-23T15:11:23Z</time>
      </trkpt>
      <trkpt lat="42.324483" lon="-3.813867">
        <ele>1601.0</ele>
        <time>2017-06-23T15:11:26Z</time>
      </trkpt>
      <trkpt lat="42.324466" lon="-3.813433">
        <ele>1602.0</ele>
        <time>2017-06-23T15:11:29Z</time>
      </trkpt>
      <trkpt lat="42.324599" lon="-3.812950">
        <ele>1607.0</ele>
        <time>2017-06-23T15:11:32Z</time>
      </trkpt>
      <trkpt lat="42.324797" lon="-3.812367">
        <ele>1611.0</ele>
        <time>2017-06-23T15:11:36Z</time>
      </trkpt>
      <trkpt lat="42.324797" lon="-3.811933">
        <ele>1617.0</ele>
        <time>2017-06-23T15:11:39Z</time>
      </trkpt>
      <trkpt lat="42.324763" lon="-3.811583">
        <ele>1627.0</ele>
        <time>2017-06-23T15:11:42Z</time>
      </trkpt>
      <trkpt lat="42.324664" lon="-3.811350">
        <ele>1634.0</ele>
        <time>2017-06-23T15:11:45Z</time>
      </trkpt>
      <trkpt lat="42.324599" lon="-3.811417">
        <ele>1646.0</ele>
        <time>2017-06-23T15:11:48Z</time>
      </trkpt>
      <trkpt lat="42.324732" lon="-3.811567">
        <ele>1655.0</ele>
        <time>2017-06-23T15:11:51Z</time>
      </trkpt>
      <trkpt lat="42.325050" lon="-3.811583">
        <ele>1663.0</ele>
        <time>2017-06-23T15:11:54Z</time>
      </trkpt>
      <trkpt lat="42.325381" lon="-3.811500">
        <ele>1671.0</ele>
        <time>2017-06-23T15:11:57Z</time>
      </trkpt>
      <trkpt lat="42.325665" lon="-3.811233">
        <ele>1673.0</ele>
        <time>2017-06-23T15:12:00Z</time>
      </trkpt>
      <trkpt lat="42.325866" lon="-3.810767">
        <ele>1681.0</ele>
        <time>2017-06-23T15:12:03Z</time>
      </trkpt>
      <trkpt lat="42.326030" lon="-3.810350">
        <ele>1694.0</ele>
        <time>2017-06-23T15:12:06Z</time>
      </trkpt>
      <trkpt lat="42.326163" lon="-3.809967">
        <ele>1697.0</ele>
        <time>2017-06-23T15:12:09Z</time>
      </trkpt>
      <trkpt lat="42.326197" lon="-3.809533">
        <ele>1702.0</ele>
        <time>2017-06-23T15:12:12Z</time>
      </trkpt>
      <trkpt lat="42.326150" lon="-3.809083">
        <ele>1703.0</ele>
        <time>2017-06-23T15:12:16Z</time>
      </trkpt>
      <trkpt lat="42.326051" lon="-3.808833">
        <ele>1704.0</ele>
        <time>2017-06-23T15:12:19Z</time>
      </trkpt>
      <trkpt lat="42.325917" lon="-3.808750">
        <ele>1704.0</ele>
        <time>2017-06-23T15:12:22Z</time>
      </trkpt>
      <trkpt lat="42.325818" lon="-3.808883">
        <ele>1710.0</ele>
        <time>2017-06-23T15:12:25Z</time>
      </trkpt>
      <trkpt lat="42.325849" lon="-3.809117">
        <ele>1721.0</ele>
        <time>2017-06-23T15:12:28Z</time>
      </trkpt>
      <trkpt lat="42.325999" lon="-3.809283">
        <ele>1730.0</ele>
        <time>2017-06-23T15:12:31Z</time>
      </trkpt>
      <trkpt lat="42.326231" lon="-3.809416">
        <ele>1738.0</ele>
        <time>2017-06-23T15:12:34Z</time>
      </trkpt>
      <trkpt lat="42.326563" lon="-3.809367">
        <ele>1747.0</ele>
        <time>2017-06-23T15:12:37Z</time>
      </trkpt>
      <trkpt lat="42.326915" lon="-3.809133">
        <ele>1755.0</ele>
        <time>2017-06-23T15:12:40Z</time>
      </trkpt>
      <trkpt lat="42.327082" lon="-3.808667">
        <ele>1762.0</ele>
        <time>2017-06-23T15:12:43Z</time>
      </trkpt>
      <trkpt lat="42.327014" lon="-3.808350">
        <ele>1773.0</ele>
        <time>2017-06-23T15:12:46Z</time>
      </trkpt>
      <trkpt lat="42.326915" lon="-3.808317">
        <ele>1781.0</ele>
        <time>2017-06-23T15:12:49Z</time>
      </trkpt>
      <trkpt lat="42.326880" lon="-3.808466">
        <ele>1790.0</ele>
        <time>2017-06-23T15:12:52Z</time>
      </trkpt>
      <trkpt lat="42.326966" lon="-3.808617">
        <ele>1798.0</ele>
        <time>2017-06-23T15:12:55Z</time>
      </trkpt>
      <trkpt lat="42.327246" lon="-3.808800">
        <ele>1803.0</ele>
        <time>2017-06-23T15:12:59Z</time>
      </trkpt>
      <trkpt lat="42.327563" lon="-3.808733">
        <ele>1806.0</ele>
        <time>2017-06-23T15:13:02Z</time>
      </trkpt>
      <trkpt lat="42.327881" lon="-3.808417">
        <ele>1806.0</ele>
        <time>2017-06-23T15:13:05Z</time>
      </trkpt>
      <trkpt lat="42.328035" lon="-3.807967">
        <ele>1805.0</ele>
        <time>2017-06-23T15:13:08Z</time>
      </trkpt>
      <trkpt lat="42.328062" lon="-3.807483">
        <ele>1808.0</ele>
        <time>2017-06-23T15:13:11Z</time>
      </trkpt>
      <trkpt lat="42.328048" lon="-3.807067">
        <ele>1819.0</ele>
        <time>2017-06-23T15:13:14Z</time>
      </trkpt>
      <trkpt lat="42.328014" lon="-3.806700">
        <ele>1826.0</ele>
        <time>2017-06-23T15:13:17Z</time>
      </trkpt>
      <trkpt lat="42.327898" lon="-3.806467">
        <ele>1834.0</ele>
        <time>2017-06-23T15:13:20Z</time>
      </trkpt>
      <trkpt lat="42.327816" lon="-3.806467">
        <ele>1841.0</ele>
        <time>2017-06-23T15:13:23Z</time>
      </trkpt>
      <trkpt lat="42.327816" lon="-3.806633">
        <ele>1852.0</ele>
        <time>2017-06-23T15:13:26Z</time>
      </trkpt>
      <trkpt lat="42.327929" lon="-3.806800">
        <ele>1856.0</ele>
        <time>2017-06-23T15:13:29Z</time>
      </trkpt>
      <trkpt lat="42.328182" lon="-3.806966">
        <ele>1861.0</ele>
        <time>2017-06-23T15:13:32Z</time>
      </trkpt>
      <trkpt lat="42.328513" lon="-3.806983">
        <ele>1867.0</ele>
        <time>2017-06-23T15:13:35Z</time>
      </trkpt>
      <trkpt lat="42.328817" lon="-3.806783">
        <ele>1865.0</ele>
        <time>2017-06-23T15:13:38Z</time>
      </trkpt>
      <trkpt lat="42.329148" lon="-3.806217">
        <ele>1869.0</ele>
        <time>2017-06-23T15:13:42Z</time>
      </trkpt>
      <trkpt lat="42.329315" lon="-3.805800">
        <ele>1876.0</ele>
        <time>2017-06-23T15:13:45Z</time>
      </trkpt>
      <trkpt lat="42.329414" lon="-3.805366">
        <ele>1878.0</ele>
        <time>2017-06-23T15:13:48Z</time>
      </trkpt>
      <trkpt lat="42.329329" lon="-3.805033">
        <ele>1882.0</ele>
        <time>2017-06-23T15:13:51Z</time>
      </trkpt>
      <trkpt lat="42.329230" lon="-3.804783">
        <ele>1887.0</ele>
        <time>2017-06-23T15:13:54Z</time>
      </trkpt>
      <trkpt lat="42.329117" lon="-3.804683">
        <ele>1891.0</ele>
        <time>2017-06-23T15:13:57Z</time>
      </trkpt>
      <trkpt lat="42.329148" lon="-3.804833">
        <ele>1899.0</ele>
        <time>2017-06-23T15:14:00Z</time>
      </trkpt>
      <trkpt lat="42.329216" lon="-3.804984">
        <ele>1904.0</ele>
        <time>2017-06-23T15:14:03Z</time>
      </trkpt>
      <trkpt lat="42.329397" lon="-3.805183">
        <ele>1906.0</ele>
        <time>2017-06-23T15:14:06Z</time>
      </trkpt>
      <trkpt lat="42.329599" lon="-3.805366">
        <ele>1911.0</ele>
        <time>2017-06-23T15:14:09Z</time>
      </trkpt>
      <trkpt lat="42.329848" lon="-3.805483">
        <ele>1911.0</ele>
        <time>2017-06-23T15:14:12Z</time>
      </trkpt>
      <trkpt lat="42.330213" lon="-3.805383">
        <ele>1912.0</ele>
        <time>2017-06-23T15:14:15Z</time>
      </trkpt>
      <trkpt lat="42.330548" lon="-3.805167">
        <ele>1912.0</ele>
        <time>2017-06-23T15:14:18Z</time>
      </trkpt>
      <trkpt lat="42.330883" lon="-3.804850">
        <ele>1918.0</ele>
        <time>2017-06-23T15:14:21Z</time>
      </trkpt>
      <trkpt lat="42.331265" lon="-3.804533">
        <ele>1921.0</ele>
        <time>2017-06-23T15:14:25Z</time>
      </trkpt>
      <trkpt lat="42.331480" lon="-3.804150">
        <ele>1920.0</ele>
        <time>2017-06-23T15:14:28Z</time>
      </trkpt>
      <trkpt lat="42.331566" lon="-3.803733">
        <ele>1921.0</ele>
        <time>2017-06-23T15:14:31Z</time>
      </trkpt>
      <trkpt lat="42.331515" lon="-3.803417">
        <ele>1920.0</ele>
        <time>2017-06-23T15:14:34Z</time>
      </trkpt>
      <trkpt lat="42.331416" lon="-3.803367">
        <ele>1920.0</ele>
        <time>2017-06-23T15:14:37Z</time>
      </trkpt>
      <trkpt lat="42.331480" lon="-3.803583">
        <ele>1925.0</ele>
        <time>2017-06-23T15:14:40Z</time>
      </trkpt>
      <trkpt lat="42.331600" lon="-3.803816">
        <ele>1929.0</ele>
        <time>2017-06-23T15:14:43Z</time>
      </trkpt>
      <trkpt lat="42.331750" lon="-3.804100">
        <ele>1932.0</ele>
        <time>2017-06-23T15:14:46Z</time>
      </trkpt>
      <trkpt lat="42.332051" lon="-3.804283">
        <ele>1931.0</ele>
        <time>2017-06-23T15:14:49Z</time>
      </trkpt>
      <trkpt lat="42.332365" lon="-3.804367">
        <ele>1928.0</ele>
        <time>2017-06-23T15:14:52Z</time>
      </trkpt>
      <trkpt lat="42.332734" lon="-3.804316">
        <ele>1918.0</ele>
        <time>2017-06-23T15:14:55Z</time>
      </trkpt>
      <trkpt lat="42.333113" lon="-3.804233">
        <ele>1911.0</ele>
        <time>2017-06-23T15:14:58Z</time>
      </trkpt>
      <trkpt lat="42.333516" lon="-3.803950">
        <ele>1903.0</ele>
        <time>2017-06-23T15:15:01Z</time>
      </trkpt>
      <trkpt lat="42.333915" lon="-3.803633">
        <ele>1901.0</ele>
        <time>2017-06-23T15:15:04Z</time>
      </trkpt>
      <trkpt lat="42.334400" lon="-3.803217">
        <ele>1897.0</ele>
        <time>2017-06-23T15:15:08Z</time>
      </trkpt>
      <trkpt lat="42.334745" lon="-3.802800">
        <ele>1892.0</ele>
        <time>2017-06-23T15:15:11Z</time>
      </trkpt>
      <trkpt lat="42.335083" lon="-3.802383">
        <ele>1895.0</ele>
        <time>2017-06-23T15:15:14Z</time>
      </trkpt>
      <trkpt lat="42.335398" lon="-3.802000">
        <ele>1894.0</ele>
        <time>2017-06-23T15:15:17Z</time>
      </trkpt>
      <trkpt lat="42.335633" lon="-3.801516">
        <ele>1893.0</ele>
        <time>2017-06-23T15:15:20Z</time>
      </trkpt>
      <trkpt lat="42.335801" lon="-3.801050">
        <ele>1892.0</ele>
        <time>2017-06-23T15:15:23Z</time>
      </trkpt>
      <trkpt lat="42.335947" lon="-3.800550">
        <ele>1887.0</ele>
        <time>2017-06-23T15:15:26Z</time>
      </trkpt>
      <trkpt lat="42.336197" lon="-3.800083">
        <ele>1882.0</ele>
        <time>2017-06-23T15:15:29Z</time>
      </trkpt>
      <trkpt lat="42.336583" lon="-3.799700">
        <ele>1876.0</ele>
        <time>2017-06-23T15:15:32Z</time>
      </trkpt>
      <trkpt lat="42.336934" lon="-3.799350">
        <ele>1873.0</ele>
        <time>2017-06-23T15:15:35Z</time>
      </trkpt>
      <trkpt lat="42.337214" lon="-3.798983">
        <ele>1869.0</ele>
        <time>2017-06-23T15:15:38Z</time>
      </trkpt>
      <trkpt lat="42.337546" lon="-3.798633">
        <ele>1867.0</ele>
        <time>2017-06-23T15:15:41Z</time>
      </trkpt>
      <trkpt lat="42.337850" lon="-3.798266">
        <ele>1866.0</ele>
        <time>2017-06-23T15:15:44Z</time>
      </trkpt>
      <trkpt lat="42.338181" lon="-3.797983">
        <ele>1869.0</ele>
        <time>2017-06-23T15:15:47Z</time>
      </trkpt>
      <trkpt lat="42.338580" lon="-3.797650">
        <ele>1868.0</ele>
        <time>2017-06-23T15:15:51Z</time>
      </trkpt>
      <trkpt lat="42.338881" lon="-3.797317">
        <ele>1869.0</ele>
        <time>2017-06-23T15:15:54Z</time>
      </trkpt>
      <trkpt lat="42.339199" lon="-3.796950">
        <ele>1872.0</ele>
        <time>2017-06-23T15:15:57Z</time>
      </trkpt>
      <trkpt lat="42.339465" lon="-3.796600">
        <ele>1874.0</ele>
        <time>2017-06-23T15:16:00Z</time>
      </trkpt>
      <trkpt lat="42.339564" lon="-3.796133">
        <ele>1873.0</ele>
        <time>2017-06-23T15:16:03Z</time>
      </trkpt>
      <trkpt lat="42.339465" lon="-3.796033">
        <ele>1873.0</ele>
        <time>2017-06-23T15:16:06Z</time>
      </trkpt>
      <trkpt lat="42.339499" lon="-3.796183">
        <ele>1876.0</ele>
        <time>2017-06-23T15:16:09Z</time>
      </trkpt>
      <trkpt lat="42.339564" lon="-3.796333">
        <ele>1875.0</ele>
        <time>2017-06-23T15:16:12Z</time>
      </trkpt>
      <trkpt lat="42.339748" lon="-3.796517">
        <ele>1881.0</ele>
        <time>2017-06-23T15:16:15Z</time>
      </trkpt>
      <trkpt lat="42.339967" lon="-3.796633">
        <ele>1881.0</ele>
        <time>2017-06-23T15:16:18Z</time>
      </trkpt>
      <trkpt lat="42.340298" lon="-3.796716">
        <ele>1887.0</ele>
        <time>2017-06-23T15:16:21Z</time>
      </trkpt>
      <trkpt lat="42.340612" lon="-3.796600">
        <ele>1889.0</ele>
        <time>2017-06-23T15:16:24Z</time>
      </trkpt>
      <trkpt lat="42.341149" lon="-3.796267">
        <ele>1897.0</ele>
        <time>2017-06-23T15:16:28Z</time>
      </trkpt>
      <trkpt lat="42.341449" lon="-3.796033">
        <ele>1905.0</ele>
        <time>2017-06-23T15:16:31Z</time>
      </trkpt>
      <trkpt lat="42.341698" lon="-3.795617">
        <ele>1905.0</ele>
        <time>2017-06-23T15:16:34Z</time>
      </trkpt>
      <trkpt lat="42.341698" lon="-3.795133">
        <ele>1908.0</ele>
        <time>2017-06-23T15:16:37Z</time>
      </trkpt>
      <trkpt lat="42.341599" lon="-3.794833">
        <ele>1912.0</ele>
        <time>2017-06-23T15:16:40Z</time>
      </trkpt>
      <trkpt lat="42.341480" lon="-3.794750">
        <ele>1912.0</ele>
        <time>2017-06-23T15:16:43Z</time>
      </trkpt>
      <trkpt lat="42.341466" lon="-3.794833">
        <ele>1920.0</ele>
        <time>2017-06-23T15:16:46Z</time>
      </trkpt>
      <trkpt lat="42.341582" lon="-3.794917">
        <ele>1926.0</ele>
        <time>2017-06-23T15:16:49Z</time>
      </trkpt>
      <trkpt lat="42.341767" lon="-3.795017">
        <ele>1933.0</ele>
        <time>2017-06-23T15:16:52Z</time>
      </trkpt>
      <trkpt lat="42.341948" lon="-3.795116">
        <ele>1940.0</ele>
        <time>2017-06-23T15:16:55Z</time>
      </trkpt>
      <trkpt lat="42.342218" lon="-3.795150">
        <ele>1949.0</ele>
        <time>2017-06-23T15:16:58Z</time>
      </trkpt>
      <trkpt lat="42.342532" lon="-3.794917">
        <ele>1954.0</ele>
        <time>2017-06-23T15:17:01Z</time>
      </trkpt>
      <trkpt lat="42.342696" lon="-3.794434">
        <ele>1958.0</ele>
        <time>2017-06-23T15:17:04Z</time>
      </trkpt>
      <trkpt lat="42.342665" lon="-3.794000">
        <ele>1963.0</ele>
        <time>2017-06-23T15:17:07Z</time>
      </trkpt>
      <trkpt lat="42.342532" lon="-3.793717">
        <ele>1967.0</ele>
        <time>2017-06-23T15:17:10Z</time>
      </trkpt>
      <trkpt lat="42.342450" lon="-3.793733">
        <ele>1971.0</ele>
        <time>2017-06-23T15:17:14Z</time>
      </trkpt>
      <trkpt lat="42.342532" lon="-3.793900">
        <ele>1981.0</ele>
        <time>2017-06-23T15:17:17Z</time>
      </trkpt>
      <trkpt lat="42.342682" lon="-3.794000">
        <ele>1994.0</ele>
        <time>2017-06-23T15:17:20Z</time>
      </trkpt>
      <trkpt lat="42.342935" lon="-3.794083">
        <ele>2002.0</ele>
        <time>2017-06-23T15:17:23Z</time>
      </trkpt>
      <trkpt lat="42.343232" lon="-3.793983">
        <ele>2010.0</ele>
        <time>2017-06-23T15:17:26Z</time>
      </trkpt>
      <trkpt lat="42.343567" lon="-3.793733">
        <ele>2012.0</ele>
        <time>2017-06-23T15:17:29Z</time>
      </trkpt>
      <trkpt lat="42.343782" lon="-3.793333">
        <ele>2017.0</ele>
        <time>2017-06-23T15:17:32Z</time>
      </trkpt>
      <trkpt lat="42.343799" lon="-3.792883">
        <ele>2017.0</ele>
        <time>2017-06-23T15:17:35Z</time>
      </trkpt>
      <trkpt lat="42.343683" lon="-3.792667">
        <ele>2024.0</ele>
        <time>2017-06-23T15:17:38Z</time>
      </trkpt>
      <trkpt lat="42.343631" lon="-3.792717">
        <ele>2032.0</ele>
        <time>2017-06-23T15:17:41Z</time>
      </trkpt>
      <trkpt lat="42.343683" lon="-3.792850">
        <ele>2040.0</ele>
        <time>2017-06-23T15:17:44Z</time>
      </trkpt>
      <trkpt lat="42.343850" lon="-3.793033">
        <ele>2051.0</ele>
        <time>2017-06-23T15:17:47Z</time>
      </trkpt>
      <trkpt lat="42.344031" lon="-3.793166">
        <ele>2058.0</ele>
        <time>2017-06-23T15:17:50Z</time>
      </trkpt>
      <trkpt lat="42.344349" lon="-3.793266">
        <ele>2059.0</ele>
        <time>2017-06-23T15:17:54Z</time>
      </trkpt>
      <trkpt lat="42.344680" lon="-3.793200">
        <ele>2063.0</ele>
        <time>2017-06-23T15:17:57Z</time>
      </trkpt>
      <trkpt lat="42.345014" lon="-3.793017">
        <ele>2063.0</ele>
        <time>2017-06-23T15:18:00Z</time>
      </trkpt>
      <trkpt lat="42.345264" lon="-3.792600">
        <ele>2061.0</ele>
        <time>2017-06-23T15:18:03Z</time>
      </trkpt>
      <trkpt lat="42.345284" lon="-3.792133">
        <ele>2060.0</ele>
        <time>2017-06-23T15:18:06Z</time>
      </trkpt>
      <trkpt lat="42.345151" lon="-3.791917">
        <ele>2060.0</ele>
        <time>2017-06-23T15:18:09Z</time>
      </trkpt>
      <trkpt lat="42.345066" lon="-3.791966">
        <ele>2060.0</ele>
        <time>2017-06-23T15:18:12Z</time>
      </trkpt>
      <trkpt lat="42.345100" lon="-3.792167">
        <ele>2061.0</ele>
        <time>2017-06-23T15:18:15Z</time>
      </trkpt>
      <trkpt lat="42.345182" lon="-3.792367">
        <ele>2061.0</ele>
        <time>2017-06-23T15:18:18Z</time>
      </trkpt>
      <trkpt lat="42.345298" lon="-3.792583">
        <ele>2063.0</ele>
        <time>2017-06-23T15:18:21Z</time>
      </trkpt>
      <trkpt lat="42.345465" lon="-3.792767">
        <ele>2065.0</ele>
        <time>2017-06-23T15:18:24Z</time>
      </trkpt>
      <trkpt lat="42.345663" lon="-3.792916">
        <ele>2066.0</ele>
        <time>2017-06-23T15:18:27Z</time>
      </trkpt>
      <trkpt lat="42.345933" lon="-3.793067">
        <ele>2070.0</ele>
        <time>2017-06-23T15:18:30Z</time>
      </trkpt>
      <trkpt lat="42.346183" lon="-3.793133">
        <ele>2072.0</ele>
        <time>2017-06-23T15:18:33Z</time>
      </trkpt>
      <trkpt lat="42.346480" lon="-3.793333">
        <ele>2076.0</ele>
        <time>2017-06-23T15:18:37Z</time>
      </trkpt>
      <trkpt lat="42.346480" lon="-3.793483">
        <ele>2080.0</ele>
        <time>2017-06-23T15:18:40Z</time>
      </trkpt>
      <trkpt lat="42.346346" lon="-3.793517">
        <ele>2085.0</ele>
        <time>2017-06-23T15:18:43Z</time>
      </trkpt>
      <trkpt lat="42.346234" lon="-3.793200">
        <ele>2087.0</ele>
        <time>2017-06-23T15:18:46Z</time>
      </trkpt>
      <trkpt lat="42.346432" lon="-3.792733">
        <ele>2094.0</ele>
        <time>2017-06-23T15:18:49Z</time>
      </trkpt>
      <trkpt lat="42.346732" lon="-3.792533">
        <ele>2099.0</ele>
        <time>2017-06-23T15:18:52Z</time>
      </trkpt>
      <trkpt lat="42.347016" lon="-3.792583">
        <ele>2099.0</ele>
        <time>2017-06-23T15:18:55Z</time>
      </trkpt>
      <trkpt lat="42.347029" lon="-3.792816">
        <ele>2102.0</ele>
        <time>2017-06-23T15:18:58Z</time>
      </trkpt>
      <trkpt lat="42.347050" lon="-3.792983">
        <ele>2111.0</ele>
        <time>2017-06-23T15:19:01Z</time>
      </trkpt>
      <trkpt lat="42.346965" lon="-3.793083">
        <ele>2117.0</ele>
        <time>2017-06-23T15:19:04Z</time>
      </trkpt>
      <trkpt lat="42.346818" lon="-3.792816">
        <ele>2122.0</ele>
        <time>2017-06-23T15:19:07Z</time>
      </trkpt>
      <trkpt lat="42.346848" lon="-3.792433">
        <ele>2124.0</ele>
        <time>2017-06-23T15:19:10Z</time>
      </trkpt>
      <trkpt lat="42.347029" lon="-3.792017">
        <ele>2127.0</ele>
        <time>2017-06-23T15:19:13Z</time>
      </trkpt>
      <trkpt lat="42.347381" lon="-3.791783">
        <ele>2133.0</ele>
        <time>2017-06-23T15:19:16Z</time>
      </trkpt>
      <trkpt lat="42.347815" lon="-3.791683">
        <ele>2138.0</ele>
        <time>2017-06-23T15:19:20Z</time>
      </trkpt>
      <trkpt lat="42.348085" lon="-3.791700">
        <ele>2141.0</ele>
        <time>2017-06-23T15:19:23Z</time>
      </trkpt>
      <trkpt lat="42.348331" lon="-3.791800">
        <ele>2142.0</ele>
        <time>2017-06-23T15:19:26Z</time>
      </trkpt>
      <trkpt lat="42.348430" lon="-3.792000">
        <ele>2147.0</ele>
        <time>2017-06-23T15:19:29Z</time>
      </trkpt>
      <trkpt lat="42.348450" lon="-3.792183">
        <ele>2154.0</ele>
        <time>2017-06-23T15:19:32Z</time>
      </trkpt>
      <trkpt lat="42.348430" lon="-3.792367">
        <ele>2159.0</ele>
        <time>2017-06-23T15:19:35Z</time>
      </trkpt>
      <trkpt lat="42.348351" lon="-3.792467">
        <ele>2167.0</ele>
        <time>2017-06-23T15:19:38Z</time>
      </trkpt>
      <trkpt lat="42.348232" lon="-3.792517">
        <ele>2169.0</ele>
        <time>2017-06-23T15:19:41Z</time>
      </trkpt>
      <trkpt lat="42.348050" lon="-3.792416">
        <ele>2173.0</ele>
        <time>2017-06-23T15:19:44Z</time>
      </trkpt>
      <trkpt lat="42.347914" lon="-3.792100">
        <ele>2181.0</ele>
        <time>2017-06-23T15:19:47Z</time>
      </trkpt>
      <trkpt lat="42.347866" lon="-3.791716">
        <ele>2188.0</ele>
        <time>2017-06-23T15:19:50Z</time>
      </trkpt>
      <trkpt lat="42.347931" lon="-3.791300">
        <ele>2190.0</ele>
        <time>2017-06-23T15:19:53Z</time>
      </trkpt>
      <trkpt lat="42.348266" lon="-3.790900">
        <ele>2192.0</ele>
        <time>2017-06-23T15:19:57Z</time>
      </trkpt>
      <trkpt lat="42.348549" lon="-3.790683">
        <ele>2194.0</ele>
        <time>2017-06-23T15:20:00Z</time>
      </trkpt>
      <trkpt lat="42.348867" lon="-3.790600">
        <ele>2199.0</ele>
        <time>2017-06-23T15:20:03Z</time>
      </trkpt>
      <trkpt lat="42.349167" lon="-3.790550">
        <ele>2203.0</ele>
        <time>2017-06-23T15:20:06Z</time>
      </trkpt>
      <trkpt lat="42.349434" lon="-3.790633">
        <ele>2205.0</ele>
        <time>2017-06-23T15:20:09Z</time>
      </trkpt>
      <trkpt lat="42.349632" lon="-3.790833">
        <ele>2204.0</ele>
        <time>2017-06-23T15:20:12Z</time>
      </trkpt>
      <trkpt lat="42.349717" lon="-3.791033">
        <ele>2201.0</ele>
        <time>2017-06-23T15:20:15Z</time>
      </trkpt>
      <trkpt lat="42.349584" lon="-3.791150">
        <ele>2199.0</ele>
        <time>2017-06-23T15:20:18Z</time>
      </trkpt>
      <trkpt lat="42.349399" lon="-3.791050">
        <ele>2201.0</ele>
        <time>2017-06-23T15:20:21Z</time>
      </trkpt>
      <trkpt lat="42.349181" lon="-3.790866">
        <ele>2209.0</ele>
        <time>2017-06-23T15:20:24Z</time>
      </trkpt>
      <trkpt lat="42.349034" lon="-3.790667">
        <ele>2218.0</ele>
        <time>2017-06-23T15:20:27Z</time>
      </trkpt>
      <trkpt lat="42.348867" lon="-3.790533">
        <ele>2226.0</ele>
        <time>2017-06-23T15:20:30Z</time>
      </trkpt>
      <trkpt lat="42.348696" lon="-3.790583">
        <ele>2233.0</ele>
        <time>2017-06-23T15:20:33Z</time>
      </trkpt>
      <trkpt lat="42.348665" lon="-3.790783">
        <ele>2238.0</ele>
        <time>2017-06-23T15:20:36Z</time>
      </trkpt>
      <trkpt lat="42.348966" lon="-3.790983">
        <ele>2242.0</ele>
        <time>2017-06-23T15:20:40Z</time>
      </trkpt>
      <trkpt lat="42.349266" lon="-3.790950">
        <ele>2247.0</ele>
        <time>2017-06-23T15:20:43Z</time>
      </trkpt>
      <trkpt lat="42.349563" lon="-3.790800">
        <ele>2252.0</ele>
        <time>2017-06-23T15:20:46Z</time>
      </trkpt>
      <trkpt lat="42.349830" lon="-3.790533">
        <ele>2253.0</ele>
        <time>2017-06-23T15:20:49Z</time>
      </trkpt>
      <trkpt lat="42.349963" lon="-3.790100">
        <ele>2254.0</ele>
        <time>2017-06-23T15:20:52Z</time>
      </trkpt>
      <trkpt lat="42.350031" lon="-3.789633">
        <ele>2262.0</ele>
        <time>2017-06-23T15:20:55Z</time>
      </trkpt>
      <trkpt lat="42.350083" lon="-3.789200">
        <ele>2266.0</ele>
        <time>2017-06-23T15:20:58Z</time>
      </trkpt>
      <trkpt lat="42.349997" lon="-3.788817">
        <ele>2269.0</ele>
        <time>2017-06-23T15:21:01Z</time>
      </trkpt>
      <trkpt lat="42.349799" lon="-3.788617">
        <ele>2271.0</ele>
        <time>2017-06-23T15:21:04Z</time>
      </trkpt>
      <trkpt lat="42.349632" lon="-3.788633">
        <ele>2273.0</ele>
        <time>2017-06-23T15:21:07Z</time>
      </trkpt>
      <trkpt lat="42.349697" lon="-3.788933">
        <ele>2277.0</ele>
        <time>2017-06-23T15:21:10Z</time>
      </trkpt>
      <trkpt lat="42.349830" lon="-3.789200">
        <ele>2286.0</ele>
        <time>2017-06-23T15:21:13Z</time>
      </trkpt>
      <trkpt lat="42.350031" lon="-3.789433">
        <ele>2292.0</ele>
        <time>2017-06-23T15:21:16Z</time>
      </trkpt>
      <trkpt lat="42.350263" lon="-3.789600">
        <ele>2299.0</ele>
        <time>2017-06-23T15:21:19Z</time>
      </trkpt>
      <trkpt lat="42.350581" lon="-3.789633">
        <ele>2300.0</ele>
        <time>2017-06-23T15:21:23Z</time>
      </trkpt>
      <trkpt lat="42.350813" lon="-3.789383">
        <ele>2294.0</ele>
        <time>2017-06-23T15:21:26Z</time>
      </trkpt>
      <trkpt lat="42.350899" lon="-3.788950">
        <ele>2287.0</ele>
        <time>2017-06-23T15:21:29Z</time>
      </trkpt>
      <trkpt lat="42.350748" lon="-3.788567">
        <ele>2283.0</ele>
        <time>2017-06-23T15:21:32Z</time>
      </trkpt>
      <trkpt lat="42.350567" lon="-3.788550">
        <ele>2292.0</ele>
        <time>2017-06-23T15:21:35Z</time>
      </trkpt>
      <trkpt lat="42.350448" lon="-3.788683">
        <ele>2297.0</ele>
        <time>2017-06-23T15:21:38Z</time>
      </trkpt>
      <trkpt lat="42.350380" lon="-3.788950">
        <ele>2301.0</ele>
        <time>2017-06-23T15:21:41Z</time>
      </trkpt>
      <trkpt lat="42.350328" lon="-3.789183">
        <ele>2307.0</ele>
        <time>2017-06-23T15:21:44Z</time>
      </trkpt>
      <trkpt lat="42.350315" lon="-3.789433">
        <ele>2311.0</ele>
        <time>2017-06-23T15:21:47Z</time>
      </trkpt>
      <trkpt lat="42.350301" lon="-3.789700">
        <ele>2311.0</ele>
        <time>2017-06-23T15:21:50Z</time>
      </trkpt>
      <trkpt lat="42.350366" lon="-3.790016">
        <ele>2316.0</ele>
        <time>2017-06-23T15:21:53Z</time>
      </trkpt>
      <trkpt lat="42.350465" lon="-3.790300">
        <ele>2318.0</ele>
        <time>2017-06-23T15:21:56Z</time>
      </trkpt>
      <trkpt lat="42.350632" lon="-3.790600">
        <ele>2319.0</ele>
        <time>2017-06-23T15:21:59Z</time>
      </trkpt>
      <trkpt lat="42.350865" lon="-3.790833">
        <ele>2322.0</ele>
        <time>2017-06-23T15:22:02Z</time>
      </trkpt>
      <trkpt lat="42.351199" lon="-3.791017">
        <ele>2322.0</ele>
        <time>2017-06-23T15:22:06Z</time>
      </trkpt>
      <trkpt lat="42.351517" lon="-3.791033">
        <ele>2325.0</ele>
        <time>2017-06-23T15:22:09Z</time>
      </trkpt>
      <trkpt lat="42.351800" lon="-3.791033">
        <ele>2328.0</ele>
        <time>2017-06-23T15:22:12Z</time>
      </trkpt>
      <trkpt lat="42.352067" lon="-3.791017">
        <ele>2326.0</ele>
        <time>2017-06-23T15:22:15Z</time>
      </trkpt>
      <trkpt lat="42.352231" lon="-3.790667">
        <ele>2322.0</ele>
        <time>2017-06-23T15:22:18Z</time>
      </trkpt>
      <trkpt lat="42.352015" lon="-3.790550">
        <ele>2321.0</ele>
        <time>2017-06-23T15:22:21Z</time>
      </trkpt>
      <trkpt lat="42.351899" lon="-3.790567">
        <ele>2323.0</ele>
        <time>2017-06-23T15:22:24Z</time>
      </trkpt>
      <trkpt lat="42.351800" lon="-3.790700">
        <ele>2320.0</ele>
        <time>2017-06-23T15:22:27Z</time>
      </trkpt>
      <trkpt lat="42.351715" lon="-3.790950">
        <ele>2321.0</ele>
        <time>2017-06-23T15:22:30Z</time>
      </trkpt>
      <trkpt lat="42.351763" lon="-3.791200">
        <ele>2318.0</ele>
        <time>2017-06-23T15:22:33Z</time>
      </trkpt>
      <trkpt lat="42.351899" lon="-3.791500">
        <ele>2317.0</ele>
        <time>2017-06-23T15:22:36Z</time>
      </trkpt>
      <trkpt lat="42.352114" lon="-3.791733">
        <ele>2318.0</ele>
        <time>2017-06-23T15:22:39Z</time>
      </trkpt>
      <trkpt lat="42.352347" lon="-3.791817">
        <ele>2318.0</ele>
        <time>2017-06-23T15:22:42Z</time>
      </trkpt>
      <trkpt lat="42.352664" lon="-3.791833">
        <ele>2319.0</ele>
        <time>2017-06-23T15:22:46Z</time>
      </trkpt>
      <trkpt lat="42.352917" lon="-3.791833">
        <ele>2315.0</ele>
        <time>2017-06-23T15:22:49Z</time>
      </trkpt>
      <trkpt lat="42.353214" lon="-3.791850">
        <ele>2316.0</ele>
        <time>2017-06-23T15:22:52Z</time>
      </trkpt>
      <trkpt lat="42.353501" lon="-3.791800">
        <ele>2315.0</ele>
        <time>2017-06-23T15:22:55Z</time>
      </trkpt>
      <trkpt lat="42.353781" lon="-3.791767">
        <ele>2311.0</ele>
        <time>2017-06-23T15:22:58Z</time>
      </trkpt>
      <trkpt lat="42.354065" lon="-3.791600">
        <ele>2305.0</ele>
        <time>2017-06-23T15:23:01Z</time>
      </trkpt>
      <trkpt lat="42.354396" lon="-3.791417">
        <ele>2300.0</ele>
        <time>2017-06-23T15:23:04Z</time>
      </trkpt>
      <trkpt lat="42.354683" lon="-3.791216">
        <ele>2294.0</ele>
        <time>2017-06-23T15:23:07Z</time>
      </trkpt>
      <trkpt lat="42.354980" lon="-3.791050">
        <ele>2286.0</ele>
        <time>2017-06-23T15:23:10Z</time>
      </trkpt>
      <trkpt lat="42.355280" lon="-3.790884">
        <ele>2280.0</ele>
        <time>2017-06-23T15:23:13Z</time>
      </trkpt>
      <trkpt lat="42.355564" lon="-3.790717">
        <ele>2265.0</ele>
        <time>2017-06-23T15:23:16Z</time>
      </trkpt>
      <trkpt lat="42.355864" lon="-3.790500">
        <ele>2261.0</ele>
        <time>2017-06-23T15:23:19Z</time>
      </trkpt>
      <trkpt lat="42.356131" lon="-3.790267">
        <ele>2254.0</ele>
        <time>2017-06-23T15:23:22Z</time>
      </trkpt>
      <trkpt lat="42.356482" lon="-3.790000">
        <ele>2249.0</ele>
        <time>2017-06-23T15:23:26Z</time>
      </trkpt>
      <trkpt lat="42.356766" lon="-3.789783">
        <ele>2240.0</ele>
        <time>2017-06-23T15:23:29Z</time>
      </trkpt>
      <trkpt lat="42.356998" lon="-3.789467">
        <ele>2236.0</ele>
        <time>2017-06-23T15:23:32Z</time>
      </trkpt>
      <trkpt lat="42.357217" lon="-3.789167">
        <ele>2225.0</ele>
        <time>2017-06-23T15:23:35Z</time>
      </trkpt>
      <trkpt lat="42.357463" lon="-3.788800">
        <ele>2219.0</ele>
        <time>2017-06-23T15:23:38Z</time>
      </trkpt>
      <trkpt lat="42.357647" lon="-3.788467">
        <ele>2213.0</ele>
        <time>2017-06-23T15:23:41Z</time>
      </trkpt>
      <trkpt lat="42.357900" lon="-3.788183">
        <ele>2204.0</ele>
        <time>2017-06-23T15:23:44Z</time>
      </trkpt>
      <trkpt lat="42.358180" lon="-3.787950">
        <ele>2194.0</ele>
        <time>2017-06-23T15:23:47Z</time>
      </trkpt>
      <trkpt lat="42.358484" lon="-3.787650">
        <ele>2187.0</ele>
        <time>2017-06-23T15:23:50Z</time>
      </trkpt>
      <trkpt lat="42.358750" lon="-3.787350">
        <ele>2181.0</ele>
        <time>2017-06-23T15:23:53Z</time>
      </trkpt>
      <trkpt lat="42.358948" lon="-3.786966">
        <ele>2175.0</ele>
        <time>2017-06-23T15:23:56Z</time>
      </trkpt>
      <trkpt lat="42.359030" lon="-3.786550">
        <ele>2165.0</ele>
        <time>2017-06-23T15:23:59Z</time>
      </trkpt>
      <trkpt lat="42.359150" lon="-3.786116">
        <ele>2157.0</ele>
        <time>2017-06-23T15:24:02Z</time>
      </trkpt>
      <trkpt lat="42.359300" lon="-3.785667">
        <ele>2144.0</ele>
        <time>2017-06-23T15:24:05Z</time>
      </trkpt>
      <trkpt lat="42.359665" lon="-3.785167">
        <ele>2140.0</ele>
        <time>2017-06-23T15:24:09Z</time>
      </trkpt>
      <trkpt lat="42.359880" lon="-3.784817">
        <ele>2135.0</ele>
        <time>2017-06-23T15:24:12Z</time>
      </trkpt>
      <trkpt lat="42.360198" lon="-3.784483">
        <ele>2129.0</ele>
        <time>2017-06-23T15:24:15Z</time>
      </trkpt>
      <trkpt lat="42.360499" lon="-3.784250">
        <ele>2126.0</ele>
        <time>2017-06-23T15:24:18Z</time>
      </trkpt>
      <trkpt lat="42.360847" lon="-3.784000">
        <ele>2120.0</ele>
        <time>2017-06-23T15:24:21Z</time>
      </trkpt>
      <trkpt lat="42.361182" lon="-3.783767">
        <ele>2119.0</ele>
        <time>2017-06-23T15:24:24Z</time>
      </trkpt>
      <trkpt lat="42.361479" lon="-3.783483">
        <ele>2116.0</ele>
        <time>2017-06-23T15:24:27Z</time>
      </trkpt>
      <trkpt lat="42.361796" lon="-3.783233">
        <ele>2116.0</ele>
        <time>2017-06-23T15:24:30Z</time>
      </trkpt>
      <trkpt lat="42.362063" lon="-3.782867">
        <ele>2111.0</ele>
        <time>2017-06-23T15:24:33Z</time>
      </trkpt>
      <trkpt lat="42.362346" lon="-3.782566">
        <ele>2111.0</ele>
        <time>2017-06-23T15:24:36Z</time>
      </trkpt>
      <trkpt lat="42.362612" lon="-3.782283">
        <ele>2106.0</ele>
        <time>2017-06-23T15:24:39Z</time>
      </trkpt>
      <trkpt lat="42.362797" lon="-3.781866">
        <ele>2103.0</ele>
        <time>2017-06-23T15:24:42Z</time>
      </trkpt>
      <trkpt lat="42.362985" lon="-3.781434">
        <ele>2101.0</ele>
        <time>2017-06-23T15:24:45Z</time>
      </trkpt>
      <trkpt lat="42.363183" lon="-3.780950">
        <ele>2105.0</ele>
        <time>2017-06-23T15:24:48Z</time>
      </trkpt>
      <trkpt lat="42.363483" lon="-3.780367">
        <ele>2105.0</ele>
        <time>2017-06-23T15:24:52Z</time>
      </trkpt>
      <trkpt lat="42.363746" lon="-3.779933">
        <ele>2106.0</ele>
        <time>2017-06-23T15:24:55Z</time>
      </trkpt>
      <trkpt lat="42.363982" lon="-3.779500">
        <ele>2106.0</ele>
        <time>2017-06-23T15:24:58Z</time>
      </trkpt>
      <trkpt lat="42.364279" lon="-3.779100">
        <ele>2108.0</ele>
        <time>2017-06-23T15:25:01Z</time>
      </trkpt>
      <trkpt lat="42.364549" lon="-3.778733">
        <ele>2110.0</ele>
        <time>2017-06-23T15:25:04Z</time>
      </trkpt>
      <trkpt lat="42.364849" lon="-3.778400">
        <ele>2110.0</ele>
        <time>2017-06-23T15:25:07Z</time>
      </trkpt>
      <trkpt lat="42.365181" lon="-3.778133">
        <ele>2108.0</ele>
        <time>2017-06-23T15:25:10Z</time>
      </trkpt>
      <trkpt lat="42.365567" lon="-3.777933">
        <ele>2107.0</ele>
        <time>2017-06-23T15:25:13Z</time>
      </trkpt>
      <trkpt lat="42.365898" lon="-3.777750">
        <ele>2107.0</ele>
        <time>2017-06-23T15:25:16Z</time>
      </trkpt>
      <trkpt lat="42.366198" lon="-3.777500">
        <ele>2102.0</ele>
        <time>2017-06-23T15:25:19Z</time>
      </trkpt>
      <trkpt lat="42.366495" lon="-3.777167">
        <ele>2102.0</ele>
        <time>2017-06-23T15:25:22Z</time>
      </trkpt>
      <trkpt lat="42.366799" lon="-3.776867">
        <ele>2098.0</ele>
        <time>2017-06-23T15:25:25Z</time>
      </trkpt>
      <trkpt lat="42.367100" lon="-3.776517">
        <ele>2096.0</ele>
        <time>2017-06-23T15:25:28Z</time>
      </trkpt>
      <trkpt lat="42.367383" lon="-3.776133">
        <ele>2093.0</ele>
        <time>2017-06-23T15:25:31Z</time>
      </trkpt>
      <trkpt lat="42.367762" lon="-3.775617">
        <ele>2096.0</ele>
        <time>2017-06-23T15:25:35Z</time>
      </trkpt>
      <trkpt lat="42.368015" lon="-3.775317">
        <ele>2098.0</ele>
        <time>2017-06-23T15:25:38Z</time>
      </trkpt>
      <trkpt lat="42.368247" lon="-3.774933">
        <ele>2101.0</ele>
        <time>2017-06-23T15:25:41Z</time>
      </trkpt>
      <trkpt lat="42.368446" lon="-3.774567">
        <ele>2102.0</ele>
        <time>2017-06-23T15:25:44Z</time>
      </trkpt>
      <trkpt lat="42.368565" lon="-3.774133">
        <ele>2107.0</ele>
        <time>2017-06-23T15:25:47Z</time>
      </trkpt>
      <trkpt lat="42.368664" lon="-3.773783">
        <ele>2109.0</ele>
        <time>2017-06-23T15:25:50Z</time>
      </trkpt>
      <trkpt lat="42.368647" lon="-3.773333">
        <ele>2111.0</ele>
        <time>2017-06-23T15:25:53Z</time>
      </trkpt>
      <trkpt lat="42.368500" lon="-3.773267">
        <ele>2116.0</ele>
        <time>2017-06-23T15:25:56Z</time>
      </trkpt>
      <trkpt lat="42.368398" lon="-3.773333">
        <ele>2114.0</ele>
        <time>2017-06-23T15:25:59Z</time>
      </trkpt>
      <trkpt lat="42.368466" lon="-3.773550">
        <ele>2111.0</ele>
        <time>2017-06-23T15:26:02Z</time>
      </trkpt>
      <trkpt lat="42.368732" lon="-3.773717">
        <ele>2113.0</ele>
        <time>2017-06-23T15:26:05Z</time>
      </trkpt>
      <trkpt lat="42.368999" lon="-3.773833">
        <ele>2115.0</ele>
        <time>2017-06-23T15:26:08Z</time>
      </trkpt>
      <trkpt lat="42.369282" lon="-3.773934">
        <ele>2117.0</ele>
        <time>2017-06-23T15:26:11Z</time>
      </trkpt>
      <trkpt lat="42.369562" lon="-3.773983">
        <ele>2117.0</ele>
        <time>2017-06-23T15:26:14Z</time>
      </trkpt>
      <trkpt lat="42.369931" lon="-3.773717">
        <ele>2115.0</ele>
        <time>2017-06-23T15:26:18Z</time>
      </trkpt>
      <trkpt lat="42.369999" lon="-3.773333">
        <ele>2113.0</ele>
        <time>2017-06-23T15:26:21Z</time>
      </trkpt>
      <trkpt lat="42.369832" lon="-3.773116">
        <ele>2113.0</ele>
        <time>2017-06-23T15:26:24Z</time>
      </trkpt>
      <trkpt lat="42.369648" lon="-3.773116">
        <ele>2119.0</ele>
        <time>2017-06-23T15:26:27Z</time>
      </trkpt>
      <trkpt lat="42.369528" lon="-3.773233">
        <ele>2119.0</ele>
        <time>2017-06-23T15:26:30Z</time>
      </trkpt>
      <trkpt lat="42.369549" lon="-3.773483">
        <ele>2119.0</ele>
        <time>2017-06-23T15:26:33Z</time>
      </trkpt>
      <trkpt lat="42.369699" lon="-3.773750">
        <ele>2119.0</ele>
        <time>2017-06-23T15:26:36Z</time>
      </trkpt>
      <trkpt lat="42.369914" lon="-3.773950">
        <ele>2119.0</ele>
        <time>2017-06-23T15:26:39Z</time>
      </trkpt>
      <trkpt lat="42.370180" lon="-3.774050">
        <ele>2119.0</ele>
        <time>2017-06-23T15:26:42Z</time>
      </trkpt>
      <trkpt lat="42.370464" lon="-3.774150">
        <ele>2117.0</ele>
        <time>2017-06-23T15:26:45Z</time>
      </trkpt>
      <trkpt lat="42.370764" lon="-3.774150">
        <ele>2116.0</ele>
        <time>2017-06-23T15:26:48Z</time>
      </trkpt>
      <trkpt lat="42.371082" lon="-3.774117">
        <ele>2114.0</ele>
        <time>2017-06-23T15:26:51Z</time>
      </trkpt>
      <trkpt lat="42.371413" lon="-3.773966">
        <ele>2109.0</ele>
        <time>2017-06-23T15:26:54Z</time>
      </trkpt>
      <trkpt lat="42.371748" lon="-3.773667">
        <ele>2106.0</ele>
        <time>2017-06-23T15:26:57Z</time>
      </trkpt>
      <trkpt lat="42.372147" lon="-3.773200">
        <ele>2108.0</ele>
        <time>2017-06-23T15:27:01Z</time>
      </trkpt>
      <trkpt lat="42.372414" lon="-3.772850">
        <ele>2108.0</ele>
        <time>2017-06-23T15:27:04Z</time>
      </trkpt>
      <trkpt lat="42.372667" lon="-3.772450">
        <ele>2107.0</ele>
        <time>2017-06-23T15:27:07Z</time>
      </trkpt>
      <trkpt lat="42.372865" lon="-3.772033">
        <ele>2107.0</ele>
        <time>2017-06-23T15:27:10Z</time>
      </trkpt>
      <trkpt lat="42.373066" lon="-3.771683">
        <ele>2093.0</ele>
        <time>2017-06-23T15:27:13Z</time>
      </trkpt>
      <trkpt lat="42.373363" lon="-3.771183">
        <ele>2084.0</ele>
        <time>2017-06-23T15:27:16Z</time>
      </trkpt>
      <trkpt lat="42.373582" lon="-3.770733">
        <ele>2083.0</ele>
        <time>2017-06-23T15:27:19Z</time>
      </trkpt>
      <trkpt lat="42.373814" lon="-3.770267">
        <ele>2072.0</ele>
        <time>2017-06-23T15:27:22Z</time>
      </trkpt>
      <trkpt lat="42.374029" lon="-3.769800">
        <ele>2061.0</ele>
        <time>2017-06-23T15:27:25Z</time>
      </trkpt>
      <trkpt lat="42.374333" lon="-3.769383">
        <ele>2050.0</ele>
        <time>2017-06-23T15:27:28Z</time>
      </trkpt>
      <trkpt lat="42.374681" lon="-3.769000">
        <ele>2040.0</ele>
        <time>2017-06-23T15:27:31Z</time>
      </trkpt>
      <trkpt lat="42.375030" lon="-3.768700">
        <ele>2030.0</ele>
        <time>2017-06-23T15:27:34Z</time>
      </trkpt>
      <trkpt lat="42.375382" lon="-3.768450">
        <ele>2021.0</ele>
        <time>2017-06-23T15:27:37Z</time>
      </trkpt>
      <trkpt lat="42.375815" lon="-3.767984">
        <ele>2012.0</ele>
        <time>2017-06-23T15:27:41Z</time>
      </trkpt>
      <trkpt lat="42.376133" lon="-3.767566">
        <ele>2002.0</ele>
        <time>2017-06-23T15:27:44Z</time>
      </trkpt>
      <trkpt lat="42.376430" lon="-3.767100">
        <ele>1995.0</ele>
        <time>2017-06-23T15:27:47Z</time>
      </trkpt>
      <trkpt lat="42.376696" lon="-3.766617">
        <ele>1990.0</ele>
        <time>2017-06-23T15:27:50Z</time>
      </trkpt>
      <trkpt lat="42.376929" lon="-3.766083">
        <ele>1983.0</ele>
        <time>2017-06-23T15:27:53Z</time>
      </trkpt>
      <trkpt lat="42.377168" lon="-3.765567">
        <ele>1979.0</ele>
        <time>2017-06-23T15:27:56Z</time>
      </trkpt>
      <trkpt lat="42.377400" lon="-3.765000">
        <ele>1978.0</ele>
        <time>2017-06-23T15:27:59Z</time>
      </trkpt>
      <trkpt lat="42.377680" lon="-3.764484">
        <ele>1980.0</ele>
        <time>2017-06-23T15:28:02Z</time>
      </trkpt>
      <trkpt lat="42.377963" lon="-3.764016">
        <ele>1983.0</ele>
        <time>2017-06-23T15:28:05Z</time>
      </trkpt>
      <trkpt lat="42.378250" lon="-3.763650">
        <ele>1973.0</ele>
        <time>2017-06-23T15:28:08Z</time>
      </trkpt>
      <trkpt lat="42.378633" lon="-3.763316">
        <ele>1968.0</ele>
        <time>2017-06-23T15:28:11Z</time>
      </trkpt>
      <trkpt lat="42.378998" lon="-3.762983">
        <ele>1966.0</ele>
        <time>2017-06-23T15:28:14Z</time>
      </trkpt>
      <trkpt lat="42.379398" lon="-3.762750">
        <ele>1965.0</ele>
        <time>2017-06-23T15:28:17Z</time>
      </trkpt>
      <trkpt lat="42.379763" lon="-3.762450">
        <ele>1966.0</ele>
        <time>2017-06-23T15:28:20Z</time>
      </trkpt>
      <trkpt lat="42.380282" lon="-3.762100">
        <ele>1969.0</ele>
        <time>2017-06-23T15:28:24Z</time>
      </trkpt>
      <trkpt lat="42.380613" lon="-3.761850">
        <ele>1975.0</ele>
        <time>2017-06-23T15:28:27Z</time>
      </trkpt>
      <trkpt lat="42.380948" lon="-3.761683">
        <ele>1976.0</ele>
        <time>2017-06-23T15:28:30Z</time>
      </trkpt>
      <trkpt lat="42.381348" lon="-3.761567">
        <ele>1981.0</ele>
        <time>2017-06-23T15:28:33Z</time>
      </trkpt>
      <trkpt lat="42.381699" lon="-3.761483">
        <ele>1986.0</ele>
        <time>2017-06-23T15:28:36Z</time>
      </trkpt>
      <trkpt lat="42.382099" lon="-3.761400">
        <ele>1990.0</ele>
        <time>2017-06-23T15:28:39Z</time>
      </trkpt>
      <trkpt lat="42.382464" lon="-3.761284">
        <ele>1994.0</ele>
        <time>2017-06-23T15:28:42Z</time>
      </trkpt>
      <trkpt lat="42.382796" lon="-3.761200">
        <ele>1992.0</ele>
        <time>2017-06-23T15:28:45Z</time>
      </trkpt>
      <trkpt lat="42.383199" lon="-3.761167">
        <ele>1994.0</ele>
        <time>2017-06-23T15:28:48Z</time>
      </trkpt>
      <trkpt lat="42.383701" lon="-3.761000">
        <ele>1995.0</ele>
        <time>2017-06-23T15:28:52Z</time>
      </trkpt>
      <trkpt lat="42.384087" lon="-3.760850">
        <ele>1994.0</ele>
        <time>2017-06-23T15:28:55Z</time>
      </trkpt>
      <trkpt lat="42.384435" lon="-3.760617">
        <ele>1995.0</ele>
        <time>2017-06-23T15:28:58Z</time>
      </trkpt>
      <trkpt lat="42.384749" lon="-3.760433">
        <ele>1993.0</ele>
        <time>2017-06-23T15:29:01Z</time>
      </trkpt>
      <trkpt lat="42.385036" lon="-3.760133">
        <ele>1990.0</ele>
        <time>2017-06-23T15:29:04Z</time>
      </trkpt>
      <trkpt lat="42.385200" lon="-3.759700">
        <ele>1990.0</ele>
        <time>2017-06-23T15:29:07Z</time>
      </trkpt>
      <trkpt lat="42.385251" lon="-3.759300">
        <ele>1987.0</ele>
        <time>2017-06-23T15:29:10Z</time>
      </trkpt>
      <trkpt lat="42.385135" lon="-3.759083">
        <ele>1983.0</ele>
        <time>2017-06-23T15:29:13Z</time>
      </trkpt>
      <trkpt lat="42.385087" lon="-3.759283">
        <ele>1980.0</ele>
        <time>2017-06-23T15:29:16Z</time>
      </trkpt>
      <trkpt lat="42.385152" lon="-3.759483">
        <ele>1980.0</ele>
        <time>2017-06-23T15:29:19Z</time>
      </trkpt>
      <trkpt lat="42.385251" lon="-3.759700">
        <ele>1976.0</ele>
        <time>2017-06-23T15:29:22Z</time>
      </trkpt>
      <trkpt lat="42.385436" lon="-3.759917">
        <ele>1970.0</ele>
        <time>2017-06-23T15:29:25Z</time>
      </trkpt>
      <trkpt lat="42.385685" lon="-3.760133">
        <ele>1967.0</ele>
        <time>2017-06-23T15:29:28Z</time>
      </trkpt>
      <trkpt lat="42.386037" lon="-3.760233">
        <ele>1962.0</ele>
        <time>2017-06-23T15:29:31Z</time>
      </trkpt>
      <trkpt lat="42.386402" lon="-3.760250">
        <ele>1956.0</ele>
        <time>2017-06-23T15:29:34Z</time>
      </trkpt>
      <trkpt lat="42.386802" lon="-3.760033">
        <ele>1954.0</ele>
        <time>2017-06-23T15:29:37Z</time>
      </trkpt>
      <trkpt lat="42.387184" lon="-3.759833">
        <ele>1951.0</ele>
        <time>2017-06-23T15:29:40Z</time>
      </trkpt>
      <trkpt lat="42.387550" lon="-3.759583">
        <ele>1948.0</ele>
        <time>2017-06-23T15:29:43Z</time>
      </trkpt>
      <trkpt lat="42.388048" lon="-3.759300">
        <ele>1946.0</ele>
        <time>2017-06-23T15:29:47Z</time>
      </trkpt>
      <trkpt lat="42.388451" lon="-3.759083">
        <ele>1939.0</ele>
        <time>2017-06-23T15:29:50Z</time>
      </trkpt>
      <trkpt lat="42.388871" lon="-3.758817">
        <ele>1938.0</ele>
        <time>2017-06-23T15:29:53Z</time>
      </trkpt>
      <trkpt lat="42.389250" lon="-3.758533">
        <ele>1933.0</ele>
        <time>2017-06-23T15:29:56Z</time>
      </trkpt>
      <trkpt lat="42.389653" lon="-3.758200">
        <ele>1932.0</ele>
        <time>2017-06-23T15:29:59Z</time>
      </trkpt>
      <trkpt lat="42.390032" lon="-3.757867">
        <ele>1926.0</ele>
        <time>2017-06-23T15:30:02Z</time>
      </trkpt>
      <trkpt lat="42.390435" lon="-3.757550">
        <ele>1922.0</ele>
        <time>2017-06-23T15:30:05Z</time>
      </trkpt>
      <trkpt lat="42.390770" lon="-3.757183">
        <ele>1920.0</ele>
        <time>2017-06-23T15:30:08Z</time>
      </trkpt>
      <trkpt lat="42.391067" lon="-3.756817">
        <ele>1912.0</ele>
        <time>2017-06-23T15:30:11Z</time>
      </trkpt>
      <trkpt lat="42.391385" lon="-3.756367">
        <ele>1904.0</ele>
        <time>2017-06-23T15:30:14Z</time>
      </trkpt>
      <trkpt lat="42.391634" lon="-3.755900">
        <ele>1895.0</ele>
        <time>2017-06-23T15:30:17Z</time>
      </trkpt>
      <trkpt lat="42.391986" lon="-3.755517">
        <ele>1888.0</ele>
        <time>2017-06-23T15:30:20Z</time>
      </trkpt>
      <trkpt lat="42.392303" lon="-3.755150">
        <ele>1881.0</ele>
        <time>2017-06-23T15:30:23Z</time>
      </trkpt>
      <trkpt lat="42.392621" lon="-3.754800">
        <ele>1874.0</ele>
        <time>2017-06-23T15:30:26Z</time>
      </trkpt>
      <trkpt lat="42.393034" lon="-3.754450">
        <ele>1870.0</ele>
        <time>2017-06-23T15:30:30Z</time>
      </trkpt>
      <trkpt lat="42.393304" lon="-3.754167">
        <ele>1859.0</ele>
        <time>2017-06-23T15:30:33Z</time>
      </trkpt>
      <trkpt lat="42.393635" lon="-3.753850">
        <ele>1856.0</ele>
        <time>2017-06-23T15:30:36Z</time>
      </trkpt>
      <trkpt lat="42.393850" lon="-3.753617">
        <ele>1859.0</ele>
        <time>2017-06-23T15:30:39Z</time>
      </trkpt>
      <trkpt lat="42.394185" lon="-3.753383">
        <ele>1850.0</ele>
        <time>2017-06-23T15:30:42Z</time>
      </trkpt>
      <trkpt lat="42.394499" lon="-3.753050">
        <ele>1842.0</ele>
        <time>2017-06-23T15:30:45Z</time>
      </trkpt>
      <trkpt lat="42.394803" lon="-3.752733">
        <ele>1833.0</ele>
        <time>2017-06-23T15:30:48Z</time>
      </trkpt>
      <trkpt lat="42.395083" lon="-3.752400">
        <ele>1825.0</ele>
        <time>2017-06-23T15:30:51Z</time>
      </trkpt>
      <trkpt lat="42.395350" lon="-3.752083">
        <ele>1816.0</ele>
        <time>2017-06-23T15:30:54Z</time>
      </trkpt>
      <trkpt lat="42.395633" lon="-3.751700">
        <ele>1805.0</ele>
        <time>2017-06-23T15:30:57Z</time>
      </trkpt>
      <trkpt lat="42.395934" lon="-3.751317">
        <ele>1797.0</ele>
        <time>2017-06-23T15:31:00Z</time>
      </trkpt>
      <trkpt lat="42.396268" lon="-3.751000">
        <ele>1791.0</ele>
        <time>2017-06-23T15:31:03Z</time>
      </trkpt>
      <trkpt lat="42.396552" lon="-3.750650">
        <ele>1783.0</ele>
        <time>2017-06-23T15:31:06Z</time>
      </trkpt>
      <trkpt lat="42.397020" lon="-3.750283">
        <ele>1776.0</ele>
        <time>2017-06-23T15:31:10Z</time>
      </trkpt>
      <trkpt lat="42.397300" lon="-3.749966">
        <ele>1771.0</ele>
        <time>2017-06-23T15:31:13Z</time>
      </trkpt>
      <trkpt lat="42.397566" lon="-3.749683">
        <ele>1765.0</ele>
        <time>2017-06-23T15:31:16Z</time>
      </trkpt>
      <trkpt lat="42.397870" lon="-3.749467">
        <ele>1765.0</ele>
        <time>2017-06-23T15:31:19Z</time>
      </trkpt>
      <trkpt lat="42.398136" lon="-3.749267">
        <ele>1765.0</ele>
        <time>2017-06-23T15:31:22Z</time>
      </trkpt>
      <trkpt lat="42.398454" lon="-3.749067">
        <ele>1763.0</ele>
        <time>2017-06-23T15:31:25Z</time>
      </trkpt>
      <trkpt lat="42.398734" lon="-3.748867">
        <ele>1762.0</ele>
        <time>2017-06-23T15:31:28Z</time>
      </trkpt>
      <trkpt lat="42.399052" lon="-3.748633">
        <ele>1759.0</ele>
        <time>2017-06-23T15:31:31Z</time>
      </trkpt>
      <trkpt lat="42.399383" lon="-3.748400">
        <ele>1757.0</ele>
        <time>2017-06-23T15:31:34Z</time>
      </trkpt>
      <trkpt lat="42.399670" lon="-3.748067">
        <ele>1754.0</ele>
        <time>2017-06-23T15:31:37Z</time>
      </trkpt>
      <trkpt lat="42.399953" lon="-3.747683">
        <ele>1750.0</ele>
        <time>2017-06-23T15:31:40Z</time>
      </trkpt>
      <trkpt lat="42.400267" lon="-3.747317">
        <ele>1744.0</ele>
        <time>2017-06-23T15:31:43Z</time>
      </trkpt>
      <trkpt lat="42.400599" lon="-3.746933">
        <ele>1739.0</ele>
        <time>2017-06-23T15:31:46Z</time>
      </trkpt>
      <trkpt lat="42.401002" lon="-3.746416">
        <ele>1734.0</ele>
        <time>2017-06-23T15:31:50Z</time>
      </trkpt>
      <trkpt lat="42.401387" lon="-3.746150">
        <ele>1726.0</ele>
        <time>2017-06-23T15:31:53Z</time>
      </trkpt>
      <trkpt lat="42.401801" lon="-3.745884">
        <ele>1725.0</ele>
        <time>2017-06-23T15:31:56Z</time>
      </trkpt>
      <trkpt lat="42.402204" lon="-3.745700">
        <ele>1727.0</ele>
        <time>2017-06-23T15:31:59Z</time>
      </trkpt>
      <trkpt lat="42.402549" lon="-3.745550">
        <ele>1729.0</ele>
        <time>2017-06-23T15:32:02Z</time>
      </trkpt>
      <trkpt lat="42.402801" lon="-3.745184">
        <ele>1725.0</ele>
        <time>2017-06-23T15:32:05Z</time>
      </trkpt>
      <trkpt lat="42.402767" lon="-3.744867">
        <ele>1723.0</ele>
        <time>2017-06-23T15:32:08Z</time>
      </trkpt>
      <trkpt lat="42.402716" lon="-3.744967">
        <ele>1722.0</ele>
        <time>2017-06-23T15:32:11Z</time>
      </trkpt>
      <trkpt lat="42.402767" lon="-3.745167">
        <ele>1723.0</ele>
        <time>2017-06-23T15:32:14Z</time>
      </trkpt>
      <trkpt lat="42.402866" lon="-3.745417">
        <ele>1723.0</ele>
        <time>2017-06-23T15:32:17Z</time>
      </trkpt>
      <trkpt lat="42.403020" lon="-3.745633">
        <ele>1727.0</ele>
        <time>2017-06-23T15:32:20Z</time>
      </trkpt>
      <trkpt lat="42.403218" lon="-3.745767">
        <ele>1728.0</ele>
        <time>2017-06-23T15:32:23Z</time>
      </trkpt>
      <trkpt lat="42.403420" lon="-3.745900">
        <ele>1731.0</ele>
        <time>2017-06-23T15:32:26Z</time>
      </trkpt>
      <trkpt lat="42.403618" lon="-3.746017">
        <ele>1731.0</ele>
        <time>2017-06-23T15:32:29Z</time>
      </trkpt>
      <trkpt lat="42.403935" lon="-3.745966">
        <ele>1731.0</ele>
        <time>2017-06-23T15:32:32Z</time>
      </trkpt>
      <trkpt lat="42.404348" lon="-3.745700">
        <ele>1734.0</ele>
        <time>2017-06-23T15:32:36Z</time>
      </trkpt>
      <trkpt lat="42.404618" lon="-3.745433">
        <ele>1733.0</ele>
        <time>2017-06-23T15:32:39Z</time>
      </trkpt>
      <trkpt lat="42.404700" lon="-3.744967">
        <ele>1731.0</ele>
        <time>2017-06-23T15:32:42Z</time>
      </trkpt>
      <trkpt lat="42.404601" lon="-3.744700">
        <ele>1732.0</ele>
        <time>2017-06-23T15:32:45Z</time>
      </trkpt>
      <trkpt lat="42.404485" lon="-3.744667">
        <ele>1732.0</ele>
        <time>2017-06-23T15:32:48Z</time>
      </trkpt>
      <trkpt lat="42.404434" lon="-3.744766">
        <ele>1729.0</ele>
        <time>2017-06-23T15:32:51Z</time>
      </trkpt>
      <trkpt lat="42.404553" lon="-3.744983">
        <ele>1731.0</ele>
        <time>2017-06-23T15:32:54Z</time>
      </trkpt>
      <trkpt lat="42.404700" lon="-3.745116">
        <ele>1731.0</ele>
        <time>2017-06-23T15:32:57Z</time>
      </trkpt>
      <trkpt lat="42.404953" lon="-3.745200">
        <ele>1732.0</ele>
        <time>2017-06-23T15:33:00Z</time>
      </trkpt>
      <trkpt lat="42.405219" lon="-3.745216">
        <ele>1733.0</ele>
        <time>2017-06-23T15:33:03Z</time>
      </trkpt>
      <trkpt lat="42.405482" lon="-3.745184">
        <ele>1730.0</ele>
        <time>2017-06-23T15:33:06Z</time>
      </trkpt>
      <trkpt lat="42.405769" lon="-3.745017">
        <ele>1729.0</ele>
        <time>2017-06-23T15:33:09Z</time>
      </trkpt>
      <trkpt lat="42.406035" lon="-3.744800">
        <ele>1726.0</ele>
        <time>2017-06-23T15:33:12Z</time>
      </trkpt>
      <trkpt lat="42.406353" lon="-3.744300">
        <ele>1723.0</ele>
        <time>2017-06-23T15:33:16Z</time>
      </trkpt>
      <trkpt lat="42.406537" lon="-3.743934">
        <ele>1723.0</ele>
        <time>2017-06-23T15:33:19Z</time>
      </trkpt>
      <trkpt lat="42.406783" lon="-3.743584">
        <ele>1718.0</ele>
        <time>2017-06-23T15:33:22Z</time>
      </trkpt>
      <trkpt lat="42.407036" lon="-3.743250">
        <ele>1717.0</ele>
        <time>2017-06-23T15:33:25Z</time>
      </trkpt>
      <trkpt lat="42.407282" lon="-3.742967">
        <ele>1712.0</ele>
        <time>2017-06-23T15:33:28Z</time>
      </trkpt>
      <trkpt lat="42.407586" lon="-3.742717">
        <ele>1708.0</ele>
        <time>2017-06-23T15:33:31Z</time>
      </trkpt>
      <trkpt lat="42.407852" lon="-3.742483">
        <ele>1707.0</ele>
        <time>2017-06-23T15:33:34Z</time>
      </trkpt>
      <trkpt lat="42.408084" lon="-3.742217">
        <ele>1707.0</ele>
        <time>2017-06-23T15:33:37Z</time>
      </trkpt>
      <trkpt lat="42.408303" lon="-3.741950">
        <ele>1708.0</ele>
        <time>2017-06-23T15:33:40Z</time>
      </trkpt>
      <trkpt lat="42.408501" lon="-3.741650">
        <ele>1710.0</ele>
        <time>2017-06-23T15:33:43Z</time>
      </trkpt>
      <trkpt lat="42.408703" lon="-3.741317">
        <ele>1706.0</ele>
        <time>2017-06-23T15:33:46Z</time>
      </trkpt>
      <trkpt lat="42.408781" lon="-3.740866">
        <ele>1707.0</ele>
        <time>2017-06-23T15:33:49Z</time>
      </trkpt>
      <trkpt lat="42.408901" lon="-3.740434">
        <ele>1703.0</ele>
        <time>2017-06-23T15:33:52Z</time>
      </trkpt>
      <trkpt lat="42.409051" lon="-3.740000">
        <ele>1697.0</ele>
        <time>2017-06-23T15:33:55Z</time>
      </trkpt>
      <trkpt lat="42.409485" lon="-3.739667">
        <ele>1692.0</ele>
        <time>2017-06-23T15:33:59Z</time>
      </trkpt>
      <trkpt lat="42.409867" lon="-3.739567">
        <ele>1687.0</ele>
        <time>2017-06-23T15:34:02Z</time>
      </trkpt>
      <trkpt lat="42.410250" lon="-3.739333">
        <ele>1689.0</ele>
        <time>2017-06-23T15:34:05Z</time>
      </trkpt>
      <trkpt lat="42.410618" lon="-3.739117">
        <ele>1692.0</ele>
        <time>2017-06-23T15:34:08Z</time>
      </trkpt>
      <trkpt lat="42.410950" lon="-3.739167">
        <ele>1693.0</ele>
        <time>2017-06-23T15:34:11Z</time>
      </trkpt>
      <trkpt lat="42.411052" lon="-3.739333">
        <ele>1699.0</ele>
        <time>2017-06-23T15:34:14Z</time>
      </trkpt>
      <trkpt lat="42.411083" lon="-3.739433">
        <ele>1703.0</ele>
        <time>2017-06-23T15:34:17Z</time>
      </trkpt>
      <trkpt lat="42.410984" lon="-3.739433">
        <ele>1706.0</ele>
        <time>2017-06-23T15:34:20Z</time>
      </trkpt>
      <trkpt lat="42.410834" lon="-3.739200">
        <ele>1707.0</ele>
        <time>2017-06-23T15:34:23Z</time>
      </trkpt>
      <trkpt lat="42.410765" lon="-3.738750">
        <ele>1711.0</ele>
        <time>2017-06-23T15:34:26Z</time>
      </trkpt>
      <trkpt lat="42.410933" lon="-3.738283">
        <ele>1713.0</ele>
        <time>2017-06-23T15:34:29Z</time>
      </trkpt>
      <trkpt lat="42.411250" lon="-3.738000">
        <ele>1713.0</ele>
        <time>2017-06-23T15:34:32Z</time>
      </trkpt>
      <trkpt lat="42.411551" lon="-3.738000">
        <ele>1718.0</ele>
        <time>2017-06-23T15:34:35Z</time>
      </trkpt>
      <trkpt lat="42.411851" lon="-3.738000">
        <ele>1719.0</ele>
        <time>2017-06-23T15:34:39Z</time>
      </trkpt>
      <trkpt lat="42.411933" lon="-3.738134">
        <ele>1718.0</ele>
        <time>2017-06-23T15:34:42Z</time>
      </trkpt>
      <trkpt lat="42.411933" lon="-3.738267">
        <ele>1722.0</ele>
        <time>2017-06-23T15:34:45Z</time>
      </trkpt>
      <trkpt lat="42.411985" lon="-3.738400">
        <ele>1725.0</ele>
        <time>2017-06-23T15:34:48Z</time>
      </trkpt>
      <trkpt lat="42.412135" lon="-3.738500">
        <ele>1726.0</ele>
        <time>2017-06-23T15:34:51Z</time>
      </trkpt>
      <trkpt lat="42.412384" lon="-3.738367">
        <ele>1726.0</ele>
        <time>2017-06-23T15:34:54Z</time>
      </trkpt>
      <trkpt lat="42.412668" lon="-3.738000">
        <ele>1727.0</ele>
        <time>2017-06-23T15:34:57Z</time>
      </trkpt>
      <trkpt lat="42.412883" lon="-3.737550">
        <ele>1728.0</ele>
        <time>2017-06-23T15:35:00Z</time>
      </trkpt>
      <trkpt lat="42.413016" lon="-3.737000">
        <ele>1730.0</ele>
        <time>2017-06-23T15:35:03Z</time>
      </trkpt>
      <trkpt lat="42.413135" lon="-3.736483">
        <ele>1730.0</ele>
        <time>2017-06-23T15:35:06Z</time>
      </trkpt>
      <trkpt lat="42.413135" lon="-3.736000">
        <ele>1727.0</ele>
        <time>2017-06-23T15:35:09Z</time>
      </trkpt>
      <trkpt lat="42.412985" lon="-3.735867">
        <ele>1726.0</ele>
        <time>2017-06-23T15:35:12Z</time>
      </trkpt>
      <trkpt lat="42.412968" lon="-3.735917">
        <ele>1728.0</ele>
        <time>2017-06-23T15:35:15Z</time>
      </trkpt>
      <trkpt lat="42.413067" lon="-3.736017">
        <ele>1727.0</ele>
        <time>2017-06-23T15:35:18Z</time>
      </trkpt>
      <trkpt lat="42.413286" lon="-3.736116">
        <ele>1726.0</ele>
        <time>2017-06-23T15:35:21Z</time>
      </trkpt>
      <trkpt lat="42.413620" lon="-3.736150">
        <ele>1727.0</ele>
        <time>2017-06-23T15:35:25Z</time>
      </trkpt>
      <trkpt lat="42.413918" lon="-3.736000">
        <ele>1726.0</ele>
        <time>2017-06-23T15:35:28Z</time>
      </trkpt>
      <trkpt lat="42.414184" lon="-3.735817">
        <ele>1723.0</ele>
        <time>2017-06-23T15:35:31Z</time>
      </trkpt>
      <trkpt lat="42.414467" lon="-3.735467">
        <ele>1715.0</ele>
        <time>2017-06-23T15:35:34Z</time>
      </trkpt>
      <trkpt lat="42.414768" lon="-3.735067">
        <ele>1715.0</ele>
        <time>2017-06-23T15:35:37Z</time>
      </trkpt>
      <trkpt lat="42.415051" lon="-3.734650">
        <ele>1718.0</ele>
        <time>2017-06-23T15:35:40Z</time>
      </trkpt>
      <trkpt lat="42.415202" lon="-3.734217">
        <ele>1723.0</ele>
        <time>2017-06-23T15:35:43Z</time>
      </trkpt>
      <trkpt lat="42.415283" lon="-3.733833">
        <ele>1724.0</ele>
        <time>2017-06-23T15:35:46Z</time>
      </trkpt>
      <trkpt lat="42.415253" lon="-3.733550">
        <ele>1727.0</ele>
        <time>2017-06-23T15:35:49Z</time>
      </trkpt>
      <trkpt lat="42.415232" lon="-3.733650">
        <ele>1730.0</ele>
        <time>2017-06-23T15:35:52Z</time>
      </trkpt>
      <trkpt lat="42.415417" lon="-3.733850">
        <ele>1736.0</ele>
        <time>2017-06-23T15:35:55Z</time>
      </trkpt>
      <trkpt lat="42.415669" lon="-3.734033">
        <ele>1742.0</ele>
        <time>2017-06-23T15:35:58Z</time>
      </trkpt>
      <trkpt lat="42.416134" lon="-3.734067">
        <ele>1747.0</ele>
        <time>2017-06-23T15:36:02Z</time>
      </trkpt>
      <trkpt lat="42.416469" lon="-3.734000">
        <ele>1756.0</ele>
        <time>2017-06-23T15:36:05Z</time>
      </trkpt>
      <trkpt lat="42.416766" lon="-3.733900">
        <ele>1759.0</ele>
        <time>2017-06-23T15:36:08Z</time>
      </trkpt>
      <trkpt lat="42.416971" lon="-3.733550">
        <ele>1762.0</ele>
        <time>2017-06-23T15:36:11Z</time>
      </trkpt>
      <trkpt lat="42.416899" lon="-3.733317">
        <ele>1765.0</ele>
        <time>2017-06-23T15:36:14Z</time>
      </trkpt>
      <trkpt lat="42.416786" lon="-3.733333">
        <ele>1768.0</ele>
        <time>2017-06-23T15:36:17Z</time>
      </trkpt>
      <trkpt lat="42.416718" lon="-3.733467">
        <ele>1773.0</ele>
        <time>2017-06-23T15:36:20Z</time>
      </trkpt>
      <trkpt lat="42.416766" lon="-3.733683">
        <ele>1778.0</ele>
        <time>2017-06-23T15:36:23Z</time>
      </trkpt>
      <trkpt lat="42.416865" lon="-3.733950">
        <ele>1784.0</ele>
        <time>2017-06-23T15:36:26Z</time>
      </trkpt>
      <trkpt lat="42.417035" lon="-3.734133">
        <ele>1792.0</ele>
        <time>2017-06-23T15:36:29Z</time>
      </trkpt>
      <trkpt lat="42.417251" lon="-3.734250">
        <ele>1795.0</ele>
        <time>2017-06-23T15:36:32Z</time>
      </trkpt>
      <trkpt lat="42.417551" lon="-3.734183">
        <ele>1797.0</ele>
        <time>2017-06-23T15:36:35Z</time>
      </trkpt>
      <trkpt lat="42.417818" lon="-3.733950">
        <ele>1801.0</ele>
        <time>2017-06-23T15:36:38Z</time>
      </trkpt>
      <trkpt lat="42.418033" lon="-3.733667">
        <ele>1800.0</ele>
        <time>2017-06-23T15:36:41Z</time>
      </trkpt>
      <trkpt lat="42.418166" lon="-3.733183">
        <ele>1798.0</ele>
        <time>2017-06-23T15:36:45Z</time>
      </trkpt>
      <trkpt lat="42.418067" lon="-3.732883">
        <ele>1797.0</ele>
        <time>2017-06-23T15:36:48Z</time>
      </trkpt>
      <trkpt lat="42.417886" lon="-3.732833">
        <ele>1804.0</ele>
        <time>2017-06-23T15:36:51Z</time>
      </trkpt>
      <trkpt lat="42.417753" lon="-3.732900">
        <ele>1806.0</ele>
        <time>2017-06-23T15:36:54Z</time>
      </trkpt>
      <trkpt lat="42.417551" lon="-3.732983">
        <ele>1810.0</ele>
        <time>2017-06-23T15:36:57Z</time>
      </trkpt>
      <trkpt lat="42.417384" lon="-3.733083">
        <ele>1817.0</ele>
        <time>2017-06-23T15:37:00Z</time>
      </trkpt>
      <trkpt lat="42.417216" lon="-3.733183">
        <ele>1821.0</ele>
        <time>2017-06-23T15:37:03Z</time>
      </trkpt>
      <trkpt lat="42.417104" lon="-3.733350">
        <ele>1829.0</ele>
        <time>2017-06-23T15:37:06Z</time>
      </trkpt>
      <trkpt lat="42.416971" lon="-3.733517">
        <ele>1839.0</ele>
        <time>2017-06-23T15:37:09Z</time>
      </trkpt>
      <trkpt lat="42.416919" lon="-3.733734">
        <ele>1852.0</ele>
        <time>2017-06-23T15:37:12Z</time>
      </trkpt>
      <trkpt lat="42.416950" lon="-3.733950">
        <ele>1861.0</ele>
        <time>2017-06-23T15:37:15Z</time>
      </trkpt>
      <trkpt lat="42.417049" lon="-3.734200">
        <ele>1872.0</ele>
        <time>2017-06-23T15:37:18Z</time>
      </trkpt>
      <trkpt lat="42.417216" lon="-3.734417">
        <ele>1881.0</ele>
        <time>2017-06-23T15:37:21Z</time>
      </trkpt>
      <trkpt lat="42.417435" lon="-3.734567">
        <ele>1887.0</ele>
        <time>2017-06-23T15:37:24Z</time>
      </trkpt>
      <trkpt lat="42.417787" lon="-3.734467">
        <ele>1894.0</ele>
        <time>2017-06-23T15:37:28Z</time>
      </trkpt>
      <trkpt lat="42.417968" lon="-3.734200">
        <ele>1899.0</ele>
        <time>2017-06-23T15:37:31Z</time>
      </trkpt>
      <trkpt lat="42.417968" lon="-3.733850">
        <ele>1905.0</ele>
        <time>2017-06-23T15:37:34Z</time>
      </trkpt>
      <trkpt lat="42.417787" lon="-3.733734">
        <ele>1911.0</ele>
        <time>2017-06-23T15:37:37Z</time>
      </trkpt>
      <trkpt lat="42.417568" lon="-3.733800">
        <ele>1918.0</ele>
        <time>2017-06-23T15:37:40Z</time>
      </trkpt>
      <trkpt lat="42.417435" lon="-3.734033">
        <ele>1924.0</ele>
        <time>2017-06-23T15:37:43Z</time>
      </trkpt>
      <trkpt lat="42.417449" lon="-3.734234">
        <ele>1930.0</ele>
        <time>2017-06-23T15:37:46Z</time>
      </trkpt>
      <trkpt lat="42.417582" lon="-3.734400">
        <ele>1934.0</ele>
        <time>2017-06-23T15:37:49Z</time>
      </trkpt>
      <trkpt lat="42.417715" lon="-3.734567">
        <ele>1938.0</ele>
        <time>2017-06-23T15:37:52Z</time>
      </trkpt>
      <trkpt lat="42.417934" lon="-3.734667">
        <ele>1941.0</ele>
        <time>2017-06-23T15:37:55Z</time>
      </trkpt>
      <trkpt lat="42.418217" lon="-3.734567">
        <ele>1945.0</ele>
        <time>2017-06-23T15:37:58Z</time>
      </trkpt>
      <trkpt lat="42.418419" lon="-3.734217">
        <ele>1951.0</ele>
        <time>2017-06-23T15:38:01Z</time>
      </trkpt>
      <trkpt lat="42.418384" lon="-3.733850">
        <ele>1953.0</ele>
        <time>2017-06-23T15:38:04Z</time>
      </trkpt>
      <trkpt lat="42.418101" lon="-3.733633">
        <ele>1955.0</ele>
        <time>2017-06-23T15:38:08Z</time>
      </trkpt>
      <trkpt lat="42.417951" lon="-3.733833">
        <ele>1959.0</ele>
        <time>2017-06-23T15:38:11Z</time>
      </trkpt>
      <trkpt lat="42.417968" lon="-3.734033">
        <ele>1963.0</ele>
        <time>2017-06-23T15:38:14Z</time>
      </trkpt>
      <trkpt lat="42.418084" lon="-3.734133">
        <ele>1963.0</ele>
        <time>2017-06-23T15:38:17Z</time>
      </trkpt>
      <trkpt lat="42.418367" lon="-3.734083">
        <ele>1961.0</ele>
        <time>2017-06-23T15:38:20Z</time>
      </trkpt>
      <trkpt lat="42.418603" lon="-3.733816">
        <ele>1960.0</ele>
        <time>2017-06-23T15:38:23Z</time>
      </trkpt>
      <trkpt lat="42.418784" lon="-3.733517">
        <ele>1962.0</ele>
        <time>2017-06-23T15:38:26Z</time>
      </trkpt>
      <trkpt lat="42.418968" lon="-3.733183">
        <ele>1960.0</ele>
        <time>2017-06-23T15:38:29Z</time>
      </trkpt>
      <trkpt lat="42.419067" lon="-3.732750">
        <ele>1962.0</ele>
        <time>2017-06-23T15:38:32Z</time>
      </trkpt>
      <trkpt lat="42.419115" lon="-3.732367">
        <ele>1967.0</ele>
        <time>2017-06-23T15:38:35Z</time>
      </trkpt>
      <trkpt lat="42.419115" lon="-3.731967">
        <ele>1972.0</ele>
        <time>2017-06-23T15:38:38Z</time>
      </trkpt>
      <trkpt lat="42.419067" lon="-3.731567">
        <ele>1979.0</ele>
        <time>2017-06-23T15:38:41Z</time>
      </trkpt>
      <trkpt lat="42.418951" lon="-3.731200">
        <ele>1983.0</ele>
        <time>2017-06-23T15:38:44Z</time>
      </trkpt>
      <trkpt lat="42.418702" lon="-3.731000">
        <ele>1990.0</ele>
        <time>2017-06-23T15:38:47Z</time>
      </trkpt>
      <trkpt lat="42.418518" lon="-3.731033">
        <ele>1995.0</ele>
        <time>2017-06-23T15:38:50Z</time>
      </trkpt>
      <trkpt lat="42.418419" lon="-3.731200">
        <ele>1999.0</ele>
        <time>2017-06-23T15:38:54Z</time>
      </trkpt>
      <trkpt lat="42.418552" lon="-3.731350">
        <ele>2002.0</ele>
        <time>2017-06-23T15:38:57Z</time>
      </trkpt>
      <trkpt lat="42.418716" lon="-3.731450">
        <ele>2004.0</ele>
        <time>2017-06-23T15:39:00Z</time>
      </trkpt>
      <trkpt lat="42.418968" lon="-3.731383">
        <ele>2004.0</ele>
        <time>2017-06-23T15:39:03Z</time>
      </trkpt>
      <trkpt lat="42.419214" lon="-3.731200">
        <ele>2005.0</ele>
        <time>2017-06-23T15:39:06Z</time>
      </trkpt>
      <trkpt lat="42.419501" lon="-3.730967">
        <ele>2002.0</ele>
        <time>2017-06-23T15:39:09Z</time>
      </trkpt>
      <trkpt lat="42.419798" lon="-3.730633">
        <ele>2009.0</ele>
        <time>2017-06-23T15:39:12Z</time>
      </trkpt>
      <trkpt lat="42.420037" lon="-3.730317">
        <ele>2017.0</ele>
        <time>2017-06-23T15:39:15Z</time>
      </trkpt>
      <trkpt lat="42.420317" lon="-3.730183">
        <ele>2020.0</ele>
        <time>2017-06-23T15:39:18Z</time>
      </trkpt>
      <trkpt lat="42.420601" lon="-3.730217">
        <ele>2025.0</ele>
        <time>2017-06-23T15:39:21Z</time>
      </trkpt>
      <trkpt lat="42.420854" lon="-3.730333">
        <ele>2028.0</ele>
        <time>2017-06-23T15:39:24Z</time>
      </trkpt>
      <trkpt lat="42.421034" lon="-3.730533">
        <ele>2029.0</ele>
        <time>2017-06-23T15:39:27Z</time>
      </trkpt>
      <trkpt lat="42.421065" lon="-3.730783">
        <ele>2028.0</ele>
        <time>2017-06-23T15:39:30Z</time>
      </trkpt>
      <trkpt lat="42.420867" lon="-3.730950">
        <ele>2027.0</ele>
        <time>2017-06-23T15:39:34Z</time>
      </trkpt>
      <trkpt lat="42.420649" lon="-3.730800">
        <ele>2024.0</ele>
        <time>2017-06-23T15:39:37Z</time>
      </trkpt>
      <trkpt lat="42.420502" lon="-3.730433">
        <ele>2022.0</ele>
        <time>2017-06-23T15:39:40Z</time>
      </trkpt>
      <trkpt lat="42.420536" lon="-3.729917">
        <ele>2018.0</ele>
        <time>2017-06-23T15:39:43Z</time>
      </trkpt>
      <trkpt lat="42.420748" lon="-3.729400">
        <ele>2022.0</ele>
        <time>2017-06-23T15:39:46Z</time>
      </trkpt>
      <trkpt lat="42.420987" lon="-3.729034">
        <ele>2028.0</ele>
        <time>2017-06-23T15:39:49Z</time>
      </trkpt>
      <trkpt lat="42.421267" lon="-3.728684">
        <ele>2029.0</ele>
        <time>2017-06-23T15:39:52Z</time>
      </trkpt>
      <trkpt lat="42.421584" lon="-3.728317">
        <ele>2032.0</ele>
        <time>2017-06-23T15:39:55Z</time>
      </trkpt>
      <trkpt lat="42.421868" lon="-3.727983">
        <ele>2037.0</ele>
        <time>2017-06-23T15:39:58Z</time>
      </trkpt>
      <trkpt lat="42.422100" lon="-3.727633">
        <ele>2041.0</ele>
        <time>2017-06-23T15:40:01Z</time>
      </trkpt>
      <trkpt lat="42.422254" lon="-3.727167">
        <ele>2047.0</ele>
        <time>2017-06-23T15:40:04Z</time>
      </trkpt>
      <trkpt lat="42.422387" lon="-3.726717">
        <ele>2053.0</ele>
        <time>2017-06-23T15:40:07Z</time>
      </trkpt>
      <trkpt lat="42.422486" lon="-3.726250">
        <ele>2060.0</ele>
        <time>2017-06-23T15:40:10Z</time>
      </trkpt>
      <trkpt lat="42.422465" lon="-3.725833">
        <ele>2065.0</ele>
        <time>2017-06-23T15:40:13Z</time>
      </trkpt>
      <trkpt lat="42.422301" lon="-3.725600">
        <ele>2066.0</ele>
        <time>2017-06-23T15:40:17Z</time>
      </trkpt>
      <trkpt lat="42.422182" lon="-3.725700">
        <ele>2070.0</ele>
        <time>2017-06-23T15:40:20Z</time>
      </trkpt>
      <trkpt lat="42.422233" lon="-3.725900">
        <ele>2076.0</ele>
        <time>2017-06-23T15:40:23Z</time>
      </trkpt>
      <trkpt lat="42.422332" lon="-3.726117">
        <ele>2081.0</ele>
        <time>2017-06-23T15:40:26Z</time>
      </trkpt>
      <trkpt lat="42.422551" lon="-3.726300">
        <ele>2086.0</ele>
        <time>2017-06-23T15:40:29Z</time>
      </trkpt>
      <trkpt lat="42.422851" lon="-3.726367">
        <ele>2091.0</ele>
        <time>2017-06-23T15:40:32Z</time>
      </trkpt>
      <trkpt lat="42.423169" lon="-3.726367">
        <ele>2096.0</ele>
        <time>2017-06-23T15:40:35Z</time>
      </trkpt>
      <trkpt lat="42.423517" lon="-3.726250">
        <ele>2100.0</ele>
        <time>2017-06-23T15:40:38Z</time>
      </trkpt>
      <trkpt lat="42.423852" lon="-3.726017">
        <ele>2107.0</ele>
        <time>2017-06-23T15:40:41Z</time>
      </trkpt>
      <trkpt lat="42.424118" lon="-3.725717">
        <ele>2111.0</ele>
        <time>2017-06-23T15:40:44Z</time>
      </trkpt>
      <trkpt lat="42.424334" lon="-3.725400">
        <ele>2113.0</ele>
        <time>2017-06-23T15:40:47Z</time>
      </trkpt>
      <trkpt lat="42.424419" lon="-3.725017">
        <ele>2118.0</ele>
        <time>2017-06-23T15:40:50Z</time>
      </trkpt>
      <trkpt lat="42.424351" lon="-3.724750">
        <ele>2119.0</ele>
        <time>2017-06-23T15:40:53Z</time>
      </trkpt>
      <trkpt lat="42.424183" lon="-3.724567">
        <ele>2120.0</ele>
        <time>2017-06-23T15:40:57Z</time>
      </trkpt>
      <trkpt lat="42.424019" lon="-3.724583">
        <ele>2123.0</ele>
        <time>2017-06-23T15:41:00Z</time>
      </trkpt>
      <trkpt lat="42.423920" lon="-3.724683">
        <ele>2123.0</ele>
        <time>2017-06-23T15:41:03Z</time>
      </trkpt>
      <trkpt lat="42.423852" lon="-3.724883">
        <ele>2124.0</ele>
        <time>2017-06-23T15:41:06Z</time>
      </trkpt>
      <trkpt lat="42.423866" lon="-3.725083">
        <ele>2126.0</ele>
        <time>2017-06-23T15:41:09Z</time>
      </trkpt>
      <trkpt lat="42.423934" lon="-3.725333">
        <ele>2130.0</ele>
        <time>2017-06-23T15:41:12Z</time>
      </trkpt>
      <trkpt lat="42.424118" lon="-3.725533">
        <ele>2133.0</ele>
        <time>2017-06-23T15:41:15Z</time>
      </trkpt>
      <trkpt lat="42.424371" lon="-3.725650">
        <ele>2134.0</ele>
        <time>2017-06-23T15:41:18Z</time>
      </trkpt>
      <trkpt lat="42.424617" lon="-3.725767">
        <ele>2136.0</ele>
        <time>2017-06-23T15:41:21Z</time>
      </trkpt>
      <trkpt lat="42.424870" lon="-3.725867">
        <ele>2134.0</ele>
        <time>2017-06-23T15:41:24Z</time>
      </trkpt>
      <trkpt lat="42.425153" lon="-3.725817">
        <ele>2132.0</ele>
        <time>2017-06-23T15:41:27Z</time>
      </trkpt>
      <trkpt lat="42.425433" lon="-3.725667">
        <ele>2129.0</ele>
        <time>2017-06-23T15:41:30Z</time>
      </trkpt>
      <trkpt lat="42.425700" lon="-3.725433">
        <ele>2125.0</ele>
        <time>2017-06-23T15:41:33Z</time>
      </trkpt>
      <trkpt lat="42.425918" lon="-3.725083">
        <ele>2125.0</ele>
        <time>2017-06-23T15:41:36Z</time>
      </trkpt>
      <trkpt lat="42.426202" lon="-3.724666">
        <ele>2123.0</ele>
        <time>2017-06-23T15:41:40Z</time>
      </trkpt>
      <trkpt lat="42.426383" lon="-3.724300">
        <ele>2124.0</ele>
        <time>2017-06-23T15:41:43Z</time>
      </trkpt>
      <trkpt lat="42.426601" lon="-3.723966">
        <ele>2124.0</ele>
        <time>2017-06-23T15:41:46Z</time>
      </trkpt>
      <trkpt lat="42.426799" lon="-3.723583">
        <ele>2124.0</ele>
        <time>2017-06-23T15:41:49Z</time>
      </trkpt>
      <trkpt lat="42.426967" lon="-3.723150">
        <ele>2126.0</ele>
        <time>2017-06-23T15:41:52Z</time>
      </trkpt>
      <trkpt lat="42.427117" lon="-3.722733">
        <ele>2129.0</ele>
        <time>2017-06-23T15:41:55Z</time>
      </trkpt>
      <trkpt lat="42.427185" lon="-3.722334">
        <ele>2132.0</ele>
        <time>2017-06-23T15:41:58Z</time>
      </trkpt>
      <trkpt lat="42.427185" lon="-3.721967">
        <ele>2136.0</ele>
        <time>2017-06-23T15:42:01Z</time>
      </trkpt>
      <trkpt lat="42.427086" lon="-3.721700">
        <ele>2139.0</ele>
        <time>2017-06-23T15:42:04Z</time>
      </trkpt>
      <trkpt lat="42.426984" lon="-3.721667">
        <ele>2145.0</ele>
        <time>2017-06-23T15:42:07Z</time>
      </trkpt>
      <trkpt lat="42.426919" lon="-3.721783">
        <ele>2147.0</ele>
        <time>2017-06-23T15:42:10Z</time>
      </trkpt>
      <trkpt lat="42.426984" lon="-3.721984">
        <ele>2150.0</ele>
        <time>2017-06-23T15:42:13Z</time>
      </trkpt>
      <trkpt lat="42.427199" lon="-3.722150">
        <ele>2152.0</ele>
        <time>2017-06-23T15:42:16Z</time>
      </trkpt>
      <trkpt lat="42.427516" lon="-3.722167">
        <ele>2153.0</ele>
        <time>2017-06-23T15:42:19Z</time>
      </trkpt>
      <trkpt lat="42.427967" lon="-3.721967">
        <ele>2152.0</ele>
        <time>2017-06-23T15:42:23Z</time>
      </trkpt>
      <trkpt lat="42.428302" lon="-3.721750">
        <ele>2155.0</ele>
        <time>2017-06-23T15:42:26Z</time>
      </trkpt>
      <trkpt lat="42.428599" lon="-3.721516">
        <ele>2159.0</ele>
        <time>2017-06-23T15:42:29Z</time>
      </trkpt>
      <trkpt lat="42.428886" lon="-3.721283">
        <ele>2163.0</ele>
        <time>2017-06-23T15:42:32Z</time>
      </trkpt>
      <trkpt lat="42.429135" lon="-3.720950">
        <ele>2165.0</ele>
        <time>2017-06-23T15:42:35Z</time>
      </trkpt>
      <trkpt lat="42.429217" lon="-3.720567">
        <ele>2168.0</ele>
        <time>2017-06-23T15:42:38Z</time>
      </trkpt>
      <trkpt lat="42.429149" lon="-3.720283">
        <ele>2169.0</ele>
        <time>2017-06-23T15:42:41Z</time>
      </trkpt>
      <trkpt lat="42.429050" lon="-3.720250">
        <ele>2171.0</ele>
        <time>2017-06-23T15:42:44Z</time>
      </trkpt>
      <trkpt lat="42.429016" lon="-3.720417">
        <ele>2174.0</ele>
        <time>2017-06-23T15:42:47Z</time>
      </trkpt>
      <trkpt lat="42.429149" lon="-3.720683">
        <ele>2175.0</ele>
        <time>2017-06-23T15:42:50Z</time>
      </trkpt>
      <trkpt lat="42.429401" lon="-3.720867">
        <ele>2176.0</ele>
        <time>2017-06-23T15:42:53Z</time>
      </trkpt>
      <trkpt lat="42.429719" lon="-3.720867">
        <ele>2178.0</ele>
        <time>2017-06-23T15:42:56Z</time>
      </trkpt>
      <trkpt lat="42.430166" lon="-3.720733">
        <ele>2180.0</ele>
        <time>2017-06-23T15:43:00Z</time>
      </trkpt>
      <trkpt lat="42.430484" lon="-3.720583">
        <ele>2184.0</ele>
        <time>2017-06-23T15:43:03Z</time>
      </trkpt>
      <trkpt lat="42.430802" lon="-3.720366">
        <ele>2187.0</ele>
        <time>2017-06-23T15:43:06Z</time>
      </trkpt>
      <trkpt lat="42.431102" lon="-3.720100">
        <ele>2191.0</ele>
        <time>2017-06-23T15:43:09Z</time>
      </trkpt>
      <trkpt lat="42.431334" lon="-3.719800">
        <ele>2197.0</ele>
        <time>2017-06-23T15:43:12Z</time>
      </trkpt>
      <trkpt lat="42.431433" lon="-3.719450">
        <ele>2200.0</ele>
        <time>2017-06-23T15:43:15Z</time>
      </trkpt>
      <trkpt lat="42.431386" lon="-3.719100">
        <ele>2204.0</ele>
        <time>2017-06-23T15:43:18Z</time>
      </trkpt>
      <trkpt lat="42.431300" lon="-3.718850">
        <ele>2208.0</ele>
        <time>2017-06-23T15:43:21Z</time>
      </trkpt>
      <trkpt lat="42.431133" lon="-3.718783">
        <ele>2210.0</ele>
        <time>2017-06-23T15:43:24Z</time>
      </trkpt>
      <trkpt lat="42.431119" lon="-3.718950">
        <ele>2213.0</ele>
        <time>2017-06-23T15:43:27Z</time>
      </trkpt>
      <trkpt lat="42.431184" lon="-3.719216">
        <ele>2214.0</ele>
        <time>2017-06-23T15:43:30Z</time>
      </trkpt>
      <trkpt lat="42.431369" lon="-3.719500">
        <ele>2218.0</ele>
        <time>2017-06-23T15:43:33Z</time>
      </trkpt>
      <trkpt lat="42.431618" lon="-3.719700">
        <ele>2222.0</ele>
        <time>2017-06-23T15:43:36Z</time>
      </trkpt>
      <trkpt lat="42.431901" lon="-3.719867">
        <ele>2225.0</ele>
        <time>2017-06-23T15:43:39Z</time>
      </trkpt>
      <trkpt lat="42.432202" lon="-3.719950">
        <ele>2228.0</ele>
        <time>2017-06-23T15:43:42Z</time>
      </trkpt>
      <trkpt lat="42.432601" lon="-3.719900">
        <ele>2233.0</ele>
        <time>2017-06-23T15:43:46Z</time>
      </trkpt>
      <trkpt lat="42.432868" lon="-3.719700">
        <ele>2233.0</ele>
        <time>2017-06-23T15:43:49Z</time>
      </trkpt>
      <trkpt lat="42.433052" lon="-3.719317">
        <ele>2236.0</ele>
        <time>2017-06-23T15:43:52Z</time>
      </trkpt>
      <trkpt lat="42.433233" lon="-3.719017">
        <ele>2243.0</ele>
        <time>2017-06-23T15:43:55Z</time>
      </trkpt>
      <trkpt lat="42.433349" lon="-3.718667">
        <ele>2244.0</ele>
        <time>2017-06-23T15:43:58Z</time>
      </trkpt>
      <trkpt lat="42.433401" lon="-3.718334">
        <ele>2249.0</ele>
        <time>2017-06-23T15:44:01Z</time>
      </trkpt>
      <trkpt lat="42.433383" lon="-3.718016">
        <ele>2252.0</ele>
        <time>2017-06-23T15:44:04Z</time>
      </trkpt>
      <trkpt lat="42.433284" lon="-3.717817">
        <ele>2256.0</ele>
        <time>2017-06-23T15:44:07Z</time>
      </trkpt>
      <trkpt lat="42.433117" lon="-3.717850">
        <ele>2259.0</ele>
        <time>2017-06-23T15:44:10Z</time>
      </trkpt>
      <trkpt lat="42.433066" lon="-3.718067">
        <ele>2263.0</ele>
        <time>2017-06-23T15:44:13Z</time>
      </trkpt>
      <trkpt lat="42.433134" lon="-3.718350">
        <ele>2264.0</ele>
        <time>2017-06-23T15:44:16Z</time>
      </trkpt>
      <trkpt lat="42.433319" lon="-3.718633">
        <ele>2265.0</ele>
        <time>2017-06-23T15:44:19Z</time>
      </trkpt>
      <trkpt lat="42.433534" lon="-3.718900">
        <ele>2268.0</ele>
        <time>2017-06-23T15:44:22Z</time>
      </trkpt>
      <trkpt lat="42.433933" lon="-3.719150">
        <ele>2272.0</ele>
        <time>2017-06-23T15:44:26Z</time>
      </trkpt>
      <trkpt lat="42.434200" lon="-3.719350">
        <ele>2275.0</ele>
        <time>2017-06-23T15:44:29Z</time>
      </trkpt>
      <trkpt lat="42.434517" lon="-3.719450">
        <ele>2274.0</ele>
        <time>2017-06-23T15:44:32Z</time>
      </trkpt>
      <trkpt lat="42.434883" lon="-3.719350">
        <ele>2271.0</ele>
        <time>2017-06-23T15:44:35Z</time>
      </trkpt>
      <trkpt lat="42.435217" lon="-3.719150">
        <ele>2270.0</ele>
        <time>2017-06-23T15:44:38Z</time>
      </trkpt>
      <trkpt lat="42.435514" lon="-3.718866">
        <ele>2268.0</ele>
        <time>2017-06-23T15:44:41Z</time>
      </trkpt>
      <trkpt lat="42.435801" lon="-3.718567">
        <ele>2266.0</ele>
        <time>2017-06-23T15:44:44Z</time>
      </trkpt>
      <trkpt lat="42.436085" lon="-3.718233">
        <ele>2263.0</ele>
        <time>2017-06-23T15:44:47Z</time>
      </trkpt>
      <trkpt lat="42.436351" lon="-3.717917">
        <ele>2262.0</ele>
        <time>2017-06-23T15:44:50Z</time>
      </trkpt>
      <trkpt lat="42.436601" lon="-3.717550">
        <ele>2258.0</ele>
        <time>2017-06-23T15:44:53Z</time>
      </trkpt>
      <trkpt lat="42.436850" lon="-3.717183">
        <ele>2258.0</ele>
        <time>2017-06-23T15:44:56Z</time>
      </trkpt>
      <trkpt lat="42.437133" lon="-3.716883">
        <ele>2258.0</ele>
        <time>2017-06-23T15:44:59Z</time>
      </trkpt>
      <trkpt lat="42.437417" lon="-3.716583">
        <ele>2260.0</ele>
        <time>2017-06-23T15:45:02Z</time>
      </trkpt>
      <trkpt lat="42.437700" lon="-3.716317">
        <ele>2264.0</ele>
        <time>2017-06-23T15:45:05Z</time>
      </trkpt>
      <trkpt lat="42.437915" lon="-3.715733">
        <ele>2264.0</ele>
        <time>2017-06-23T15:45:09Z</time>
      </trkpt>
      <trkpt lat="42.437970" lon="-3.715300">
        <ele>2266.0</ele>
        <time>2017-06-23T15:45:12Z</time>
      </trkpt>
      <trkpt lat="42.437902" lon="-3.714967">
        <ele>2266.0</ele>
        <time>2017-06-23T15:45:15Z</time>
      </trkpt>
      <trkpt lat="42.437751" lon="-3.714817">
        <ele>2268.0</ele>
        <time>2017-06-23T15:45:18Z</time>
      </trkpt>
      <trkpt lat="42.437652" lon="-3.714983">
        <ele>2269.0</ele>
        <time>2017-06-23T15:45:21Z</time>
      </trkpt>
      <trkpt lat="42.437751" lon="-3.715200">
        <ele>2272.0</ele>
        <time>2017-06-23T15:45:24Z</time>
      </trkpt>
      <trkpt lat="42.437902" lon="-3.715367">
        <ele>2270.0</ele>
        <time>2017-06-23T15:45:27Z</time>
      </trkpt>
      <trkpt lat="42.438182" lon="-3.715467">
        <ele>2271.0</ele>
        <time>2017-06-23T15:45:30Z</time>
      </trkpt>
      <trkpt lat="42.438482" lon="-3.715433">
        <ele>2275.0</ele>
        <time>2017-06-23T15:45:33Z</time>
      </trkpt>
      <trkpt lat="42.438766" lon="-3.715350">
        <ele>2271.0</ele>
        <time>2017-06-23T15:45:36Z</time>
      </trkpt>
      <trkpt lat="42.439100" lon="-3.715167">
        <ele>2264.0</ele>
        <time>2017-06-23T15:45:39Z</time>
      </trkpt>
      <trkpt lat="42.439418" lon="-3.714917">
        <ele>2261.0</ele>
        <time>2017-06-23T15:45:42Z</time>
      </trkpt>
      <trkpt lat="42.439715" lon="-3.714667">
        <ele>2257.0</ele>
        <time>2017-06-23T15:45:45Z</time>
      </trkpt>
      <trkpt lat="42.439981" lon="-3.714434">
        <ele>2252.0</ele>
        <time>2017-06-23T15:45:48Z</time>
      </trkpt>
      <trkpt lat="42.440350" lon="-3.714067">
        <ele>2243.0</ele>
        <time>2017-06-23T15:45:52Z</time>
      </trkpt>
      <trkpt lat="42.440651" lon="-3.713783">
        <ele>2238.0</ele>
        <time>2017-06-23T15:45:55Z</time>
      </trkpt>
      <trkpt lat="42.440951" lon="-3.713633">
        <ele>2231.0</ele>
        <time>2017-06-23T15:45:58Z</time>
      </trkpt>
      <trkpt lat="42.441317" lon="-3.713550">
        <ele>2224.0</ele>
        <time>2017-06-23T15:46:01Z</time>
      </trkpt>
      <trkpt lat="42.441669" lon="-3.713567">
        <ele>2218.0</ele>
        <time>2017-06-23T15:46:04Z</time>
      </trkpt>
      <trkpt lat="42.442017" lon="-3.713617">
        <ele>2214.0</ele>
        <time>2017-06-23T15:46:07Z</time>
      </trkpt>
      <trkpt lat="42.442334" lon="-3.713800">
        <ele>2206.0</ele>
        <time>2017-06-23T15:46:10Z</time>
      </trkpt>
      <trkpt lat="42.442669" lon="-3.713933">
        <ele>2201.0</ele>
        <time>2017-06-23T15:46:13Z</time>
      </trkpt>
      <trkpt lat="42.442901" lon="-3.714067">
        <ele>2201.0</ele>
        <time>2017-06-23T15:46:16Z</time>
      </trkpt>
      <trkpt lat="42.443120" lon="-3.714150">
        <ele>2196.0</ele>
        <time>2017-06-23T15:46:19Z</time>
      </trkpt>
      <trkpt lat="42.443499" lon="-3.714350">
        <ele>2194.0</ele>
        <time>2017-06-23T15:46:22Z</time>
      </trkpt>
      <trkpt lat="42.443769" lon="-3.714283">
        <ele>2183.0</ele>
        <time>2017-06-23T15:46:25Z</time>
      </trkpt>
      <trkpt lat="42.444069" lon="-3.714150">
        <ele>2169.0</ele>
        <time>2017-06-23T15:46:28Z</time>
      </trkpt>
      <trkpt lat="42.444486" lon="-3.713950">
        <ele>2161.0</ele>
        <time>2017-06-23T15:46:32Z</time>
      </trkpt>
      <trkpt lat="42.444787" lon="-3.713767">
        <ele>2153.0</ele>
        <time>2017-06-23T15:46:35Z</time>
      </trkpt>
      <trkpt lat="42.445067" lon="-3.713617">
        <ele>2144.0</ele>
        <time>2017-06-23T15:46:38Z</time>
      </trkpt>
      <trkpt lat="42.445367" lon="-3.713533">
        <ele>2134.0</ele>
        <time>2017-06-23T15:46:41Z</time>
      </trkpt>
      <trkpt lat="42.445681" lon="-3.713450">
        <ele>2126.0</ele>
        <time>2017-06-23T15:46:44Z</time>
      </trkpt>
      <trkpt lat="42.445968" lon="-3.713500">
        <ele>2115.0</ele>
        <time>2017-06-23T15:46:47Z</time>
      </trkpt>
      <trkpt lat="42.446286" lon="-3.713500">
        <ele>2107.0</ele>
        <time>2017-06-23T15:46:50Z</time>
      </trkpt>
      <trkpt lat="42.446583" lon="-3.713350">
        <ele>2099.0</ele>
        <time>2017-06-23T15:46:53Z</time>
      </trkpt>
      <trkpt lat="42.446883" lon="-3.713167">
        <ele>2091.0</ele>
        <time>2017-06-23T15:46:56Z</time>
      </trkpt>
      <trkpt lat="42.447167" lon="-3.712916">
        <ele>2084.0</ele>
        <time>2017-06-23T15:46:59Z</time>
      </trkpt>
      <trkpt lat="42.447454" lon="-3.712550">
        <ele>2073.0</ele>
        <time>2017-06-23T15:47:02Z</time>
      </trkpt>
      <trkpt lat="42.447686" lon="-3.712134">
        <ele>2062.0</ele>
        <time>2017-06-23T15:47:05Z</time>
      </trkpt>
      <trkpt lat="42.447952" lon="-3.711716">
        <ele>2054.0</ele>
        <time>2017-06-23T15:47:08Z</time>
      </trkpt>
      <trkpt lat="42.448202" lon="-3.711333">
        <ele>2042.0</ele>
        <time>2017-06-23T15:47:11Z</time>
      </trkpt>
      <trkpt lat="42.448615" lon="-3.710817">
        <ele>2033.0</ele>
        <time>2017-06-23T15:47:15Z</time>
      </trkpt>
      <trkpt lat="42.448919" lon="-3.710467">
        <ele>2023.0</ele>
        <time>2017-06-23T15:47:18Z</time>
      </trkpt>
      <trkpt lat="42.449250" lon="-3.710117">
        <ele>2014.0</ele>
        <time>2017-06-23T15:47:21Z</time>
      </trkpt>
      <trkpt lat="42.449516" lon="-3.709783">
        <ele>2007.0</ele>
        <time>2017-06-23T15:47:24Z</time>
      </trkpt>
      <trkpt lat="42.449817" lon="-3.709467">
        <ele>1990.0</ele>
        <time>2017-06-23T15:47:27Z</time>
      </trkpt>
      <trkpt lat="42.450135" lon="-3.709100">
        <ele>1979.0</ele>
        <time>2017-06-23T15:47:30Z</time>
      </trkpt>
      <trkpt lat="42.450401" lon="-3.708767">
        <ele>1964.0</ele>
        <time>2017-06-23T15:47:33Z</time>
      </trkpt>
      <trkpt lat="42.450718" lon="-3.708367">
        <ele>1954.0</ele>
        <time>2017-06-23T15:47:36Z</time>
      </trkpt>
      <trkpt lat="42.450951" lon="-3.707950">
        <ele>1944.0</ele>
        <time>2017-06-23T15:47:39Z</time>
      </trkpt>
      <trkpt lat="42.451282" lon="-3.707333">
        <ele>1929.0</ele>
        <time>2017-06-23T15:47:43Z</time>
      </trkpt>
      <trkpt lat="42.451548" lon="-3.706867">
        <ele>1917.0</ele>
        <time>2017-06-23T15:47:46Z</time>
      </trkpt>
      <trkpt lat="42.451801" lon="-3.706367">
        <ele>1903.0</ele>
        <time>2017-06-23T15:47:49Z</time>
      </trkpt>
      <trkpt lat="42.452050" lon="-3.705850">
        <ele>1891.0</ele>
        <time>2017-06-23T15:47:52Z</time>
      </trkpt>
      <trkpt lat="42.452300" lon="-3.705367">
        <ele>1878.0</ele>
        <time>2017-06-23T15:47:55Z</time>
      </trkpt>
      <trkpt lat="42.452566" lon="-3.704850">
        <ele>1865.0</ele>
        <time>2017-06-23T15:47:58Z</time>
      </trkpt>
      <trkpt lat="42.452802" lon="-3.704333">
        <ele>1857.0</ele>
        <time>2017-06-23T15:48:01Z</time>
      </trkpt>
      <trkpt lat="42.453034" lon="-3.703816">
        <ele>1845.0</ele>
        <time>2017-06-23T15:48:04Z</time>
      </trkpt>
      <trkpt lat="42.453283" lon="-3.703250">
        <ele>1833.0</ele>
        <time>2017-06-23T15:48:07Z</time>
      </trkpt>
      <trkpt lat="42.453519" lon="-3.702767">
        <ele>1824.0</ele>
        <time>2017-06-23T15:48:10Z</time>
      </trkpt>
      <trkpt lat="42.453751" lon="-3.702300">
        <ele>1808.0</ele>
        <time>2017-06-23T15:48:13Z</time>
      </trkpt>
      <trkpt lat="42.453983" lon="-3.701767">
        <ele>1800.0</ele>
        <time>2017-06-23T15:48:16Z</time>
      </trkpt>
      <trkpt lat="42.454202" lon="-3.701350">
        <ele>1792.0</ele>
        <time>2017-06-23T15:48:19Z</time>
      </trkpt>
      <trkpt lat="42.454451" lon="-3.700850">
        <ele>1781.0</ele>
        <time>2017-06-23T15:48:22Z</time>
      </trkpt>
      <trkpt lat="42.454683" lon="-3.700383">
        <ele>1771.0</ele>
        <time>2017-06-23T15:48:25Z</time>
      </trkpt>
      <trkpt lat="42.454919" lon="-3.699884">
        <ele>1761.0</ele>
        <time>2017-06-23T15:48:28Z</time>
      </trkpt>
      <trkpt lat="42.455165" lon="-3.699400">
        <ele>1753.0</ele>
        <time>2017-06-23T15:48:31Z</time>
      </trkpt>
      <trkpt lat="42.455401" lon="-3.698883">
        <ele>1743.0</ele>
        <time>2017-06-23T15:48:34Z</time>
      </trkpt>
      <trkpt lat="42.455718" lon="-3.698167">
        <ele>1740.0</ele>
        <time>2017-06-23T15:48:38Z</time>
      </trkpt>
      <trkpt lat="42.455916" lon="-3.697667">
        <ele>1732.0</ele>
        <time>2017-06-23T15:48:41Z</time>
      </trkpt>
      <trkpt lat="42.456101" lon="-3.697150">
        <ele>1720.0</ele>
        <time>2017-06-23T15:48:44Z</time>
      </trkpt>
      <trkpt lat="42.456268" lon="-3.696633">
        <ele>1712.0</ele>
        <time>2017-06-23T15:48:47Z</time>
      </trkpt>
      <trkpt lat="42.456432" lon="-3.696133">
        <ele>1701.0</ele>
        <time>2017-06-23T15:48:50Z</time>
      </trkpt>
      <trkpt lat="42.456620" lon="-3.695617">
        <ele>1691.0</ele>
        <time>2017-06-23T15:48:53Z</time>
      </trkpt>
      <trkpt lat="42.456832" lon="-3.695117">
        <ele>1683.0</ele>
        <time>2017-06-23T15:48:56Z</time>
      </trkpt>
      <trkpt lat="42.457084" lon="-3.694700">
        <ele>1675.0</ele>
        <time>2017-06-23T15:48:59Z</time>
      </trkpt>
      <trkpt lat="42.457316" lon="-3.694233">
        <ele>1667.0</ele>
        <time>2017-06-23T15:49:02Z</time>
      </trkpt>
      <trkpt lat="42.457549" lon="-3.693767">
        <ele>1659.0</ele>
        <time>2017-06-23T15:49:05Z</time>
      </trkpt>
      <trkpt lat="42.457801" lon="-3.693266">
        <ele>1659.0</ele>
        <time>2017-06-23T15:49:08Z</time>
      </trkpt>
      <trkpt lat="42.458000" lon="-3.692850">
        <ele>1662.0</ele>
        <time>2017-06-23T15:49:11Z</time>
      </trkpt>
      <trkpt lat="42.458119" lon="-3.692467">
        <ele>1663.0</ele>
        <time>2017-06-23T15:49:14Z</time>
      </trkpt>
      <trkpt lat="42.458167" lon="-3.692050">
        <ele>1663.0</ele>
        <time>2017-06-23T15:49:17Z</time>
      </trkpt>
      <trkpt lat="42.457986" lon="-3.691600">
        <ele>1663.0</ele>
        <time>2017-06-23T15:49:21Z</time>
      </trkpt>
      <trkpt lat="42.457750" lon="-3.691383">
        <ele>1664.0</ele>
        <time>2017-06-23T15:49:24Z</time>
      </trkpt>
      <trkpt lat="42.457535" lon="-3.691216">
        <ele>1664.0</ele>
        <time>2017-06-23T15:49:27Z</time>
      </trkpt>
      <trkpt lat="42.457316" lon="-3.691067">
        <ele>1664.0</ele>
        <time>2017-06-23T15:49:30Z</time>
      </trkpt>
      <trkpt lat="42.457084" lon="-3.690917">
        <ele>1665.0</ele>
        <time>2017-06-23T15:49:33Z</time>
      </trkpt>
      <trkpt lat="42.456883" lon="-3.690717">
        <ele>1666.0</ele>
        <time>2017-06-23T15:49:36Z</time>
      </trkpt>
      <trkpt lat="42.456685" lon="-3.690534">
        <ele>1664.0</ele>
        <time>2017-06-23T15:49:39Z</time>
      </trkpt>
      <trkpt lat="42.456487" lon="-3.690434">
        <ele>1661.0</ele>
        <time>2017-06-23T15:49:42Z</time>
      </trkpt>
      <trkpt lat="42.456268" lon="-3.690267">
        <ele>1657.0</ele>
        <time>2017-06-23T15:49:45Z</time>
      </trkpt>
      <trkpt lat="42.456049" lon="-3.690283">
        <ele>1652.0</ele>
        <time>2017-06-23T15:49:48Z</time>
      </trkpt>
      <trkpt lat="42.455950" lon="-3.690517">
        <ele>1650.0</ele>
        <time>2017-06-23T15:49:51Z</time>
      </trkpt>
      <trkpt lat="42.456049" lon="-3.690733">
        <ele>1650.0</ele>
        <time>2017-06-23T15:49:54Z</time>
      </trkpt>
      <trkpt lat="42.456234" lon="-3.690884">
        <ele>1648.0</ele>
        <time>2017-06-23T15:49:57Z</time>
      </trkpt>
      <trkpt lat="42.456534" lon="-3.690950">
        <ele>1648.0</ele>
        <time>2017-06-23T15:50:01Z</time>
      </trkpt>
      <trkpt lat="42.456767" lon="-3.690934">
        <ele>1647.0</ele>
        <time>2017-06-23T15:50:04Z</time>
      </trkpt>
      <trkpt lat="42.457016" lon="-3.690884">
        <ele>1646.0</ele>
        <time>2017-06-23T15:50:07Z</time>
      </trkpt>
      <trkpt lat="42.457269" lon="-3.690717">
        <ele>1647.0</ele>
        <time>2017-06-23T15:50:10Z</time>
      </trkpt>
      <trkpt lat="42.457467" lon="-3.690483">
        <ele>1647.0</ele>
        <time>2017-06-23T15:50:13Z</time>
      </trkpt>
      <trkpt lat="42.457682" lon="-3.690217">
        <ele>1648.0</ele>
        <time>2017-06-23T15:50:16Z</time>
      </trkpt>
      <trkpt lat="42.457866" lon="-3.689900">
        <ele>1645.0</ele>
        <time>2017-06-23T15:50:19Z</time>
      </trkpt>
      <trkpt lat="42.458020" lon="-3.689517">
        <ele>1646.0</ele>
        <time>2017-06-23T15:50:22Z</time>
      </trkpt>
      <trkpt lat="42.458085" lon="-3.689133">
        <ele>1646.0</ele>
        <time>2017-06-23T15:50:25Z</time>
      </trkpt>
      <trkpt lat="42.458068" lon="-3.688733">
        <ele>1645.0</ele>
        <time>2017-06-23T15:50:28Z</time>
      </trkpt>
      <trkpt lat="42.457935" lon="-3.688383">
        <ele>1645.0</ele>
        <time>2017-06-23T15:50:31Z</time>
      </trkpt>
      <trkpt lat="42.457733" lon="-3.688150">
        <ele>1645.0</ele>
        <time>2017-06-23T15:50:34Z</time>
      </trkpt>
      <trkpt lat="42.457501" lon="-3.688033">
        <ele>1644.0</ele>
        <time>2017-06-23T15:50:37Z</time>
      </trkpt>
      <trkpt lat="42.457282" lon="-3.688100">
        <ele>1643.0</ele>
        <time>2017-06-23T15:50:40Z</time>
      </trkpt>
      <trkpt lat="42.457098" lon="-3.688250">
        <ele>1643.0</ele>
        <time>2017-06-23T15:50:43Z</time>
      </trkpt>
      <trkpt lat="42.457033" lon="-3.688567">
        <ele>1645.0</ele>
        <time>2017-06-23T15:50:47Z</time>
      </trkpt>
      <trkpt lat="42.457136" lon="-3.688783">
        <ele>1646.0</ele>
        <time>2017-06-23T15:50:50Z</time>
      </trkpt>
      <trkpt lat="42.457252" lon="-3.688967">
        <ele>1648.0</ele>
        <time>2017-06-23T15:50:53Z</time>
      </trkpt>
      <trkpt lat="42.457416" lon="-3.689117">
        <ele>1650.0</ele>
        <time>2017-06-23T15:50:56Z</time>
      </trkpt>
      <trkpt lat="42.457600" lon="-3.689183">
        <ele>1652.0</ele>
        <time>2017-06-23T15:50:59Z</time>
      </trkpt>
      <trkpt lat="42.457853" lon="-3.689150">
        <ele>1653.0</ele>
        <time>2017-06-23T15:51:02Z</time>
      </trkpt>
      <trkpt lat="42.458051" lon="-3.688967">
        <ele>1652.0</ele>
        <time>2017-06-23T15:51:05Z</time>
      </trkpt>
      <trkpt lat="42.458150" lon="-3.688600">
        <ele>1651.0</ele>
        <time>2017-06-23T15:51:08Z</time>
      </trkpt>
      <trkpt lat="42.458020" lon="-3.688283">
        <ele>1650.0</ele>
        <time>2017-06-23T15:51:11Z</time>
      </trkpt>
      <trkpt lat="42.457801" lon="-3.688283">
        <ele>1648.0</ele>
        <time>2017-06-23T15:51:14Z</time>
      </trkpt>
      <trkpt lat="42.457682" lon="-3.688550">
        <ele>1647.0</ele>
        <time>2017-06-23T15:51:17Z</time>
      </trkpt>
      <trkpt lat="42.457600" lon="-3.688817">
        <ele>1648.0</ele>
        <time>2017-06-23T15:51:20Z</time>
      </trkpt>
      <trkpt lat="42.457617" lon="-3.689100">
        <ele>1644.0</ele>
        <time>2017-06-23T15:51:24Z</time>
      </trkpt>
      <trkpt lat="42.457716" lon="-3.689317">
        <ele>1641.0</ele>
        <time>2017-06-23T15:51:27Z</time>
      </trkpt>
      <trkpt lat="42.457866" lon="-3.689483">
        <ele>1635.0</ele>
        <time>2017-06-23T15:51:30Z</time>
      </trkpt>
      <trkpt lat="42.458068" lon="-3.689617">
        <ele>1629.0</ele>
        <time>2017-06-23T15:51:33Z</time>
      </trkpt>
      <trkpt lat="42.458283" lon="-3.689750">
        <ele>1623.0</ele>
        <time>2017-06-23T15:51:36Z</time>
      </trkpt>
      <trkpt lat="42.458498" lon="-3.689883">
        <ele>1618.0</ele>
        <time>2017-06-23T15:51:39Z</time>
      </trkpt>
      <trkpt lat="42.458734" lon="-3.690000">
        <ele>1612.0</ele>
        <time>2017-06-23T15:51:42Z</time>
      </trkpt>
      <trkpt lat="42.458935" lon="-3.690116">
        <ele>1604.0</ele>
        <time>2017-06-23T15:51:45Z</time>
      </trkpt>
      <trkpt lat="42.459202" lon="-3.690200">
        <ele>1598.0</ele>
        <time>2017-06-23T15:51:48Z</time>
      </trkpt>
      <trkpt lat="42.459468" lon="-3.690050">
        <ele>1592.0</ele>
        <time>2017-06-23T15:51:51Z</time>
      </trkpt>
      <trkpt lat="42.459717" lon="-3.689767">
        <ele>1579.0</ele>
        <time>2017-06-23T15:51:54Z</time>
      </trkpt>
      <trkpt lat="42.459967" lon="-3.689383">
        <ele>1572.0</ele>
        <time>2017-06-23T15:51:57Z</time>
      </trkpt>
      <trkpt lat="42.460168" lon="-3.688916">
        <ele>1565.0</ele>
        <time>2017-06-23T15:52:00Z</time>
      </trkpt>
      <trkpt lat="42.460284" lon="-3.688400">
        <ele>1561.0</ele>
        <time>2017-06-23T15:52:03Z</time>
      </trkpt>
      <trkpt lat="42.460400" lon="-3.687950">
        <ele>1556.0</ele>
        <time>2017-06-23T15:52:06Z</time>
      </trkpt>
      <trkpt lat="42.460551" lon="-3.687367">
        <ele>1550.0</ele>
        <time>2017-06-23T15:52:10Z</time>
      </trkpt>
      <trkpt lat="42.460667" lon="-3.686900">
        <ele>1545.0</ele>
        <time>2017-06-23T15:52:13Z</time>
      </trkpt>
      <trkpt lat="42.460766" lon="-3.686417">
        <ele>1539.0</ele>
        <time>2017-06-23T15:52:16Z</time>
      </trkpt>
      <trkpt lat="42.460950" lon="-3.685933">
        <ele>1534.0</ele>
        <time>2017-06-23T15:52:19Z</time>
      </trkpt>
      <trkpt lat="42.461118" lon="-3.685500">
        <ele>1534.0</ele>
        <time>2017-06-23T15:52:22Z</time>
      </trkpt>
      <trkpt lat="42.461298" lon="-3.685100">
        <ele>1530.0</ele>
        <time>2017-06-23T15:52:25Z</time>
      </trkpt>
      <trkpt lat="42.461452" lon="-3.684700">
        <ele>1531.0</ele>
        <time>2017-06-23T15:52:28Z</time>
      </trkpt>
      <trkpt lat="42.461551" lon="-3.684333">
        <ele>1528.0</ele>
        <time>2017-06-23T15:52:31Z</time>
      </trkpt>
      <trkpt lat="42.461667" lon="-3.683917">
        <ele>1522.0</ele>
        <time>2017-06-23T15:52:34Z</time>
      </trkpt>
      <trkpt lat="42.461783" lon="-3.683450">
        <ele>1519.0</ele>
        <time>2017-06-23T15:52:37Z</time>
      </trkpt>
      <trkpt lat="42.461882" lon="-3.682984">
        <ele>1518.0</ele>
        <time>2017-06-23T15:52:40Z</time>
      </trkpt>
      <trkpt lat="42.461934" lon="-3.682517">
        <ele>1517.0</ele>
        <time>2017-06-23T15:52:43Z</time>
      </trkpt>
      <trkpt lat="42.461982" lon="-3.682033">
        <ele>1516.0</ele>
        <time>2017-06-23T15:52:46Z</time>
      </trkpt>
      <trkpt lat="42.462033" lon="-3.681400">
        <ele>1517.0</ele>
        <time>2017-06-23T15:52:50Z</time>
      </trkpt>
      <trkpt lat="42.462084" lon="-3.680934">
        <ele>1521.0</ele>
        <time>2017-06-23T15:52:53Z</time>
      </trkpt>
      <trkpt lat="42.462166" lon="-3.680533">
        <ele>1522.0</ele>
        <time>2017-06-23T15:52:56Z</time>
      </trkpt>
      <trkpt lat="42.462166" lon="-3.680067">
        <ele>1524.0</ele>
        <time>2017-06-23T15:52:59Z</time>
      </trkpt>
      <trkpt lat="42.462200" lon="-3.679633">
        <ele>1526.0</ele>
        <time>2017-06-23T15:53:02Z</time>
      </trkpt>
      <trkpt lat="42.462135" lon="-3.679200">
        <ele>1528.0</ele>
        <time>2017-06-23T15:53:05Z</time>
      </trkpt>
      <trkpt lat="42.461982" lon="-3.678883">
        <ele>1530.0</ele>
        <time>2017-06-23T15:53:08Z</time>
      </trkpt>
      <trkpt lat="42.461770" lon="-3.678717">
        <ele>1528.0</ele>
        <time>2017-06-23T15:53:11Z</time>
      </trkpt>
      <trkpt lat="42.461585" lon="-3.678833">
        <ele>1528.0</ele>
        <time>2017-06-23T15:53:14Z</time>
      </trkpt>
      <trkpt lat="42.461517" lon="-3.679066">
        <ele>1529.0</ele>
        <time>2017-06-23T15:53:17Z</time>
      </trkpt>
      <trkpt lat="42.461637" lon="-3.679300">
        <ele>1533.0</ele>
        <time>2017-06-23T15:53:20Z</time>
      </trkpt>
      <trkpt lat="42.461835" lon="-3.679333">
        <ele>1538.0</ele>
        <time>2017-06-23T15:53:23Z</time>
      </trkpt>
      <trkpt lat="42.462033" lon="-3.679283">
        <ele>1538.0</ele>
        <time>2017-06-23T15:53:26Z</time>
      </trkpt>
      <trkpt lat="42.462268" lon="-3.679150">
        <ele>1541.0</ele>
        <time>2017-06-23T15:53:29Z</time>
      </trkpt>
      <trkpt lat="42.462552" lon="-3.678850">
        <ele>1542.0</ele>
        <time>2017-06-23T15:53:33Z</time>
      </trkpt>
      <trkpt lat="42.462733" lon="-3.678517">
        <ele>1543.0</ele>
        <time>2017-06-23T15:53:36Z</time>
      </trkpt>
      <trkpt lat="42.462866" lon="-3.678133">
        <ele>1546.0</ele>
        <time>2017-06-23T15:53:39Z</time>
      </trkpt>
      <trkpt lat="42.462931" lon="-3.677717">
        <ele>1547.0</ele>
        <time>2017-06-23T15:53:42Z</time>
      </trkpt>
      <trkpt lat="42.462883" lon="-3.677317">
        <ele>1547.0</ele>
        <time>2017-06-23T15:53:45Z</time>
      </trkpt>
      <trkpt lat="42.462767" lon="-3.676983">
        <ele>1546.0</ele>
        <time>2017-06-23T15:53:48Z</time>
      </trkpt>
      <trkpt lat="42.462586" lon="-3.676717">
        <ele>1544.0</ele>
        <time>2017-06-23T15:53:51Z</time>
      </trkpt>
      <trkpt lat="42.462333" lon="-3.676567">
        <ele>1544.0</ele>
        <time>2017-06-23T15:53:54Z</time>
      </trkpt>
      <trkpt lat="42.462101" lon="-3.676550">
        <ele>1542.0</ele>
        <time>2017-06-23T15:53:57Z</time>
      </trkpt>
      <trkpt lat="42.461818" lon="-3.676600">
        <ele>1540.0</ele>
        <time>2017-06-23T15:54:00Z</time>
      </trkpt>
      <trkpt lat="42.461667" lon="-3.676783">
        <ele>1540.0</ele>
        <time>2017-06-23T15:54:03Z</time>
      </trkpt>
      <trkpt lat="42.461551" lon="-3.676983">
        <ele>1543.0</ele>
        <time>2017-06-23T15:54:06Z</time>
      </trkpt>
      <trkpt lat="42.461432" lon="-3.677183">
        <ele>1544.0</ele>
        <time>2017-06-23T15:54:09Z</time>
      </trkpt>
      <trkpt lat="42.461319" lon="-3.677400">
        <ele>1549.0</ele>
        <time>2017-06-23T15:54:12Z</time>
      </trkpt>
      <trkpt lat="42.461186" lon="-3.677617">
        <ele>1552.0</ele>
        <time>2017-06-23T15:54:16Z</time>
      </trkpt>
      <trkpt lat="42.461032" lon="-3.677767">
        <ele>1557.0</ele>
        <time>2017-06-23T15:54:19Z</time>
      </trkpt>
      <trkpt lat="42.460919" lon="-3.677884">
        <ele>1561.0</ele>
        <time>2017-06-23T15:54:22Z</time>
      </trkpt>
      <trkpt lat="42.460868" lon="-3.678100">
        <ele>1566.0</ele>
        <time>2017-06-23T15:54:25Z</time>
      </trkpt>
      <trkpt lat="42.460984" lon="-3.678216">
        <ele>1570.0</ele>
        <time>2017-06-23T15:54:28Z</time>
      </trkpt>
      <trkpt lat="42.461199" lon="-3.678133">
        <ele>1574.0</ele>
        <time>2017-06-23T15:54:31Z</time>
      </trkpt>
      <trkpt lat="42.461367" lon="-3.677767">
        <ele>1576.0</ele>
        <time>2017-06-23T15:54:34Z</time>
      </trkpt>
      <trkpt lat="42.461384" lon="-3.677283">
        <ele>1585.0</ele>
        <time>2017-06-23T15:54:37Z</time>
      </trkpt>
      <trkpt lat="42.461319" lon="-3.676917">
        <ele>1590.0</ele>
        <time>2017-06-23T15:54:40Z</time>
      </trkpt>
      <trkpt lat="42.461118" lon="-3.676584">
        <ele>1594.0</ele>
        <time>2017-06-23T15:54:43Z</time>
      </trkpt>
      <trkpt lat="42.460899" lon="-3.676600">
        <ele>1600.0</ele>
        <time>2017-06-23T15:54:46Z</time>
      </trkpt>
      <trkpt lat="42.460885" lon="-3.676800">
        <ele>1607.0</ele>
        <time>2017-06-23T15:54:49Z</time>
      </trkpt>
      <trkpt lat="42.461032" lon="-3.676933">
        <ele>1614.0</ele>
        <time>2017-06-23T15:54:52Z</time>
      </trkpt>
      <trkpt lat="42.461251" lon="-3.676800">
        <ele>1620.0</ele>
        <time>2017-06-23T15:54:55Z</time>
      </trkpt>
      <trkpt lat="42.461452" lon="-3.676350">
        <ele>1623.0</ele>
        <time>2017-06-23T15:54:59Z</time>
      </trkpt>
      <trkpt lat="42.461452" lon="-3.675900">
        <ele>1627.0</ele>
        <time>2017-06-23T15:55:02Z</time>
      </trkpt>
      <trkpt lat="42.461285" lon="-3.675567">
        <ele>1632.0</ele>
        <time>2017-06-23T15:55:05Z</time>
      </trkpt>
      <trkpt lat="42.461066" lon="-3.675317">
        <ele>1635.0</ele>
        <time>2017-06-23T15:55:08Z</time>
      </trkpt>
      <trkpt lat="42.460820" lon="-3.675183">
        <ele>1639.0</ele>
        <time>2017-06-23T15:55:11Z</time>
      </trkpt>
      <trkpt lat="42.460581" lon="-3.675134">
        <ele>1644.0</ele>
        <time>2017-06-23T15:55:14Z</time>
      </trkpt>
      <trkpt lat="42.460335" lon="-3.675183">
        <ele>1648.0</ele>
        <time>2017-06-23T15:55:17Z</time>
      </trkpt>
      <trkpt lat="42.460202" lon="-3.675400">
        <ele>1655.0</ele>
        <time>2017-06-23T15:55:20Z</time>
      </trkpt>
      <trkpt lat="42.460267" lon="-3.675650">
        <ele>1668.0</ele>
        <time>2017-06-23T15:55:23Z</time>
      </trkpt>
      <trkpt lat="42.460469" lon="-3.675717">
        <ele>1676.0</ele>
        <time>2017-06-23T15:55:26Z</time>
      </trkpt>
      <trkpt lat="42.460667" lon="-3.675417">
        <ele>1686.0</ele>
        <time>2017-06-23T15:55:29Z</time>
      </trkpt>
      <trkpt lat="42.460650" lon="-3.675000">
        <ele>1695.0</ele>
        <time>2017-06-23T15:55:32Z</time>
      </trkpt>
      <trkpt lat="42.460335" lon="-3.674767">
        <ele>1701.0</ele>
        <time>2017-06-23T15:55:36Z</time>
      </trkpt>
      <trkpt lat="42.460134" lon="-3.674917">
        <ele>1711.0</ele>
        <time>2017-06-23T15:55:39Z</time>
      </trkpt>
      <trkpt lat="42.460151" lon="-3.675134">
        <ele>1722.0</ele>
        <time>2017-06-23T15:55:42Z</time>
      </trkpt>
      <trkpt lat="42.460335" lon="-3.675250">
        <ele>1729.0</ele>
        <time>2017-06-23T15:55:45Z</time>
      </trkpt>
      <trkpt lat="42.460615" lon="-3.675117">
        <ele>1740.0</ele>
        <time>2017-06-23T15:55:48Z</time>
      </trkpt>
      <trkpt lat="42.460786" lon="-3.674784">
        <ele>1751.0</ele>
        <time>2017-06-23T15:55:51Z</time>
      </trkpt>
      <trkpt lat="42.460820" lon="-3.674400">
        <ele>1761.0</ele>
        <time>2017-06-23T15:55:54Z</time>
      </trkpt>
      <trkpt lat="42.460633" lon="-3.674100">
        <ele>1768.0</ele>
        <time>2017-06-23T15:55:57Z</time>
      </trkpt>
      <trkpt lat="42.460400" lon="-3.673934">
        <ele>1776.0</ele>
        <time>2017-06-23T15:56:00Z</time>
      </trkpt>
      <trkpt lat="42.460151" lon="-3.673950">
        <ele>1782.0</ele>
        <time>2017-06-23T15:56:03Z</time>
      </trkpt>
      <trkpt lat="42.460052" lon="-3.674167">
        <ele>1795.0</ele>
        <time>2017-06-23T15:56:06Z</time>
      </trkpt>
      <trkpt lat="42.460117" lon="-3.674400">
        <ele>1808.0</ele>
        <time>2017-06-23T15:56:09Z</time>
      </trkpt>
      <trkpt lat="42.460301" lon="-3.674533">
        <ele>1819.0</ele>
        <time>2017-06-23T15:56:12Z</time>
      </trkpt>
      <trkpt lat="42.460534" lon="-3.674500">
        <ele>1826.0</ele>
        <time>2017-06-23T15:56:15Z</time>
      </trkpt>
      <trkpt lat="42.460684" lon="-3.674083">
        <ele>1835.0</ele>
        <time>2017-06-23T15:56:18Z</time>
      </trkpt>
      <trkpt lat="42.460581" lon="-3.673584">
        <ele>1848.0</ele>
        <time>2017-06-23T15:56:22Z</time>
      </trkpt>
      <trkpt lat="42.460448" lon="-3.673283">
        <ele>1853.0</ele>
        <time>2017-06-23T15:56:25Z</time>
      </trkpt>
      <trkpt lat="42.460182" lon="-3.673233">
        <ele>1863.0</ele>
        <time>2017-06-23T15:56:28Z</time>
      </trkpt>
      <trkpt lat="42.460083" lon="-3.673450">
        <ele>1871.0</ele>
        <time>2017-06-23T15:56:31Z</time>
      </trkpt>
      <trkpt lat="42.460134" lon="-3.673700">
        <ele>1886.0</ele>
        <time>2017-06-23T15:56:34Z</time>
      </trkpt>
      <trkpt lat="42.460349" lon="-3.673767">
        <ele>1898.0</ele>
        <time>2017-06-23T15:56:37Z</time>
      </trkpt>
      <trkpt lat="42.460581" lon="-3.673650">
        <ele>1907.0</ele>
        <time>2017-06-23T15:56:40Z</time>
      </trkpt>
      <trkpt lat="42.460749" lon="-3.673267">
        <ele>1919.0</ele>
        <time>2017-06-23T15:56:43Z</time>
      </trkpt>
      <trkpt lat="42.460749" lon="-3.672833">
        <ele>1930.0</ele>
        <time>2017-06-23T15:56:46Z</time>
      </trkpt>
      <trkpt lat="42.460615" lon="-3.672483">
        <ele>1944.0</ele>
        <time>2017-06-23T15:56:49Z</time>
      </trkpt>
      <trkpt lat="42.460400" lon="-3.672283">
        <ele>1952.0</ele>
        <time>2017-06-23T15:56:52Z</time>
      </trkpt>
      <trkpt lat="42.460202" lon="-3.672383">
        <ele>1961.0</ele>
        <time>2017-06-23T15:56:55Z</time>
      </trkpt>
      <trkpt lat="42.460202" lon="-3.672684">
        <ele>1975.0</ele>
        <time>2017-06-23T15:56:58Z</time>
      </trkpt>
      <trkpt lat="42.460400" lon="-3.672950">
        <ele>1986.0</ele>
        <time>2017-06-23T15:57:02Z</time>
      </trkpt>
      <trkpt lat="42.460667" lon="-3.672867">
        <ele>1998.0</ele>
        <time>2017-06-23T15:57:05Z</time>
      </trkpt>
      <trkpt lat="42.460868" lon="-3.672600">
        <ele>2010.0</ele>
        <time>2017-06-23T15:57:08Z</time>
      </trkpt>
      <trkpt lat="42.460967" lon="-3.672183">
        <ele>2021.0</ele>
        <time>2017-06-23T15:57:11Z</time>
      </trkpt>
      <trkpt lat="42.460899" lon="-3.671800">
        <ele>2033.0</ele>
        <time>2017-06-23T15:57:14Z</time>
      </trkpt>
      <trkpt lat="42.460684" lon="-3.671600">
        <ele>2040.0</ele>
        <time>2017-06-23T15:57:17Z</time>
      </trkpt>
      <trkpt lat="42.460482" lon="-3.671750">
        <ele>2051.0</ele>
        <time>2017-06-23T15:57:20Z</time>
      </trkpt>
      <trkpt lat="42.460482" lon="-3.672000">
        <ele>2060.0</ele>
        <time>2017-06-23T15:57:23Z</time>
      </trkpt>
      <trkpt lat="42.460602" lon="-3.672267">
        <ele>2071.0</ele>
        <time>2017-06-23T15:57:26Z</time>
      </trkpt>
      <trkpt lat="42.460868" lon="-3.672233">
        <ele>2082.0</ele>
        <time>2017-06-23T15:57:29Z</time>
      </trkpt>
      <trkpt lat="42.461100" lon="-3.672017">
        <ele>2098.0</ele>
        <time>2017-06-23T15:57:32Z</time>
      </trkpt>
      <trkpt lat="42.461234" lon="-3.671634">
        <ele>2110.0</ele>
        <time>2017-06-23T15:57:35Z</time>
      </trkpt>
      <trkpt lat="42.461118" lon="-3.671283">
        <ele>2124.0</ele>
        <time>2017-06-23T15:57:38Z</time>
      </trkpt>
      <trkpt lat="42.460919" lon="-3.671234">
        <ele>2136.0</ele>
        <time>2017-06-23T15:57:41Z</time>
      </trkpt>
      <trkpt lat="42.460834" lon="-3.671550">
        <ele>2146.0</ele>
        <time>2017-06-23T15:57:45Z</time>
      </trkpt>
      <trkpt lat="42.461053" lon="-3.671733">
        <ele>2157.0</ele>
        <time>2017-06-23T15:57:48Z</time>
      </trkpt>
      <trkpt lat="42.461367" lon="-3.671634">
        <ele>2169.0</ele>
        <time>2017-06-23T15:57:51Z</time>
      </trkpt>
      <trkpt lat="42.461568" lon="-3.671317">
        <ele>2183.0</ele>
        <time>2017-06-23T15:57:54Z</time>
      </trkpt>
      <trkpt lat="42.461568" lon="-3.670950">
        <ele>2194.0</ele>
        <time>2017-06-23T15:57:57Z</time>
      </trkpt>
      <trkpt lat="42.461367" lon="-3.670900">
        <ele>2205.0</ele>
        <time>2017-06-23T15:58:00Z</time>
      </trkpt>
      <trkpt lat="42.461319" lon="-3.671100">
        <ele>2218.0</ele>
        <time>2017-06-23T15:58:03Z</time>
      </trkpt>
      <trkpt lat="42.461452" lon="-3.671333">
        <ele>2229.0</ele>
        <time>2017-06-23T15:58:06Z</time>
      </trkpt>
      <trkpt lat="42.461783" lon="-3.671333">
        <ele>2243.0</ele>
        <time>2017-06-23T15:58:09Z</time>
      </trkpt>
      <trkpt lat="42.462033" lon="-3.671083">
        <ele>2259.0</ele>
        <time>2017-06-23T15:58:12Z</time>
      </trkpt>
      <trkpt lat="42.462183" lon="-3.670683">
        <ele>2271.0</ele>
        <time>2017-06-23T15:58:15Z</time>
      </trkpt>
      <trkpt lat="42.462115" lon="-3.670333">
        <ele>2282.0</ele>
        <time>2017-06-23T15:58:18Z</time>
      </trkpt>
      <trkpt lat="42.461934" lon="-3.670233">
        <ele>2295.0</ele>
        <time>2017-06-23T15:58:21Z</time>
      </trkpt>
      <trkpt lat="42.461800" lon="-3.670300">
        <ele>2307.0</ele>
        <time>2017-06-23T15:58:24Z</time>
      </trkpt>
      <trkpt lat="42.461818" lon="-3.670567">
        <ele>2319.0</ele>
        <time>2017-06-23T15:58:28Z</time>
      </trkpt>
      <trkpt lat="42.462033" lon="-3.670816">
        <ele>2331.0</ele>
        <time>2017-06-23T15:58:31Z</time>
      </trkpt>
      <trkpt lat="42.462333" lon="-3.670900">
        <ele>2342.0</ele>
        <time>2017-06-23T15:58:34Z</time>
      </trkpt>
      <trkpt lat="42.462665" lon="-3.670734">
        <ele>2354.0</ele>
        <time>2017-06-23T15:58:37Z</time>
      </trkpt>
      <trkpt lat="42.462917" lon="-3.670333">
        <ele>2365.0</ele>
        <time>2017-06-23T15:58:40Z</time>
      </trkpt>
      <trkpt lat="42.462951" lon="-3.669933">
        <ele>2379.0</ele>
        <time>2017-06-23T15:58:43Z</time>
      </trkpt>
      <trkpt lat="42.462883" lon="-3.669616">
        <ele>2389.0</ele>
        <time>2017-06-23T15:58:46Z</time>
      </trkpt>
      <trkpt lat="42.462719" lon="-3.669534">
        <ele>2400.0</ele>
        <time>2017-06-23T15:58:49Z</time>
      </trkpt>
      <trkpt lat="42.462586" lon="-3.669650">
        <ele>2414.0</ele>
        <time>2017-06-23T15:58:52Z</time>
      </trkpt>
      <trkpt lat="42.462565" lon="-3.669883">
        <ele>2426.0</ele>
        <time>2017-06-23T15:58:55Z</time>
      </trkpt>
      <trkpt lat="42.462719" lon="-3.670133">
        <ele>2437.0</ele>
        <time>2017-06-23T15:58:58Z</time>
      </trkpt>
      <trkpt lat="42.462986" lon="-3.670317">
        <ele>2446.0</ele>
        <time>2017-06-23T15:59:01Z</time>
      </trkpt>
      <trkpt lat="42.463368" lon="-3.670250">
        <ele>2456.0</ele>
        <time>2017-06-23T15:59:04Z</time>
      </trkpt>
      <trkpt lat="42.463781" lon="-3.669767">
        <ele>2467.0</ele>
        <time>2017-06-23T15:59:08Z</time>
      </trkpt>
      <trkpt lat="42.463918" lon="-3.669317">
        <ele>2477.0</ele>
        <time>2017-06-23T15:59:11Z</time>
      </trkpt>
      <trkpt lat="42.463884" lon="-3.668950">
        <ele>2485.0</ele>
        <time>2017-06-23T15:59:14Z</time>
      </trkpt>
      <trkpt lat="42.463768" lon="-3.668784">
        <ele>2494.0</ele>
        <time>2017-06-23T15:59:17Z</time>
      </trkpt>
      <trkpt lat="42.463648" lon="-3.668883">
        <ele>2501.0</ele>
        <time>2017-06-23T15:59:20Z</time>
      </trkpt>
      <trkpt lat="42.463747" lon="-3.669150">
        <ele>2509.0</ele>
        <time>2017-06-23T15:59:23Z</time>
      </trkpt>
      <trkpt lat="42.464085" lon="-3.669300">
        <ele>2517.0</ele>
        <time>2017-06-23T15:59:26Z</time>
      </trkpt>
      <trkpt lat="42.464485" lon="-3.669133">
        <ele>2526.0</ele>
        <time>2017-06-23T15:59:29Z</time>
      </trkpt>
      <trkpt lat="42.464768" lon="-3.668733">
        <ele>2534.0</ele>
        <time>2017-06-23T15:59:32Z</time>
      </trkpt>
      <trkpt lat="42.464850" lon="-3.668250">
        <ele>2539.0</ele>
        <time>2017-06-23T15:59:35Z</time>
      </trkpt>
      <trkpt lat="42.464703" lon="-3.667984">
        <ele>2547.0</ele>
        <time>2017-06-23T15:59:38Z</time>
      </trkpt>
      <trkpt lat="42.464635" lon="-3.667917">
        <ele>2550.0</ele>
        <time>2017-06-23T15:59:41Z</time>
      </trkpt>
      <trkpt lat="42.464570" lon="-3.668000">
        <ele>2556.0</ele>
        <time>2017-06-23T15:59:44Z</time>
      </trkpt>
      <trkpt lat="42.464635" lon="-3.668250">
        <ele>2566.0</ele>
        <time>2017-06-23T15:59:47Z</time>
      </trkpt>
      <trkpt lat="42.464983" lon="-3.668517">
        <ele>2576.0</ele>
        <time>2017-06-23T15:59:51Z</time>
      </trkpt>
      <trkpt lat="42.465366" lon="-3.668533">
        <ele>2583.0</ele>
        <time>2017-06-23T15:59:54Z</time>
      </trkpt>
      <trkpt lat="42.465786" lon="-3.668400">
        <ele>2591.0</ele>
        <time>2017-06-23T15:59:57Z</time>
      </trkpt>
      <trkpt lat="42.466134" lon="-3.668084">
        <ele>2598.0</ele>
        <time>2017-06-23T16:00:00Z</time>
      </trkpt>
      <trkpt lat="42.466435" lon="-3.667650">
        <ele>2602.0</ele>
        <time>2017-06-23T16:00:03Z</time>
      </trkpt>
      <trkpt lat="42.466534" lon="-3.667133">
        <ele>2607.0</ele>
        <time>2017-06-23T16:00:06Z</time>
      </trkpt>
      <trkpt lat="42.466483" lon="-3.666733">
        <ele>2616.0</ele>
        <time>2017-06-23T16:00:09Z</time>
      </trkpt>
      <trkpt lat="42.466401" lon="-3.666500">
        <ele>2623.0</ele>
        <time>2017-06-23T16:00:12Z</time>
      </trkpt>
      <trkpt lat="42.466336" lon="-3.666483">
        <ele>2631.0</ele>
        <time>2017-06-23T16:00:15Z</time>
      </trkpt>
      <trkpt lat="42.466418" lon="-3.666667">
        <ele>2637.0</ele>
        <time>2017-06-23T16:00:18Z</time>
      </trkpt>
      <trkpt lat="42.466650" lon="-3.666867">
        <ele>2645.0</ele>
        <time>2017-06-23T16:00:21Z</time>
      </trkpt>
      <trkpt lat="42.466950" lon="-3.666933">
        <ele>2650.0</ele>
        <time>2017-06-23T16:00:24Z</time>
      </trkpt>
      <trkpt lat="42.467333" lon="-3.666833">
        <ele>2653.0</ele>
        <time>2017-06-23T16:00:27Z</time>
      </trkpt>
      <trkpt lat="42.467750" lon="-3.666283">
        <ele>2657.0</ele>
        <time>2017-06-23T16:00:31Z</time>
      </trkpt>
      <trkpt lat="42.467869" lon="-3.665783">
        <ele>2657.0</ele>
        <time>2017-06-23T16:00:34Z</time>
      </trkpt>
      <trkpt lat="42.467801" lon="-3.665417">
        <ele>2659.0</ele>
        <time>2017-06-23T16:00:37Z</time>
      </trkpt>
      <trkpt lat="42.467750" lon="-3.665334">
        <ele>2664.0</ele>
        <time>2017-06-23T16:00:40Z</time>
      </trkpt>
      <trkpt lat="42.467685" lon="-3.665317">
        <ele>2665.0</ele>
        <time>2017-06-23T16:00:43Z</time>
      </trkpt>
      <trkpt lat="42.467784" lon="-3.665517">
        <ele>2672.0</ele>
        <time>2017-06-23T16:00:46Z</time>
      </trkpt>
      <trkpt lat="42.468050" lon="-3.665667">
        <ele>2675.0</ele>
        <time>2017-06-23T16:00:49Z</time>
      </trkpt>
      <trkpt lat="42.468419" lon="-3.665700">
        <ele>2676.0</ele>
        <time>2017-06-23T16:00:52Z</time>
      </trkpt>
      <trkpt lat="42.468832" lon="-3.665517">
        <ele>2679.0</ele>
        <time>2017-06-23T16:00:55Z</time>
      </trkpt>
      <trkpt lat="42.469201" lon="-3.665200">
        <ele>2679.0</ele>
        <time>2017-06-23T16:00:58Z</time>
      </trkpt>
      <trkpt lat="42.469583" lon="-3.664567">
        <ele>2681.0</ele>
        <time>2017-06-23T16:01:02Z</time>
      </trkpt>
      <trkpt lat="42.469747" lon="-3.664050">
        <ele>2682.0</ele>
        <time>2017-06-23T16:01:05Z</time>
      </trkpt>
      <trkpt lat="42.469819" lon="-3.663550">
        <ele>2683.0</ele>
        <time>2017-06-23T16:01:08Z</time>
      </trkpt>
      <trkpt lat="42.469768" lon="-3.663150">
        <ele>2684.0</ele>
        <time>2017-06-23T16:01:11Z</time>
      </trkpt>
      <trkpt lat="42.469686" lon="-3.662850">
        <ele>2688.0</ele>
        <time>2017-06-23T16:01:14Z</time>
      </trkpt>
      <trkpt lat="42.469583" lon="-3.662650">
        <ele>2691.0</ele>
        <time>2017-06-23T16:01:17Z</time>
      </trkpt>
      <trkpt lat="42.469481" lon="-3.662500">
        <ele>2694.0</ele>
        <time>2017-06-23T16:01:20Z</time>
      </trkpt>
      <trkpt lat="42.469433" lon="-3.662433">
        <ele>2699.0</ele>
        <time>2017-06-23T16:01:23Z</time>
      </trkpt>
      <trkpt lat="42.469382" lon="-3.662400">
        <ele>2700.0</ele>
        <time>2017-06-23T16:01:26Z</time>
      </trkpt>
      <trkpt lat="42.469382" lon="-3.662484">
        <ele>2704.0</ele>
        <time>2017-06-23T16:01:29Z</time>
      </trkpt>
      <trkpt lat="42.469433" lon="-3.662583">
        <ele>2707.0</ele>
        <time>2017-06-23T16:01:32Z</time>
      </trkpt>
      <trkpt lat="42.469549" lon="-3.662683">
        <ele>2710.0</ele>
        <time>2017-06-23T16:01:35Z</time>
      </trkpt>
      <trkpt lat="42.469785" lon="-3.662783">
        <ele>2714.0</ele>
        <time>2017-06-23T16:01:38Z</time>
      </trkpt>
      <trkpt lat="42.470034" lon="-3.662850">
        <ele>2715.0</ele>
        <time>2017-06-23T16:01:41Z</time>
      </trkpt>
      <trkpt lat="42.470502" lon="-3.662783">
        <ele>2715.0</ele>
        <time>2017-06-23T16:01:45Z</time>
      </trkpt>
      <trkpt lat="42.470868" lon="-3.662484">
        <ele>2715.0</ele>
        <time>2017-06-23T16:01:48Z</time>
      </trkpt>
      <trkpt lat="42.471148" lon="-3.661967">
        <ele>2713.0</ele>
        <time>2017-06-23T16:01:51Z</time>
      </trkpt>
      <trkpt lat="42.471417" lon="-3.661433">
        <ele>2713.0</ele>
        <time>2017-06-23T16:01:54Z</time>
      </trkpt>
      <trkpt lat="42.471598" lon="-3.660867">
        <ele>2716.0</ele>
        <time>2017-06-23T16:01:57Z</time>
      </trkpt>
      <trkpt lat="42.471800" lon="-3.660367">
        <ele>2717.0</ele>
        <time>2017-06-23T16:02:00Z</time>
      </trkpt>
      <trkpt lat="42.472100" lon="-3.659967">
        <ele>2717.0</ele>
        <time>2017-06-23T16:02:03Z</time>
      </trkpt>
      <trkpt lat="42.472483" lon="-3.659750">
        <ele>2715.0</ele>
        <time>2017-06-23T16:02:06Z</time>
      </trkpt>
      <trkpt lat="42.472852" lon="-3.659633">
        <ele>2716.0</ele>
        <time>2017-06-23T16:02:09Z</time>
      </trkpt>
      <trkpt lat="42.473217" lon="-3.659600">
        <ele>2715.0</ele>
        <time>2017-06-23T16:02:12Z</time>
      </trkpt>
      <trkpt lat="42.473548" lon="-3.659667">
        <ele>2716.0</ele>
        <time>2017-06-23T16:02:15Z</time>
      </trkpt>
      <trkpt lat="42.473849" lon="-3.659766">
        <ele>2714.0</ele>
        <time>2017-06-23T16:02:18Z</time>
      </trkpt>
      <trkpt lat="42.474115" lon="-3.659933">
        <ele>2713.0</ele>
        <time>2017-06-23T16:02:21Z</time>
      </trkpt>
      <trkpt lat="42.474583" lon="-3.660033">
        <ele>2712.0</ele>
        <time>2017-06-23T16:02:25Z</time>
      </trkpt>
      <trkpt lat="42.474983" lon="-3.659983">
        <ele>2712.0</ele>
        <time>2017-06-23T16:02:28Z</time>
      </trkpt>
      <trkpt lat="42.475399" lon="-3.659867">
        <ele>2709.0</ele>
        <time>2017-06-23T16:02:31Z</time>
      </trkpt>
      <trkpt lat="42.475799" lon="-3.659617">
        <ele>2707.0</ele>
        <time>2017-06-23T16:02:34Z</time>
      </trkpt>
      <trkpt lat="42.476185" lon="-3.659267">
        <ele>2708.0</ele>
        <time>2017-06-23T16:02:37Z</time>
      </trkpt>
      <trkpt lat="42.476550" lon="-3.658867">
        <ele>2709.0</ele>
        <time>2017-06-23T16:02:40Z</time>
      </trkpt>
      <trkpt lat="42.476847" lon="-3.658450">
        <ele>2710.0</ele>
        <time>2017-06-23T16:02:43Z</time>
      </trkpt>
      <trkpt lat="42.477100" lon="-3.658017">
        <ele>2710.0</ele>
        <time>2017-06-23T16:02:46Z</time>
      </trkpt>
      <trkpt lat="42.477220" lon="-3.657517">
        <ele>2710.0</ele>
        <time>2017-06-23T16:02:49Z</time>
      </trkpt>
      <trkpt lat="42.477268" lon="-3.657017">
        <ele>2714.0</ele>
        <time>2017-06-23T16:02:52Z</time>
      </trkpt>
      <trkpt lat="42.477233" lon="-3.656584">
        <ele>2717.0</ele>
        <time>2017-06-23T16:02:55Z</time>
      </trkpt>
      <trkpt lat="42.477148" lon="-3.656250">
        <ele>2718.0</ele>
        <time>2017-06-23T16:02:58Z</time>
      </trkpt>
      <trkpt lat="42.477035" lon="-3.656067">
        <ele>2718.0</ele>
        <time>2017-06-23T16:03:01Z</time>
      </trkpt>
      <trkpt lat="42.476902" lon="-3.656067">
        <ele>2718.0</ele>
        <time>2017-06-23T16:03:05Z</time>
      </trkpt>
      <trkpt lat="42.476933" lon="-3.656233">
        <ele>2719.0</ele>
        <time>2017-06-23T16:03:08Z</time>
      </trkpt>
      <trkpt lat="42.477100" lon="-3.656400">
        <ele>2721.0</ele>
        <time>2017-06-23T16:03:11Z</time>
      </trkpt>
      <trkpt lat="42.477366" lon="-3.656483">
        <ele>2722.0</ele>
        <time>2017-06-23T16:03:14Z</time>
      </trkpt>
      <trkpt lat="42.477667" lon="-3.656616">
        <ele>2719.0</ele>
        <time>2017-06-23T16:03:17Z</time>
      </trkpt>
      <trkpt lat="42.478118" lon="-3.656517">
        <ele>2719.0</ele>
        <time>2017-06-23T16:03:20Z</time>
      </trkpt>
      <trkpt lat="42.478548" lon="-3.656200">
        <ele>2720.0</ele>
        <time>2017-06-23T16:03:23Z</time>
      </trkpt>
      <trkpt lat="42.478917" lon="-3.655783">
        <ele>2719.0</ele>
        <time>2017-06-23T16:03:26Z</time>
      </trkpt>
      <trkpt lat="42.479084" lon="-3.655183">
        <ele>2719.0</ele>
        <time>2017-06-23T16:03:29Z</time>
      </trkpt>
      <trkpt lat="42.479231" lon="-3.654617">
        <ele>2723.0</ele>
        <time>2017-06-23T16:03:32Z</time>
      </trkpt>
      <trkpt lat="42.479252" lon="-3.654100">
        <ele>2722.0</ele>
        <time>2017-06-23T16:03:35Z</time>
      </trkpt>
      <trkpt lat="42.479084" lon="-3.653817">
        <ele>2725.0</ele>
        <time>2017-06-23T16:03:38Z</time>
      </trkpt>
      <trkpt lat="42.478934" lon="-3.653650">
        <ele>2729.0</ele>
        <time>2017-06-23T16:03:41Z</time>
      </trkpt>
      <trkpt lat="42.478866" lon="-3.653650">
        <ele>2727.0</ele>
        <time>2017-06-23T16:03:44Z</time>
      </trkpt>
      <trkpt lat="42.478999" lon="-3.653917">
        <ele>2729.0</ele>
        <time>2017-06-23T16:03:48Z</time>
      </trkpt>
      <trkpt lat="42.479317" lon="-3.654000">
        <ele>2731.0</ele>
        <time>2017-06-23T16:03:51Z</time>
      </trkpt>
      <trkpt lat="42.479733" lon="-3.653850">
        <ele>2733.0</ele>
        <time>2017-06-23T16:03:54Z</time>
      </trkpt>
      <trkpt lat="42.480133" lon="-3.653450">
        <ele>2735.0</ele>
        <time>2017-06-23T16:03:57Z</time>
      </trkpt>
      <trkpt lat="42.480433" lon="-3.652950">
        <ele>2737.0</ele>
        <time>2017-06-23T16:04:00Z</time>
      </trkpt>
      <trkpt lat="42.480652" lon="-3.652417">
        <ele>2740.0</ele>
        <time>2017-06-23T16:04:03Z</time>
      </trkpt>
      <trkpt lat="42.480700" lon="-3.651900">
        <ele>2739.0</ele>
        <time>2017-06-23T16:04:06Z</time>
      </trkpt>
      <trkpt lat="42.480601" lon="-3.651500">
        <ele>2739.0</ele>
        <time>2017-06-23T16:04:09Z</time>
      </trkpt>
      <trkpt lat="42.480433" lon="-3.651300">
        <ele>2739.0</ele>
        <time>2017-06-23T16:04:12Z</time>
      </trkpt>
      <trkpt lat="42.480365" lon="-3.651400">
        <ele>2740.0</ele>
        <time>2017-06-23T16:04:15Z</time>
      </trkpt>
      <trkpt lat="42.480532" lon="-3.651583">
        <ele>2743.0</ele>
        <time>2017-06-23T16:04:18Z</time>
      </trkpt>
      <trkpt lat="42.480864" lon="-3.651600">
        <ele>2742.0</ele>
        <time>2017-06-23T16:04:21Z</time>
      </trkpt>
      <trkpt lat="42.481314" lon="-3.651383">
        <ele>2745.0</ele>
        <time>2017-06-23T16:04:24Z</time>
      </trkpt>
      <trkpt lat="42.481666" lon="-3.650950">
        <ele>2745.0</ele>
        <time>2017-06-23T16:04:27Z</time>
      </trkpt>
      <trkpt lat="42.481967" lon="-3.650183">
        <ele>2746.0</ele>
        <time>2017-06-23T16:04:31Z</time>
      </trkpt>
      <trkpt lat="42.482052" lon="-3.649600">
        <ele>2747.0</ele>
        <time>2017-06-23T16:04:34Z</time>
      </trkpt>
      <trkpt lat="42.482151" lon="-3.649033">
        <ele>2746.0</ele>
        <time>2017-06-23T16:04:37Z</time>
      </trkpt>
      <trkpt lat="42.482185" lon="-3.648466">
        <ele>2746.0</ele>
        <time>2017-06-23T16:04:40Z</time>
      </trkpt>
      <trkpt lat="42.482284" lon="-3.647867">
        <ele>2747.0</ele>
        <time>2017-06-23T16:04:43Z</time>
      </trkpt>
      <trkpt lat="42.482452" lon="-3.647283">
        <ele>2746.0</ele>
        <time>2017-06-23T16:04:46Z</time>
      </trkpt>
      <trkpt lat="42.482615" lon="-3.646667">
        <ele>2747.0</ele>
        <time>2017-06-23T16:04:49Z</time>
      </trkpt>
      <trkpt lat="42.482817" lon="-3.646083">
        <ele>2750.0</ele>
        <time>2017-06-23T16:04:52Z</time>
      </trkpt>
      <trkpt lat="42.483087" lon="-3.645483">
        <ele>2752.0</ele>
        <time>2017-06-23T16:04:55Z</time>
      </trkpt>
      <trkpt lat="42.483350" lon="-3.644916">
        <ele>2756.0</ele>
        <time>2017-06-23T16:04:58Z</time>
      </trkpt>
      <trkpt lat="42.483599" lon="-3.644317">
        <ele>2759.0</ele>
        <time>2017-06-23T16:05:01Z</time>
      </trkpt>
      <trkpt lat="42.483818" lon="-3.643716">
        <ele>2762.0</ele>
        <time>2017-06-23T16:05:04Z</time>
      </trkpt>
      <trkpt lat="42.484036" lon="-3.643117">
        <ele>2763.0</ele>
        <time>2017-06-23T16:05:07Z</time>
      </trkpt>
      <trkpt lat="42.484183" lon="-3.642500">
        <ele>2765.0</ele>
        <time>2017-06-23T16:05:10Z</time>
      </trkpt>
      <trkpt lat="42.484316" lon="-3.641733">
        <ele>2768.0</ele>
        <time>2017-06-23T16:05:14Z</time>
      </trkpt>
      <trkpt lat="42.484217" lon="-3.641416">
        <ele>2770.0</ele>
        <time>2017-06-23T16:05:17Z</time>
      </trkpt>
      <trkpt lat="42.484101" lon="-3.641283">
        <ele>2774.0</ele>
        <time>2017-06-23T16:05:20Z</time>
      </trkpt>
      <trkpt lat="42.484067" lon="-3.641266">
        <ele>2774.0</ele>
        <time>2017-06-23T16:05:23Z</time>
      </trkpt>
      <trkpt lat="42.484149" lon="-3.641433">
        <ele>2775.0</ele>
        <time>2017-06-23T16:05:26Z</time>
      </trkpt>
      <trkpt lat="42.484367" lon="-3.641550">
        <ele>2781.0</ele>
        <time>2017-06-23T16:05:29Z</time>
      </trkpt>
      <trkpt lat="42.484685" lon="-3.641650">
        <ele>2783.0</ele>
        <time>2017-06-23T16:05:32Z</time>
      </trkpt>
      <trkpt lat="42.485132" lon="-3.641550">
        <ele>2787.0</ele>
        <time>2017-06-23T16:05:35Z</time>
      </trkpt>
      <trkpt lat="42.485566" lon="-3.641316">
        <ele>2790.0</ele>
        <time>2017-06-23T16:05:38Z</time>
      </trkpt>
      <trkpt lat="42.485983" lon="-3.640916">
        <ele>2788.0</ele>
        <time>2017-06-23T16:05:41Z</time>
      </trkpt>
      <trkpt lat="42.486331" lon="-3.640367">
        <ele>2791.0</ele>
        <time>2017-06-23T16:05:44Z</time>
      </trkpt>
      <trkpt lat="42.486632" lon="-3.639816">
        <ele>2789.0</ele>
        <time>2017-06-23T16:05:47Z</time>
      </trkpt>
      <trkpt lat="42.486915" lon="-3.639200">
        <ele>2790.0</ele>
        <time>2017-06-23T16:05:50Z</time>
      </trkpt>
      <trkpt lat="42.487202" lon="-3.638383">
        <ele>2790.0</ele>
        <time>2017-06-23T16:05:54Z</time>
      </trkpt>
      <trkpt lat="42.487349" lon="-3.637750">
        <ele>2792.0</ele>
        <time>2017-06-23T16:05:57Z</time>
      </trkpt>
      <trkpt lat="42.487400" lon="-3.637200">
        <ele>2793.0</ele>
        <time>2017-06-23T16:06:00Z</time>
      </trkpt>
      <trkpt lat="42.487349" lon="-3.636733">
        <ele>2794.0</ele>
        <time>2017-06-23T16:06:03Z</time>
      </trkpt>
      <trkpt lat="42.487267" lon="-3.636433">
        <ele>2796.0</ele>
        <time>2017-06-23T16:06:06Z</time>
      </trkpt>
      <trkpt lat="42.487168" lon="-3.636233">
        <ele>2793.0</ele>
        <time>2017-06-23T16:06:09Z</time>
      </trkpt>
      <trkpt lat="42.487117" lon="-3.636233">
        <ele>2790.0</ele>
        <time>2017-06-23T16:06:12Z</time>
      </trkpt>
      <trkpt lat="42.487181" lon="-3.636383">
        <ele>2791.0</ele>
        <time>2017-06-23T16:06:15Z</time>
      </trkpt>
      <trkpt lat="42.487281" lon="-3.636517">
        <ele>2789.0</ele>
        <time>2017-06-23T16:06:18Z</time>
      </trkpt>
      <trkpt lat="42.487567" lon="-3.636700">
        <ele>2793.0</ele>
        <time>2017-06-23T16:06:21Z</time>
      </trkpt>
      <trkpt lat="42.487899" lon="-3.636766">
        <ele>2796.0</ele>
        <time>2017-06-23T16:06:24Z</time>
      </trkpt>
      <trkpt lat="42.488237" lon="-3.636750">
        <ele>2798.0</ele>
        <time>2017-06-23T16:06:27Z</time>
      </trkpt>
      <trkpt lat="42.488650" lon="-3.636533">
        <ele>2800.0</ele>
        <time>2017-06-23T16:06:30Z</time>
      </trkpt>
      <trkpt lat="42.489053" lon="-3.636150">
        <ele>2798.0</ele>
        <time>2017-06-23T16:06:33Z</time>
      </trkpt>
      <trkpt lat="42.489432" lon="-3.635416">
        <ele>2798.0</ele>
        <time>2017-06-23T16:06:37Z</time>
      </trkpt>
      <trkpt lat="42.489664" lon="-3.634867">
        <ele>2796.0</ele>
        <time>2017-06-23T16:06:40Z</time>
      </trkpt>
      <trkpt lat="42.489849" lon="-3.634250">
        <ele>2795.0</ele>
        <time>2017-06-23T16:06:43Z</time>
      </trkpt>
      <trkpt lat="42.489968" lon="-3.633683">
        <ele>2794.0</ele>
        <time>2017-06-23T16:06:46Z</time>
      </trkpt>
      <trkpt lat="42.490050" lon="-3.633183">
        <ele>2792.0</ele>
        <time>2017-06-23T16:06:49Z</time>
      </trkpt>
      <trkpt lat="42.490101" lon="-3.632683">
        <ele>2787.0</ele>
        <time>2017-06-23T16:06:52Z</time>
      </trkpt>
      <trkpt lat="42.490115" lon="-3.632167">
        <ele>2785.0</ele>
        <time>2017-06-23T16:06:55Z</time>
      </trkpt>
      <trkpt lat="42.490101" lon="-3.631700">
        <ele>2782.0</ele>
        <time>2017-06-23T16:06:58Z</time>
      </trkpt>
      <trkpt lat="42.490101" lon="-3.631217">
        <ele>2781.0</ele>
        <time>2017-06-23T16:07:01Z</time>
      </trkpt>
      <trkpt lat="42.490101" lon="-3.630783">
        <ele>2779.0</ele>
        <time>2017-06-23T16:07:04Z</time>
      </trkpt>
      <trkpt lat="42.490115" lon="-3.630284">
        <ele>2781.0</ele>
        <time>2017-06-23T16:07:07Z</time>
      </trkpt>
      <trkpt lat="42.490149" lon="-3.629800">
        <ele>2786.0</ele>
        <time>2017-06-23T16:07:10Z</time>
      </trkpt>
      <trkpt lat="42.490200" lon="-3.629400">
        <ele>2786.0</ele>
        <time>2017-06-23T16:07:13Z</time>
      </trkpt>
      <trkpt lat="42.490166" lon="-3.628933">
        <ele>2787.0</ele>
        <time>2017-06-23T16:07:17Z</time>
      </trkpt>
      <trkpt lat="42.490101" lon="-3.628700">
        <ele>2787.0</ele>
        <time>2017-06-23T16:07:20Z</time>
      </trkpt>
      <trkpt lat="42.490081" lon="-3.628717">
        <ele>2784.0</ele>
        <time>2017-06-23T16:07:23Z</time>
      </trkpt>
      <trkpt lat="42.490282" lon="-3.628850">
        <ele>2787.0</ele>
        <time>2017-06-23T16:07:26Z</time>
      </trkpt>
      <trkpt lat="42.490566" lon="-3.628850">
        <ele>2791.0</ele>
        <time>2017-06-23T16:07:29Z</time>
      </trkpt>
      <trkpt lat="42.490931" lon="-3.628783">
        <ele>2789.0</ele>
        <time>2017-06-23T16:07:32Z</time>
      </trkpt>
      <trkpt lat="42.491382" lon="-3.628550">
        <ele>2791.0</ele>
        <time>2017-06-23T16:07:35Z</time>
      </trkpt>
      <trkpt lat="42.491799" lon="-3.628200">
        <ele>2791.0</ele>
        <time>2017-06-23T16:07:38Z</time>
      </trkpt>
      <trkpt lat="42.492249" lon="-3.627817">
        <ele>2790.0</ele>
        <time>2017-06-23T16:07:41Z</time>
      </trkpt>
      <trkpt lat="42.492697" lon="-3.627434">
        <ele>2791.0</ele>
        <time>2017-06-23T16:07:44Z</time>
      </trkpt>
      <trkpt lat="42.493148" lon="-3.627067">
        <ele>2794.0</ele>
        <time>2017-06-23T16:07:47Z</time>
      </trkpt>
      <trkpt lat="42.493513" lon="-3.626567">
        <ele>2793.0</ele>
        <time>2017-06-23T16:07:50Z</time>
      </trkpt>
      <trkpt lat="42.493732" lon="-3.625950">
        <ele>2796.0</ele>
        <time>2017-06-23T16:07:53Z</time>
      </trkpt>
      <trkpt lat="42.493865" lon="-3.625400">
        <ele>2799.0</ele>
        <time>2017-06-23T16:07:56Z</time>
      </trkpt>
      <trkpt lat="42.493950" lon="-3.624800">
        <ele>2797.0</ele>
        <time>2017-06-23T16:08:00Z</time>
      </trkpt>
      <trkpt lat="42.493916" lon="-3.624450">
        <ele>2795.0</ele>
        <time>2017-06-23T16:08:03Z</time>
      </trkpt>
      <trkpt lat="42.493865" lon="-3.624167">
        <ele>2793.0</ele>
        <time>2017-06-23T16:08:06Z</time>
      </trkpt>
      <trkpt lat="42.493800" lon="-3.623950">
        <ele>2791.0</ele>
        <time>2017-06-23T16:08:09Z</time>
      </trkpt>
      <trkpt lat="42.493732" lon="-3.623817">
        <ele>2788.0</ele>
        <time>2017-06-23T16:08:12Z</time>
      </trkpt>
      <trkpt lat="42.493732" lon="-3.623800">
        <ele>2787.0</ele>
        <time>2017-06-23T16:08:15Z</time>
      </trkpt>
      <trkpt lat="42.493834" lon="-3.623850">
        <ele>2787.0</ele>
        <time>2017-06-23T16:08:18Z</time>
      </trkpt>
      <trkpt lat="42.493998" lon="-3.623950">
        <ele>2785.0</ele>
        <time>2017-06-23T16:08:21Z</time>
      </trkpt>
      <trkpt lat="42.494367" lon="-3.623950">
        <ele>2784.0</ele>
        <time>2017-06-23T16:08:24Z</time>
      </trkpt>
      <trkpt lat="42.494784" lon="-3.623800">
        <ele>2785.0</ele>
        <time>2017-06-23T16:08:27Z</time>
      </trkpt>
      <trkpt lat="42.495217" lon="-3.623584">
        <ele>2785.0</ele>
        <time>2017-06-23T16:08:30Z</time>
      </trkpt>
      <trkpt lat="42.495682" lon="-3.623267">
        <ele>2790.0</ele>
        <time>2017-06-23T16:08:33Z</time>
      </trkpt>
      <trkpt lat="42.496102" lon="-3.622900">
        <ele>2791.0</ele>
        <time>2017-06-23T16:08:36Z</time>
      </trkpt>
      <trkpt lat="42.496433" lon="-3.622383">
        <ele>2788.0</ele>
        <time>2017-06-23T16:08:39Z</time>
      </trkpt>
      <trkpt lat="42.496665" lon="-3.621533">
        <ele>2787.0</ele>
        <time>2017-06-23T16:08:43Z</time>
      </trkpt>
      <trkpt lat="42.496798" lon="-3.620950">
        <ele>2786.0</ele>
        <time>2017-06-23T16:08:46Z</time>
      </trkpt>
      <trkpt lat="42.496850" lon="-3.620367">
        <ele>2783.0</ele>
        <time>2017-06-23T16:08:49Z</time>
      </trkpt>
      <trkpt lat="42.496867" lon="-3.619917">
        <ele>2784.0</ele>
        <time>2017-06-23T16:08:52Z</time>
      </trkpt>
      <trkpt lat="42.496833" lon="-3.619550">
        <ele>2782.0</ele>
        <time>2017-06-23T16:08:55Z</time>
      </trkpt>
      <trkpt lat="42.496867" lon="-3.619184">
        <ele>2782.0</ele>
        <time>2017-06-23T16:08:58Z</time>
      </trkpt>
      <trkpt lat="42.496918" lon="-3.618700">
        <ele>2778.0</ele>
        <time>2017-06-23T16:09:01Z</time>
      </trkpt>
      <trkpt lat="42.496966" lon="-3.618233">
        <ele>2779.0</ele>
        <time>2017-06-23T16:09:04Z</time>
      </trkpt>
      <trkpt lat="42.497082" lon="-3.617734">
        <ele>2774.0</ele>
        <time>2017-06-23T16:09:07Z</time>
      </trkpt>
      <trkpt lat="42.497283" lon="-3.617133">
        <ele>2774.0</ele>
        <time>2017-06-23T16:09:10Z</time>
      </trkpt>
      <trkpt lat="42.497533" lon="-3.616567">
        <ele>2771.0</ele>
        <time>2017-06-23T16:09:13Z</time>
      </trkpt>
      <trkpt lat="42.497717" lon="-3.615967">
        <ele>2772.0</ele>
        <time>2017-06-23T16:09:16Z</time>
      </trkpt>
      <trkpt lat="42.497881" lon="-3.615433">
        <ele>2769.0</ele>
        <time>2017-06-23T16:09:19Z</time>
      </trkpt>
      <trkpt lat="42.498018" lon="-3.614850">
        <ele>2768.0</ele>
        <time>2017-06-23T16:09:22Z</time>
      </trkpt>
      <trkpt lat="42.498185" lon="-3.614133">
        <ele>2766.0</ele>
        <time>2017-06-23T16:09:26Z</time>
      </trkpt>
      <trkpt lat="42.498250" lon="-3.613617">
        <ele>2763.0</ele>
        <time>2017-06-23T16:09:29Z</time>
      </trkpt>
      <trkpt lat="42.498298" lon="-3.613133">
        <ele>2760.0</ele>
        <time>2017-06-23T16:09:32Z</time>
      </trkpt>
      <trkpt lat="42.498366" lon="-3.612616">
        <ele>2755.0</ele>
        <time>2017-06-23T16:09:35Z</time>
      </trkpt>
      <trkpt lat="42.498499" lon="-3.612033">
        <ele>2751.0</ele>
        <time>2017-06-23T16:09:38Z</time>
      </trkpt>
      <trkpt lat="42.498615" lon="-3.611450">
        <ele>2746.0</ele>
        <time>2017-06-23T16:09:41Z</time>
      </trkpt>
      <trkpt lat="42.498735" lon="-3.610883">
        <ele>2742.0</ele>
        <time>2017-06-23T16:09:44Z</time>
      </trkpt>
      <trkpt lat="42.498817" lon="-3.610350">
        <ele>2738.0</ele>
        <time>2017-06-23T16:09:47Z</time>
      </trkpt>
      <trkpt lat="42.498882" lon="-3.609800">
        <ele>2736.0</ele>
        <time>2017-06-23T16:09:50Z</time>
      </trkpt>
      <trkpt lat="42.498950" lon="-3.609300">
        <ele>2734.0</ele>
        <time>2017-06-23T16:09:53Z</time>
      </trkpt>
      <trkpt lat="42.499001" lon="-3.608767">
        <ele>2731.0</ele>
        <time>2017-06-23T16:09:56Z</time>
      </trkpt>
      <trkpt lat="42.499015" lon="-3.608233">
        <ele>2729.0</ele>
        <time>2017-06-23T16:09:59Z</time>
      </trkpt>
      <trkpt lat="42.499117" lon="-3.607617">
        <ele>2729.0</ele>
        <time>2017-06-23T16:10:02Z</time>
      </trkpt>
      <trkpt lat="42.499199" lon="-3.606883">
        <ele>2727.0</ele>
        <time>2017-06-23T16:10:06Z</time>
      </trkpt>
      <trkpt lat="42.499247" lon="-3.606316">
        <ele>2724.0</ele>
        <time>2017-06-23T16:10:09Z</time>
      </trkpt>
      <trkpt lat="42.499247" lon="-3.605800">
        <ele>2723.0</ele>
        <time>2017-06-23T16:10:12Z</time>
      </trkpt>
      <trkpt lat="42.499302" lon="-3.605300">
        <ele>2719.0</ele>
        <time>2017-06-23T16:10:15Z</time>
      </trkpt>
      <trkpt lat="42.499332" lon="-3.604783">
        <ele>2710.0</ele>
        <time>2017-06-23T16:10:18Z</time>
      </trkpt>
      <trkpt lat="42.499414" lon="-3.604217">
        <ele>2705.0</ele>
        <time>2017-06-23T16:10:21Z</time>
      </trkpt>
      <trkpt lat="42.499551" lon="-3.603683">
        <ele>2696.0</ele>
        <time>2017-06-23T16:10:24Z</time>
      </trkpt>
      <trkpt lat="42.499698" lon="-3.603067">
        <ele>2690.0</ele>
        <time>2017-06-23T16:10:27Z</time>
      </trkpt>
      <trkpt lat="42.499851" lon="-3.602483">
        <ele>2684.0</ele>
        <time>2017-06-23T16:10:30Z</time>
      </trkpt>
      <trkpt lat="42.500033" lon="-3.601867">
        <ele>2674.0</ele>
        <time>2017-06-23T16:10:33Z</time>
      </trkpt>
      <trkpt lat="42.500217" lon="-3.601250">
        <ele>2668.0</ele>
        <time>2017-06-23T16:10:36Z</time>
      </trkpt>
      <trkpt lat="42.500449" lon="-3.600650">
        <ele>2660.0</ele>
        <time>2017-06-23T16:10:39Z</time>
      </trkpt>
      <trkpt lat="42.500733" lon="-3.600050">
        <ele>2655.0</ele>
        <time>2017-06-23T16:10:42Z</time>
      </trkpt>
      <trkpt lat="42.501019" lon="-3.599483">
        <ele>2647.0</ele>
        <time>2017-06-23T16:10:45Z</time>
      </trkpt>
      <trkpt lat="42.501351" lon="-3.598683">
        <ele>2643.0</ele>
        <time>2017-06-23T16:10:49Z</time>
      </trkpt>
      <trkpt lat="42.501549" lon="-3.598117">
        <ele>2639.0</ele>
        <time>2017-06-23T16:10:52Z</time>
      </trkpt>
      <trkpt lat="42.501702" lon="-3.597533">
        <ele>2637.0</ele>
        <time>2017-06-23T16:10:55Z</time>
      </trkpt>
      <trkpt lat="42.501914" lon="-3.596966">
        <ele>2634.0</ele>
        <time>2017-06-23T16:10:58Z</time>
      </trkpt>
      <trkpt lat="42.502181" lon="-3.596400">
        <ele>2634.0</ele>
        <time>2017-06-23T16:11:01Z</time>
      </trkpt>
      <trkpt lat="42.502519" lon="-3.595900">
        <ele>2631.0</ele>
        <time>2017-06-23T16:11:04Z</time>
      </trkpt>
      <trkpt lat="42.502918" lon="-3.595433">
        <ele>2631.0</ele>
        <time>2017-06-23T16:11:07Z</time>
      </trkpt>
      <trkpt lat="42.503349" lon="-3.595016">
        <ele>2631.0</ele>
        <time>2017-06-23T16:11:10Z</time>
      </trkpt>
      <trkpt lat="42.503765" lon="-3.594583">
        <ele>2630.0</ele>
        <time>2017-06-23T16:11:13Z</time>
      </trkpt>
      <trkpt lat="42.504083" lon="-3.594033">
        <ele>2625.0</ele>
        <time>2017-06-23T16:11:16Z</time>
      </trkpt>
      <trkpt lat="42.504452" lon="-3.593517">
        <ele>2619.0</ele>
        <time>2017-06-23T16:11:19Z</time>
      </trkpt>
      <trkpt lat="42.504868" lon="-3.593017">
        <ele>2612.0</ele>
        <time>2017-06-23T16:11:22Z</time>
      </trkpt>
      <trkpt lat="42.505333" lon="-3.592600">
        <ele>2610.0</ele>
        <time>2017-06-23T16:11:25Z</time>
      </trkpt>
      <trkpt lat="42.505797" lon="-3.592283">
        <ele>2606.0</ele>
        <time>2017-06-23T16:11:28Z</time>
      </trkpt>
      <trkpt lat="42.506467" lon="-3.591817">
        <ele>2607.0</ele>
        <time>2017-06-23T16:11:32Z</time>
      </trkpt>
      <trkpt lat="42.506917" lon="-3.591366">
        <ele>2607.0</ele>
        <time>2017-06-23T16:11:35Z</time>
      </trkpt>
      <trkpt lat="42.507252" lon="-3.590800">
        <ele>2606.0</ele>
        <time>2017-06-23T16:11:38Z</time>
      </trkpt>
      <trkpt lat="42.507464" lon="-3.590166">
        <ele>2602.0</ele>
        <time>2017-06-23T16:11:41Z</time>
      </trkpt>
      <trkpt lat="42.507617" lon="-3.589550">
        <ele>2600.0</ele>
        <time>2017-06-23T16:11:44Z</time>
      </trkpt>
      <trkpt lat="42.507703" lon="-3.589050">
        <ele>2595.0</ele>
        <time>2017-06-23T16:11:47Z</time>
      </trkpt>
      <trkpt lat="42.507751" lon="-3.588483">
        <ele>2588.0</ele>
        <time>2017-06-23T16:11:50Z</time>
      </trkpt>
      <trkpt lat="42.507802" lon="-3.587900">
        <ele>2588.0</ele>
        <time>2017-06-23T16:11:53Z</time>
      </trkpt>
      <trkpt lat="42.507816" lon="-3.587366">
        <ele>2586.0</ele>
        <time>2017-06-23T16:11:56Z</time>
      </trkpt>
      <trkpt lat="42.507833" lon="-3.586850">
        <ele>2582.0</ele>
        <time>2017-06-23T16:11:59Z</time>
      </trkpt>
      <trkpt lat="42.507833" lon="-3.586333">
        <ele>2578.0</ele>
        <time>2017-06-23T16:12:02Z</time>
      </trkpt>
      <trkpt lat="42.507850" lon="-3.585867">
        <ele>2575.0</ele>
        <time>2017-06-23T16:12:05Z</time>
      </trkpt>
      <trkpt lat="42.507901" lon="-3.585350">
        <ele>2572.0</ele>
        <time>2017-06-23T16:12:08Z</time>
      </trkpt>
      <trkpt lat="42.507901" lon="-3.584700">
        <ele>2569.0</ele>
        <time>2017-06-23T16:12:12Z</time>
      </trkpt>
      <trkpt lat="42.507949" lon="-3.584233">
        <ele>2564.0</ele>
        <time>2017-06-23T16:12:15Z</time>
      </trkpt>
      <trkpt lat="42.508017" lon="-3.583717">
        <ele>2559.0</ele>
        <time>2017-06-23T16:12:18Z</time>
      </trkpt>
      <trkpt lat="42.508099" lon="-3.583233">
        <ele>2555.0</ele>
        <time>2017-06-23T16:12:21Z</time>
      </trkpt>
      <trkpt lat="42.508215" lon="-3.582717">
        <ele>2550.0</ele>
        <time>2017-06-23T16:12:24Z</time>
      </trkpt>
      <trkpt lat="42.508314" lon="-3.582200">
        <ele>2546.0</ele>
        <time>2017-06-23T16:12:27Z</time>
      </trkpt>
      <trkpt lat="42.508434" lon="-3.581700">
        <ele>2544.0</ele>
        <time>2017-06-23T16:12:30Z</time>
      </trkpt>
      <trkpt lat="42.508567" lon="-3.581217">
        <ele>2538.0</ele>
        <time>2017-06-23T16:12:33Z</time>
      </trkpt>
      <trkpt lat="42.508751" lon="-3.580683">
        <ele>2534.0</ele>
        <time>2017-06-23T16:12:36Z</time>
      </trkpt>
      <trkpt lat="42.508915" lon="-3.580183">
        <ele>2527.0</ele>
        <time>2017-06-23T16:12:39Z</time>
      </trkpt>
      <trkpt lat="42.509103" lon="-3.579600">
        <ele>2526.0</ele>
        <time>2017-06-23T16:12:42Z</time>
      </trkpt>
      <trkpt lat="42.509301" lon="-3.579083">
        <ele>2527.0</ele>
        <time>2017-06-23T16:12:45Z</time>
      </trkpt>
      <trkpt lat="42.509547" lon="-3.578533">
        <ele>2525.0</ele>
        <time>2017-06-23T16:12:48Z</time>
      </trkpt>
      <trkpt lat="42.509786" lon="-3.577917">
        <ele>2522.0</ele>
        <time>2017-06-23T16:12:51Z</time>
      </trkpt>
      <trkpt lat="42.510066" lon="-3.577150">
        <ele>2517.0</ele>
        <time>2017-06-23T16:12:55Z</time>
      </trkpt>
      <trkpt lat="42.510315" lon="-3.576483">
        <ele>2514.0</ele>
        <time>2017-06-23T16:12:58Z</time>
      </trkpt>
      <trkpt lat="42.510503" lon="-3.575833">
        <ele>2513.0</ele>
        <time>2017-06-23T16:13:01Z</time>
      </trkpt>
      <trkpt lat="42.510667" lon="-3.575233">
        <ele>2514.0</ele>
        <time>2017-06-23T16:13:04Z</time>
      </trkpt>
      <trkpt lat="42.510783" lon="-3.574716">
        <ele>2514.0</ele>
        <time>2017-06-23T16:13:07Z</time>
      </trkpt>
      <trkpt lat="42.510869" lon="-3.574200">
        <ele>2511.0</ele>
        <time>2017-06-23T16:13:10Z</time>
      </trkpt>
      <trkpt lat="42.510934" lon="-3.573717">
        <ele>2507.0</ele>
        <time>2017-06-23T16:13:13Z</time>
      </trkpt>
      <trkpt lat="42.510947" lon="-3.573250">
        <ele>2500.0</ele>
        <time>2017-06-23T16:13:16Z</time>
      </trkpt>
      <trkpt lat="42.510981" lon="-3.572750">
        <ele>2495.0</ele>
        <time>2017-06-23T16:13:19Z</time>
      </trkpt>
      <trkpt lat="42.511183" lon="-3.572217">
        <ele>2488.0</ele>
        <time>2017-06-23T16:13:22Z</time>
      </trkpt>
      <trkpt lat="42.511500" lon="-3.571717">
        <ele>2481.0</ele>
        <time>2017-06-23T16:13:25Z</time>
      </trkpt>
      <trkpt lat="42.511900" lon="-3.571233">
        <ele>2474.0</ele>
        <time>2017-06-23T16:13:28Z</time>
      </trkpt>
      <trkpt lat="42.512347" lon="-3.570783">
        <ele>2468.0</ele>
        <time>2017-06-23T16:13:31Z</time>
      </trkpt>
      <trkpt lat="42.512747" lon="-3.570400">
        <ele>2461.0</ele>
        <time>2017-06-23T16:13:34Z</time>
      </trkpt>
      <trkpt lat="42.513300" lon="-3.570083">
        <ele>2453.0</ele>
        <time>2017-06-23T16:13:38Z</time>
      </trkpt>
      <trkpt lat="42.513683" lon="-3.569767">
        <ele>2447.0</ele>
        <time>2017-06-23T16:13:41Z</time>
      </trkpt>
      <trkpt lat="42.514048" lon="-3.569483">
        <ele>2440.0</ele>
        <time>2017-06-23T16:13:44Z</time>
      </trkpt>
      <trkpt lat="42.514434" lon="-3.569183">
        <ele>2434.0</ele>
        <time>2017-06-23T16:13:47Z</time>
      </trkpt>
      <trkpt lat="42.514816" lon="-3.568933">
        <ele>2427.0</ele>
        <time>2017-06-23T16:13:50Z</time>
      </trkpt>
      <trkpt lat="42.515202" lon="-3.568583">
        <ele>2422.0</ele>
        <time>2017-06-23T16:13:53Z</time>
      </trkpt>
      <trkpt lat="42.515616" lon="-3.568250">
        <ele>2416.0</ele>
        <time>2017-06-23T16:13:56Z</time>
      </trkpt>
      <trkpt lat="42.516019" lon="-3.567750">
        <ele>2408.0</ele>
        <time>2017-06-23T16:13:59Z</time>
      </trkpt>
      <trkpt lat="42.516363" lon="-3.567200">
        <ele>2397.0</ele>
        <time>2017-06-23T16:14:02Z</time>
      </trkpt>
      <trkpt lat="42.516702" lon="-3.566667">
        <ele>2391.0</ele>
        <time>2017-06-23T16:14:05Z</time>
      </trkpt>
      <trkpt lat="42.516999" lon="-3.566116">
        <ele>2386.0</ele>
        <time>2017-06-23T16:14:08Z</time>
      </trkpt>
      <trkpt lat="42.517316" lon="-3.565650">
        <ele>2381.0</ele>
        <time>2017-06-23T16:14:11Z</time>
      </trkpt>
      <trkpt lat="42.517651" lon="-3.565217">
        <ele>2376.0</ele>
        <time>2017-06-23T16:14:14Z</time>
      </trkpt>
      <trkpt lat="42.518150" lon="-3.564667">
        <ele>2366.0</ele>
        <time>2017-06-23T16:14:18Z</time>
      </trkpt>
      <trkpt lat="42.518334" lon="-3.564133">
        <ele>2351.0</ele>
        <time>2017-06-23T16:14:21Z</time>
      </trkpt>
      <trkpt lat="42.518481" lon="-3.563583">
        <ele>2341.0</ele>
        <time>2017-06-23T16:14:24Z</time>
      </trkpt>
      <trkpt lat="42.518798" lon="-3.563150">
        <ele>2332.0</ele>
        <time>2017-06-23T16:14:27Z</time>
      </trkpt>
      <trkpt lat="42.519099" lon="-3.562833">
        <ele>2331.0</ele>
        <time>2017-06-23T16:14:30Z</time>
      </trkpt>
      <trkpt lat="42.519348" lon="-3.562517">
        <ele>2320.0</ele>
        <time>2017-06-23T16:14:33Z</time>
      </trkpt>
      <trkpt lat="42.519584" lon="-3.562216">
        <ele>2320.0</ele>
        <time>2017-06-23T16:14:36Z</time>
      </trkpt>
      <trkpt lat="42.519901" lon="-3.562000">
        <ele>2314.0</ele>
        <time>2017-06-23T16:14:39Z</time>
      </trkpt>
      <trkpt lat="42.520233" lon="-3.561817">
        <ele>2318.0</ele>
        <time>2017-06-23T16:14:42Z</time>
      </trkpt>
      <trkpt lat="42.520499" lon="-3.561617">
        <ele>2316.0</ele>
        <time>2017-06-23T16:14:45Z</time>
      </trkpt>
      <trkpt lat="42.520830" lon="-3.561350">
        <ele>2315.0</ele>
        <time>2017-06-23T16:14:48Z</time>
      </trkpt>
      <trkpt lat="42.521134" lon="-3.561117">
        <ele>2315.0</ele>
        <time>2017-06-23T16:14:51Z</time>
      </trkpt>
      <trkpt lat="42.521449" lon="-3.560850">
        <ele>2313.0</ele>
        <time>2017-06-23T16:14:54Z</time>
      </trkpt>
      <trkpt lat="42.521951" lon="-3.560583">
        <ele>2313.0</ele>
        <time>2017-06-23T16:14:58Z</time>
      </trkpt>
      <trkpt lat="42.522282" lon="-3.560633">
        <ele>2308.0</ele>
        <time>2017-06-23T16:15:01Z</time>
      </trkpt>
      <trkpt lat="42.522617" lon="-3.560767">
        <ele>2311.0</ele>
        <time>2017-06-23T16:15:04Z</time>
      </trkpt>
      <trkpt lat="42.522883" lon="-3.560933">
        <ele>2308.0</ele>
        <time>2017-06-23T16:15:07Z</time>
      </trkpt>
      <trkpt lat="42.523180" lon="-3.561150">
        <ele>2305.0</ele>
        <time>2017-06-23T16:15:10Z</time>
      </trkpt>
      <trkpt lat="42.523532" lon="-3.561267">
        <ele>2300.0</ele>
        <time>2017-06-23T16:15:13Z</time>
      </trkpt>
      <trkpt lat="42.523849" lon="-3.561417">
        <ele>2294.0</ele>
        <time>2017-06-23T16:15:16Z</time>
      </trkpt>
      <trkpt lat="42.524116" lon="-3.561633">
        <ele>2289.0</ele>
        <time>2017-06-23T16:15:19Z</time>
      </trkpt>
      <trkpt lat="42.524334" lon="-3.561817">
        <ele>2289.0</ele>
        <time>2017-06-23T16:15:22Z</time>
      </trkpt>
      <trkpt lat="42.524601" lon="-3.561900">
        <ele>2280.0</ele>
        <time>2017-06-23T16:15:25Z</time>
      </trkpt>
      <trkpt lat="42.524898" lon="-3.562017">
        <ele>2275.0</ele>
        <time>2017-06-23T16:15:28Z</time>
      </trkpt>
      <trkpt lat="42.525215" lon="-3.562067">
        <ele>2268.0</ele>
        <time>2017-06-23T16:15:31Z</time>
      </trkpt>
      <trkpt lat="42.525550" lon="-3.562150">
        <ele>2260.0</ele>
        <time>2017-06-23T16:15:34Z</time>
      </trkpt>
      <trkpt lat="42.525915" lon="-3.562250">
        <ele>2253.0</ele>
        <time>2017-06-23T16:15:37Z</time>
      </trkpt>
      <trkpt lat="42.526400" lon="-3.562433">
        <ele>2247.0</ele>
        <time>2017-06-23T16:15:41Z</time>
      </trkpt>
      <trkpt lat="42.526783" lon="-3.562483">
        <ele>2244.0</ele>
        <time>2017-06-23T16:15:44Z</time>
      </trkpt>
      <trkpt lat="42.527083" lon="-3.562483">
        <ele>2245.0</ele>
        <time>2017-06-23T16:15:47Z</time>
      </trkpt>
      <trkpt lat="42.527401" lon="-3.562567">
        <ele>2240.0</ele>
        <time>2017-06-23T16:15:50Z</time>
      </trkpt>
      <trkpt lat="42.527599" lon="-3.562633">
        <ele>2236.0</ele>
        <time>2017-06-23T16:15:52Z</time>
      </trkpt>
      <trkpt lat="42.528050" lon="-3.562817">
        <ele>2233.0</ele>
        <time>2017-06-23T16:15:56Z</time>
      </trkpt>
      <trkpt lat="42.528381" lon="-3.562867">
        <ele>2236.0</ele>
        <time>2017-06-23T16:15:59Z</time>
      </trkpt>
      <trkpt lat="42.528668" lon="-3.563067">
        <ele>2232.0</ele>
        <time>2017-06-23T16:16:02Z</time>
      </trkpt>
      <trkpt lat="42.528849" lon="-3.563317">
        <ele>2231.0</ele>
        <time>2017-06-23T16:16:05Z</time>
      </trkpt>
      <trkpt lat="42.528965" lon="-3.563567">
        <ele>2228.0</ele>
        <time>2017-06-23T16:16:08Z</time>
      </trkpt>
      <trkpt lat="42.529201" lon="-3.563750">
        <ele>2228.0</ele>
        <time>2017-06-23T16:16:11Z</time>
      </trkpt>
      <trkpt lat="42.529484" lon="-3.563867">
        <ele>2226.0</ele>
        <time>2017-06-23T16:16:14Z</time>
      </trkpt>
      <trkpt lat="42.529816" lon="-3.563900">
        <ele>2222.0</ele>
        <time>2017-06-23T16:16:17Z</time>
      </trkpt>
      <trkpt lat="42.530167" lon="-3.564017">
        <ele>2224.0</ele>
        <time>2017-06-23T16:16:20Z</time>
      </trkpt>
      <trkpt lat="42.530468" lon="-3.564117">
        <ele>2224.0</ele>
        <time>2017-06-23T16:16:23Z</time>
      </trkpt>
      <trkpt lat="42.530816" lon="-3.564250">
        <ele>2224.0</ele>
        <time>2017-06-23T16:16:26Z</time>
      </trkpt>
      <trkpt lat="42.531117" lon="-3.564366">
        <ele>2225.0</ele>
        <time>2017-06-23T16:16:29Z</time>
      </trkpt>
      <trkpt lat="42.531417" lon="-3.564500">
        <ele>2223.0</ele>
        <time>2017-06-23T16:16:32Z</time>
      </trkpt>
      <trkpt lat="42.531834" lon="-3.564667">
        <ele>2222.0</ele>
        <time>2017-06-23T16:16:36Z</time>
      </trkpt>
      <trkpt lat="42.532151" lon="-3.564800">
        <ele>2219.0</ele>
        <time>2017-06-23T16:16:39Z</time>
      </trkpt>
      <trkpt lat="42.532483" lon="-3.564916">
        <ele>2221.0</ele>
        <time>2017-06-23T16:16:42Z</time>
      </trkpt>
      <trkpt lat="42.532817" lon="-3.565000">
        <ele>2221.0</ele>
        <time>2017-06-23T16:16:45Z</time>
      </trkpt>
      <trkpt lat="42.533183" lon="-3.565067">
        <ele>2218.0</ele>
        <time>2017-06-23T16:16:48Z</time>
      </trkpt>
      <trkpt lat="42.533548" lon="-3.565133">
        <ele>2216.0</ele>
        <time>2017-06-23T16:16:51Z</time>
      </trkpt>
      <trkpt lat="42.533900" lon="-3.565150">
        <ele>2215.0</ele>
        <time>2017-06-23T16:16:54Z</time>
      </trkpt>
      <trkpt lat="42.534231" lon="-3.565217">
        <ele>2212.0</ele>
        <time>2017-06-23T16:16:57Z</time>
      </trkpt>
      <trkpt lat="42.534549" lon="-3.565300">
        <ele>2210.0</ele>
        <time>2017-06-23T16:17:00Z</time>
      </trkpt>
      <trkpt lat="42.534880" lon="-3.565433">
        <ele>2207.0</ele>
        <time>2017-06-23T16:17:03Z</time>
      </trkpt>
      <trkpt lat="42.535266" lon="-3.565533">
        <ele>2201.0</ele>
        <time>2017-06-23T16:17:06Z</time>
      </trkpt>
      <trkpt lat="42.535649" lon="-3.565633">
        <ele>2201.0</ele>
        <time>2017-06-23T16:17:09Z</time>
      </trkpt>
      <trkpt lat="42.536048" lon="-3.565683">
        <ele>2197.0</ele>
        <time>2017-06-23T16:17:12Z</time>
      </trkpt>
      <trkpt lat="42.536499" lon="-3.565733">
        <ele>2196.0</ele>
        <time>2017-06-23T16:17:15Z</time>
      </trkpt>
      <trkpt lat="42.537032" lon="-3.565767">
        <ele>2194.0</ele>
        <time>2017-06-23T16:17:19Z</time>
      </trkpt>
      <trkpt lat="42.537469" lon="-3.565800">
        <ele>2190.0</ele>
        <time>2017-06-23T16:17:22Z</time>
      </trkpt>
      <trkpt lat="42.537865" lon="-3.565900">
        <ele>2190.0</ele>
        <time>2017-06-23T16:17:25Z</time>
      </trkpt>
      <trkpt lat="42.538264" lon="-3.565983">
        <ele>2185.0</ele>
        <time>2017-06-23T16:17:28Z</time>
      </trkpt>
      <trkpt lat="42.538698" lon="-3.566067">
        <ele>2180.0</ele>
        <time>2017-06-23T16:17:31Z</time>
      </trkpt>
      <trkpt lat="42.539115" lon="-3.566116">
        <ele>2175.0</ele>
        <time>2017-06-23T16:17:34Z</time>
      </trkpt>
      <trkpt lat="42.539566" lon="-3.566183">
        <ele>2170.0</ele>
        <time>2017-06-23T16:17:37Z</time>
      </trkpt>
      <trkpt lat="42.539982" lon="-3.566167">
        <ele>2171.0</ele>
        <time>2017-06-23T16:17:40Z</time>
      </trkpt>
      <trkpt lat="42.540368" lon="-3.566200">
        <ele>2167.0</ele>
        <time>2017-06-23T16:17:43Z</time>
      </trkpt>
      <trkpt lat="42.540781" lon="-3.566233">
        <ele>2162.0</ele>
        <time>2017-06-23T16:17:46Z</time>
      </trkpt>
      <trkpt lat="42.541184" lon="-3.566250">
        <ele>2158.0</ele>
        <time>2017-06-23T16:17:49Z</time>
      </trkpt>
      <trkpt lat="42.541598" lon="-3.566267">
        <ele>2153.0</ele>
        <time>2017-06-23T16:17:52Z</time>
      </trkpt>
      <trkpt lat="42.542014" lon="-3.566283">
        <ele>2151.0</ele>
        <time>2017-06-23T16:17:55Z</time>
      </trkpt>
      <trkpt lat="42.542400" lon="-3.566300">
        <ele>2146.0</ele>
        <time>2017-06-23T16:17:58Z</time>
      </trkpt>
      <trkpt lat="42.542933" lon="-3.566317">
        <ele>2143.0</ele>
        <time>2017-06-23T16:18:02Z</time>
      </trkpt>
      <trkpt lat="42.543350" lon="-3.566333">
        <ele>2139.0</ele>
        <time>2017-06-23T16:18:05Z</time>
      </trkpt>
      <trkpt lat="42.543766" lon="-3.566317">
        <ele>2139.0</ele>
        <time>2017-06-23T16:18:08Z</time>
      </trkpt>
      <trkpt lat="42.544183" lon="-3.566233">
        <ele>2134.0</ele>
        <time>2017-06-23T16:18:11Z</time>
      </trkpt>
      <trkpt lat="42.544617" lon="-3.566233">
        <ele>2131.0</ele>
        <time>2017-06-23T16:18:14Z</time>
      </trkpt>
      <trkpt lat="42.545016" lon="-3.566250">
        <ele>2130.0</ele>
        <time>2017-06-23T16:18:17Z</time>
      </trkpt>
      <trkpt lat="42.545446" lon="-3.566333">
        <ele>2127.0</ele>
        <time>2017-06-23T16:18:20Z</time>
      </trkpt>
      <trkpt lat="42.545849" lon="-3.566367">
        <ele>2129.0</ele>
        <time>2017-06-23T16:18:23Z</time>
      </trkpt>
      <trkpt lat="42.546263" lon="-3.566383">
        <ele>2122.0</ele>
        <time>2017-06-23T16:18:26Z</time>
      </trkpt>
      <trkpt lat="42.546700" lon="-3.566417">
        <ele>2122.0</ele>
        <time>2017-06-23T16:18:29Z</time>
      </trkpt>
      <trkpt lat="42.547099" lon="-3.566417">
        <ele>2121.0</ele>
        <time>2017-06-23T16:18:32Z</time>
      </trkpt>
      <trkpt lat="42.547516" lon="-3.566350">
        <ele>2118.0</ele>
        <time>2017-06-23T16:18:35Z</time>
      </trkpt>
      <trkpt lat="42.547916" lon="-3.566383">
        <ele>2115.0</ele>
        <time>2017-06-23T16:18:38Z</time>
      </trkpt>
      <trkpt lat="42.548298" lon="-3.566417">
        <ele>2115.0</ele>
        <time>2017-06-23T16:18:41Z</time>
      </trkpt>
      <trkpt lat="42.548797" lon="-3.566467">
        <ele>2111.0</ele>
        <time>2017-06-23T16:18:45Z</time>
      </trkpt>
      <trkpt lat="42.549183" lon="-3.566500">
        <ele>2110.0</ele>
        <time>2017-06-23T16:18:48Z</time>
      </trkpt>
      <trkpt lat="42.549548" lon="-3.566550">
        <ele>2108.0</ele>
        <time>2017-06-23T16:18:51Z</time>
      </trkpt>
      <trkpt lat="42.549934" lon="-3.566633">
        <ele>2109.0</ele>
        <time>2017-06-23T16:18:54Z</time>
      </trkpt>
      <trkpt lat="42.550265" lon="-3.566733">
        <ele>2110.0</ele>
        <time>2017-06-23T16:18:57Z</time>
      </trkpt>
      <trkpt lat="42.550596" lon="-3.566817">
        <ele>2109.0</ele>
        <time>2017-06-23T16:19:00Z</time>
      </trkpt>
      <trkpt lat="42.550948" lon="-3.566933">
        <ele>2108.0</ele>
        <time>2017-06-23T16:19:03Z</time>
      </trkpt>
      <trkpt lat="42.551300" lon="-3.567000">
        <ele>2107.0</ele>
        <time>2017-06-23T16:19:06Z</time>
      </trkpt>
      <trkpt lat="42.551665" lon="-3.567100">
        <ele>2105.0</ele>
        <time>2017-06-23T16:19:09Z</time>
      </trkpt>
      <trkpt lat="42.552017" lon="-3.567150">
        <ele>2103.0</ele>
        <time>2017-06-23T16:19:12Z</time>
      </trkpt>
      <trkpt lat="42.552335" lon="-3.567250">
        <ele>2100.0</ele>
        <time>2017-06-23T16:19:15Z</time>
      </trkpt>
      <trkpt lat="42.552649" lon="-3.567383">
        <ele>2101.0</ele>
        <time>2017-06-23T16:19:18Z</time>
      </trkpt>
      <trkpt lat="42.552946" lon="-3.567483">
        <ele>2096.0</ele>
        <time>2017-06-23T16:19:21Z</time>
      </trkpt>
      <trkpt lat="42.553264" lon="-3.567650">
        <ele>2093.0</ele>
        <time>2017-06-23T16:19:24Z</time>
      </trkpt>
      <trkpt lat="42.553663" lon="-3.567883">
        <ele>2092.0</ele>
        <time>2017-06-23T16:19:28Z</time>
      </trkpt>
      <trkpt lat="42.553981" lon="-3.568033">
        <ele>2091.0</ele>
        <time>2017-06-23T16:19:31Z</time>
      </trkpt>
      <trkpt lat="42.554264" lon="-3.568166">
        <ele>2092.0</ele>
        <time>2017-06-23T16:19:34Z</time>
      </trkpt>
      <trkpt lat="42.554551" lon="-3.568250">
        <ele>2090.0</ele>
        <time>2017-06-23T16:19:37Z</time>
      </trkpt>
      <trkpt lat="42.554865" lon="-3.568350">
        <ele>2087.0</ele>
        <time>2017-06-23T16:19:40Z</time>
      </trkpt>
      <trkpt lat="42.555183" lon="-3.568417">
        <ele>2087.0</ele>
        <time>2017-06-23T16:19:43Z</time>
      </trkpt>
      <trkpt lat="42.555480" lon="-3.568483">
        <ele>2084.0</ele>
        <time>2017-06-23T16:19:46Z</time>
      </trkpt>
      <trkpt lat="42.555798" lon="-3.568567">
        <ele>2082.0</ele>
        <time>2017-06-23T16:19:49Z</time>
      </trkpt>
      <trkpt lat="42.556132" lon="-3.568667">
        <ele>2084.0</ele>
        <time>2017-06-23T16:19:52Z</time>
      </trkpt>
      <trkpt lat="42.556463" lon="-3.568750">
        <ele>2086.0</ele>
        <time>2017-06-23T16:19:55Z</time>
      </trkpt>
      <trkpt lat="42.556781" lon="-3.568867">
        <ele>2086.0</ele>
        <time>2017-06-23T16:19:58Z</time>
      </trkpt>
      <trkpt lat="42.557082" lon="-3.568983">
        <ele>2085.0</ele>
        <time>2017-06-23T16:20:01Z</time>
      </trkpt>
      <trkpt lat="42.557399" lon="-3.569133">
        <ele>2084.0</ele>
        <time>2017-06-23T16:20:04Z</time>
      </trkpt>
      <trkpt lat="42.557816" lon="-3.569300">
        <ele>2083.0</ele>
        <time>2017-06-23T16:20:08Z</time>
      </trkpt>
      <trkpt lat="42.558116" lon="-3.569433">
        <ele>2083.0</ele>
        <time>2017-06-23T16:20:11Z</time>
      </trkpt>
      <trkpt lat="42.558448" lon="-3.569500">
        <ele>2082.0</ele>
        <time>2017-06-23T16:20:14Z</time>
      </trkpt>
      <trkpt lat="42.558779" lon="-3.569566">
        <ele>2083.0</ele>
        <time>2017-06-23T16:20:17Z</time>
      </trkpt>
      <trkpt lat="42.559083" lon="-3.569600">
        <ele>2083.0</ele>
        <time>2017-06-23T16:20:20Z</time>
      </trkpt>
      <trkpt lat="42.559397" lon="-3.569700">
        <ele>2081.0</ele>
        <time>2017-06-23T16:20:23Z</time>
      </trkpt>
      <trkpt lat="42.559701" lon="-3.569733">
        <ele>2083.0</ele>
        <time>2017-06-23T16:20:26Z</time>
      </trkpt>
      <trkpt lat="42.559998" lon="-3.569783">
        <ele>2081.0</ele>
        <time>2017-06-23T16:20:29Z</time>
      </trkpt>
      <trkpt lat="42.560312" lon="-3.569833">
        <ele>2081.0</ele>
        <time>2017-06-23T16:20:32Z</time>
      </trkpt>
      <trkpt lat="42.560599" lon="-3.569883">
        <ele>2078.0</ele>
        <time>2017-06-23T16:20:35Z</time>
      </trkpt>
      <trkpt lat="42.560917" lon="-3.569933">
        <ele>2076.0</ele>
        <time>2017-06-23T16:20:38Z</time>
      </trkpt>
      <trkpt lat="42.561234" lon="-3.570000">
        <ele>2074.0</ele>
        <time>2017-06-23T16:20:41Z</time>
      </trkpt>
      <trkpt lat="42.561532" lon="-3.570100">
        <ele>2070.0</ele>
        <time>2017-06-23T16:20:44Z</time>
      </trkpt>
      <trkpt lat="42.561846" lon="-3.570183">
        <ele>2070.0</ele>
        <time>2017-06-23T16:20:47Z</time>
      </trkpt>
      <trkpt lat="42.562232" lon="-3.570333">
        <ele>2068.0</ele>
        <time>2017-06-23T16:20:51Z</time>
      </trkpt>
      <trkpt lat="42.562536" lon="-3.570483">
        <ele>2068.0</ele>
        <time>2017-06-23T16:20:54Z</time>
      </trkpt>
      <trkpt lat="42.562816" lon="-3.570600">
        <ele>2068.0</ele>
        <time>2017-06-23T16:20:57Z</time>
      </trkpt>
      <trkpt lat="42.563133" lon="-3.570700">
        <ele>2065.0</ele>
        <time>2017-06-23T16:21:00Z</time>
      </trkpt>
      <trkpt lat="42.563464" lon="-3.570783">
        <ele>2064.0</ele>
        <time>2017-06-23T16:21:03Z</time>
      </trkpt>
      <trkpt lat="42.563765" lon="-3.570883">
        <ele>2063.0</ele>
        <time>2017-06-23T16:21:06Z</time>
      </trkpt>
      <trkpt lat="42.564062" lon="-3.570967">
        <ele>2060.0</ele>
        <time>2017-06-23T16:21:09Z</time>
      </trkpt>
      <trkpt lat="42.564366" lon="-3.571067">
        <ele>2060.0</ele>
        <time>2017-06-23T16:21:12Z</time>
      </trkpt>
      <trkpt lat="42.564646" lon="-3.571150">
        <ele>2059.0</ele>
        <time>2017-06-23T16:21:15Z</time>
      </trkpt>
      <trkpt lat="42.564916" lon="-3.571283">
        <ele>2056.0</ele>
        <time>2017-06-23T16:21:18Z</time>
      </trkpt>
      <trkpt lat="42.565230" lon="-3.571367">
        <ele>2055.0</ele>
        <time>2017-06-23T16:21:21Z</time>
      </trkpt>
      <trkpt lat="42.565534" lon="-3.571467">
        <ele>2054.0</ele>
        <time>2017-06-23T16:21:24Z</time>
      </trkpt>
      <trkpt lat="42.565835" lon="-3.571567">
        <ele>2051.0</ele>
        <time>2017-06-23T16:21:27Z</time>
      </trkpt>
      <trkpt lat="42.566316" lon="-3.571600">
        <ele>2050.0</ele>
        <time>2017-06-23T16:21:31Z</time>
      </trkpt>
      <trkpt lat="42.566617" lon="-3.571500">
        <ele>2051.0</ele>
        <time>2017-06-23T16:21:34Z</time>
      </trkpt>
      <trkpt lat="42.566897" lon="-3.571517">
        <ele>2049.0</ele>
        <time>2017-06-23T16:21:37Z</time>
      </trkpt>
      <trkpt lat="42.567214" lon="-3.571567">
        <ele>2048.0</ele>
        <time>2017-06-23T16:21:40Z</time>
      </trkpt>
      <trkpt lat="42.567498" lon="-3.571617">
        <ele>2046.0</ele>
        <time>2017-06-23T16:21:43Z</time>
      </trkpt>
      <trkpt lat="42.567798" lon="-3.571650">
        <ele>2043.0</ele>
        <time>2017-06-23T16:21:46Z</time>
      </trkpt>
      <trkpt lat="42.568082" lon="-3.571700">
        <ele>2040.0</ele>
        <time>2017-06-23T16:21:49Z</time>
      </trkpt>
      <trkpt lat="42.568382" lon="-3.571733">
        <ele>2037.0</ele>
        <time>2017-06-23T16:21:52Z</time>
      </trkpt>
      <trkpt lat="42.568700" lon="-3.571783">
        <ele>2032.0</ele>
        <time>2017-06-23T16:21:55Z</time>
      </trkpt>
      <trkpt lat="42.569000" lon="-3.571800">
        <ele>2030.0</ele>
        <time>2017-06-23T16:21:58Z</time>
      </trkpt>
      <trkpt lat="42.569297" lon="-3.571833">
        <ele>2025.0</ele>
        <time>2017-06-23T16:22:01Z</time>
      </trkpt>
      <trkpt lat="42.569615" lon="-3.571833">
        <ele>2023.0</ele>
        <time>2017-06-23T16:22:04Z</time>
      </trkpt>
      <trkpt lat="42.569950" lon="-3.571833">
        <ele>2018.0</ele>
        <time>2017-06-23T16:22:07Z</time>
      </trkpt>
      <trkpt lat="42.570281" lon="-3.571900">
        <ele>2014.0</ele>
        <time>2017-06-23T16:22:10Z</time>
      </trkpt>
      <trkpt lat="42.570732" lon="-3.571983">
        <ele>2011.0</ele>
        <time>2017-06-23T16:22:14Z</time>
      </trkpt>
      <trkpt lat="42.571049" lon="-3.572050">
        <ele>2012.0</ele>
        <time>2017-06-23T16:22:17Z</time>
      </trkpt>
      <trkpt lat="42.571364" lon="-3.572117">
        <ele>2008.0</ele>
        <time>2017-06-23T16:22:20Z</time>
      </trkpt>
      <trkpt lat="42.571681" lon="-3.572167">
        <ele>2007.0</ele>
        <time>2017-06-23T16:22:23Z</time>
      </trkpt>
      <trkpt lat="42.571999" lon="-3.572217">
        <ele>2002.0</ele>
        <time>2017-06-23T16:22:26Z</time>
      </trkpt>
      <trkpt lat="42.572330" lon="-3.572367">
        <ele>2001.0</ele>
        <time>2017-06-23T16:22:29Z</time>
      </trkpt>
      <trkpt lat="42.572617" lon="-3.572450">
        <ele>1999.0</ele>
        <time>2017-06-23T16:22:32Z</time>
      </trkpt>
      <trkpt lat="42.572883" lon="-3.572583">
        <ele>1995.0</ele>
        <time>2017-06-23T16:22:35Z</time>
      </trkpt>
      <trkpt lat="42.573180" lon="-3.572633">
        <ele>1991.0</ele>
        <time>2017-06-23T16:22:38Z</time>
      </trkpt>
      <trkpt lat="42.573481" lon="-3.572700">
        <ele>1985.0</ele>
        <time>2017-06-23T16:22:41Z</time>
      </trkpt>
      <trkpt lat="42.573785" lon="-3.572750">
        <ele>1982.0</ele>
        <time>2017-06-23T16:22:44Z</time>
      </trkpt>
      <trkpt lat="42.574065" lon="-3.572717">
        <ele>1976.0</ele>
        <time>2017-06-23T16:22:47Z</time>
      </trkpt>
      <trkpt lat="42.574369" lon="-3.572733">
        <ele>1973.0</ele>
        <time>2017-06-23T16:22:50Z</time>
      </trkpt>
      <trkpt lat="42.574734" lon="-3.572700">
        <ele>1973.0</ele>
        <time>2017-06-23T16:22:54Z</time>
      </trkpt>
      <trkpt lat="42.575001" lon="-3.572583">
        <ele>1967.0</ele>
        <time>2017-06-23T16:22:57Z</time>
      </trkpt>
      <trkpt lat="42.575264" lon="-3.572600">
        <ele>1961.0</ele>
        <time>2017-06-23T16:23:00Z</time>
      </trkpt>
      <trkpt lat="42.575516" lon="-3.572750">
        <ele>1959.0</ele>
        <time>2017-06-23T16:23:03Z</time>
      </trkpt>
      <trkpt lat="42.575766" lon="-3.572883">
        <ele>1952.0</ele>
        <time>2017-06-23T16:23:06Z</time>
      </trkpt>
      <trkpt lat="42.576015" lon="-3.573117">
        <ele>1948.0</ele>
        <time>2017-06-23T16:23:09Z</time>
      </trkpt>
      <trkpt lat="42.576247" lon="-3.573317">
        <ele>1941.0</ele>
        <time>2017-06-23T16:23:12Z</time>
      </trkpt>
      <trkpt lat="42.576514" lon="-3.573550">
        <ele>1933.0</ele>
        <time>2017-06-23T16:23:15Z</time>
      </trkpt>
      <trkpt lat="42.576797" lon="-3.573733">
        <ele>1927.0</ele>
        <time>2017-06-23T16:23:18Z</time>
      </trkpt>
      <trkpt lat="42.577084" lon="-3.573966">
        <ele>1918.0</ele>
        <time>2017-06-23T16:23:21Z</time>
      </trkpt>
      <trkpt lat="42.577364" lon="-3.574183">
        <ele>1912.0</ele>
        <time>2017-06-23T16:23:24Z</time>
      </trkpt>
      <trkpt lat="42.577647" lon="-3.574400">
        <ele>1904.0</ele>
        <time>2017-06-23T16:23:27Z</time>
      </trkpt>
      <trkpt lat="42.577965" lon="-3.574633">
        <ele>1899.0</ele>
        <time>2017-06-23T16:23:30Z</time>
      </trkpt>
      <trkpt lat="42.578364" lon="-3.574950">
        <ele>1895.0</ele>
        <time>2017-06-23T16:23:34Z</time>
      </trkpt>
      <trkpt lat="42.578648" lon="-3.575200">
        <ele>1892.0</ele>
        <time>2017-06-23T16:23:37Z</time>
      </trkpt>
      <trkpt lat="42.578935" lon="-3.575433">
        <ele>1884.0</ele>
        <time>2017-06-23T16:23:40Z</time>
      </trkpt>
      <trkpt lat="42.579215" lon="-3.575717">
        <ele>1879.0</ele>
        <time>2017-06-23T16:23:43Z</time>
      </trkpt>
      <trkpt lat="42.579481" lon="-3.575967">
        <ele>1872.0</ele>
        <time>2017-06-23T16:23:46Z</time>
      </trkpt>
      <trkpt lat="42.579782" lon="-3.576267">
        <ele>1867.0</ele>
        <time>2017-06-23T16:23:49Z</time>
      </trkpt>
      <trkpt lat="42.580048" lon="-3.576533">
        <ele>1863.0</ele>
        <time>2017-06-23T16:23:52Z</time>
      </trkpt>
      <trkpt lat="42.580349" lon="-3.576833">
        <ele>1859.0</ele>
        <time>2017-06-23T16:23:55Z</time>
      </trkpt>
      <trkpt lat="42.580615" lon="-3.577116">
        <ele>1857.0</ele>
        <time>2017-06-23T16:23:58Z</time>
      </trkpt>
      <trkpt lat="42.580899" lon="-3.577383">
        <ele>1851.0</ele>
        <time>2017-06-23T16:24:01Z</time>
      </trkpt>
      <trkpt lat="42.581216" lon="-3.577633">
        <ele>1846.0</ele>
        <time>2017-06-23T16:24:04Z</time>
      </trkpt>
      <trkpt lat="42.581551" lon="-3.577816">
        <ele>1842.0</ele>
        <time>2017-06-23T16:24:07Z</time>
      </trkpt>
      <trkpt lat="42.581882" lon="-3.578017">
        <ele>1837.0</ele>
        <time>2017-06-23T16:24:10Z</time>
      </trkpt>
      <trkpt lat="42.582213" lon="-3.578233">
        <ele>1834.0</ele>
        <time>2017-06-23T16:24:13Z</time>
      </trkpt>
      <trkpt lat="42.582650" lon="-3.578500">
        <ele>1825.0</ele>
        <time>2017-06-23T16:24:17Z</time>
      </trkpt>
      <trkpt lat="42.583016" lon="-3.578650">
        <ele>1820.0</ele>
        <time>2017-06-23T16:24:20Z</time>
      </trkpt>
      <trkpt lat="42.583330" lon="-3.578817">
        <ele>1814.0</ele>
        <time>2017-06-23T16:24:23Z</time>
      </trkpt>
      <trkpt lat="42.583682" lon="-3.578983">
        <ele>1806.0</ele>
        <time>2017-06-23T16:24:26Z</time>
      </trkpt>
      <trkpt lat="42.584013" lon="-3.579150">
        <ele>1802.0</ele>
        <time>2017-06-23T16:24:29Z</time>
      </trkpt>
      <trkpt lat="42.584351" lon="-3.579333">
        <ele>1792.0</ele>
        <time>2017-06-23T16:24:32Z</time>
      </trkpt>
      <trkpt lat="42.584717" lon="-3.579533">
        <ele>1785.0</ele>
        <time>2017-06-23T16:24:35Z</time>
      </trkpt>
      <trkpt lat="42.585048" lon="-3.579766">
        <ele>1782.0</ele>
        <time>2017-06-23T16:24:38Z</time>
      </trkpt>
      <trkpt lat="42.585314" lon="-3.580000">
        <ele>1780.0</ele>
        <time>2017-06-23T16:24:41Z</time>
      </trkpt>
      <trkpt lat="42.585546" lon="-3.580316">
        <ele>1772.0</ele>
        <time>2017-06-23T16:24:44Z</time>
      </trkpt>
      <trkpt lat="42.585816" lon="-3.580633">
        <ele>1767.0</ele>
        <time>2017-06-23T16:24:47Z</time>
      </trkpt>
      <trkpt lat="42.586031" lon="-3.580883">
        <ele>1759.0</ele>
        <time>2017-06-23T16:24:50Z</time>
      </trkpt>
      <trkpt lat="42.586281" lon="-3.581166">
        <ele>1751.0</ele>
        <time>2017-06-23T16:24:53Z</time>
      </trkpt>
      <trkpt lat="42.586547" lon="-3.581533">
        <ele>1747.0</ele>
        <time>2017-06-23T16:24:56Z</time>
      </trkpt>
      <trkpt lat="42.586899" lon="-3.581900">
        <ele>1743.0</ele>
        <time>2017-06-23T16:25:00Z</time>
      </trkpt>
      <trkpt lat="42.587182" lon="-3.582167">
        <ele>1738.0</ele>
        <time>2017-06-23T16:25:03Z</time>
      </trkpt>
      <trkpt lat="42.587397" lon="-3.582433">
        <ele>1734.0</ele>
        <time>2017-06-23T16:25:06Z</time>
      </trkpt>
      <trkpt lat="42.587650" lon="-3.582733">
        <ele>1728.0</ele>
        <time>2017-06-23T16:25:09Z</time>
      </trkpt>
      <trkpt lat="42.587899" lon="-3.582983">
        <ele>1723.0</ele>
        <time>2017-06-23T16:25:12Z</time>
      </trkpt>
      <trkpt lat="42.588132" lon="-3.583317">
        <ele>1715.0</ele>
        <time>2017-06-23T16:25:15Z</time>
      </trkpt>
      <trkpt lat="42.588381" lon="-3.583600">
        <ele>1714.0</ele>
        <time>2017-06-23T16:25:18Z</time>
      </trkpt>
      <trkpt lat="42.588565" lon="-3.583883">
        <ele>1707.0</ele>
        <time>2017-06-23T16:25:21Z</time>
      </trkpt>
      <trkpt lat="42.588815" lon="-3.584150">
        <ele>1702.0</ele>
        <time>2017-06-23T16:25:24Z</time>
      </trkpt>
      <trkpt lat="42.589030" lon="-3.584383">
        <ele>1699.0</ele>
        <time>2017-06-23T16:25:27Z</time>
      </trkpt>
      <trkpt lat="42.589248" lon="-3.584583">
        <ele>1692.0</ele>
        <time>2017-06-23T16:25:30Z</time>
      </trkpt>
      <trkpt lat="42.589467" lon="-3.584817">
        <ele>1688.0</ele>
        <time>2017-06-23T16:25:33Z</time>
      </trkpt>
      <trkpt lat="42.589682" lon="-3.585066">
        <ele>1686.0</ele>
        <time>2017-06-23T16:25:36Z</time>
      </trkpt>
      <trkpt lat="42.589832" lon="-3.585333">
        <ele>1681.0</ele>
        <time>2017-06-23T16:25:39Z</time>
      </trkpt>
      <trkpt lat="42.590099" lon="-3.585667">
        <ele>1676.0</ele>
        <time>2017-06-23T16:25:43Z</time>
      </trkpt>
      <trkpt lat="42.590331" lon="-3.585883">
        <ele>1674.0</ele>
        <time>2017-06-23T16:25:46Z</time>
      </trkpt>
      <trkpt lat="42.590550" lon="-3.586117">
        <ele>1668.0</ele>
        <time>2017-06-23T16:25:49Z</time>
      </trkpt>
      <trkpt lat="42.590782" lon="-3.586350">
        <ele>1662.0</ele>
        <time>2017-06-23T16:25:52Z</time>
      </trkpt>
      <trkpt lat="42.590980" lon="-3.586583">
        <ele>1659.0</ele>
        <time>2017-06-23T16:25:55Z</time>
      </trkpt>
      <trkpt lat="42.591198" lon="-3.586733">
        <ele>1650.0</ele>
        <time>2017-06-23T16:25:58Z</time>
      </trkpt>
      <trkpt lat="42.591465" lon="-3.586883">
        <ele>1646.0</ele>
        <time>2017-06-23T16:26:01Z</time>
      </trkpt>
      <trkpt lat="42.591666" lon="-3.587100">
        <ele>1640.0</ele>
        <time>2017-06-23T16:26:04Z</time>
      </trkpt>
      <trkpt lat="42.591916" lon="-3.587333">
        <ele>1633.0</ele>
        <time>2017-06-23T16:26:07Z</time>
      </trkpt>
      <trkpt lat="42.592165" lon="-3.587466">
        <ele>1628.0</ele>
        <time>2017-06-23T16:26:10Z</time>
      </trkpt>
      <trkpt lat="42.592401" lon="-3.587567">
        <ele>1625.0</ele>
        <time>2017-06-23T16:26:13Z</time>
      </trkpt>
      <trkpt lat="42.592599" lon="-3.587700">
        <ele>1616.0</ele>
        <time>2017-06-23T16:26:16Z</time>
      </trkpt>
      <trkpt lat="42.592865" lon="-3.587783">
        <ele>1611.0</ele>
        <time>2017-06-23T16:26:19Z</time>
      </trkpt>
      <trkpt lat="42.593148" lon="-3.587866">
        <ele>1605.0</ele>
        <time>2017-06-23T16:26:23Z</time>
      </trkpt>
      <trkpt lat="42.593384" lon="-3.587933">
        <ele>1596.0</ele>
        <time>2017-06-23T16:26:26Z</time>
      </trkpt>
      <trkpt lat="42.593616" lon="-3.588050">
        <ele>1590.0</ele>
        <time>2017-06-23T16:26:29Z</time>
      </trkpt>
      <trkpt lat="42.593849" lon="-3.588200">
        <ele>1581.0</ele>
        <time>2017-06-23T16:26:32Z</time>
      </trkpt>
      <trkpt lat="42.594098" lon="-3.588350">
        <ele>1575.0</ele>
        <time>2017-06-23T16:26:35Z</time>
      </trkpt>
      <trkpt lat="42.594347" lon="-3.588450">
        <ele>1568.0</ele>
        <time>2017-06-23T16:26:38Z</time>
      </trkpt>
      <trkpt lat="42.594596" lon="-3.588600">
        <ele>1563.0</ele>
        <time>2017-06-23T16:26:41Z</time>
      </trkpt>
      <trkpt lat="42.594832" lon="-3.588667">
        <ele>1558.0</ele>
        <time>2017-06-23T16:26:44Z</time>
      </trkpt>
      <trkpt lat="42.595081" lon="-3.588683">
        <ele>1549.0</ele>
        <time>2017-06-23T16:26:47Z</time>
      </trkpt>
      <trkpt lat="42.595348" lon="-3.588700">
        <ele>1546.0</ele>
        <time>2017-06-23T16:26:50Z</time>
      </trkpt>
      <trkpt lat="42.595566" lon="-3.588800">
        <ele>1538.0</ele>
        <time>2017-06-23T16:26:53Z</time>
      </trkpt>
      <trkpt lat="42.595833" lon="-3.588883">
        <ele>1533.0</ele>
        <time>2017-06-23T16:26:56Z</time>
      </trkpt>
      <trkpt lat="42.596082" lon="-3.589050">
        <ele>1527.0</ele>
        <time>2017-06-23T16:26:59Z</time>
      </trkpt>
      <trkpt lat="42.596331" lon="-3.589267">
        <ele>1522.0</ele>
        <time>2017-06-23T16:27:02Z</time>
      </trkpt>
      <trkpt lat="42.596635" lon="-3.589600">
        <ele>1516.0</ele>
        <time>2017-06-23T16:27:06Z</time>
      </trkpt>
      <trkpt lat="42.596847" lon="-3.589883">
        <ele>1511.0</ele>
        <time>2017-06-23T16:27:09Z</time>
      </trkpt>
      <trkpt lat="42.597079" lon="-3.590150">
        <ele>1505.0</ele>
        <time>2017-06-23T16:27:12Z</time>
      </trkpt>
      <trkpt lat="42.597298" lon="-3.590417">
        <ele>1498.0</ele>
        <time>2017-06-23T16:27:15Z</time>
      </trkpt>
      <trkpt lat="42.597550" lon="-3.590666">
        <ele>1491.0</ele>
        <time>2017-06-23T16:27:18Z</time>
      </trkpt>
      <trkpt lat="42.597783" lon="-3.590916">
        <ele>1486.0</ele>
        <time>2017-06-23T16:27:21Z</time>
      </trkpt>
      <trkpt lat="42.598032" lon="-3.591150">
        <ele>1477.0</ele>
        <time>2017-06-23T16:27:24Z</time>
      </trkpt>
      <trkpt lat="42.598298" lon="-3.591433">
        <ele>1471.0</ele>
        <time>2017-06-23T16:27:27Z</time>
      </trkpt>
      <trkpt lat="42.598548" lon="-3.591700">
        <ele>1465.0</ele>
        <time>2017-06-23T16:27:30Z</time>
      </trkpt>
      <trkpt lat="42.598814" lon="-3.591967">
        <ele>1456.0</ele>
        <time>2017-06-23T16:27:33Z</time>
      </trkpt>
      <trkpt lat="42.599084" lon="-3.592283">
        <ele>1452.0</ele>
        <time>2017-06-23T16:27:36Z</time>
      </trkpt>
      <trkpt lat="42.599330" lon="-3.592600">
        <ele>1447.0</ele>
        <time>2017-06-23T16:27:39Z</time>
      </trkpt>
      <trkpt lat="42.599562" lon="-3.592916">
        <ele>1443.0</ele>
        <time>2017-06-23T16:27:42Z</time>
      </trkpt>
      <trkpt lat="42.599880" lon="-3.593300">
        <ele>1437.0</ele>
        <time>2017-06-23T16:27:46Z</time>
      </trkpt>
      <trkpt lat="42.600115" lon="-3.593633">
        <ele>1434.0</ele>
        <time>2017-06-23T16:27:49Z</time>
      </trkpt>
      <trkpt lat="42.600279" lon="-3.593983">
        <ele>1431.0</ele>
        <time>2017-06-23T16:27:52Z</time>
      </trkpt>
      <trkpt lat="42.600464" lon="-3.594383">
        <ele>1427.0</ele>
        <time>2017-06-23T16:27:55Z</time>
      </trkpt>
      <trkpt lat="42.600583" lon="-3.594783">
        <ele>1424.0</ele>
        <time>2017-06-23T16:27:58Z</time>
      </trkpt>
      <trkpt lat="42.600665" lon="-3.595250">
        <ele>1418.0</ele>
        <time>2017-06-23T16:28:01Z</time>
      </trkpt>
      <trkpt lat="42.600716" lon="-3.595716">
        <ele>1416.0</ele>
        <time>2017-06-23T16:28:04Z</time>
      </trkpt>
      <trkpt lat="42.600781" lon="-3.596183">
        <ele>1411.0</ele>
        <time>2017-06-23T16:28:07Z</time>
      </trkpt>
      <trkpt lat="42.600884" lon="-3.596633">
        <ele>1408.0</ele>
        <time>2017-06-23T16:28:10Z</time>
      </trkpt>
      <trkpt lat="42.600996" lon="-3.597050">
        <ele>1404.0</ele>
        <time>2017-06-23T16:28:13Z</time>
      </trkpt>
      <trkpt lat="42.601147" lon="-3.597467">
        <ele>1400.0</ele>
        <time>2017-06-23T16:28:16Z</time>
      </trkpt>
      <trkpt lat="42.601334" lon="-3.597817">
        <ele>1396.0</ele>
        <time>2017-06-23T16:28:19Z</time>
      </trkpt>
      <trkpt lat="42.601532" lon="-3.598150">
        <ele>1391.0</ele>
        <time>2017-06-23T16:28:22Z</time>
      </trkpt>
      <trkpt lat="42.601748" lon="-3.598467">
        <ele>1389.0</ele>
        <time>2017-06-23T16:28:25Z</time>
      </trkpt>
      <trkpt lat="42.602065" lon="-3.598867">
        <ele>1383.0</ele>
        <time>2017-06-23T16:28:29Z</time>
      </trkpt>
      <trkpt lat="42.602332" lon="-3.599083">
        <ele>1382.0</ele>
        <time>2017-06-23T16:28:32Z</time>
      </trkpt>
      <trkpt lat="42.602581" lon="-3.599266">
        <ele>1378.0</ele>
        <time>2017-06-23T16:28:35Z</time>
      </trkpt>
      <trkpt lat="42.602881" lon="-3.599400">
        <ele>1373.0</ele>
        <time>2017-06-23T16:28:38Z</time>
      </trkpt>
      <trkpt lat="42.603148" lon="-3.599517">
        <ele>1371.0</ele>
        <time>2017-06-23T16:28:41Z</time>
      </trkpt>
      <trkpt lat="42.603445" lon="-3.599650">
        <ele>1366.0</ele>
        <time>2017-06-23T16:28:44Z</time>
      </trkpt>
      <trkpt lat="42.603715" lon="-3.599783">
        <ele>1364.0</ele>
        <time>2017-06-23T16:28:47Z</time>
      </trkpt>
      <trkpt lat="42.603981" lon="-3.599917">
        <ele>1359.0</ele>
        <time>2017-06-23T16:28:50Z</time>
      </trkpt>
      <trkpt lat="42.604265" lon="-3.600067">
        <ele>1356.0</ele>
        <time>2017-06-23T16:28:53Z</time>
      </trkpt>
      <trkpt lat="42.604531" lon="-3.600217">
        <ele>1353.0</ele>
        <time>2017-06-23T16:28:56Z</time>
      </trkpt>
      <trkpt lat="42.604814" lon="-3.600383">
        <ele>1348.0</ele>
        <time>2017-06-23T16:28:59Z</time>
      </trkpt>
      <trkpt lat="42.605064" lon="-3.600567">
        <ele>1345.0</ele>
        <time>2017-06-23T16:29:02Z</time>
      </trkpt>
      <trkpt lat="42.605316" lon="-3.600784">
        <ele>1344.0</ele>
        <time>2017-06-23T16:29:05Z</time>
      </trkpt>
      <trkpt lat="42.605549" lon="-3.600966">
        <ele>1339.0</ele>
        <time>2017-06-23T16:29:08Z</time>
      </trkpt>
      <trkpt lat="42.605900" lon="-3.601216">
        <ele>1337.0</ele>
        <time>2017-06-23T16:29:12Z</time>
      </trkpt>
      <trkpt lat="42.606167" lon="-3.601367">
        <ele>1334.0</ele>
        <time>2017-06-23T16:29:15Z</time>
      </trkpt>
      <trkpt lat="42.606430" lon="-3.601516">
        <ele>1331.0</ele>
        <time>2017-06-23T16:29:18Z</time>
      </trkpt>
      <trkpt lat="42.606696" lon="-3.601700">
        <ele>1328.0</ele>
        <time>2017-06-23T16:29:21Z</time>
      </trkpt>
      <trkpt lat="42.606963" lon="-3.601900">
        <ele>1326.0</ele>
        <time>2017-06-23T16:29:24Z</time>
      </trkpt>
      <trkpt lat="42.607215" lon="-3.602083">
        <ele>1324.0</ele>
        <time>2017-06-23T16:29:27Z</time>
      </trkpt>
      <trkpt lat="42.607482" lon="-3.602267">
        <ele>1323.0</ele>
        <time>2017-06-23T16:29:30Z</time>
      </trkpt>
      <trkpt lat="42.607700" lon="-3.602500">
        <ele>1321.0</ele>
        <time>2017-06-23T16:29:33Z</time>
      </trkpt>
      <trkpt lat="42.607950" lon="-3.602700">
        <ele>1318.0</ele>
        <time>2017-06-23T16:29:36Z</time>
      </trkpt>
      <trkpt lat="42.608182" lon="-3.602916">
        <ele>1315.0</ele>
        <time>2017-06-23T16:29:39Z</time>
      </trkpt>
      <trkpt lat="42.608431" lon="-3.603083">
        <ele>1312.0</ele>
        <time>2017-06-23T16:29:42Z</time>
      </trkpt>
      <trkpt lat="42.608680" lon="-3.603266">
        <ele>1310.0</ele>
        <time>2017-06-23T16:29:45Z</time>
      </trkpt>
      <trkpt lat="42.608913" lon="-3.603450">
        <ele>1307.0</ele>
        <time>2017-06-23T16:29:48Z</time>
      </trkpt>
      <trkpt lat="42.609148" lon="-3.603683">
        <ele>1306.0</ele>
        <time>2017-06-23T16:29:51Z</time>
      </trkpt>
      <trkpt lat="42.609432" lon="-3.603966">
        <ele>1302.0</ele>
        <time>2017-06-23T16:29:55Z</time>
      </trkpt>
      <trkpt lat="42.609681" lon="-3.604167">
        <ele>1299.0</ele>
        <time>2017-06-23T16:29:58Z</time>
      </trkpt>
      <trkpt lat="42.609930" lon="-3.604333">
        <ele>1296.0</ele>
        <time>2017-06-23T16:30:01Z</time>
      </trkpt>
      <trkpt lat="42.610200" lon="-3.604483">
        <ele>1293.0</ele>
        <time>2017-06-23T16:30:04Z</time>
      </trkpt>
      <trkpt lat="42.610446" lon="-3.604617">
        <ele>1290.0</ele>
        <time>2017-06-23T16:30:07Z</time>
      </trkpt>
      <trkpt lat="42.610682" lon="-3.604800">
        <ele>1286.0</ele>
        <time>2017-06-23T16:30:10Z</time>
      </trkpt>
      <trkpt lat="42.610917" lon="-3.605033">
        <ele>1282.0</ele>
        <time>2017-06-23T16:30:13Z</time>
      </trkpt>
      <trkpt lat="42.611163" lon="-3.605233">
        <ele>1278.0</ele>
        <time>2017-06-23T16:30:16Z</time>
      </trkpt>
      <trkpt lat="42.611416" lon="-3.605400">
        <ele>1274.0</ele>
        <time>2017-06-23T16:30:19Z</time>
      </trkpt>
      <trkpt lat="42.611682" lon="-3.605550">
        <ele>1272.0</ele>
        <time>2017-06-23T16:30:22Z</time>
      </trkpt>
      <trkpt lat="42.611931" lon="-3.605683">
        <ele>1271.0</ele>
        <time>2017-06-23T16:30:25Z</time>
      </trkpt>
      <trkpt lat="42.612164" lon="-3.605783">
        <ele>1270.0</ele>
        <time>2017-06-23T16:30:28Z</time>
      </trkpt>
      <trkpt lat="42.612399" lon="-3.605883">
        <ele>1267.0</ele>
        <time>2017-06-23T16:30:31Z</time>
      </trkpt>
      <trkpt lat="42.612662" lon="-3.605950">
        <ele>1266.0</ele>
        <time>2017-06-23T16:30:34Z</time>
      </trkpt>
      <trkpt lat="42.612983" lon="-3.605983">
        <ele>1264.0</ele>
        <time>2017-06-23T16:30:38Z</time>
      </trkpt>
      <trkpt lat="42.613233" lon="-3.606000">
        <ele>1263.0</ele>
        <time>2017-06-23T16:30:41Z</time>
      </trkpt>
      <trkpt lat="42.613465" lon="-3.606017">
        <ele>1261.0</ele>
        <time>2017-06-23T16:30:44Z</time>
      </trkpt>
      <trkpt lat="42.613714" lon="-3.606083">
        <ele>1258.0</ele>
        <time>2017-06-23T16:30:47Z</time>
      </trkpt>
      <trkpt lat="42.613963" lon="-3.606150">
        <ele>1256.0</ele>
        <time>2017-06-23T16:30:50Z</time>
      </trkpt>
      <trkpt lat="42.614230" lon="-3.606217">
        <ele>1252.0</ele>
        <time>2017-06-23T16:30:53Z</time>
      </trkpt>
      <trkpt lat="42.614496" lon="-3.606300">
        <ele>1250.0</ele>
        <time>2017-06-23T16:30:56Z</time>
      </trkpt>
      <trkpt lat="42.614749" lon="-3.606367">
        <ele>1249.0</ele>
        <time>2017-06-23T16:30:59Z</time>
      </trkpt>
      <trkpt lat="42.614998" lon="-3.606433">
        <ele>1247.0</ele>
        <time>2017-06-23T16:31:02Z</time>
      </trkpt>
      <trkpt lat="42.615333" lon="-3.606600">
        <ele>1244.0</ele>
        <time>2017-06-23T16:31:06Z</time>
      </trkpt>
      <trkpt lat="42.615565" lon="-3.606733">
        <ele>1243.0</ele>
        <time>2017-06-23T16:31:09Z</time>
      </trkpt>
      <trkpt lat="42.615797" lon="-3.606933">
        <ele>1241.0</ele>
        <time>2017-06-23T16:31:12Z</time>
      </trkpt>
      <trkpt lat="42.616047" lon="-3.607116">
        <ele>1239.0</ele>
        <time>2017-06-23T16:31:15Z</time>
      </trkpt>
      <trkpt lat="42.616313" lon="-3.607250">
        <ele>1237.0</ele>
        <time>2017-06-23T16:31:18Z</time>
      </trkpt>
      <trkpt lat="42.616579" lon="-3.607383">
        <ele>1234.0</ele>
        <time>2017-06-23T16:31:21Z</time>
      </trkpt>
      <trkpt lat="42.616832" lon="-3.607567">
        <ele>1232.0</ele>
        <time>2017-06-23T16:31:24Z</time>
      </trkpt>
      <trkpt lat="42.617017" lon="-3.607883">
        <ele>1230.0</ele>
        <time>2017-06-23T16:31:27Z</time>
      </trkpt>
      <trkpt lat="42.617129" lon="-3.608283">
        <ele>1227.0</ele>
        <time>2017-06-23T16:31:30Z</time>
      </trkpt>
      <trkpt lat="42.617215" lon="-3.608733">
        <ele>1225.0</ele>
        <time>2017-06-23T16:31:33Z</time>
      </trkpt>
      <trkpt lat="42.617365" lon="-3.609150">
        <ele>1225.0</ele>
        <time>2017-06-23T16:31:36Z</time>
      </trkpt>
      <trkpt lat="42.617481" lon="-3.609550">
        <ele>1224.0</ele>
        <time>2017-06-23T16:31:39Z</time>
      </trkpt>
      <trkpt lat="42.617566" lon="-3.609950">
        <ele>1223.0</ele>
        <time>2017-06-23T16:31:42Z</time>
      </trkpt>
      <trkpt lat="42.617549" lon="-3.610500">
        <ele>1220.0</ele>
        <time>2017-06-23T16:31:46Z</time>
      </trkpt>
      <trkpt lat="42.617467" lon="-3.610950">
        <ele>1218.0</ele>
        <time>2017-06-23T16:31:49Z</time>
      </trkpt>
      <trkpt lat="42.617481" lon="-3.611400">
        <ele>1218.0</ele>
        <time>2017-06-23T16:31:52Z</time>
      </trkpt>
      <trkpt lat="42.617529" lon="-3.611800">
        <ele>1219.0</ele>
        <time>2017-06-23T16:31:55Z</time>
      </trkpt>
      <trkpt lat="42.617631" lon="-3.612150">
        <ele>1218.0</ele>
        <time>2017-06-23T16:31:58Z</time>
      </trkpt>
      <trkpt lat="42.617846" lon="-3.612350">
        <ele>1216.0</ele>
        <time>2017-06-23T16:32:01Z</time>
      </trkpt>
      <trkpt lat="42.618065" lon="-3.612250">
        <ele>1215.0</ele>
        <time>2017-06-23T16:32:04Z</time>
      </trkpt>
      <trkpt lat="42.618147" lon="-3.611983">
        <ele>1214.0</ele>
        <time>2017-06-23T16:32:07Z</time>
      </trkpt>
      <trkpt lat="42.618099" lon="-3.611733">
        <ele>1216.0</ele>
        <time>2017-06-23T16:32:10Z</time>
      </trkpt>
      <trkpt lat="42.617966" lon="-3.611567">
        <ele>1215.0</ele>
        <time>2017-06-23T16:32:13Z</time>
      </trkpt>
      <trkpt lat="42.617747" lon="-3.611483">
        <ele>1216.0</ele>
        <time>2017-06-23T16:32:16Z</time>
      </trkpt>
      <trkpt lat="42.617549" lon="-3.611500">
        <ele>1216.0</ele>
        <time>2017-06-23T16:32:19Z</time>
      </trkpt>
      <trkpt lat="42.617314" lon="-3.611633">
        <ele>1215.0</ele>
        <time>2017-06-23T16:32:22Z</time>
      </trkpt>
      <trkpt lat="42.617129" lon="-3.611900">
        <ele>1216.0</ele>
        <time>2017-06-23T16:32:25Z</time>
      </trkpt>
      <trkpt lat="42.616996" lon="-3.612333">
        <ele>1216.0</ele>
        <time>2017-06-23T16:32:29Z</time>
      </trkpt>
      <trkpt lat="42.617047" lon="-3.612683">
        <ele>1217.0</ele>
        <time>2017-06-23T16:32:32Z</time>
      </trkpt>
      <trkpt lat="42.617180" lon="-3.613000">
        <ele>1218.0</ele>
        <time>2017-06-23T16:32:35Z</time>
      </trkpt>
      <trkpt lat="42.617365" lon="-3.613283">
        <ele>1222.0</ele>
        <time>2017-06-23T16:32:38Z</time>
      </trkpt>
      <trkpt lat="42.617566" lon="-3.613466">
        <ele>1231.0</ele>
        <time>2017-06-23T16:32:41Z</time>
      </trkpt>
      <trkpt lat="42.617799" lon="-3.613600">
        <ele>1234.0</ele>
        <time>2017-06-23T16:32:44Z</time>
      </trkpt>
      <trkpt lat="42.618031" lon="-3.613583">
        <ele>1239.0</ele>
        <time>2017-06-23T16:32:47Z</time>
      </trkpt>
      <trkpt lat="42.618198" lon="-3.613450">
        <ele>1239.0</ele>
        <time>2017-06-23T16:32:50Z</time>
      </trkpt>
      <trkpt lat="42.618198" lon="-3.613233">
        <ele>1237.0</ele>
        <time>2017-06-23T16:32:53Z</time>
      </trkpt>
      <trkpt lat="42.618000" lon="-3.613283">
        <ele>1235.0</ele>
        <time>2017-06-23T16:32:56Z</time>
      </trkpt>
      <trkpt lat="42.617881" lon="-3.613633">
        <ele>1239.0</ele>
        <time>2017-06-23T16:32:59Z</time>
      </trkpt>
      <trkpt lat="42.617915" lon="-3.613967">
        <ele>1245.0</ele>
        <time>2017-06-23T16:33:02Z</time>
      </trkpt>
      <trkpt lat="42.617966" lon="-3.614400">
        <ele>1247.0</ele>
        <time>2017-06-23T16:33:05Z</time>
      </trkpt>
      <trkpt lat="42.618065" lon="-3.614750">
        <ele>1250.0</ele>
        <time>2017-06-23T16:33:08Z</time>
      </trkpt>
      <trkpt lat="42.618212" lon="-3.615083">
        <ele>1247.0</ele>
        <time>2017-06-23T16:33:11Z</time>
      </trkpt>
      <trkpt lat="42.618430" lon="-3.615217">
        <ele>1248.0</ele>
        <time>2017-06-23T16:33:14Z</time>
      </trkpt>
      <trkpt lat="42.618581" lon="-3.615150">
        <ele>1246.0</ele>
        <time>2017-06-23T16:33:17Z</time>
      </trkpt>
      <trkpt lat="42.618632" lon="-3.614966">
        <ele>1245.0</ele>
        <time>2017-06-23T16:33:20Z</time>
      </trkpt>
      <trkpt lat="42.618581" lon="-3.614783">
        <ele>1243.0</ele>
        <time>2017-06-23T16:33:24Z</time>
      </trkpt>
      <trkpt lat="42.618516" lon="-3.614650">
        <ele>1240.0</ele>
        <time>2017-06-23T16:33:27Z</time>
      </trkpt>
      <trkpt lat="42.618396" lon="-3.614516">
        <ele>1235.0</ele>
        <time>2017-06-23T16:33:30Z</time>
      </trkpt>
      <trkpt lat="42.618198" lon="-3.614466">
        <ele>1235.0</ele>
        <time>2017-06-23T16:33:33Z</time>
      </trkpt>
      <trkpt lat="42.618065" lon="-3.614483">
        <ele>1235.0</ele>
        <time>2017-06-23T16:33:36Z</time>
      </trkpt>
      <trkpt lat="42.617898" lon="-3.614533">
        <ele>1232.0</ele>
        <time>2017-06-23T16:33:39Z</time>
      </trkpt>
      <trkpt lat="42.617734" lon="-3.614516">
        <ele>1233.0</ele>
        <time>2017-06-23T16:33:42Z</time>
      </trkpt>
      <trkpt lat="42.617614" lon="-3.614583">
        <ele>1233.0</ele>
        <time>2017-06-23T16:33:45Z</time>
      </trkpt>
      <trkpt lat="42.617481" lon="-3.614700">
        <ele>1236.0</ele>
        <time>2017-06-23T16:33:48Z</time>
      </trkpt>
      <trkpt lat="42.617314" lon="-3.614733">
        <ele>1239.0</ele>
        <time>2017-06-23T16:33:51Z</time>
      </trkpt>
      <trkpt lat="42.617180" lon="-3.614683">
        <ele>1243.0</ele>
        <time>2017-06-23T16:33:54Z</time>
      </trkpt>
      <trkpt lat="42.617116" lon="-3.614650">
        <ele>1244.0</ele>
        <time>2017-06-23T16:33:57Z</time>
      </trkpt>
      <trkpt lat="42.616996" lon="-3.614566">
        <ele>1247.0</ele>
        <time>2017-06-23T16:34:00Z</time>
      </trkpt>
      <trkpt lat="42.616897" lon="-3.614466">
        <ele>1252.0</ele>
        <time>2017-06-23T16:34:03Z</time>
      </trkpt>
      <trkpt lat="42.616730" lon="-3.614450">
        <ele>1256.0</ele>
        <time>2017-06-23T16:34:07Z</time>
      </trkpt>
      <trkpt lat="42.616566" lon="-3.614700">
        <ele>1256.0</ele>
        <time>2017-06-23T16:34:10Z</time>
      </trkpt>
      <trkpt lat="42.616600" lon="-3.615167">
        <ele>1259.0</ele>
        <time>2017-06-23T16:34:13Z</time>
      </trkpt>
      <trkpt lat="42.616713" lon="-3.615567">
        <ele>1260.0</ele>
        <time>2017-06-23T16:34:16Z</time>
      </trkpt>
      <trkpt lat="42.616918" lon="-3.615917">
        <ele>1262.0</ele>
        <time>2017-06-23T16:34:19Z</time>
      </trkpt>
      <trkpt lat="42.617116" lon="-3.616050">
        <ele>1267.0</ele>
        <time>2017-06-23T16:34:22Z</time>
      </trkpt>
      <trkpt lat="42.617283" lon="-3.615950">
        <ele>1269.0</ele>
        <time>2017-06-23T16:34:25Z</time>
      </trkpt>
      <trkpt lat="42.617232" lon="-3.615833">
        <ele>1272.0</ele>
        <time>2017-06-23T16:34:28Z</time>
      </trkpt>
      <trkpt lat="42.617099" lon="-3.615800">
        <ele>1275.0</ele>
        <time>2017-06-23T16:34:31Z</time>
      </trkpt>
      <trkpt lat="42.616931" lon="-3.615817">
        <ele>1276.0</ele>
        <time>2017-06-23T16:34:34Z</time>
      </trkpt>
      <trkpt lat="42.616730" lon="-3.615983">
        <ele>1277.0</ele>
        <time>2017-06-23T16:34:37Z</time>
      </trkpt>
      <trkpt lat="42.616579" lon="-3.616300">
        <ele>1276.0</ele>
        <time>2017-06-23T16:34:40Z</time>
      </trkpt>
      <trkpt lat="42.616497" lon="-3.616734">
        <ele>1275.0</ele>
        <time>2017-06-23T16:34:43Z</time>
      </trkpt>
      <trkpt lat="42.616515" lon="-3.617117">
        <ele>1276.0</ele>
        <time>2017-06-23T16:34:46Z</time>
      </trkpt>
      <trkpt lat="42.616515" lon="-3.617633">
        <ele>1276.0</ele>
        <time>2017-06-23T16:34:50Z</time>
      </trkpt>
      <trkpt lat="42.616631" lon="-3.617950">
        <ele>1274.0</ele>
        <time>2017-06-23T16:34:53Z</time>
      </trkpt>
      <trkpt lat="42.616784" lon="-3.618200">
        <ele>1272.0</ele>
        <time>2017-06-23T16:34:56Z</time>
      </trkpt>
      <trkpt lat="42.616965" lon="-3.618267">
        <ele>1277.0</ele>
        <time>2017-06-23T16:34:59Z</time>
      </trkpt>
      <trkpt lat="42.617081" lon="-3.618334">
        <ele>1278.0</ele>
        <time>2017-06-23T16:35:02Z</time>
      </trkpt>
      <trkpt lat="42.617215" lon="-3.618334">
        <ele>1276.0</ele>
        <time>2017-06-23T16:35:05Z</time>
      </trkpt>
      <trkpt lat="42.617198" lon="-3.618200">
        <ele>1277.0</ele>
        <time>2017-06-23T16:35:08Z</time>
      </trkpt>
      <trkpt lat="42.617215" lon="-3.618117">
        <ele>1280.0</ele>
        <time>2017-06-23T16:35:11Z</time>
      </trkpt>
      <trkpt lat="42.617163" lon="-3.618000">
        <ele>1284.0</ele>
        <time>2017-06-23T16:35:14Z</time>
      </trkpt>
      <trkpt lat="42.617116" lon="-3.617883">
        <ele>1285.0</ele>
        <time>2017-06-23T16:35:17Z</time>
      </trkpt>
      <trkpt lat="42.617129" lon="-3.617750">
        <ele>1288.0</ele>
        <time>2017-06-23T16:35:20Z</time>
      </trkpt>
      <trkpt lat="42.617129" lon="-3.617633">
        <ele>1289.0</ele>
        <time>2017-06-23T16:35:23Z</time>
      </trkpt>
      <trkpt lat="42.617163" lon="-3.617533">
        <ele>1288.0</ele>
        <time>2017-06-23T16:35:26Z</time>
      </trkpt>
      <trkpt lat="42.617249" lon="-3.617433">
        <ele>1288.0</ele>
        <time>2017-06-23T16:35:29Z</time>
      </trkpt>
      <trkpt lat="42.617396" lon="-3.617317">
        <ele>1287.0</ele>
        <time>2017-06-23T16:35:33Z</time>
      </trkpt>
      <trkpt lat="42.617601" lon="-3.617433">
        <ele>1288.0</ele>
        <time>2017-06-23T16:35:36Z</time>
      </trkpt>
      <trkpt lat="42.617764" lon="-3.617650">
        <ele>1290.0</ele>
        <time>2017-06-23T16:35:39Z</time>
      </trkpt>
      <trkpt lat="42.617898" lon="-3.618016">
        <ele>1291.0</ele>
        <time>2017-06-23T16:35:42Z</time>
      </trkpt>
      <trkpt lat="42.617932" lon="-3.618450">
        <ele>1294.0</ele>
        <time>2017-06-23T16:35:45Z</time>
      </trkpt>
      <trkpt lat="42.617867" lon="-3.618933">
        <ele>1298.0</ele>
        <time>2017-06-23T16:35:48Z</time>
      </trkpt>
      <trkpt lat="42.617700" lon="-3.619300">
        <ele>1310.0</ele>
        <time>2017-06-23T16:35:51Z</time>
      </trkpt>
      <trkpt lat="42.617549" lon="-3.619567">
        <ele>1312.0</ele>
        <time>2017-06-23T16:35:54Z</time>
      </trkpt>
      <trkpt lat="42.617314" lon="-3.619900">
        <ele>1317.0</ele>
        <time>2017-06-23T16:35:57Z</time>
      </trkpt>
      <trkpt lat="42.617064" lon="-3.620133">
        <ele>1319.0</ele>
        <time>2017-06-23T16:36:00Z</time>
      </trkpt>
      <trkpt lat="42.616730" lon="-3.620250">
        <ele>1326.0</ele>
        <time>2017-06-23T16:36:03Z</time>
      </trkpt>
      <trkpt lat="42.616532" lon="-3.620200">
        <ele>1334.0</ele>
        <time>2017-06-23T16:36:06Z</time>
      </trkpt>
      <trkpt lat="42.616415" lon="-3.620083">
        <ele>1336.0</ele>
        <time>2017-06-23T16:36:09Z</time>
      </trkpt>
      <trkpt lat="42.616415" lon="-3.619933">
        <ele>1339.0</ele>
        <time>2017-06-23T16:36:12Z</time>
      </trkpt>
      <trkpt lat="42.616579" lon="-3.619884">
        <ele>1340.0</ele>
        <time>2017-06-23T16:36:16Z</time>
      </trkpt>
      <trkpt lat="42.616764" lon="-3.619984">
        <ele>1343.0</ele>
        <time>2017-06-23T16:36:19Z</time>
      </trkpt>
      <trkpt lat="42.616965" lon="-3.620067">
        <ele>1349.0</ele>
        <time>2017-06-23T16:36:22Z</time>
      </trkpt>
      <trkpt lat="42.617163" lon="-3.620233">
        <ele>1358.0</ele>
        <time>2017-06-23T16:36:25Z</time>
      </trkpt>
      <trkpt lat="42.617283" lon="-3.620517">
        <ele>1367.0</ele>
        <time>2017-06-23T16:36:28Z</time>
      </trkpt>
      <trkpt lat="42.617382" lon="-3.620900">
        <ele>1374.0</ele>
        <time>2017-06-23T16:36:31Z</time>
      </trkpt>
      <trkpt lat="42.617416" lon="-3.621350">
        <ele>1381.0</ele>
        <time>2017-06-23T16:36:34Z</time>
      </trkpt>
      <trkpt lat="42.617331" lon="-3.621800">
        <ele>1389.0</ele>
        <time>2017-06-23T16:36:37Z</time>
      </trkpt>
      <trkpt lat="42.617232" lon="-3.622250">
        <ele>1395.0</ele>
        <time>2017-06-23T16:36:40Z</time>
      </trkpt>
      <trkpt lat="42.617030" lon="-3.622700">
        <ele>1403.0</ele>
        <time>2017-06-23T16:36:43Z</time>
      </trkpt>
      <trkpt lat="42.616798" lon="-3.623133">
        <ele>1406.0</ele>
        <time>2017-06-23T16:36:46Z</time>
      </trkpt>
      <trkpt lat="42.616600" lon="-3.623567">
        <ele>1405.0</ele>
        <time>2017-06-23T16:36:49Z</time>
      </trkpt>
      <trkpt lat="42.616180" lon="-3.624000">
        <ele>1408.0</ele>
        <time>2017-06-23T16:36:53Z</time>
      </trkpt>
      <trkpt lat="42.615883" lon="-3.624083">
        <ele>1412.0</ele>
        <time>2017-06-23T16:36:56Z</time>
      </trkpt>
      <trkpt lat="42.615616" lon="-3.624034">
        <ele>1413.0</ele>
        <time>2017-06-23T16:36:59Z</time>
      </trkpt>
      <trkpt lat="42.615483" lon="-3.623867">
        <ele>1416.0</ele>
        <time>2017-06-23T16:37:02Z</time>
      </trkpt>
      <trkpt lat="42.615432" lon="-3.623767">
        <ele>1421.0</ele>
        <time>2017-06-23T16:37:05Z</time>
      </trkpt>
      <trkpt lat="42.615432" lon="-3.623700">
        <ele>1420.0</ele>
        <time>2017-06-23T16:37:08Z</time>
      </trkpt>
      <trkpt lat="42.615497" lon="-3.623683">
        <ele>1423.0</ele>
        <time>2017-06-23T16:37:11Z</time>
      </trkpt>
      <trkpt lat="42.615596" lon="-3.623750">
        <ele>1425.0</ele>
        <time>2017-06-23T16:37:14Z</time>
      </trkpt>
      <trkpt lat="42.615729" lon="-3.623900">
        <ele>1426.0</ele>
        <time>2017-06-23T16:37:17Z</time>
      </trkpt>
      <trkpt lat="42.615883" lon="-3.624100">
        <ele>1428.0</ele>
        <time>2017-06-23T16:37:20Z</time>
      </trkpt>
      <trkpt lat="42.616067" lon="-3.624333">
        <ele>1432.0</ele>
        <time>2017-06-23T16:37:23Z</time>
      </trkpt>
      <trkpt lat="42.616214" lon="-3.624600">
        <ele>1435.0</ele>
        <time>2017-06-23T16:37:26Z</time>
      </trkpt>
      <trkpt lat="42.616364" lon="-3.624850">
        <ele>1439.0</ele>
        <time>2017-06-23T16:37:29Z</time>
      </trkpt>
      <trkpt lat="42.616480" lon="-3.625150">
        <ele>1440.0</ele>
        <time>2017-06-23T16:37:32Z</time>
      </trkpt>
      <trkpt lat="42.616497" lon="-3.625750">
        <ele>1440.0</ele>
        <time>2017-06-23T16:37:36Z</time>
      </trkpt>
      <trkpt lat="42.616381" lon="-3.626234">
        <ele>1441.0</ele>
        <time>2017-06-23T16:37:39Z</time>
      </trkpt>
      <trkpt lat="42.616200" lon="-3.626617">
        <ele>1443.0</ele>
        <time>2017-06-23T16:37:42Z</time>
      </trkpt>
      <trkpt lat="42.615968" lon="-3.626934">
        <ele>1439.0</ele>
        <time>2017-06-23T16:37:45Z</time>
      </trkpt>
      <trkpt lat="42.615651" lon="-3.627167">
        <ele>1436.0</ele>
        <time>2017-06-23T16:37:48Z</time>
      </trkpt>
      <trkpt lat="42.615333" lon="-3.627233">
        <ele>1433.0</ele>
        <time>2017-06-23T16:37:51Z</time>
      </trkpt>
      <trkpt lat="42.615066" lon="-3.627167">
        <ele>1430.0</ele>
        <time>2017-06-23T16:37:54Z</time>
      </trkpt>
      <trkpt lat="42.614882" lon="-3.627034">
        <ele>1432.0</ele>
        <time>2017-06-23T16:37:57Z</time>
      </trkpt>
      <trkpt lat="42.614800" lon="-3.626917">
        <ele>1428.0</ele>
        <time>2017-06-23T16:38:00Z</time>
      </trkpt>
      <trkpt lat="42.614831" lon="-3.626800">
        <ele>1425.0</ele>
        <time>2017-06-23T16:38:03Z</time>
      </trkpt>
      <trkpt lat="42.614882" lon="-3.626750">
        <ele>1422.0</ele>
        <time>2017-06-23T16:38:06Z</time>
      </trkpt>
      <trkpt lat="42.614964" lon="-3.626700">
        <ele>1423.0</ele>
        <time>2017-06-23T16:38:09Z</time>
      </trkpt>
      <trkpt lat="42.615046" lon="-3.626700">
        <ele>1420.0</ele>
        <time>2017-06-23T16:38:12Z</time>
      </trkpt>
      <trkpt lat="42.615200" lon="-3.626684">
        <ele>1420.0</ele>
        <time>2017-06-23T16:38:15Z</time>
      </trkpt>
      <trkpt lat="42.615299" lon="-3.626684">
        <ele>1422.0</ele>
        <time>2017-06-23T16:38:19Z</time>
      </trkpt>
      <trkpt lat="42.615384" lon="-3.626717">
        <ele>1421.0</ele>
        <time>2017-06-23T16:38:22Z</time>
      </trkpt>
      <trkpt lat="42.615517" lon="-3.626767">
        <ele>1422.0</ele>
        <time>2017-06-23T16:38:25Z</time>
      </trkpt>
      <trkpt lat="42.615664" lon="-3.626817">
        <ele>1419.0</ele>
        <time>2017-06-23T16:38:28Z</time>
      </trkpt>
      <trkpt lat="42.615832" lon="-3.626900">
        <ele>1420.0</ele>
        <time>2017-06-23T16:38:31Z</time>
      </trkpt>
      <trkpt lat="42.615968" lon="-3.626934">
        <ele>1420.0</ele>
        <time>2017-06-23T16:38:34Z</time>
      </trkpt>
      <trkpt lat="42.616132" lon="-3.626917">
        <ele>1420.0</ele>
        <time>2017-06-23T16:38:37Z</time>
      </trkpt>
      <trkpt lat="42.616282" lon="-3.626883">
        <ele>1421.0</ele>
        <time>2017-06-23T16:38:40Z</time>
      </trkpt>
      <trkpt lat="42.616415" lon="-3.626833">
        <ele>1417.0</ele>
        <time>2017-06-23T16:38:43Z</time>
      </trkpt>
      <trkpt lat="42.616545" lon="-3.626800">
        <ele>1419.0</ele>
        <time>2017-06-23T16:38:46Z</time>
      </trkpt>
      <trkpt lat="42.616678" lon="-3.626833">
        <ele>1415.0</ele>
        <time>2017-06-23T16:38:49Z</time>
      </trkpt>
      <trkpt lat="42.616849" lon="-3.626867">
        <ele>1412.0</ele>
        <time>2017-06-23T16:38:52Z</time>
      </trkpt>
      <trkpt lat="42.617017" lon="-3.626900">
        <ele>1405.0</ele>
        <time>2017-06-23T16:38:55Z</time>
      </trkpt>
      <trkpt lat="42.617180" lon="-3.626967">
        <ele>1399.0</ele>
        <time>2017-06-23T16:38:58Z</time>
      </trkpt>
      <trkpt lat="42.617416" lon="-3.626934">
        <ele>1395.0</ele>
        <time>2017-06-23T16:39:02Z</time>
      </trkpt>
      <trkpt lat="42.617549" lon="-3.626833">
        <ele>1389.0</ele>
        <time>2017-06-23T16:39:05Z</time>
      </trkpt>
      <trkpt lat="42.617682" lon="-3.626767">
        <ele>1385.0</ele>
        <time>2017-06-23T16:39:08Z</time>
      </trkpt>
      <trkpt lat="42.617812" lon="-3.626800">
        <ele>1380.0</ele>
        <time>2017-06-23T16:39:11Z</time>
      </trkpt>
      <trkpt lat="42.617945" lon="-3.626950">
        <ele>1374.0</ele>
        <time>2017-06-23T16:39:14Z</time>
      </trkpt>
      <trkpt lat="42.618031" lon="-3.627283">
        <ele>1368.0</ele>
        <time>2017-06-23T16:39:17Z</time>
      </trkpt>
      <trkpt lat="42.618099" lon="-3.627683">
        <ele>1363.0</ele>
        <time>2017-06-23T16:39:20Z</time>
      </trkpt>
      <trkpt lat="42.618130" lon="-3.628083">
        <ele>1360.0</ele>
        <time>2017-06-23T16:39:23Z</time>
      </trkpt>
      <trkpt lat="42.618198" lon="-3.628467">
        <ele>1355.0</ele>
        <time>2017-06-23T16:39:26Z</time>
      </trkpt>
      <trkpt lat="42.618263" lon="-3.628833">
        <ele>1351.0</ele>
        <time>2017-06-23T16:39:29Z</time>
      </trkpt>
      <trkpt lat="42.618263" lon="-3.629217">
        <ele>1347.0</ele>
        <time>2017-06-23T16:39:32Z</time>
      </trkpt>
      <trkpt lat="42.618113" lon="-3.629617">
        <ele>1341.0</ele>
        <time>2017-06-23T16:39:35Z</time>
      </trkpt>
      <trkpt lat="42.617898" lon="-3.629983">
        <ele>1335.0</ele>
        <time>2017-06-23T16:39:38Z</time>
      </trkpt>
      <trkpt lat="42.617580" lon="-3.630500">
        <ele>1331.0</ele>
        <time>2017-06-23T16:39:42Z</time>
      </trkpt>
      <trkpt lat="42.617348" lon="-3.630900">
        <ele>1327.0</ele>
        <time>2017-06-23T16:39:45Z</time>
      </trkpt>
      <trkpt lat="42.617129" lon="-3.631333">
        <ele>1324.0</ele>
        <time>2017-06-23T16:39:48Z</time>
      </trkpt>
      <trkpt lat="42.616931" lon="-3.631750">
        <ele>1323.0</ele>
        <time>2017-06-23T16:39:51Z</time>
      </trkpt>
      <trkpt lat="42.616730" lon="-3.632134">
        <ele>1321.0</ele>
        <time>2017-06-23T16:39:54Z</time>
      </trkpt>
      <trkpt lat="42.616545" lon="-3.632534">
        <ele>1323.0</ele>
        <time>2017-06-23T16:39:57Z</time>
      </trkpt>
      <trkpt lat="42.616415" lon="-3.632900">
        <ele>1323.0</ele>
        <time>2017-06-23T16:40:00Z</time>
      </trkpt>
      <trkpt lat="42.616334" lon="-3.633300">
        <ele>1323.0</ele>
        <time>2017-06-23T16:40:03Z</time>
      </trkpt>
      <trkpt lat="42.616265" lon="-3.633650">
        <ele>1323.0</ele>
        <time>2017-06-23T16:40:06Z</time>
      </trkpt>
      <trkpt lat="42.616231" lon="-3.634033">
        <ele>1322.0</ele>
        <time>2017-06-23T16:40:09Z</time>
      </trkpt>
      <trkpt lat="42.616200" lon="-3.634400">
        <ele>1319.0</ele>
        <time>2017-06-23T16:40:12Z</time>
      </trkpt>
      <trkpt lat="42.616101" lon="-3.634817">
        <ele>1317.0</ele>
        <time>2017-06-23T16:40:15Z</time>
      </trkpt>
      <trkpt lat="42.616214" lon="-3.635066">
        <ele>1316.0</ele>
        <time>2017-06-23T16:40:18Z</time>
      </trkpt>
      <trkpt lat="42.616381" lon="-3.635200">
        <ele>1314.0</ele>
        <time>2017-06-23T16:40:21Z</time>
      </trkpt>
      <trkpt lat="42.616515" lon="-3.635300">
        <ele>1300.0</ele>
        <time>2017-06-23T16:40:24Z</time>
      </trkpt>
      <trkpt lat="42.616750" lon="-3.635150">
        <ele>1301.0</ele>
        <time>2017-06-23T16:40:28Z</time>
      </trkpt>
      <trkpt lat="42.616849" lon="-3.635016">
        <ele>1300.0</ele>
        <time>2017-06-23T16:40:31Z</time>
      </trkpt>
      <trkpt lat="42.616918" lon="-3.634833">
        <ele>1300.0</ele>
        <time>2017-06-23T16:40:34Z</time>
      </trkpt>
      <trkpt lat="42.616996" lon="-3.634683">
        <ele>1299.0</ele>
        <time>2017-06-23T16:40:37Z</time>
      </trkpt>
      <trkpt lat="42.617116" lon="-3.634517">
        <ele>1297.0</ele>
        <time>2017-06-23T16:40:40Z</time>
      </trkpt>
      <trkpt lat="42.617215" lon="-3.634366">
        <ele>1298.0</ele>
        <time>2017-06-23T16:40:43Z</time>
      </trkpt>
      <trkpt lat="42.617262" lon="-3.634216">
        <ele>1299.0</ele>
        <time>2017-06-23T16:40:46Z</time>
      </trkpt>
      <trkpt lat="42.617365" lon="-3.634050">
        <ele>1299.0</ele>
        <time>2017-06-23T16:40:49Z</time>
      </trkpt>
      <trkpt lat="42.617447" lon="-3.633900">
        <ele>1299.0</ele>
        <time>2017-06-23T16:40:52Z</time>
      </trkpt>
      <trkpt lat="42.617529" lon="-3.633767">
        <ele>1299.0</ele>
        <time>2017-06-23T16:40:55Z</time>
      </trkpt>
      <trkpt lat="42.617648" lon="-3.633667">
        <ele>1297.0</ele>
        <time>2017-06-23T16:40:58Z</time>
      </trkpt>
      <trkpt lat="42.617799" lon="-3.633550">
        <ele>1294.0</ele>
        <time>2017-06-23T16:41:01Z</time>
      </trkpt>
      <trkpt lat="42.617945" lon="-3.633300">
        <ele>1295.0</ele>
        <time>2017-06-23T16:41:05Z</time>
      </trkpt>
      <trkpt lat="42.618048" lon="-3.633183">
        <ele>1293.0</ele>
        <time>2017-06-23T16:41:08Z</time>
      </trkpt>
      <trkpt lat="42.618198" lon="-3.633083">
        <ele>1293.0</ele>
        <time>2017-06-23T16:41:11Z</time>
      </trkpt>
      <trkpt lat="42.618331" lon="-3.633000">
        <ele>1291.0</ele>
        <time>2017-06-23T16:41:14Z</time>
      </trkpt>
      <trkpt lat="42.618499" lon="-3.632900">
        <ele>1287.0</ele>
        <time>2017-06-23T16:41:17Z</time>
      </trkpt>
      <trkpt lat="42.618632" lon="-3.632750">
        <ele>1287.0</ele>
        <time>2017-06-23T16:41:20Z</time>
      </trkpt>
      <trkpt lat="42.618748" lon="-3.632667">
        <ele>1284.0</ele>
        <time>2017-06-23T16:41:23Z</time>
      </trkpt>
      <trkpt lat="42.618915" lon="-3.632600">
        <ele>1283.0</ele>
        <time>2017-06-23T16:41:26Z</time>
      </trkpt>
      <trkpt lat="42.619066" lon="-3.632517">
        <ele>1281.0</ele>
        <time>2017-06-23T16:41:29Z</time>
      </trkpt>
      <trkpt lat="42.619212" lon="-3.632417">
        <ele>1281.0</ele>
        <time>2017-06-23T16:41:32Z</time>
      </trkpt>
      <trkpt lat="42.619346" lon="-3.632317">
        <ele>1279.0</ele>
        <time>2017-06-23T16:41:35Z</time>
      </trkpt>
      <trkpt lat="42.619499" lon="-3.632200">
        <ele>1279.0</ele>
        <time>2017-06-23T16:41:38Z</time>
      </trkpt>
      <trkpt lat="42.619646" lon="-3.632083">
        <ele>1276.0</ele>
        <time>2017-06-23T16:41:41Z</time>
      </trkpt>
      <trkpt lat="42.619831" lon="-3.631967">
        <ele>1276.0</ele>
        <time>2017-06-23T16:41:44Z</time>
      </trkpt>
      <trkpt lat="42.620032" lon="-3.631834">
        <ele>1274.0</ele>
        <time>2017-06-23T16:41:48Z</time>
      </trkpt>
      <trkpt lat="42.620148" lon="-3.631733">
        <ele>1273.0</ele>
        <time>2017-06-23T16:41:51Z</time>
      </trkpt>
      <trkpt lat="42.620230" lon="-3.631567">
        <ele>1273.0</ele>
        <time>2017-06-23T16:41:54Z</time>
      </trkpt>
      <trkpt lat="42.620315" lon="-3.631450">
        <ele>1271.0</ele>
        <time>2017-06-23T16:41:57Z</time>
      </trkpt>
      <trkpt lat="42.620415" lon="-3.631350">
        <ele>1269.0</ele>
        <time>2017-06-23T16:42:00Z</time>
      </trkpt>
      <trkpt lat="42.620534" lon="-3.631267">
        <ele>1268.0</ele>
        <time>2017-06-23T16:42:03Z</time>
      </trkpt>
      <trkpt lat="42.620681" lon="-3.631183">
        <ele>1269.0</ele>
        <time>2017-06-23T16:42:06Z</time>
      </trkpt>
      <trkpt lat="42.620780" lon="-3.631100">
        <ele>1270.0</ele>
        <time>2017-06-23T16:42:09Z</time>
      </trkpt>
      <trkpt lat="42.620900" lon="-3.631050">
        <ele>1268.0</ele>
        <time>2017-06-23T16:42:12Z</time>
      </trkpt>
      <trkpt lat="42.621012" lon="-3.630967">
        <ele>1265.0</ele>
        <time>2017-06-23T16:42:15Z</time>
      </trkpt>
      <trkpt lat="42.621132" lon="-3.630850">
        <ele>1265.0</ele>
        <time>2017-06-23T16:42:18Z</time>
      </trkpt>
      <trkpt lat="42.621231" lon="-3.630734">
        <ele>1261.0</ele>
        <time>2017-06-23T16:42:21Z</time>
      </trkpt>
      <trkpt lat="42.621350" lon="-3.630600">
        <ele>1260.0</ele>
        <time>2017-06-23T16:42:24Z</time>
      </trkpt>
      <trkpt lat="42.621463" lon="-3.630550">
        <ele>1260.0</ele>
        <time>2017-06-23T16:42:27Z</time>
      </trkpt>
      <trkpt lat="42.621682" lon="-3.630533">
        <ele>1261.0</ele>
        <time>2017-06-23T16:42:31Z</time>
      </trkpt>
      <trkpt lat="42.621798" lon="-3.630517">
        <ele>1263.0</ele>
        <time>2017-06-23T16:42:34Z</time>
      </trkpt>
      <trkpt lat="42.621914" lon="-3.630584">
        <ele>1262.0</ele>
        <time>2017-06-23T16:42:37Z</time>
      </trkpt>
      <trkpt lat="42.622067" lon="-3.630617">
        <ele>1262.0</ele>
        <time>2017-06-23T16:42:40Z</time>
      </trkpt>
      <trkpt lat="42.622201" lon="-3.630584">
        <ele>1262.0</ele>
        <time>2017-06-23T16:42:43Z</time>
      </trkpt>
      <trkpt lat="42.622330" lon="-3.630533">
        <ele>1261.0</ele>
        <time>2017-06-23T16:42:46Z</time>
      </trkpt>
      <trkpt lat="42.622433" lon="-3.630467">
        <ele>1262.0</ele>
        <time>2017-06-23T16:42:49Z</time>
      </trkpt>
      <trkpt lat="42.622546" lon="-3.630433">
        <ele>1259.0</ele>
        <time>2017-06-23T16:42:52Z</time>
      </trkpt>
      <trkpt lat="42.622679" lon="-3.630400">
        <ele>1254.0</ele>
        <time>2017-06-23T16:42:55Z</time>
      </trkpt>
      <trkpt lat="42.622832" lon="-3.630334">
        <ele>1253.0</ele>
        <time>2017-06-23T16:42:58Z</time>
      </trkpt>
      <trkpt lat="42.622949" lon="-3.630250">
        <ele>1252.0</ele>
        <time>2017-06-23T16:43:01Z</time>
      </trkpt>
      <trkpt lat="42.623048" lon="-3.630217">
        <ele>1249.0</ele>
        <time>2017-06-23T16:43:04Z</time>
      </trkpt>
      <trkpt lat="42.623164" lon="-3.630100">
        <ele>1244.0</ele>
        <time>2017-06-23T16:43:07Z</time>
      </trkpt>
      <trkpt lat="42.623331" lon="-3.629967">
        <ele>1242.0</ele>
        <time>2017-06-23T16:43:11Z</time>
      </trkpt>
      <trkpt lat="42.623481" lon="-3.629900">
        <ele>1238.0</ele>
        <time>2017-06-23T16:43:14Z</time>
      </trkpt>
      <trkpt lat="42.623632" lon="-3.629783">
        <ele>1234.0</ele>
        <time>2017-06-23T16:43:17Z</time>
      </trkpt>
      <trkpt lat="42.623765" lon="-3.629683">
        <ele>1233.0</ele>
        <time>2017-06-23T16:43:20Z</time>
      </trkpt>
      <trkpt lat="42.623847" lon="-3.629567">
        <ele>1229.0</ele>
        <time>2017-06-23T16:43:23Z</time>
      </trkpt>
      <trkpt lat="42.623946" lon="-3.629417">
        <ele>1222.0</ele>
        <time>2017-06-23T16:43:26Z</time>
      </trkpt>
      <trkpt lat="42.624045" lon="-3.629183">
        <ele>1219.0</ele>
        <time>2017-06-23T16:43:29Z</time>
      </trkpt>
      <trkpt lat="42.624113" lon="-3.629084">
        <ele>1217.0</ele>
        <time>2017-06-23T16:43:32Z</time>
      </trkpt>
      <trkpt lat="42.624212" lon="-3.628917">
        <ele>1210.0</ele>
        <time>2017-06-23T16:43:35Z</time>
      </trkpt>
      <trkpt lat="42.624284" lon="-3.628800">
        <ele>1208.0</ele>
        <time>2017-06-23T16:43:38Z</time>
      </trkpt>
      <trkpt lat="42.624332" lon="-3.628684">
        <ele>1203.0</ele>
        <time>2017-06-23T16:43:41Z</time>
      </trkpt>
      <trkpt lat="42.624417" lon="-3.628550">
        <ele>1199.0</ele>
        <time>2017-06-23T16:43:44Z</time>
      </trkpt>
      <trkpt lat="42.624465" lon="-3.628433">
        <ele>1193.0</ele>
        <time>2017-06-23T16:43:47Z</time>
      </trkpt>
      <trkpt lat="42.624550" lon="-3.628317">
        <ele>1188.0</ele>
        <time>2017-06-23T16:43:50Z</time>
      </trkpt>
      <trkpt lat="42.624615" lon="-3.628250">
        <ele>1183.0</ele>
        <time>2017-06-23T16:43:53Z</time>
      </trkpt>
      <trkpt lat="42.624697" lon="-3.628067">
        <ele>1176.0</ele>
        <time>2017-06-23T16:43:57Z</time>
      </trkpt>
      <trkpt lat="42.624731" lon="-3.627833">
        <ele>1169.0</ele>
        <time>2017-06-23T16:44:00Z</time>
      </trkpt>
      <trkpt lat="42.624748" lon="-3.627600">
        <ele>1164.0</ele>
        <time>2017-06-23T16:44:03Z</time>
      </trkpt>
      <trkpt lat="42.624782" lon="-3.627417">
        <ele>1153.0</ele>
        <time>2017-06-23T16:44:06Z</time>
      </trkpt>
      <trkpt lat="42.624847" lon="-3.627134">
        <ele>1145.0</ele>
        <time>2017-06-23T16:44:09Z</time>
      </trkpt>
      <trkpt lat="42.624868" lon="-3.626883">
        <ele>1139.0</ele>
        <time>2017-06-23T16:44:12Z</time>
      </trkpt>
      <trkpt lat="42.624895" lon="-3.626633">
        <ele>1129.0</ele>
        <time>2017-06-23T16:44:15Z</time>
      </trkpt>
      <trkpt lat="42.624929" lon="-3.626367">
        <ele>1122.0</ele>
        <time>2017-06-23T16:44:18Z</time>
      </trkpt>
      <trkpt lat="42.624929" lon="-3.626150">
        <ele>1114.0</ele>
        <time>2017-06-23T16:44:21Z</time>
      </trkpt>
      <trkpt lat="42.624967" lon="-3.625917">
        <ele>1107.0</ele>
        <time>2017-06-23T16:44:24Z</time>
      </trkpt>
      <trkpt lat="42.625001" lon="-3.625667">
        <ele>1101.0</ele>
        <time>2017-06-23T16:44:27Z</time>
      </trkpt>
      <trkpt lat="42.625032" lon="-3.625400">
        <ele>1095.0</ele>
        <time>2017-06-23T16:44:30Z</time>
      </trkpt>
      <trkpt lat="42.625066" lon="-3.625084">
        <ele>1096.0</ele>
        <time>2017-06-23T16:44:33Z</time>
      </trkpt>
      <trkpt lat="42.625080" lon="-3.624784">
        <ele>1095.0</ele>
        <time>2017-06-23T16:44:37Z</time>
      </trkpt>
      <trkpt lat="42.625148" lon="-3.624567">
        <ele>1094.0</ele>
        <time>2017-06-23T16:44:40Z</time>
      </trkpt>
      <trkpt lat="42.625213" lon="-3.624434">
        <ele>1098.0</ele>
        <time>2017-06-23T16:44:43Z</time>
      </trkpt>
      <trkpt lat="42.625213" lon="-3.624316">
        <ele>1095.0</ele>
        <time>2017-06-23T16:44:46Z</time>
      </trkpt>
      <trkpt lat="42.625298" lon="-3.624233">
        <ele>1093.0</ele>
        <time>2017-06-23T16:44:49Z</time>
      </trkpt>
      <trkpt lat="42.625346" lon="-3.624200">
        <ele>1091.0</ele>
        <time>2017-06-23T16:44:52Z</time>
      </trkpt>
      <trkpt lat="42.625431" lon="-3.624150">
        <ele>1087.0</ele>
        <time>2017-06-23T16:44:55Z</time>
      </trkpt>
      <trkpt lat="42.625466" lon="-3.624000">
        <ele>1085.0</ele>
        <time>2017-06-23T16:44:58Z</time>
      </trkpt>
      <trkpt lat="42.625513" lon="-3.623884">
        <ele>1076.0</ele>
        <time>2017-06-23T16:45:01Z</time>
      </trkpt>
      <trkpt lat="42.625599" lon="-3.623800">
        <ele>1075.0</ele>
        <time>2017-06-23T16:45:04Z</time>
      </trkpt>
      <trkpt lat="42.625646" lon="-3.623667">
        <ele>1073.0</ele>
        <time>2017-06-23T16:45:07Z</time>
      </trkpt>
      <trkpt lat="42.625711" lon="-3.623550">
        <ele>1069.0</ele>
        <time>2017-06-23T16:45:10Z</time>
      </trkpt>
      <trkpt lat="42.625766" lon="-3.623450">
        <ele>1064.0</ele>
        <time>2017-06-23T16:45:13Z</time>
      </trkpt>
      <trkpt lat="42.625831" lon="-3.623350">
        <ele>1057.0</ele>
        <time>2017-06-23T16:45:17Z</time>
      </trkpt>
      <trkpt lat="42.625882" lon="-3.623317">
        <ele>1051.0</ele>
        <time>2017-06-23T16:45:20Z</time>
      </trkpt>
      <trkpt lat="42.625916" lon="-3.623267">
        <ele>1047.0</ele>
        <time>2017-06-23T16:45:23Z</time>
      </trkpt>
      <trkpt lat="42.625950" lon="-3.623184">
        <ele>1039.0</ele>
        <time>2017-06-23T16:45:26Z</time>
      </trkpt>
      <trkpt lat="42.625998" lon="-3.623067">
        <ele>1038.0</ele>
        <time>2017-06-23T16:45:29Z</time>
      </trkpt>
      <trkpt lat="42.625950" lon="-3.623000">
        <ele>1034.0</ele>
        <time>2017-06-23T16:45:32Z</time>
      </trkpt>
      <trkpt lat="42.625950" lon="-3.622967">
        <ele>1028.0</ele>
        <time>2017-06-23T16:45:35Z</time>
      </trkpt>
      <trkpt lat="42.625981" lon="-3.622950">
        <ele>1023.0</ele>
        <time>2017-06-23T16:45:38Z</time>
      </trkpt>
      <trkpt lat="42.625998" lon="-3.622833">
        <ele>1018.0</ele>
        <time>2017-06-23T16:45:41Z</time>
      </trkpt>
      <trkpt lat="42.626029" lon="-3.622784">
        <ele>1012.0</ele>
        <time>2017-06-23T16:45:44Z</time>
      </trkpt>
      <trkpt lat="42.626063" lon="-3.622750">
        <ele>1006.0</ele>
        <time>2017-06-23T16:45:47Z</time>
      </trkpt>
      <trkpt lat="42.626114" lon="-3.622700">
        <ele>1002.0</ele>
        <time>2017-06-23T16:45:50Z</time>
      </trkpt>
      <trkpt lat="42.626183" lon="-3.622684">
        <ele>996.0</ele>
        <time>2017-06-23T16:45:53Z</time>
      </trkpt>
      <trkpt lat="42.626248" lon="-3.622667">
        <ele>992.0</ele>
        <time>2017-06-23T16:45:56Z</time>
      </trkpt>
      <trkpt lat="42.626347" lon="-3.622633">
        <ele>988.0</ele>
        <time>2017-06-23T16:46:00Z</time>
      </trkpt>
      <trkpt lat="42.626429" lon="-3.622617">
        <ele>987.0</ele>
        <time>2017-06-23T16:46:03Z</time>
      </trkpt>
      <trkpt lat="42.626466" lon="-3.622617">
        <ele>985.0</ele>
        <time>2017-06-23T16:46:06Z</time>
      </trkpt>
      <trkpt lat="42.626531" lon="-3.622633">
        <ele>982.0</ele>
        <time>2017-06-23T16:46:09Z</time>
      </trkpt>
      <trkpt lat="42.626565" lon="-3.622600">
        <ele>980.0</ele>
        <time>2017-06-23T16:46:12Z</time>
      </trkpt>
      <trkpt lat="42.626514" lon="-3.622567">
        <ele>979.0</ele>
        <time>2017-06-23T16:46:15Z</time>
      </trkpt>
      <trkpt lat="42.626500" lon="-3.622533">
        <ele>978.0</ele>
        <time>2017-06-23T16:46:18Z</time>
      </trkpt>
      <trkpt lat="42.626500" lon="-3.622567">
        <ele>977.0</ele>
        <time>2017-06-23T16:46:21Z</time>
      </trkpt>
      <trkpt lat="42.626480" lon="-3.622583">
        <ele>977.0</ele>
        <time>2017-06-23T16:46:24Z</time>
      </trkpt>
      <trkpt lat="42.626480" lon="-3.622583">
        <ele>976.0</ele>
        <time>2017-06-23T16:46:27Z</time>
      </trkpt>
      <trkpt lat="42.626480" lon="-3.622583">
        <ele>976.0</ele>
        <time>2017-06-23T16:46:30Z</time>
      </trkpt>
      <trkpt lat="42.626480" lon="-3.622600">
        <ele>976.0</ele>
        <time>2017-06-23T16:46:33Z</time>
      </trkpt>
      <trkpt lat="42.626480" lon="-3.622600">
        <ele>976.0</ele>
        <time>2017-06-23T16:46:36Z</time>
      </trkpt>
      <trkpt lat="42.626480" lon="-3.622600">
        <ele>976.0</ele>
        <time>2017-06-23T16:46:39Z</time>
      </trkpt>
      <trkpt lat="42.626480" lon="-3.622583">
        <ele>976.0</ele>
        <time>2017-06-23T16:46:43Z</time>
      </trkpt>
      <trkpt lat="42.626480" lon="-3.622583">
        <ele>976.0</ele>
        <time>2017-06-23T16:46:46Z</time>
      </trkpt>
      <trkpt lat="42.626480" lon="-3.622583">
        <ele>976.0</ele>
        <time>2017-06-23T16:46:49Z</time>
      </trkpt>
      <trkpt lat="42.626500" lon="-3.622583">
        <ele>976.0</ele>
        <time>2017-06-23T16:46:52Z</time>
      </trkpt>
      <trkpt lat="42.626500" lon="-3.622600">
        <ele>976.0</ele>
        <time>2017-06-23T16:46:55Z</time>
      </trkpt>
      <trkpt lat="42.626500" lon="-3.622600">
        <ele>976.0</ele>
        <time>2017-06-23T16:46:58Z</time>
      </trkpt>
      <trkpt lat="42.626500" lon="-3.622600">
        <ele>976.0</ele>
        <time>2017-06-23T16:47:01Z</time>
      </trkpt>
      <trkpt lat="42.626500" lon="-3.622600">
        <ele>976.0</ele>
        <time>2017-06-23T16:47:04Z</time>
      </trkpt>
    </trkseg>
  </trk>
</gpx>
